<?xml version="1.0" encoding="UTF-8" standalone="no" ?>
<gpx xmlns="http://www.topografix.com/GPX/1/1" xmlns:xsi="http://www.w3.org/2001/XMLSchema-instance" xsi:schemaLocation="http://www.topografix.com/GPX/1/1 http://www.topografix.com/GPX/1/1/gpx.xsd" version="1.1" creator="VisuGPX - https://www.visugpx.com">
  <metadata>
    <name>GR20 10-15/09/2016 Jour1</name>
    <desc><![CDATA[1ère étape : Col de Vizzavona -> Bergerie de l'Onda]]></desc>
  </metadata>
  <trk>
    <name><![CDATA[10-SEP-16 02:50:48 PM]]></name>
    <trkseg>
      <trkpt lat="42.11338" lon="9.11838">
        <ele>1089.79</ele>
        <time>2016-09-10T05:08:36Z</time>
      </trkpt>
      <trkpt lat="42.11338" lon="9.11838">
        <ele>1089.79</ele>
        <time>2016-09-10T05:08:42Z</time>
      </trkpt>
      <trkpt lat="42.11336" lon="9.11831">
        <ele>1089.31</ele>
        <time>2016-09-10T05:08:48Z</time>
      </trkpt>
      <trkpt lat="42.11335" lon="9.11825">
        <ele>1090.75</ele>
        <time>2016-09-10T05:08:55Z</time>
      </trkpt>
      <trkpt lat="42.11331" lon="9.11817">
        <ele>1090.75</ele>
        <time>2016-09-10T05:09:00Z</time>
      </trkpt>
      <trkpt lat="42.11327" lon="9.11805">
        <ele>1091.23</ele>
        <time>2016-09-10T05:09:04Z</time>
      </trkpt>
      <trkpt lat="42.11324" lon="9.11796">
        <ele>1090.27</ele>
        <time>2016-09-10T05:09:11Z</time>
      </trkpt>
      <trkpt lat="42.11322" lon="9.11786">
        <ele>1090.27</ele>
        <time>2016-09-10T05:09:17Z</time>
      </trkpt>
      <trkpt lat="42.1132" lon="9.11776">
        <ele>1090.75</ele>
        <time>2016-09-10T05:09:23Z</time>
      </trkpt>
      <trkpt lat="42.11314" lon="9.11766">
        <ele>1091.23</ele>
        <time>2016-09-10T05:09:30Z</time>
      </trkpt>
      <trkpt lat="42.11309" lon="9.11757">
        <ele>1091.23</ele>
        <time>2016-09-10T05:09:37Z</time>
      </trkpt>
      <trkpt lat="42.11307" lon="9.11752">
        <ele>1091.23</ele>
        <time>2016-09-10T05:09:44Z</time>
      </trkpt>
      <trkpt lat="42.11302" lon="9.11739">
        <ele>1091.23</ele>
        <time>2016-09-10T05:09:54Z</time>
      </trkpt>
      <trkpt lat="42.11299" lon="9.1173">
        <ele>1092.2</ele>
        <time>2016-09-10T05:10:03Z</time>
      </trkpt>
      <trkpt lat="42.11296" lon="9.11718">
        <ele>1092.2</ele>
        <time>2016-09-10T05:10:11Z</time>
      </trkpt>
      <trkpt lat="42.11289" lon="9.11705">
        <ele>1092.68</ele>
        <time>2016-09-10T05:10:21Z</time>
      </trkpt>
      <trkpt lat="42.11283" lon="9.11695">
        <ele>1093.64</ele>
        <time>2016-09-10T05:10:29Z</time>
      </trkpt>
      <trkpt lat="42.11281" lon="9.11682">
        <ele>1094.6</ele>
        <time>2016-09-10T05:10:39Z</time>
      </trkpt>
      <trkpt lat="42.11279" lon="9.11673">
        <ele>1095.08</ele>
        <time>2016-09-10T05:10:47Z</time>
      </trkpt>
      <trkpt lat="42.11273" lon="9.11661">
        <ele>1095.08</ele>
        <time>2016-09-10T05:10:57Z</time>
      </trkpt>
      <trkpt lat="42.11269" lon="9.11651">
        <ele>1096.04</ele>
        <time>2016-09-10T05:11:05Z</time>
      </trkpt>
      <trkpt lat="42.11265" lon="9.11641">
        <ele>1096.52</ele>
        <time>2016-09-10T05:11:12Z</time>
      </trkpt>
      <trkpt lat="42.11262" lon="9.11635">
        <ele>1097</ele>
        <time>2016-09-10T05:11:18Z</time>
      </trkpt>
      <trkpt lat="42.11259" lon="9.11627">
        <ele>1097.48</ele>
        <time>2016-09-10T05:11:26Z</time>
      </trkpt>
      <trkpt lat="42.11257" lon="9.11617">
        <ele>1097.96</ele>
        <time>2016-09-10T05:11:33Z</time>
      </trkpt>
      <trkpt lat="42.11254" lon="9.11609">
        <ele>1098.92</ele>
        <time>2016-09-10T05:11:42Z</time>
      </trkpt>
      <trkpt lat="42.11253" lon="9.11604">
        <ele>1100.37</ele>
        <time>2016-09-10T05:11:51Z</time>
      </trkpt>
      <trkpt lat="42.11252" lon="9.11601">
        <ele>1100.85</ele>
        <time>2016-09-10T05:11:58Z</time>
      </trkpt>
      <trkpt lat="42.11245" lon="9.11585">
        <ele>1101.81</ele>
        <time>2016-09-10T05:12:08Z</time>
      </trkpt>
      <trkpt lat="42.11241" lon="9.11575">
        <ele>1103.25</ele>
        <time>2016-09-10T05:12:18Z</time>
      </trkpt>
      <trkpt lat="42.11238" lon="9.11565">
        <ele>1103.73</ele>
        <time>2016-09-10T05:12:27Z</time>
      </trkpt>
      <trkpt lat="42.11237" lon="9.11552">
        <ele>1104.69</ele>
        <time>2016-09-10T05:12:35Z</time>
      </trkpt>
      <trkpt lat="42.11236" lon="9.11546">
        <ele>1105.65</ele>
        <time>2016-09-10T05:12:45Z</time>
      </trkpt>
      <trkpt lat="42.11235" lon="9.1154">
        <ele>1106.61</ele>
        <time>2016-09-10T05:12:56Z</time>
      </trkpt>
      <trkpt lat="42.11234" lon="9.11533">
        <ele>1107.58</ele>
        <time>2016-09-10T05:13:04Z</time>
      </trkpt>
      <trkpt lat="42.11236" lon="9.11525">
        <ele>1108.06</ele>
        <time>2016-09-10T05:13:12Z</time>
      </trkpt>
      <trkpt lat="42.11235" lon="9.11515">
        <ele>1108.54</ele>
        <time>2016-09-10T05:13:21Z</time>
      </trkpt>
      <trkpt lat="42.1123" lon="9.11499">
        <ele>1109.02</ele>
        <time>2016-09-10T05:13:29Z</time>
      </trkpt>
      <trkpt lat="42.11227" lon="9.11485">
        <ele>1109.5</ele>
        <time>2016-09-10T05:13:35Z</time>
      </trkpt>
      <trkpt lat="42.11226" lon="9.11456">
        <ele>1109.98</ele>
        <time>2016-09-10T05:13:43Z</time>
      </trkpt>
      <trkpt lat="42.11226" lon="9.11449">
        <ele>1109.98</ele>
        <time>2016-09-10T05:13:46Z</time>
      </trkpt>
      <trkpt lat="42.11231" lon="9.11438">
        <ele>1110.46</ele>
        <time>2016-09-10T05:13:55Z</time>
      </trkpt>
      <trkpt lat="42.11233" lon="9.11427">
        <ele>1110.46</ele>
        <time>2016-09-10T05:14:03Z</time>
      </trkpt>
      <trkpt lat="42.11233" lon="9.11419">
        <ele>1110.46</ele>
        <time>2016-09-10T05:14:10Z</time>
      </trkpt>
      <trkpt lat="42.11235" lon="9.11406">
        <ele>1110.94</ele>
        <time>2016-09-10T05:14:20Z</time>
      </trkpt>
      <trkpt lat="42.11237" lon="9.11397">
        <ele>1110.46</ele>
        <time>2016-09-10T05:14:28Z</time>
      </trkpt>
      <trkpt lat="42.11238" lon="9.11386">
        <ele>1110.94</ele>
        <time>2016-09-10T05:14:37Z</time>
      </trkpt>
      <trkpt lat="42.11239" lon="9.11375">
        <ele>1111.42</ele>
        <time>2016-09-10T05:14:45Z</time>
      </trkpt>
      <trkpt lat="42.11239" lon="9.11366">
        <ele>1111.9</ele>
        <time>2016-09-10T05:14:52Z</time>
      </trkpt>
      <trkpt lat="42.11239" lon="9.11362">
        <ele>1112.38</ele>
        <time>2016-09-10T05:14:55Z</time>
      </trkpt>
      <trkpt lat="42.11238" lon="9.11355">
        <ele>1112.38</ele>
        <time>2016-09-10T05:15:01Z</time>
      </trkpt>
      <trkpt lat="42.11238" lon="9.11349">
        <ele>1112.38</ele>
        <time>2016-09-10T05:15:05Z</time>
      </trkpt>
      <trkpt lat="42.11237" lon="9.11336">
        <ele>1113.34</ele>
        <time>2016-09-10T05:15:14Z</time>
      </trkpt>
      <trkpt lat="42.11235" lon="9.11325">
        <ele>1113.34</ele>
        <time>2016-09-10T05:15:22Z</time>
      </trkpt>
      <trkpt lat="42.11234" lon="9.11312">
        <ele>1113.82</ele>
        <time>2016-09-10T05:15:31Z</time>
      </trkpt>
      <trkpt lat="42.11231" lon="9.11301">
        <ele>1114.79</ele>
        <time>2016-09-10T05:15:39Z</time>
      </trkpt>
      <trkpt lat="42.1123" lon="9.11292">
        <ele>1114.79</ele>
        <time>2016-09-10T05:15:45Z</time>
      </trkpt>
      <trkpt lat="42.11229" lon="9.11282">
        <ele>1114.79</ele>
        <time>2016-09-10T05:15:52Z</time>
      </trkpt>
      <trkpt lat="42.11229" lon="9.11273">
        <ele>1115.27</ele>
        <time>2016-09-10T05:16:00Z</time>
      </trkpt>
      <trkpt lat="42.1123" lon="9.11266">
        <ele>1115.75</ele>
        <time>2016-09-10T05:16:07Z</time>
      </trkpt>
      <trkpt lat="42.11238" lon="9.11259">
        <ele>1116.71</ele>
        <time>2016-09-10T05:16:17Z</time>
      </trkpt>
      <trkpt lat="42.11244" lon="9.11252">
        <ele>1118.15</ele>
        <time>2016-09-10T05:16:25Z</time>
      </trkpt>
      <trkpt lat="42.11246" lon="9.11247">
        <ele>1119.11</ele>
        <time>2016-09-10T05:16:33Z</time>
      </trkpt>
      <trkpt lat="42.11247" lon="9.11242">
        <ele>1121.03</ele>
        <time>2016-09-10T05:16:42Z</time>
      </trkpt>
      <trkpt lat="42.1125" lon="9.1124">
        <ele>1121.52</ele>
        <time>2016-09-10T05:16:50Z</time>
      </trkpt>
      <trkpt lat="42.11253" lon="9.1124">
        <ele>1122</ele>
        <time>2016-09-10T05:16:57Z</time>
      </trkpt>
      <trkpt lat="42.11254" lon="9.11241">
        <ele>1122.96</ele>
        <time>2016-09-10T05:17:04Z</time>
      </trkpt>
      <trkpt lat="42.11262" lon="9.11243">
        <ele>1123.92</ele>
        <time>2016-09-10T05:17:14Z</time>
      </trkpt>
      <trkpt lat="42.11268" lon="9.11246">
        <ele>1125.36</ele>
        <time>2016-09-10T05:17:25Z</time>
      </trkpt>
      <trkpt lat="42.11273" lon="9.11249">
        <ele>1126.8</ele>
        <time>2016-09-10T05:17:35Z</time>
      </trkpt>
      <trkpt lat="42.11277" lon="9.11251">
        <ele>1128.24</ele>
        <time>2016-09-10T05:17:44Z</time>
      </trkpt>
      <trkpt lat="42.1128" lon="9.11252">
        <ele>1128.73</ele>
        <time>2016-09-10T05:17:52Z</time>
      </trkpt>
      <trkpt lat="42.11283" lon="9.11254">
        <ele>1129.69</ele>
        <time>2016-09-10T05:17:59Z</time>
      </trkpt>
      <trkpt lat="42.11285" lon="9.11259">
        <ele>1131.13</ele>
        <time>2016-09-10T05:18:07Z</time>
      </trkpt>
      <trkpt lat="42.11288" lon="9.11267">
        <ele>1132.09</ele>
        <time>2016-09-10T05:18:17Z</time>
      </trkpt>
      <trkpt lat="42.11291" lon="9.11271">
        <ele>1133.05</ele>
        <time>2016-09-10T05:18:24Z</time>
      </trkpt>
      <trkpt lat="42.11293" lon="9.11273">
        <ele>1134.01</ele>
        <time>2016-09-10T05:18:34Z</time>
      </trkpt>
      <trkpt lat="42.11295" lon="9.11274">
        <ele>1134.97</ele>
        <time>2016-09-10T05:18:41Z</time>
      </trkpt>
      <trkpt lat="42.11296" lon="9.11275">
        <ele>1135.94</ele>
        <time>2016-09-10T05:18:49Z</time>
      </trkpt>
      <trkpt lat="42.113" lon="9.11276">
        <ele>1137.38</ele>
        <time>2016-09-10T05:18:56Z</time>
      </trkpt>
      <trkpt lat="42.11301" lon="9.11278">
        <ele>1138.34</ele>
        <time>2016-09-10T05:19:03Z</time>
      </trkpt>
      <trkpt lat="42.11303" lon="9.11279">
        <ele>1139.3</ele>
        <time>2016-09-10T05:19:11Z</time>
      </trkpt>
      <trkpt lat="42.11307" lon="9.1128">
        <ele>1140.74</ele>
        <time>2016-09-10T05:19:19Z</time>
      </trkpt>
      <trkpt lat="42.11309" lon="9.11282">
        <ele>1141.7</ele>
        <time>2016-09-10T05:19:26Z</time>
      </trkpt>
      <trkpt lat="42.11311" lon="9.11282">
        <ele>1143.14</ele>
        <time>2016-09-10T05:19:33Z</time>
      </trkpt>
      <trkpt lat="42.11314" lon="9.11282">
        <ele>1144.11</ele>
        <time>2016-09-10T05:19:41Z</time>
      </trkpt>
      <trkpt lat="42.11318" lon="9.11282">
        <ele>1146.03</ele>
        <time>2016-09-10T05:19:50Z</time>
      </trkpt>
      <trkpt lat="42.11319" lon="9.11282">
        <ele>1146.99</ele>
        <time>2016-09-10T05:19:57Z</time>
      </trkpt>
      <trkpt lat="42.11321" lon="9.11283">
        <ele>1148.43</ele>
        <time>2016-09-10T05:20:09Z</time>
      </trkpt>
      <trkpt lat="42.11324" lon="9.11283">
        <ele>1149.87</ele>
        <time>2016-09-10T05:20:18Z</time>
      </trkpt>
      <trkpt lat="42.11328" lon="9.11286">
        <ele>1151.8</ele>
        <time>2016-09-10T05:20:27Z</time>
      </trkpt>
      <trkpt lat="42.11332" lon="9.11287">
        <ele>1152.76</ele>
        <time>2016-09-10T05:20:34Z</time>
      </trkpt>
      <trkpt lat="42.11333" lon="9.11286">
        <ele>1153.72</ele>
        <time>2016-09-10T05:20:42Z</time>
      </trkpt>
      <trkpt lat="42.11333" lon="9.11286">
        <ele>1155.16</ele>
        <time>2016-09-10T05:20:52Z</time>
      </trkpt>
      <trkpt lat="42.11335" lon="9.11282">
        <ele>1157.08</ele>
        <time>2016-09-10T05:21:00Z</time>
      </trkpt>
      <trkpt lat="42.11338" lon="9.11276">
        <ele>1158.05</ele>
        <time>2016-09-10T05:21:08Z</time>
      </trkpt>
      <trkpt lat="42.1134" lon="9.11274">
        <ele>1159.49</ele>
        <time>2016-09-10T05:21:18Z</time>
      </trkpt>
      <trkpt lat="42.11343" lon="9.11268">
        <ele>1161.41</ele>
        <time>2016-09-10T05:21:27Z</time>
      </trkpt>
      <trkpt lat="42.11345" lon="9.11266">
        <ele>1162.85</ele>
        <time>2016-09-10T05:21:36Z</time>
      </trkpt>
      <trkpt lat="42.11346" lon="9.11265">
        <ele>1164.29</ele>
        <time>2016-09-10T05:21:47Z</time>
      </trkpt>
      <trkpt lat="42.11347" lon="9.11268">
        <ele>1165.26</ele>
        <time>2016-09-10T05:21:55Z</time>
      </trkpt>
      <trkpt lat="42.11348" lon="9.11269">
        <ele>1166.7</ele>
        <time>2016-09-10T05:22:05Z</time>
      </trkpt>
      <trkpt lat="42.11352" lon="9.11267">
        <ele>1168.62</ele>
        <time>2016-09-10T05:22:13Z</time>
      </trkpt>
      <trkpt lat="42.11357" lon="9.11263">
        <ele>1169.1</ele>
        <time>2016-09-10T05:22:22Z</time>
      </trkpt>
      <trkpt lat="42.11359" lon="9.11259">
        <ele>1170.54</ele>
        <time>2016-09-10T05:22:32Z</time>
      </trkpt>
      <trkpt lat="42.11361" lon="9.11255">
        <ele>1171.98</ele>
        <time>2016-09-10T05:22:39Z</time>
      </trkpt>
      <trkpt lat="42.11362" lon="9.11249">
        <ele>1173.43</ele>
        <time>2016-09-10T05:22:46Z</time>
      </trkpt>
      <trkpt lat="42.11364" lon="9.11247">
        <ele>1173.91</ele>
        <time>2016-09-10T05:22:54Z</time>
      </trkpt>
      <trkpt lat="42.11364" lon="9.11246">
        <ele>1173.91</ele>
        <time>2016-09-10T05:23:12Z</time>
      </trkpt>
      <trkpt lat="42.11364" lon="9.11246">
        <ele>1174.39</ele>
        <time>2016-09-10T05:23:21Z</time>
      </trkpt>
      <trkpt lat="42.11364" lon="9.11246">
        <ele>1174.39</ele>
        <time>2016-09-10T05:23:31Z</time>
      </trkpt>
      <trkpt lat="42.11365" lon="9.11246">
        <ele>1174.39</ele>
        <time>2016-09-10T05:23:41Z</time>
      </trkpt>
      <trkpt lat="42.11365" lon="9.11246">
        <ele>1174.87</ele>
        <time>2016-09-10T05:23:50Z</time>
      </trkpt>
      <trkpt lat="42.11365" lon="9.11246">
        <ele>1174.87</ele>
        <time>2016-09-10T05:24:02Z</time>
      </trkpt>
      <trkpt lat="42.11365" lon="9.11246">
        <ele>1175.35</ele>
        <time>2016-09-10T05:24:16Z</time>
      </trkpt>
      <trkpt lat="42.11366" lon="9.11246">
        <ele>1175.83</ele>
        <time>2016-09-10T05:24:38Z</time>
      </trkpt>
      <trkpt lat="42.11366" lon="9.11246">
        <ele>1175.83</ele>
        <time>2016-09-10T05:24:56Z</time>
      </trkpt>
      <trkpt lat="42.11366" lon="9.11246">
        <ele>1176.31</ele>
        <time>2016-09-10T05:25:10Z</time>
      </trkpt>
      <trkpt lat="42.11366" lon="9.11246">
        <ele>1176.79</ele>
        <time>2016-09-10T05:25:29Z</time>
      </trkpt>
      <trkpt lat="42.11367" lon="9.11246">
        <ele>1176.79</ele>
        <time>2016-09-10T05:25:45Z</time>
      </trkpt>
      <trkpt lat="42.11367" lon="9.11246">
        <ele>1177.27</ele>
        <time>2016-09-10T05:26:01Z</time>
      </trkpt>
      <trkpt lat="42.11367" lon="9.11246">
        <ele>1177.27</ele>
        <time>2016-09-10T05:26:18Z</time>
      </trkpt>
      <trkpt lat="42.11367" lon="9.11247">
        <ele>1177.75</ele>
        <time>2016-09-10T05:26:33Z</time>
      </trkpt>
      <trkpt lat="42.11367" lon="9.11246">
        <ele>1177.75</ele>
        <time>2016-09-10T05:26:48Z</time>
      </trkpt>
      <trkpt lat="42.11367" lon="9.11247">
        <ele>1178.23</ele>
        <time>2016-09-10T05:27:00Z</time>
      </trkpt>
      <trkpt lat="42.11368" lon="9.11248">
        <ele>1178.23</ele>
        <time>2016-09-10T05:27:14Z</time>
      </trkpt>
      <trkpt lat="42.11368" lon="9.11246">
        <ele>1178.71</ele>
        <time>2016-09-10T05:27:27Z</time>
      </trkpt>
      <trkpt lat="42.1137" lon="9.11239">
        <ele>1179.19</ele>
        <time>2016-09-10T05:27:35Z</time>
      </trkpt>
      <trkpt lat="42.11373" lon="9.11237">
        <ele>1179.19</ele>
        <time>2016-09-10T05:27:43Z</time>
      </trkpt>
      <trkpt lat="42.11376" lon="9.11237">
        <ele>1178.71</ele>
        <time>2016-09-10T05:27:51Z</time>
      </trkpt>
      <trkpt lat="42.11377" lon="9.11243">
        <ele>1176.79</ele>
        <time>2016-09-10T05:28:00Z</time>
      </trkpt>
      <trkpt lat="42.11378" lon="9.11244">
        <ele>1176.31</ele>
        <time>2016-09-10T05:28:08Z</time>
      </trkpt>
      <trkpt lat="42.11379" lon="9.11244">
        <ele>1173.91</ele>
        <time>2016-09-10T05:28:17Z</time>
      </trkpt>
      <trkpt lat="42.11382" lon="9.11233">
        <ele>1174.39</ele>
        <time>2016-09-10T05:28:25Z</time>
      </trkpt>
      <trkpt lat="42.11383" lon="9.11229">
        <ele>1173.91</ele>
        <time>2016-09-10T05:28:27Z</time>
      </trkpt>
      <trkpt lat="42.11385" lon="9.11224">
        <ele>1174.39</ele>
        <time>2016-09-10T05:28:30Z</time>
      </trkpt>
      <trkpt lat="42.11389" lon="9.11208">
        <ele>1174.39</ele>
        <time>2016-09-10T05:28:38Z</time>
      </trkpt>
      <trkpt lat="42.1139" lon="9.11205">
        <ele>1174.39</ele>
        <time>2016-09-10T05:28:40Z</time>
      </trkpt>
      <trkpt lat="42.11392" lon="9.11195">
        <ele>1173.91</ele>
        <time>2016-09-10T05:28:47Z</time>
      </trkpt>
      <trkpt lat="42.11395" lon="9.11186">
        <ele>1174.39</ele>
        <time>2016-09-10T05:28:53Z</time>
      </trkpt>
      <trkpt lat="42.11396" lon="9.11176">
        <ele>1175.35</ele>
        <time>2016-09-10T05:29:01Z</time>
      </trkpt>
      <trkpt lat="42.11398" lon="9.11167">
        <ele>1173.91</ele>
        <time>2016-09-10T05:29:08Z</time>
      </trkpt>
      <trkpt lat="42.11401" lon="9.11156">
        <ele>1173.91</ele>
        <time>2016-09-10T05:29:15Z</time>
      </trkpt>
      <trkpt lat="42.11402" lon="9.1115">
        <ele>1173.43</ele>
        <time>2016-09-10T05:29:20Z</time>
      </trkpt>
      <trkpt lat="42.11404" lon="9.11141">
        <ele>1171.5</ele>
        <time>2016-09-10T05:29:28Z</time>
      </trkpt>
      <trkpt lat="42.11408" lon="9.11133">
        <ele>1170.06</ele>
        <time>2016-09-10T05:29:36Z</time>
      </trkpt>
      <trkpt lat="42.11412" lon="9.11124">
        <ele>1169.1</ele>
        <time>2016-09-10T05:29:45Z</time>
      </trkpt>
      <trkpt lat="42.11417" lon="9.11119">
        <ele>1167.66</ele>
        <time>2016-09-10T05:29:53Z</time>
      </trkpt>
      <trkpt lat="42.11421" lon="9.11114">
        <ele>1165.74</ele>
        <time>2016-09-10T05:30:01Z</time>
      </trkpt>
      <trkpt lat="42.11422" lon="9.11113">
        <ele>1164.77</ele>
        <time>2016-09-10T05:30:05Z</time>
      </trkpt>
      <trkpt lat="42.11427" lon="9.11108">
        <ele>1163.81</ele>
        <time>2016-09-10T05:30:12Z</time>
      </trkpt>
      <trkpt lat="42.1143" lon="9.11107">
        <ele>1161.89</ele>
        <time>2016-09-10T05:30:19Z</time>
      </trkpt>
      <trkpt lat="42.11435" lon="9.11097">
        <ele>1161.41</ele>
        <time>2016-09-10T05:30:28Z</time>
      </trkpt>
      <trkpt lat="42.11436" lon="9.11094">
        <ele>1161.41</ele>
        <time>2016-09-10T05:30:31Z</time>
      </trkpt>
      <trkpt lat="42.11438" lon="9.11088">
        <ele>1160.93</ele>
        <time>2016-09-10T05:30:40Z</time>
      </trkpt>
      <trkpt lat="42.1144" lon="9.11086">
        <ele>1160.93</ele>
        <time>2016-09-10T05:30:49Z</time>
      </trkpt>
      <trkpt lat="42.11448" lon="9.11077">
        <ele>1159.97</ele>
        <time>2016-09-10T05:30:57Z</time>
      </trkpt>
      <trkpt lat="42.1145" lon="9.11075">
        <ele>1159.49</ele>
        <time>2016-09-10T05:31:00Z</time>
      </trkpt>
      <trkpt lat="42.11458" lon="9.11067">
        <ele>1157.56</ele>
        <time>2016-09-10T05:31:08Z</time>
      </trkpt>
      <trkpt lat="42.11464" lon="9.11059">
        <ele>1156.12</ele>
        <time>2016-09-10T05:31:16Z</time>
      </trkpt>
      <trkpt lat="42.11468" lon="9.1105">
        <ele>1156.6</ele>
        <time>2016-09-10T05:31:24Z</time>
      </trkpt>
      <trkpt lat="42.11471" lon="9.11046">
        <ele>1156.6</ele>
        <time>2016-09-10T05:31:29Z</time>
      </trkpt>
      <trkpt lat="42.11481" lon="9.1103">
        <ele>1156.12</ele>
        <time>2016-09-10T05:31:37Z</time>
      </trkpt>
      <trkpt lat="42.11487" lon="9.11019">
        <ele>1155.64</ele>
        <time>2016-09-10T05:31:44Z</time>
      </trkpt>
      <trkpt lat="42.1149" lon="9.11014">
        <ele>1154.68</ele>
        <time>2016-09-10T05:31:50Z</time>
      </trkpt>
      <trkpt lat="42.11492" lon="9.11013">
        <ele>1153.72</ele>
        <time>2016-09-10T05:31:57Z</time>
      </trkpt>
      <trkpt lat="42.11494" lon="9.1101">
        <ele>1152.28</ele>
        <time>2016-09-10T05:32:03Z</time>
      </trkpt>
      <trkpt lat="42.11496" lon="9.11006">
        <ele>1151.8</ele>
        <time>2016-09-10T05:32:10Z</time>
      </trkpt>
      <trkpt lat="42.11498" lon="9.11002">
        <ele>1151.32</ele>
        <time>2016-09-10T05:32:16Z</time>
      </trkpt>
      <trkpt lat="42.11498" lon="9.10999">
        <ele>1151.32</ele>
        <time>2016-09-10T05:32:24Z</time>
      </trkpt>
      <trkpt lat="42.11502" lon="9.10992">
        <ele>1149.87</ele>
        <time>2016-09-10T05:32:30Z</time>
      </trkpt>
      <trkpt lat="42.1151" lon="9.10984">
        <ele>1148.91</ele>
        <time>2016-09-10T05:32:39Z</time>
      </trkpt>
      <trkpt lat="42.11511" lon="9.10983">
        <ele>1147.95</ele>
        <time>2016-09-10T05:32:48Z</time>
      </trkpt>
      <trkpt lat="42.11514" lon="9.10982">
        <ele>1146.99</ele>
        <time>2016-09-10T05:32:53Z</time>
      </trkpt>
      <trkpt lat="42.11517" lon="9.10982">
        <ele>1145.07</ele>
        <time>2016-09-10T05:33:01Z</time>
      </trkpt>
      <trkpt lat="42.11522" lon="9.10977">
        <ele>1144.59</ele>
        <time>2016-09-10T05:33:10Z</time>
      </trkpt>
      <trkpt lat="42.11525" lon="9.10972">
        <ele>1144.59</ele>
        <time>2016-09-10T05:33:17Z</time>
      </trkpt>
      <trkpt lat="42.1153" lon="9.10969">
        <ele>1144.59</ele>
        <time>2016-09-10T05:33:24Z</time>
      </trkpt>
      <trkpt lat="42.11539" lon="9.10962">
        <ele>1145.07</ele>
        <time>2016-09-10T05:33:31Z</time>
      </trkpt>
      <trkpt lat="42.11543" lon="9.10955">
        <ele>1146.03</ele>
        <time>2016-09-10T05:33:39Z</time>
      </trkpt>
      <trkpt lat="42.11545" lon="9.10951">
        <ele>1146.51</ele>
        <time>2016-09-10T05:33:46Z</time>
      </trkpt>
      <trkpt lat="42.11553" lon="9.10945">
        <ele>1145.55</ele>
        <time>2016-09-10T05:33:52Z</time>
      </trkpt>
      <trkpt lat="42.11557" lon="9.10941">
        <ele>1145.07</ele>
        <time>2016-09-10T05:33:59Z</time>
      </trkpt>
      <trkpt lat="42.11561" lon="9.10934">
        <ele>1145.07</ele>
        <time>2016-09-10T05:34:05Z</time>
      </trkpt>
      <trkpt lat="42.11568" lon="9.10929">
        <ele>1145.07</ele>
        <time>2016-09-10T05:34:12Z</time>
      </trkpt>
      <trkpt lat="42.1157" lon="9.10926">
        <ele>1145.55</ele>
        <time>2016-09-10T05:34:19Z</time>
      </trkpt>
      <trkpt lat="42.11572" lon="9.10922">
        <ele>1146.03</ele>
        <time>2016-09-10T05:34:25Z</time>
      </trkpt>
      <trkpt lat="42.11582" lon="9.10914">
        <ele>1146.03</ele>
        <time>2016-09-10T05:34:32Z</time>
      </trkpt>
      <trkpt lat="42.11587" lon="9.10908">
        <ele>1146.03</ele>
        <time>2016-09-10T05:34:39Z</time>
      </trkpt>
      <trkpt lat="42.11588" lon="9.10906">
        <ele>1146.03</ele>
        <time>2016-09-10T05:34:47Z</time>
      </trkpt>
      <trkpt lat="42.11589" lon="9.10904">
        <ele>1146.03</ele>
        <time>2016-09-10T05:34:55Z</time>
      </trkpt>
      <trkpt lat="42.11591" lon="9.10904">
        <ele>1146.51</ele>
        <time>2016-09-10T05:35:03Z</time>
      </trkpt>
      <trkpt lat="42.11592" lon="9.10903">
        <ele>1146.51</ele>
        <time>2016-09-10T05:35:10Z</time>
      </trkpt>
      <trkpt lat="42.11596" lon="9.10899">
        <ele>1146.51</ele>
        <time>2016-09-10T05:35:15Z</time>
      </trkpt>
      <trkpt lat="42.11602" lon="9.10894">
        <ele>1146.51</ele>
        <time>2016-09-10T05:35:22Z</time>
      </trkpt>
      <trkpt lat="42.11607" lon="9.10888">
        <ele>1146.03</ele>
        <time>2016-09-10T05:35:29Z</time>
      </trkpt>
      <trkpt lat="42.11615" lon="9.10883">
        <ele>1145.55</ele>
        <time>2016-09-10T05:35:35Z</time>
      </trkpt>
      <trkpt lat="42.11619" lon="9.10881">
        <ele>1145.07</ele>
        <time>2016-09-10T05:35:41Z</time>
      </trkpt>
      <trkpt lat="42.11624" lon="9.10878">
        <ele>1144.59</ele>
        <time>2016-09-10T05:35:47Z</time>
      </trkpt>
      <trkpt lat="42.11628" lon="9.10875">
        <ele>1143.63</ele>
        <time>2016-09-10T05:35:52Z</time>
      </trkpt>
      <trkpt lat="42.1163" lon="9.10871">
        <ele>1142.66</ele>
        <time>2016-09-10T05:35:58Z</time>
      </trkpt>
      <trkpt lat="42.11635" lon="9.10871">
        <ele>1141.22</ele>
        <time>2016-09-10T05:36:04Z</time>
      </trkpt>
      <trkpt lat="42.11638" lon="9.10869">
        <ele>1140.26</ele>
        <time>2016-09-10T05:36:10Z</time>
      </trkpt>
      <trkpt lat="42.11641" lon="9.10868">
        <ele>1138.82</ele>
        <time>2016-09-10T05:36:16Z</time>
      </trkpt>
      <trkpt lat="42.11649" lon="9.1087">
        <ele>1137.86</ele>
        <time>2016-09-10T05:36:23Z</time>
      </trkpt>
      <trkpt lat="42.11658" lon="9.10872">
        <ele>1136.9</ele>
        <time>2016-09-10T05:36:30Z</time>
      </trkpt>
      <trkpt lat="42.11665" lon="9.10873">
        <ele>1136.9</ele>
        <time>2016-09-10T05:36:38Z</time>
      </trkpt>
      <trkpt lat="42.11666" lon="9.10873">
        <ele>1136.9</ele>
        <time>2016-09-10T05:36:39Z</time>
      </trkpt>
      <trkpt lat="42.11673" lon="9.10875">
        <ele>1136.42</ele>
        <time>2016-09-10T05:36:47Z</time>
      </trkpt>
      <trkpt lat="42.11677" lon="9.10874">
        <ele>1137.38</ele>
        <time>2016-09-10T05:36:53Z</time>
      </trkpt>
      <trkpt lat="42.11683" lon="9.10873">
        <ele>1136.42</ele>
        <time>2016-09-10T05:36:59Z</time>
      </trkpt>
      <trkpt lat="42.11687" lon="9.10871">
        <ele>1136.42</ele>
        <time>2016-09-10T05:37:07Z</time>
      </trkpt>
      <trkpt lat="42.11689" lon="9.10871">
        <ele>1137.38</ele>
        <time>2016-09-10T05:37:14Z</time>
      </trkpt>
      <trkpt lat="42.11692" lon="9.10869">
        <ele>1137.86</ele>
        <time>2016-09-10T05:37:22Z</time>
      </trkpt>
      <trkpt lat="42.11697" lon="9.10867">
        <ele>1137.86</ele>
        <time>2016-09-10T05:37:30Z</time>
      </trkpt>
      <trkpt lat="42.11699" lon="9.10866">
        <ele>1137.86</ele>
        <time>2016-09-10T05:37:36Z</time>
      </trkpt>
      <trkpt lat="42.117" lon="9.10865">
        <ele>1137.86</ele>
        <time>2016-09-10T05:37:42Z</time>
      </trkpt>
      <trkpt lat="42.11701" lon="9.10865">
        <ele>1136.9</ele>
        <time>2016-09-10T05:37:48Z</time>
      </trkpt>
      <trkpt lat="42.11702" lon="9.10865">
        <ele>1136.9</ele>
        <time>2016-09-10T05:37:55Z</time>
      </trkpt>
      <trkpt lat="42.11704" lon="9.10865">
        <ele>1136.9</ele>
        <time>2016-09-10T05:37:58Z</time>
      </trkpt>
      <trkpt lat="42.1171" lon="9.10863">
        <ele>1136.42</ele>
        <time>2016-09-10T05:38:05Z</time>
      </trkpt>
      <trkpt lat="42.11714" lon="9.10862">
        <ele>1136.42</ele>
        <time>2016-09-10T05:38:13Z</time>
      </trkpt>
      <trkpt lat="42.11718" lon="9.10861">
        <ele>1135.94</ele>
        <time>2016-09-10T05:38:20Z</time>
      </trkpt>
      <trkpt lat="42.11722" lon="9.10859">
        <ele>1135.94</ele>
        <time>2016-09-10T05:38:26Z</time>
      </trkpt>
      <trkpt lat="42.11724" lon="9.10858">
        <ele>1136.42</ele>
        <time>2016-09-10T05:38:32Z</time>
      </trkpt>
      <trkpt lat="42.11726" lon="9.10856">
        <ele>1136.42</ele>
        <time>2016-09-10T05:38:38Z</time>
      </trkpt>
      <trkpt lat="42.1173" lon="9.10853">
        <ele>1136.9</ele>
        <time>2016-09-10T05:38:44Z</time>
      </trkpt>
      <trkpt lat="42.11732" lon="9.10851">
        <ele>1135.45</ele>
        <time>2016-09-10T05:38:51Z</time>
      </trkpt>
      <trkpt lat="42.11735" lon="9.10849">
        <ele>1134.97</ele>
        <time>2016-09-10T05:38:58Z</time>
      </trkpt>
      <trkpt lat="42.11736" lon="9.10849">
        <ele>1134.49</ele>
        <time>2016-09-10T05:39:06Z</time>
      </trkpt>
      <trkpt lat="42.11737" lon="9.10848">
        <ele>1134.01</ele>
        <time>2016-09-10T05:39:11Z</time>
      </trkpt>
      <trkpt lat="42.1174" lon="9.10846">
        <ele>1133.05</ele>
        <time>2016-09-10T05:39:19Z</time>
      </trkpt>
      <trkpt lat="42.1175" lon="9.10844">
        <ele>1133.53</ele>
        <time>2016-09-10T05:39:30Z</time>
      </trkpt>
      <trkpt lat="42.11755" lon="9.10844">
        <ele>1132.57</ele>
        <time>2016-09-10T05:39:39Z</time>
      </trkpt>
      <trkpt lat="42.11758" lon="9.10845">
        <ele>1133.05</ele>
        <time>2016-09-10T05:39:48Z</time>
      </trkpt>
      <trkpt lat="42.11761" lon="9.10845">
        <ele>1134.49</ele>
        <time>2016-09-10T05:39:57Z</time>
      </trkpt>
      <trkpt lat="42.11764" lon="9.10846">
        <ele>1134.97</ele>
        <time>2016-09-10T05:40:05Z</time>
      </trkpt>
      <trkpt lat="42.11767" lon="9.10845">
        <ele>1135.94</ele>
        <time>2016-09-10T05:40:13Z</time>
      </trkpt>
      <trkpt lat="42.1177" lon="9.10844">
        <ele>1136.9</ele>
        <time>2016-09-10T05:40:22Z</time>
      </trkpt>
      <trkpt lat="42.11773" lon="9.10844">
        <ele>1137.86</ele>
        <time>2016-09-10T05:40:30Z</time>
      </trkpt>
      <trkpt lat="42.11775" lon="9.10844">
        <ele>1138.34</ele>
        <time>2016-09-10T05:40:42Z</time>
      </trkpt>
      <trkpt lat="42.11776" lon="9.10842">
        <ele>1139.3</ele>
        <time>2016-09-10T05:40:51Z</time>
      </trkpt>
      <trkpt lat="42.11777" lon="9.1084">
        <ele>1140.26</ele>
        <time>2016-09-10T05:41:01Z</time>
      </trkpt>
      <trkpt lat="42.11778" lon="9.10838">
        <ele>1142.18</ele>
        <time>2016-09-10T05:41:10Z</time>
      </trkpt>
      <trkpt lat="42.11779" lon="9.10836">
        <ele>1142.66</ele>
        <time>2016-09-10T05:41:17Z</time>
      </trkpt>
      <trkpt lat="42.1178" lon="9.10834">
        <ele>1143.63</ele>
        <time>2016-09-10T05:41:23Z</time>
      </trkpt>
      <trkpt lat="42.11782" lon="9.10833">
        <ele>1144.59</ele>
        <time>2016-09-10T05:41:31Z</time>
      </trkpt>
      <trkpt lat="42.11784" lon="9.1083">
        <ele>1145.55</ele>
        <time>2016-09-10T05:41:39Z</time>
      </trkpt>
      <trkpt lat="42.11784" lon="9.10828">
        <ele>1146.03</ele>
        <time>2016-09-10T05:41:46Z</time>
      </trkpt>
      <trkpt lat="42.11784" lon="9.10826">
        <ele>1147.47</ele>
        <time>2016-09-10T05:41:55Z</time>
      </trkpt>
      <trkpt lat="42.11784" lon="9.10824">
        <ele>1147.95</ele>
        <time>2016-09-10T05:42:02Z</time>
      </trkpt>
      <trkpt lat="42.11785" lon="9.10822">
        <ele>1148.91</ele>
        <time>2016-09-10T05:42:12Z</time>
      </trkpt>
      <trkpt lat="42.11786" lon="9.10819">
        <ele>1149.39</ele>
        <time>2016-09-10T05:42:23Z</time>
      </trkpt>
      <trkpt lat="42.11787" lon="9.1082">
        <ele>1149.87</ele>
        <time>2016-09-10T05:42:32Z</time>
      </trkpt>
      <trkpt lat="42.11787" lon="9.10819">
        <ele>1150.84</ele>
        <time>2016-09-10T05:42:41Z</time>
      </trkpt>
      <trkpt lat="42.11787" lon="9.10817">
        <ele>1151.32</ele>
        <time>2016-09-10T05:42:50Z</time>
      </trkpt>
      <trkpt lat="42.11786" lon="9.10815">
        <ele>1151.8</ele>
        <time>2016-09-10T05:43:00Z</time>
      </trkpt>
      <trkpt lat="42.11787" lon="9.10814">
        <ele>1152.76</ele>
        <time>2016-09-10T05:43:11Z</time>
      </trkpt>
      <trkpt lat="42.11786" lon="9.10813">
        <ele>1154.2</ele>
        <time>2016-09-10T05:43:18Z</time>
      </trkpt>
      <trkpt lat="42.11787" lon="9.10811">
        <ele>1155.64</ele>
        <time>2016-09-10T05:43:26Z</time>
      </trkpt>
      <trkpt lat="42.11788" lon="9.10808">
        <ele>1156.12</ele>
        <time>2016-09-10T05:43:34Z</time>
      </trkpt>
      <trkpt lat="42.1179" lon="9.10808">
        <ele>1158.05</ele>
        <time>2016-09-10T05:43:41Z</time>
      </trkpt>
      <trkpt lat="42.1179" lon="9.10805">
        <ele>1159.01</ele>
        <time>2016-09-10T05:43:50Z</time>
      </trkpt>
      <trkpt lat="42.11789" lon="9.10803">
        <ele>1159.49</ele>
        <time>2016-09-10T05:43:57Z</time>
      </trkpt>
      <trkpt lat="42.1179" lon="9.10801">
        <ele>1161.41</ele>
        <time>2016-09-10T05:44:09Z</time>
      </trkpt>
      <trkpt lat="42.11792" lon="9.10799">
        <ele>1162.37</ele>
        <time>2016-09-10T05:44:17Z</time>
      </trkpt>
      <trkpt lat="42.11795" lon="9.10797">
        <ele>1163.81</ele>
        <time>2016-09-10T05:44:25Z</time>
      </trkpt>
      <trkpt lat="42.11796" lon="9.10797">
        <ele>1164.77</ele>
        <time>2016-09-10T05:44:31Z</time>
      </trkpt>
      <trkpt lat="42.11798" lon="9.10796">
        <ele>1165.26</ele>
        <time>2016-09-10T05:44:39Z</time>
      </trkpt>
      <trkpt lat="42.11802" lon="9.10793">
        <ele>1167.18</ele>
        <time>2016-09-10T05:44:49Z</time>
      </trkpt>
      <trkpt lat="42.11803" lon="9.1079">
        <ele>1168.14</ele>
        <time>2016-09-10T05:44:55Z</time>
      </trkpt>
      <trkpt lat="42.11803" lon="9.10788">
        <ele>1169.1</ele>
        <time>2016-09-10T05:45:03Z</time>
      </trkpt>
      <trkpt lat="42.118" lon="9.10785">
        <ele>1169.58</ele>
        <time>2016-09-10T05:45:15Z</time>
      </trkpt>
      <trkpt lat="42.11801" lon="9.10783">
        <ele>1171.02</ele>
        <time>2016-09-10T05:45:24Z</time>
      </trkpt>
      <trkpt lat="42.11802" lon="9.1078">
        <ele>1171.98</ele>
        <time>2016-09-10T05:45:33Z</time>
      </trkpt>
      <trkpt lat="42.11803" lon="9.10778">
        <ele>1172.95</ele>
        <time>2016-09-10T05:45:43Z</time>
      </trkpt>
      <trkpt lat="42.11805" lon="9.10775">
        <ele>1173.91</ele>
        <time>2016-09-10T05:45:52Z</time>
      </trkpt>
      <trkpt lat="42.11807" lon="9.1077">
        <ele>1175.35</ele>
        <time>2016-09-10T05:46:00Z</time>
      </trkpt>
      <trkpt lat="42.11809" lon="9.10769">
        <ele>1176.31</ele>
        <time>2016-09-10T05:46:07Z</time>
      </trkpt>
      <trkpt lat="42.1181" lon="9.10766">
        <ele>1177.27</ele>
        <time>2016-09-10T05:46:20Z</time>
      </trkpt>
      <trkpt lat="42.11811" lon="9.10765">
        <ele>1178.23</ele>
        <time>2016-09-10T05:46:29Z</time>
      </trkpt>
      <trkpt lat="42.11812" lon="9.10762">
        <ele>1178.71</ele>
        <time>2016-09-10T05:46:39Z</time>
      </trkpt>
      <trkpt lat="42.11815" lon="9.10759">
        <ele>1179.67</ele>
        <time>2016-09-10T05:46:46Z</time>
      </trkpt>
      <trkpt lat="42.11816" lon="9.10758">
        <ele>1180.16</ele>
        <time>2016-09-10T05:46:56Z</time>
      </trkpt>
      <trkpt lat="42.11824" lon="9.10754">
        <ele>1180.16</ele>
        <time>2016-09-10T05:47:05Z</time>
      </trkpt>
      <trkpt lat="42.11833" lon="9.10751">
        <ele>1181.12</ele>
        <time>2016-09-10T05:47:14Z</time>
      </trkpt>
      <trkpt lat="42.11838" lon="9.10747">
        <ele>1181.6</ele>
        <time>2016-09-10T05:47:22Z</time>
      </trkpt>
      <trkpt lat="42.11839" lon="9.10746">
        <ele>1182.56</ele>
        <time>2016-09-10T05:47:29Z</time>
      </trkpt>
      <trkpt lat="42.11841" lon="9.10742">
        <ele>1183.52</ele>
        <time>2016-09-10T05:47:40Z</time>
      </trkpt>
      <trkpt lat="42.11843" lon="9.10738">
        <ele>1184.96</ele>
        <time>2016-09-10T05:47:51Z</time>
      </trkpt>
      <trkpt lat="42.11844" lon="9.10734">
        <ele>1185.44</ele>
        <time>2016-09-10T05:47:59Z</time>
      </trkpt>
      <trkpt lat="42.11845" lon="9.1073">
        <ele>1186.88</ele>
        <time>2016-09-10T05:48:09Z</time>
      </trkpt>
      <trkpt lat="42.11847" lon="9.10727">
        <ele>1187.37</ele>
        <time>2016-09-10T05:48:18Z</time>
      </trkpt>
      <trkpt lat="42.11848" lon="9.10726">
        <ele>1188.81</ele>
        <time>2016-09-10T05:48:29Z</time>
      </trkpt>
      <trkpt lat="42.11848" lon="9.10724">
        <ele>1189.77</ele>
        <time>2016-09-10T05:48:39Z</time>
      </trkpt>
      <trkpt lat="42.11848" lon="9.1072">
        <ele>1190.73</ele>
        <time>2016-09-10T05:48:48Z</time>
      </trkpt>
      <trkpt lat="42.11848" lon="9.1072">
        <ele>1191.69</ele>
        <time>2016-09-10T05:48:55Z</time>
      </trkpt>
      <trkpt lat="42.1185" lon="9.1072">
        <ele>1191.69</ele>
        <time>2016-09-10T05:49:06Z</time>
      </trkpt>
      <trkpt lat="42.11852" lon="9.10717">
        <ele>1192.65</ele>
        <time>2016-09-10T05:49:14Z</time>
      </trkpt>
      <trkpt lat="42.11858" lon="9.10714">
        <ele>1194.09</ele>
        <time>2016-09-10T05:49:23Z</time>
      </trkpt>
      <trkpt lat="42.11863" lon="9.10709">
        <ele>1195.06</ele>
        <time>2016-09-10T05:49:32Z</time>
      </trkpt>
      <trkpt lat="42.11866" lon="9.10707">
        <ele>1195.54</ele>
        <time>2016-09-10T05:49:39Z</time>
      </trkpt>
      <trkpt lat="42.11872" lon="9.10707">
        <ele>1196.98</ele>
        <time>2016-09-10T05:49:48Z</time>
      </trkpt>
      <trkpt lat="42.11873" lon="9.10704">
        <ele>1196.98</ele>
        <time>2016-09-10T05:49:56Z</time>
      </trkpt>
      <trkpt lat="42.11874" lon="9.10701">
        <ele>1198.9</ele>
        <time>2016-09-10T05:50:07Z</time>
      </trkpt>
      <trkpt lat="42.11875" lon="9.10697">
        <ele>1199.86</ele>
        <time>2016-09-10T05:50:14Z</time>
      </trkpt>
      <trkpt lat="42.11876" lon="9.10694">
        <ele>1200.82</ele>
        <time>2016-09-10T05:50:20Z</time>
      </trkpt>
      <trkpt lat="42.11881" lon="9.10687">
        <ele>1201.79</ele>
        <time>2016-09-10T05:50:29Z</time>
      </trkpt>
      <trkpt lat="42.11882" lon="9.10684">
        <ele>1202.27</ele>
        <time>2016-09-10T05:50:38Z</time>
      </trkpt>
      <trkpt lat="42.11885" lon="9.10679">
        <ele>1203.23</ele>
        <time>2016-09-10T05:50:47Z</time>
      </trkpt>
      <trkpt lat="42.11887" lon="9.10676">
        <ele>1204.67</ele>
        <time>2016-09-10T05:50:54Z</time>
      </trkpt>
      <trkpt lat="42.11891" lon="9.10669">
        <ele>1204.19</ele>
        <time>2016-09-10T05:51:02Z</time>
      </trkpt>
      <trkpt lat="42.11893" lon="9.10666">
        <ele>1204.67</ele>
        <time>2016-09-10T05:51:08Z</time>
      </trkpt>
      <trkpt lat="42.11894" lon="9.10663">
        <ele>1205.15</ele>
        <time>2016-09-10T05:51:16Z</time>
      </trkpt>
      <trkpt lat="42.11894" lon="9.10662">
        <ele>1205.15</ele>
        <time>2016-09-10T05:51:29Z</time>
      </trkpt>
      <trkpt lat="42.11894" lon="9.10661">
        <ele>1205.15</ele>
        <time>2016-09-10T05:51:44Z</time>
      </trkpt>
      <trkpt lat="42.11896" lon="9.10657">
        <ele>1204.19</ele>
        <time>2016-09-10T05:51:53Z</time>
      </trkpt>
      <trkpt lat="42.11901" lon="9.10648">
        <ele>1203.71</ele>
        <time>2016-09-10T05:52:00Z</time>
      </trkpt>
      <trkpt lat="42.11902" lon="9.10647">
        <ele>1203.71</ele>
        <time>2016-09-10T05:52:01Z</time>
      </trkpt>
      <trkpt lat="42.11905" lon="9.10638">
        <ele>1203.71</ele>
        <time>2016-09-10T05:52:09Z</time>
      </trkpt>
      <trkpt lat="42.11907" lon="9.10632">
        <ele>1204.67</ele>
        <time>2016-09-10T05:52:16Z</time>
      </trkpt>
      <trkpt lat="42.11907" lon="9.1063">
        <ele>1204.67</ele>
        <time>2016-09-10T05:52:33Z</time>
      </trkpt>
      <trkpt lat="42.11909" lon="9.1063">
        <ele>1205.15</ele>
        <time>2016-09-10T05:52:46Z</time>
      </trkpt>
      <trkpt lat="42.11908" lon="9.10628">
        <ele>1206.11</ele>
        <time>2016-09-10T05:52:55Z</time>
      </trkpt>
      <trkpt lat="42.11908" lon="9.10625">
        <ele>1208.03</ele>
        <time>2016-09-10T05:53:06Z</time>
      </trkpt>
      <trkpt lat="42.11907" lon="9.10624">
        <ele>1209.48</ele>
        <time>2016-09-10T05:53:13Z</time>
      </trkpt>
      <trkpt lat="42.11905" lon="9.10625">
        <ele>1210.92</ele>
        <time>2016-09-10T05:53:23Z</time>
      </trkpt>
      <trkpt lat="42.11903" lon="9.10623">
        <ele>1211.4</ele>
        <time>2016-09-10T05:53:30Z</time>
      </trkpt>
      <trkpt lat="42.11901" lon="9.10619">
        <ele>1211.88</ele>
        <time>2016-09-10T05:53:38Z</time>
      </trkpt>
      <trkpt lat="42.11899" lon="9.10618">
        <ele>1212.84</ele>
        <time>2016-09-10T05:53:46Z</time>
      </trkpt>
      <trkpt lat="42.119" lon="9.10615">
        <ele>1213.8</ele>
        <time>2016-09-10T05:53:54Z</time>
      </trkpt>
      <trkpt lat="42.11901" lon="9.10612">
        <ele>1214.28</ele>
        <time>2016-09-10T05:54:00Z</time>
      </trkpt>
      <trkpt lat="42.11904" lon="9.10608">
        <ele>1215.72</ele>
        <time>2016-09-10T05:54:10Z</time>
      </trkpt>
      <trkpt lat="42.11903" lon="9.10607">
        <ele>1215.72</ele>
        <time>2016-09-10T05:54:22Z</time>
      </trkpt>
      <trkpt lat="42.119" lon="9.10608">
        <ele>1216.21</ele>
        <time>2016-09-10T05:54:30Z</time>
      </trkpt>
      <trkpt lat="42.119" lon="9.10606">
        <ele>1217.65</ele>
        <time>2016-09-10T05:54:43Z</time>
      </trkpt>
      <trkpt lat="42.119" lon="9.10604">
        <ele>1219.09</ele>
        <time>2016-09-10T05:54:53Z</time>
      </trkpt>
      <trkpt lat="42.11901" lon="9.10604">
        <ele>1220.05</ele>
        <time>2016-09-10T05:55:02Z</time>
      </trkpt>
      <trkpt lat="42.11902" lon="9.10602">
        <ele>1221.01</ele>
        <time>2016-09-10T05:55:09Z</time>
      </trkpt>
      <trkpt lat="42.11904" lon="9.106">
        <ele>1221.97</ele>
        <time>2016-09-10T05:55:17Z</time>
      </trkpt>
      <trkpt lat="42.11905" lon="9.10599">
        <ele>1223.9</ele>
        <time>2016-09-10T05:55:25Z</time>
      </trkpt>
      <trkpt lat="42.11904" lon="9.10597">
        <ele>1225.34</ele>
        <time>2016-09-10T05:55:34Z</time>
      </trkpt>
      <trkpt lat="42.11904" lon="9.10596">
        <ele>1226.3</ele>
        <time>2016-09-10T05:55:41Z</time>
      </trkpt>
      <trkpt lat="42.11904" lon="9.10593">
        <ele>1226.78</ele>
        <time>2016-09-10T05:55:51Z</time>
      </trkpt>
      <trkpt lat="42.11904" lon="9.10591">
        <ele>1226.78</ele>
        <time>2016-09-10T05:55:58Z</time>
      </trkpt>
      <trkpt lat="42.11905" lon="9.10584">
        <ele>1227.74</ele>
        <time>2016-09-10T05:56:08Z</time>
      </trkpt>
      <trkpt lat="42.11907" lon="9.10572">
        <ele>1228.22</ele>
        <time>2016-09-10T05:56:15Z</time>
      </trkpt>
      <trkpt lat="42.11909" lon="9.10563">
        <ele>1228.7</ele>
        <time>2016-09-10T05:56:23Z</time>
      </trkpt>
      <trkpt lat="42.1191" lon="9.10558">
        <ele>1229.18</ele>
        <time>2016-09-10T05:56:32Z</time>
      </trkpt>
      <trkpt lat="42.11913" lon="9.1055">
        <ele>1229.66</ele>
        <time>2016-09-10T05:56:40Z</time>
      </trkpt>
      <trkpt lat="42.11917" lon="9.10541">
        <ele>1230.14</ele>
        <time>2016-09-10T05:56:50Z</time>
      </trkpt>
      <trkpt lat="42.11917" lon="9.10532">
        <ele>1230.14</ele>
        <time>2016-09-10T05:56:58Z</time>
      </trkpt>
      <trkpt lat="42.11921" lon="9.10522">
        <ele>1230.14</ele>
        <time>2016-09-10T05:57:05Z</time>
      </trkpt>
      <trkpt lat="42.11923" lon="9.10514">
        <ele>1230.14</ele>
        <time>2016-09-10T05:57:11Z</time>
      </trkpt>
      <trkpt lat="42.11927" lon="9.10507">
        <ele>1230.62</ele>
        <time>2016-09-10T05:57:20Z</time>
      </trkpt>
      <trkpt lat="42.11924" lon="9.10504">
        <ele>1232.07</ele>
        <time>2016-09-10T05:57:27Z</time>
      </trkpt>
      <trkpt lat="42.11924" lon="9.10498">
        <ele>1232.55</ele>
        <time>2016-09-10T05:57:36Z</time>
      </trkpt>
      <trkpt lat="42.11926" lon="9.1049">
        <ele>1233.51</ele>
        <time>2016-09-10T05:57:42Z</time>
      </trkpt>
      <trkpt lat="42.11926" lon="9.10482">
        <ele>1233.99</ele>
        <time>2016-09-10T05:57:51Z</time>
      </trkpt>
      <trkpt lat="42.11927" lon="9.1048">
        <ele>1233.51</ele>
        <time>2016-09-10T05:57:58Z</time>
      </trkpt>
      <trkpt lat="42.11927" lon="9.10479">
        <ele>1233.51</ele>
        <time>2016-09-10T05:58:03Z</time>
      </trkpt>
      <trkpt lat="42.11928" lon="9.10477">
        <ele>1233.51</ele>
        <time>2016-09-10T05:58:10Z</time>
      </trkpt>
      <trkpt lat="42.11929" lon="9.10472">
        <ele>1232.55</ele>
        <time>2016-09-10T05:58:15Z</time>
      </trkpt>
      <trkpt lat="42.11928" lon="9.1047">
        <ele>1231.59</ele>
        <time>2016-09-10T05:58:23Z</time>
      </trkpt>
      <trkpt lat="42.11929" lon="9.10469">
        <ele>1231.11</ele>
        <time>2016-09-10T05:58:25Z</time>
      </trkpt>
      <trkpt lat="42.1193" lon="9.1046">
        <ele>1230.62</ele>
        <time>2016-09-10T05:58:34Z</time>
      </trkpt>
      <trkpt lat="42.11931" lon="9.10459">
        <ele>1229.66</ele>
        <time>2016-09-10T05:58:42Z</time>
      </trkpt>
      <trkpt lat="42.11931" lon="9.10455">
        <ele>1228.7</ele>
        <time>2016-09-10T05:58:50Z</time>
      </trkpt>
      <trkpt lat="42.1193" lon="9.10449">
        <ele>1227.74</ele>
        <time>2016-09-10T05:58:58Z</time>
      </trkpt>
      <trkpt lat="42.1193" lon="9.10447">
        <ele>1228.7</ele>
        <time>2016-09-10T05:59:05Z</time>
      </trkpt>
      <trkpt lat="42.11931" lon="9.10444">
        <ele>1229.66</ele>
        <time>2016-09-10T05:59:12Z</time>
      </trkpt>
      <trkpt lat="42.11931" lon="9.10442">
        <ele>1229.18</ele>
        <time>2016-09-10T05:59:23Z</time>
      </trkpt>
      <trkpt lat="42.1193" lon="9.10439">
        <ele>1230.14</ele>
        <time>2016-09-10T05:59:32Z</time>
      </trkpt>
      <trkpt lat="42.1193" lon="9.10435">
        <ele>1230.14</ele>
        <time>2016-09-10T05:59:40Z</time>
      </trkpt>
      <trkpt lat="42.11933" lon="9.10428">
        <ele>1229.18</ele>
        <time>2016-09-10T05:59:47Z</time>
      </trkpt>
      <trkpt lat="42.11935" lon="9.1042">
        <ele>1228.22</ele>
        <time>2016-09-10T05:59:54Z</time>
      </trkpt>
      <trkpt lat="42.11937" lon="9.10411">
        <ele>1228.7</ele>
        <time>2016-09-10T06:00:01Z</time>
      </trkpt>
      <trkpt lat="42.11941" lon="9.10405">
        <ele>1229.18</ele>
        <time>2016-09-10T06:00:09Z</time>
      </trkpt>
      <trkpt lat="42.11943" lon="9.10401">
        <ele>1229.18</ele>
        <time>2016-09-10T06:00:17Z</time>
      </trkpt>
      <trkpt lat="42.11943" lon="9.10394">
        <ele>1229.18</ele>
        <time>2016-09-10T06:00:24Z</time>
      </trkpt>
      <trkpt lat="42.11943" lon="9.10393">
        <ele>1229.18</ele>
        <time>2016-09-10T06:00:28Z</time>
      </trkpt>
      <trkpt lat="42.11942" lon="9.10386">
        <ele>1230.14</ele>
        <time>2016-09-10T06:00:35Z</time>
      </trkpt>
      <trkpt lat="42.11942" lon="9.10382">
        <ele>1230.62</ele>
        <time>2016-09-10T06:00:44Z</time>
      </trkpt>
      <trkpt lat="42.11941" lon="9.10377">
        <ele>1230.62</ele>
        <time>2016-09-10T06:00:49Z</time>
      </trkpt>
      <trkpt lat="42.11944" lon="9.10364">
        <ele>1230.14</ele>
        <time>2016-09-10T06:00:57Z</time>
      </trkpt>
      <trkpt lat="42.11945" lon="9.10358">
        <ele>1229.66</ele>
        <time>2016-09-10T06:01:05Z</time>
      </trkpt>
      <trkpt lat="42.11943" lon="9.10352">
        <ele>1230.14</ele>
        <time>2016-09-10T06:01:14Z</time>
      </trkpt>
      <trkpt lat="42.11943" lon="9.1035">
        <ele>1231.11</ele>
        <time>2016-09-10T06:01:24Z</time>
      </trkpt>
      <trkpt lat="42.11943" lon="9.10346">
        <ele>1232.07</ele>
        <time>2016-09-10T06:01:32Z</time>
      </trkpt>
      <trkpt lat="42.11939" lon="9.10339">
        <ele>1233.03</ele>
        <time>2016-09-10T06:01:40Z</time>
      </trkpt>
      <trkpt lat="42.11939" lon="9.10332">
        <ele>1232.55</ele>
        <time>2016-09-10T06:01:48Z</time>
      </trkpt>
      <trkpt lat="42.11938" lon="9.10332">
        <ele>1233.51</ele>
        <time>2016-09-10T06:01:55Z</time>
      </trkpt>
      <trkpt lat="42.11937" lon="9.10327">
        <ele>1234.47</ele>
        <time>2016-09-10T06:02:07Z</time>
      </trkpt>
      <trkpt lat="42.11936" lon="9.10316">
        <ele>1234.95</ele>
        <time>2016-09-10T06:02:16Z</time>
      </trkpt>
      <trkpt lat="42.11934" lon="9.10291">
        <ele>1234.95</ele>
        <time>2016-09-10T06:02:25Z</time>
      </trkpt>
      <trkpt lat="42.11934" lon="9.10279">
        <ele>1234.47</ele>
        <time>2016-09-10T06:02:34Z</time>
      </trkpt>
      <trkpt lat="42.11939" lon="9.10268">
        <ele>1234.95</ele>
        <time>2016-09-10T06:02:43Z</time>
      </trkpt>
      <trkpt lat="42.11939" lon="9.10263">
        <ele>1235.43</ele>
        <time>2016-09-10T06:02:51Z</time>
      </trkpt>
      <trkpt lat="42.11946" lon="9.10247">
        <ele>1235.43</ele>
        <time>2016-09-10T06:02:58Z</time>
      </trkpt>
      <trkpt lat="42.1195" lon="9.10238">
        <ele>1234.95</ele>
        <time>2016-09-10T06:03:05Z</time>
      </trkpt>
      <trkpt lat="42.11955" lon="9.10225">
        <ele>1236.39</ele>
        <time>2016-09-10T06:03:15Z</time>
      </trkpt>
      <trkpt lat="42.11956" lon="9.10219">
        <ele>1237.83</ele>
        <time>2016-09-10T06:03:25Z</time>
      </trkpt>
      <trkpt lat="42.11955" lon="9.10215">
        <ele>1238.8</ele>
        <time>2016-09-10T06:03:33Z</time>
      </trkpt>
      <trkpt lat="42.11954" lon="9.10213">
        <ele>1239.76</ele>
        <time>2016-09-10T06:03:41Z</time>
      </trkpt>
      <trkpt lat="42.1195" lon="9.10197">
        <ele>1240.24</ele>
        <time>2016-09-10T06:03:50Z</time>
      </trkpt>
      <trkpt lat="42.11947" lon="9.10181">
        <ele>1239.76</ele>
        <time>2016-09-10T06:03:59Z</time>
      </trkpt>
      <trkpt lat="42.11943" lon="9.10175">
        <ele>1239.76</ele>
        <time>2016-09-10T06:04:06Z</time>
      </trkpt>
      <trkpt lat="42.11942" lon="9.10168">
        <ele>1240.24</ele>
        <time>2016-09-10T06:04:14Z</time>
      </trkpt>
      <trkpt lat="42.1194" lon="9.10161">
        <ele>1240.72</ele>
        <time>2016-09-10T06:04:22Z</time>
      </trkpt>
      <trkpt lat="42.11936" lon="9.10158">
        <ele>1241.2</ele>
        <time>2016-09-10T06:04:29Z</time>
      </trkpt>
      <trkpt lat="42.11935" lon="9.10157">
        <ele>1242.16</ele>
        <time>2016-09-10T06:04:38Z</time>
      </trkpt>
      <trkpt lat="42.11931" lon="9.10149">
        <ele>1242.64</ele>
        <time>2016-09-10T06:04:45Z</time>
      </trkpt>
      <trkpt lat="42.1193" lon="9.10143">
        <ele>1243.12</ele>
        <time>2016-09-10T06:04:52Z</time>
      </trkpt>
      <trkpt lat="42.11924" lon="9.10137">
        <ele>1243.6</ele>
        <time>2016-09-10T06:04:59Z</time>
      </trkpt>
      <trkpt lat="42.11918" lon="9.1013">
        <ele>1244.08</ele>
        <time>2016-09-10T06:05:08Z</time>
      </trkpt>
      <trkpt lat="42.11913" lon="9.10123">
        <ele>1245.04</ele>
        <time>2016-09-10T06:05:18Z</time>
      </trkpt>
      <trkpt lat="42.11912" lon="9.10113">
        <ele>1245.53</ele>
        <time>2016-09-10T06:05:26Z</time>
      </trkpt>
      <trkpt lat="42.11904" lon="9.10102">
        <ele>1246.49</ele>
        <time>2016-09-10T06:05:35Z</time>
      </trkpt>
      <trkpt lat="42.11901" lon="9.10094">
        <ele>1247.45</ele>
        <time>2016-09-10T06:05:47Z</time>
      </trkpt>
      <trkpt lat="42.11899" lon="9.10093">
        <ele>1248.41</ele>
        <time>2016-09-10T06:05:56Z</time>
      </trkpt>
      <trkpt lat="42.11895" lon="9.10088">
        <ele>1248.89</ele>
        <time>2016-09-10T06:06:04Z</time>
      </trkpt>
      <trkpt lat="42.11892" lon="9.10079">
        <ele>1249.85</ele>
        <time>2016-09-10T06:06:13Z</time>
      </trkpt>
      <trkpt lat="42.11889" lon="9.1007">
        <ele>1249.85</ele>
        <time>2016-09-10T06:06:21Z</time>
      </trkpt>
      <trkpt lat="42.11886" lon="9.10062">
        <ele>1250.33</ele>
        <time>2016-09-10T06:06:29Z</time>
      </trkpt>
      <trkpt lat="42.11881" lon="9.10057">
        <ele>1251.29</ele>
        <time>2016-09-10T06:06:39Z</time>
      </trkpt>
      <trkpt lat="42.1188" lon="9.10051">
        <ele>1250.33</ele>
        <time>2016-09-10T06:06:46Z</time>
      </trkpt>
      <trkpt lat="42.11881" lon="9.10047">
        <ele>1249.37</ele>
        <time>2016-09-10T06:06:55Z</time>
      </trkpt>
      <trkpt lat="42.11883" lon="9.10043">
        <ele>1248.89</ele>
        <time>2016-09-10T06:07:02Z</time>
      </trkpt>
      <trkpt lat="42.11883" lon="9.10042">
        <ele>1249.85</ele>
        <time>2016-09-10T06:07:12Z</time>
      </trkpt>
      <trkpt lat="42.11883" lon="9.10041">
        <ele>1250.81</ele>
        <time>2016-09-10T06:07:21Z</time>
      </trkpt>
      <trkpt lat="42.11884" lon="9.10041">
        <ele>1251.77</ele>
        <time>2016-09-10T06:07:30Z</time>
      </trkpt>
      <trkpt lat="42.11887" lon="9.1004">
        <ele>1252.74</ele>
        <time>2016-09-10T06:07:38Z</time>
      </trkpt>
      <trkpt lat="42.11887" lon="9.10039">
        <ele>1253.7</ele>
        <time>2016-09-10T06:07:47Z</time>
      </trkpt>
      <trkpt lat="42.11892" lon="9.10039">
        <ele>1254.66</ele>
        <time>2016-09-10T06:07:56Z</time>
      </trkpt>
      <trkpt lat="42.11893" lon="9.10037">
        <ele>1255.14</ele>
        <time>2016-09-10T06:08:09Z</time>
      </trkpt>
      <trkpt lat="42.11893" lon="9.10036">
        <ele>1255.14</ele>
        <time>2016-09-10T06:08:22Z</time>
      </trkpt>
      <trkpt lat="42.11892" lon="9.10036">
        <ele>1255.62</ele>
        <time>2016-09-10T06:08:31Z</time>
      </trkpt>
      <trkpt lat="42.11893" lon="9.10033">
        <ele>1257.06</ele>
        <time>2016-09-10T06:08:38Z</time>
      </trkpt>
      <trkpt lat="42.11893" lon="9.10032">
        <ele>1257.06</ele>
        <time>2016-09-10T06:08:47Z</time>
      </trkpt>
      <trkpt lat="42.11894" lon="9.10029">
        <ele>1258.02</ele>
        <time>2016-09-10T06:08:53Z</time>
      </trkpt>
      <trkpt lat="42.11894" lon="9.10027">
        <ele>1258.98</ele>
        <time>2016-09-10T06:08:59Z</time>
      </trkpt>
      <trkpt lat="42.11892" lon="9.10027">
        <ele>1258.5</ele>
        <time>2016-09-10T06:09:08Z</time>
      </trkpt>
      <trkpt lat="42.11892" lon="9.10025">
        <ele>1259.46</ele>
        <time>2016-09-10T06:09:15Z</time>
      </trkpt>
      <trkpt lat="42.11895" lon="9.1002">
        <ele>1259.94</ele>
        <time>2016-09-10T06:09:22Z</time>
      </trkpt>
      <trkpt lat="42.11895" lon="9.10014">
        <ele>1261.39</ele>
        <time>2016-09-10T06:09:28Z</time>
      </trkpt>
      <trkpt lat="42.11894" lon="9.10008">
        <ele>1262.83</ele>
        <time>2016-09-10T06:09:36Z</time>
      </trkpt>
      <trkpt lat="42.11895" lon="9.10006">
        <ele>1264.27</ele>
        <time>2016-09-10T06:09:45Z</time>
      </trkpt>
      <trkpt lat="42.11896" lon="9.09996">
        <ele>1264.75</ele>
        <time>2016-09-10T06:09:52Z</time>
      </trkpt>
      <trkpt lat="42.11897" lon="9.09989">
        <ele>1267.16</ele>
        <time>2016-09-10T06:10:01Z</time>
      </trkpt>
      <trkpt lat="42.11899" lon="9.09983">
        <ele>1268.6</ele>
        <time>2016-09-10T06:10:08Z</time>
      </trkpt>
      <trkpt lat="42.11902" lon="9.09986">
        <ele>1268.6</ele>
        <time>2016-09-10T06:10:14Z</time>
      </trkpt>
      <trkpt lat="42.11903" lon="9.09987">
        <ele>1268.6</ele>
        <time>2016-09-10T06:10:21Z</time>
      </trkpt>
      <trkpt lat="42.11906" lon="9.09989">
        <ele>1267.64</ele>
        <time>2016-09-10T06:10:26Z</time>
      </trkpt>
      <trkpt lat="42.1191" lon="9.09984">
        <ele>1267.16</ele>
        <time>2016-09-10T06:10:34Z</time>
      </trkpt>
      <trkpt lat="42.11911" lon="9.09981">
        <ele>1267.16</ele>
        <time>2016-09-10T06:10:40Z</time>
      </trkpt>
      <trkpt lat="42.11912" lon="9.09977">
        <ele>1267.16</ele>
        <time>2016-09-10T06:10:48Z</time>
      </trkpt>
      <trkpt lat="42.1191" lon="9.09974">
        <ele>1269.08</ele>
        <time>2016-09-10T06:10:57Z</time>
      </trkpt>
      <trkpt lat="42.1191" lon="9.09965">
        <ele>1269.56</ele>
        <time>2016-09-10T06:11:04Z</time>
      </trkpt>
      <trkpt lat="42.11913" lon="9.09956">
        <ele>1270.04</ele>
        <time>2016-09-10T06:11:12Z</time>
      </trkpt>
      <trkpt lat="42.11916" lon="9.09949">
        <ele>1270.52</ele>
        <time>2016-09-10T06:11:21Z</time>
      </trkpt>
      <trkpt lat="42.11918" lon="9.09941">
        <ele>1271.48</ele>
        <time>2016-09-10T06:11:28Z</time>
      </trkpt>
      <trkpt lat="42.11919" lon="9.09936">
        <ele>1272.44</ele>
        <time>2016-09-10T06:11:36Z</time>
      </trkpt>
      <trkpt lat="42.11919" lon="9.09928">
        <ele>1272.92</ele>
        <time>2016-09-10T06:11:44Z</time>
      </trkpt>
      <trkpt lat="42.11921" lon="9.09922">
        <ele>1273.88</ele>
        <time>2016-09-10T06:11:53Z</time>
      </trkpt>
      <trkpt lat="42.11921" lon="9.09917">
        <ele>1275.33</ele>
        <time>2016-09-10T06:12:04Z</time>
      </trkpt>
      <trkpt lat="42.1192" lon="9.09911">
        <ele>1276.29</ele>
        <time>2016-09-10T06:12:12Z</time>
      </trkpt>
      <trkpt lat="42.1192" lon="9.09905">
        <ele>1277.25</ele>
        <time>2016-09-10T06:12:21Z</time>
      </trkpt>
      <trkpt lat="42.11922" lon="9.09902">
        <ele>1278.21</ele>
        <time>2016-09-10T06:12:28Z</time>
      </trkpt>
      <trkpt lat="42.11925" lon="9.099">
        <ele>1278.69</ele>
        <time>2016-09-10T06:12:34Z</time>
      </trkpt>
      <trkpt lat="42.11934" lon="9.09896">
        <ele>1279.17</ele>
        <time>2016-09-10T06:12:41Z</time>
      </trkpt>
      <trkpt lat="42.11937" lon="9.09892">
        <ele>1280.13</ele>
        <time>2016-09-10T06:12:50Z</time>
      </trkpt>
      <trkpt lat="42.11936" lon="9.09888">
        <ele>1281.09</ele>
        <time>2016-09-10T06:12:58Z</time>
      </trkpt>
      <trkpt lat="42.11936" lon="9.09885">
        <ele>1282.54</ele>
        <time>2016-09-10T06:13:07Z</time>
      </trkpt>
      <trkpt lat="42.11937" lon="9.09883">
        <ele>1283.02</ele>
        <time>2016-09-10T06:13:19Z</time>
      </trkpt>
      <trkpt lat="42.11938" lon="9.09878">
        <ele>1283.5</ele>
        <time>2016-09-10T06:13:28Z</time>
      </trkpt>
      <trkpt lat="42.11938" lon="9.0987">
        <ele>1284.94</ele>
        <time>2016-09-10T06:13:38Z</time>
      </trkpt>
      <trkpt lat="42.11938" lon="9.09867">
        <ele>1285.42</ele>
        <time>2016-09-10T06:13:45Z</time>
      </trkpt>
      <trkpt lat="42.11938" lon="9.09865">
        <ele>1286.38</ele>
        <time>2016-09-10T06:13:52Z</time>
      </trkpt>
      <trkpt lat="42.11938" lon="9.09863">
        <ele>1287.82</ele>
        <time>2016-09-10T06:14:03Z</time>
      </trkpt>
      <trkpt lat="42.11937" lon="9.09863">
        <ele>1288.3</ele>
        <time>2016-09-10T06:14:10Z</time>
      </trkpt>
      <trkpt lat="42.11936" lon="9.09862">
        <ele>1288.78</ele>
        <time>2016-09-10T06:14:17Z</time>
      </trkpt>
      <trkpt lat="42.11939" lon="9.09859">
        <ele>1289.75</ele>
        <time>2016-09-10T06:14:23Z</time>
      </trkpt>
      <trkpt lat="42.11939" lon="9.09858">
        <ele>1289.75</ele>
        <time>2016-09-10T06:14:34Z</time>
      </trkpt>
      <trkpt lat="42.11939" lon="9.09855">
        <ele>1290.71</ele>
        <time>2016-09-10T06:14:43Z</time>
      </trkpt>
      <trkpt lat="42.11938" lon="9.09852">
        <ele>1291.19</ele>
        <time>2016-09-10T06:14:50Z</time>
      </trkpt>
      <trkpt lat="42.11938" lon="9.09848">
        <ele>1292.63</ele>
        <time>2016-09-10T06:14:59Z</time>
      </trkpt>
      <trkpt lat="42.11939" lon="9.09843">
        <ele>1293.59</ele>
        <time>2016-09-10T06:15:08Z</time>
      </trkpt>
      <trkpt lat="42.11941" lon="9.09836">
        <ele>1295.03</ele>
        <time>2016-09-10T06:15:17Z</time>
      </trkpt>
      <trkpt lat="42.11942" lon="9.09836">
        <ele>1296.48</ele>
        <time>2016-09-10T06:15:23Z</time>
      </trkpt>
      <trkpt lat="42.11943" lon="9.09835">
        <ele>1296.96</ele>
        <time>2016-09-10T06:15:33Z</time>
      </trkpt>
      <trkpt lat="42.11945" lon="9.09832">
        <ele>1298.4</ele>
        <time>2016-09-10T06:15:40Z</time>
      </trkpt>
      <trkpt lat="42.11945" lon="9.0983">
        <ele>1298.88</ele>
        <time>2016-09-10T06:15:50Z</time>
      </trkpt>
      <trkpt lat="42.11946" lon="9.09824">
        <ele>1299.84</ele>
        <time>2016-09-10T06:15:58Z</time>
      </trkpt>
      <trkpt lat="42.11951" lon="9.09822">
        <ele>1300.8</ele>
        <time>2016-09-10T06:16:08Z</time>
      </trkpt>
      <trkpt lat="42.11952" lon="9.09821">
        <ele>1302.24</ele>
        <time>2016-09-10T06:16:18Z</time>
      </trkpt>
      <trkpt lat="42.11951" lon="9.09819">
        <ele>1303.2</ele>
        <time>2016-09-10T06:16:25Z</time>
      </trkpt>
      <trkpt lat="42.11955" lon="9.09814">
        <ele>1305.13</ele>
        <time>2016-09-10T06:16:33Z</time>
      </trkpt>
      <trkpt lat="42.11958" lon="9.09809">
        <ele>1306.09</ele>
        <time>2016-09-10T06:16:44Z</time>
      </trkpt>
      <trkpt lat="42.11961" lon="9.09803">
        <ele>1308.01</ele>
        <time>2016-09-10T06:16:52Z</time>
      </trkpt>
      <trkpt lat="42.11967" lon="9.098">
        <ele>1309.45</ele>
        <time>2016-09-10T06:17:00Z</time>
      </trkpt>
      <trkpt lat="42.11968" lon="9.098">
        <ele>1309.45</ele>
        <time>2016-09-10T06:17:01Z</time>
      </trkpt>
      <trkpt lat="42.11972" lon="9.098">
        <ele>1308.97</ele>
        <time>2016-09-10T06:17:08Z</time>
      </trkpt>
      <trkpt lat="42.11974" lon="9.09801">
        <ele>1308.49</ele>
        <time>2016-09-10T06:17:17Z</time>
      </trkpt>
      <trkpt lat="42.11976" lon="9.09802">
        <ele>1308.01</ele>
        <time>2016-09-10T06:17:25Z</time>
      </trkpt>
      <trkpt lat="42.11978" lon="9.09802">
        <ele>1308.01</ele>
        <time>2016-09-10T06:17:33Z</time>
      </trkpt>
      <trkpt lat="42.1198" lon="9.09802">
        <ele>1308.49</ele>
        <time>2016-09-10T06:17:44Z</time>
      </trkpt>
      <trkpt lat="42.1198" lon="9.098">
        <ele>1308.49</ele>
        <time>2016-09-10T06:17:51Z</time>
      </trkpt>
      <trkpt lat="42.11981" lon="9.09798">
        <ele>1308.49</ele>
        <time>2016-09-10T06:17:57Z</time>
      </trkpt>
      <trkpt lat="42.11982" lon="9.09796">
        <ele>1308.97</ele>
        <time>2016-09-10T06:18:05Z</time>
      </trkpt>
      <trkpt lat="42.11982" lon="9.09799">
        <ele>1308.49</ele>
        <time>2016-09-10T06:18:13Z</time>
      </trkpt>
      <trkpt lat="42.11983" lon="9.09801">
        <ele>1308.01</ele>
        <time>2016-09-10T06:18:19Z</time>
      </trkpt>
      <trkpt lat="42.11985" lon="9.098">
        <ele>1308.01</ele>
        <time>2016-09-10T06:18:27Z</time>
      </trkpt>
      <trkpt lat="42.11984" lon="9.09799">
        <ele>1308.49</ele>
        <time>2016-09-10T06:18:37Z</time>
      </trkpt>
      <trkpt lat="42.11983" lon="9.09799">
        <ele>1308.49</ele>
        <time>2016-09-10T06:18:51Z</time>
      </trkpt>
      <trkpt lat="42.11983" lon="9.09799">
        <ele>1308.49</ele>
        <time>2016-09-10T06:19:00Z</time>
      </trkpt>
      <trkpt lat="42.11983" lon="9.09799">
        <ele>1308.49</ele>
        <time>2016-09-10T06:19:11Z</time>
      </trkpt>
      <trkpt lat="42.11983" lon="9.098">
        <ele>1308.01</ele>
        <time>2016-09-10T06:19:18Z</time>
      </trkpt>
      <trkpt lat="42.11981" lon="9.09802">
        <ele>1308.49</ele>
        <time>2016-09-10T06:19:26Z</time>
      </trkpt>
      <trkpt lat="42.11982" lon="9.09801">
        <ele>1308.49</ele>
        <time>2016-09-10T06:19:36Z</time>
      </trkpt>
      <trkpt lat="42.11981" lon="9.09801">
        <ele>1308.97</ele>
        <time>2016-09-10T06:19:50Z</time>
      </trkpt>
      <trkpt lat="42.11979" lon="9.09803">
        <ele>1308.97</ele>
        <time>2016-09-10T06:19:59Z</time>
      </trkpt>
      <trkpt lat="42.1198" lon="9.09802">
        <ele>1308.97</ele>
        <time>2016-09-10T06:20:09Z</time>
      </trkpt>
      <trkpt lat="42.11981" lon="9.09802">
        <ele>1309.45</ele>
        <time>2016-09-10T06:20:26Z</time>
      </trkpt>
      <trkpt lat="42.11981" lon="9.09799">
        <ele>1309.45</ele>
        <time>2016-09-10T06:20:37Z</time>
      </trkpt>
      <trkpt lat="42.11982" lon="9.09798">
        <ele>1309.93</ele>
        <time>2016-09-10T06:20:45Z</time>
      </trkpt>
      <trkpt lat="42.11982" lon="9.09797">
        <ele>1310.41</ele>
        <time>2016-09-10T06:20:57Z</time>
      </trkpt>
      <trkpt lat="42.11981" lon="9.09796">
        <ele>1309.93</ele>
        <time>2016-09-10T06:21:08Z</time>
      </trkpt>
      <trkpt lat="42.11981" lon="9.09795">
        <ele>1310.41</ele>
        <time>2016-09-10T06:21:24Z</time>
      </trkpt>
      <trkpt lat="42.11981" lon="9.09795">
        <ele>1309.93</ele>
        <time>2016-09-10T06:21:40Z</time>
      </trkpt>
      <trkpt lat="42.11981" lon="9.09795">
        <ele>1310.41</ele>
        <time>2016-09-10T06:21:50Z</time>
      </trkpt>
      <trkpt lat="42.11981" lon="9.09795">
        <ele>1310.41</ele>
        <time>2016-09-10T06:21:58Z</time>
      </trkpt>
      <trkpt lat="42.11981" lon="9.09797">
        <ele>1309.93</ele>
        <time>2016-09-10T06:22:05Z</time>
      </trkpt>
      <trkpt lat="42.1198" lon="9.09798">
        <ele>1309.93</ele>
        <time>2016-09-10T06:22:17Z</time>
      </trkpt>
      <trkpt lat="42.11979" lon="9.09799">
        <ele>1309.93</ele>
        <time>2016-09-10T06:22:30Z</time>
      </trkpt>
      <trkpt lat="42.11979" lon="9.09799">
        <ele>1309.93</ele>
        <time>2016-09-10T06:22:43Z</time>
      </trkpt>
      <trkpt lat="42.11978" lon="9.09799">
        <ele>1309.93</ele>
        <time>2016-09-10T06:22:53Z</time>
      </trkpt>
      <trkpt lat="42.11978" lon="9.098">
        <ele>1309.93</ele>
        <time>2016-09-10T06:23:09Z</time>
      </trkpt>
      <trkpt lat="42.1198" lon="9.098">
        <ele>1310.41</ele>
        <time>2016-09-10T06:23:26Z</time>
      </trkpt>
      <trkpt lat="42.1198" lon="9.098">
        <ele>1310.41</ele>
        <time>2016-09-10T06:23:37Z</time>
      </trkpt>
      <trkpt lat="42.1198" lon="9.098">
        <ele>1310.41</ele>
        <time>2016-09-10T06:23:46Z</time>
      </trkpt>
      <trkpt lat="42.1198" lon="9.098">
        <ele>1310.9</ele>
        <time>2016-09-10T06:23:59Z</time>
      </trkpt>
      <trkpt lat="42.1198" lon="9.098">
        <ele>1310.9</ele>
        <time>2016-09-10T06:24:13Z</time>
      </trkpt>
      <trkpt lat="42.11979" lon="9.098">
        <ele>1310.9</ele>
        <time>2016-09-10T06:24:22Z</time>
      </trkpt>
      <trkpt lat="42.11979" lon="9.09801">
        <ele>1310.9</ele>
        <time>2016-09-10T06:24:37Z</time>
      </trkpt>
      <trkpt lat="42.11978" lon="9.098">
        <ele>1310.9</ele>
        <time>2016-09-10T06:24:52Z</time>
      </trkpt>
      <trkpt lat="42.11978" lon="9.098">
        <ele>1310.9</ele>
        <time>2016-09-10T06:25:01Z</time>
      </trkpt>
      <trkpt lat="42.1198" lon="9.098">
        <ele>1311.38</ele>
        <time>2016-09-10T06:25:17Z</time>
      </trkpt>
      <trkpt lat="42.11981" lon="9.098">
        <ele>1311.38</ele>
        <time>2016-09-10T06:25:29Z</time>
      </trkpt>
      <trkpt lat="42.11981" lon="9.09799">
        <ele>1311.38</ele>
        <time>2016-09-10T06:25:46Z</time>
      </trkpt>
      <trkpt lat="42.11981" lon="9.09798">
        <ele>1311.38</ele>
        <time>2016-09-10T06:25:56Z</time>
      </trkpt>
      <trkpt lat="42.1198" lon="9.09798">
        <ele>1311.38</ele>
        <time>2016-09-10T06:26:11Z</time>
      </trkpt>
      <trkpt lat="42.1198" lon="9.09798">
        <ele>1311.86</ele>
        <time>2016-09-10T06:26:22Z</time>
      </trkpt>
      <trkpt lat="42.1198" lon="9.09798">
        <ele>1311.86</ele>
        <time>2016-09-10T06:26:39Z</time>
      </trkpt>
      <trkpt lat="42.1198" lon="9.09798">
        <ele>1311.86</ele>
        <time>2016-09-10T06:26:53Z</time>
      </trkpt>
      <trkpt lat="42.11981" lon="9.09797">
        <ele>1311.86</ele>
        <time>2016-09-10T06:27:07Z</time>
      </trkpt>
      <trkpt lat="42.11981" lon="9.09796">
        <ele>1311.86</ele>
        <time>2016-09-10T06:27:14Z</time>
      </trkpt>
      <trkpt lat="42.11981" lon="9.09796">
        <ele>1311.86</ele>
        <time>2016-09-10T06:27:28Z</time>
      </trkpt>
      <trkpt lat="42.11981" lon="9.09796">
        <ele>1312.34</ele>
        <time>2016-09-10T06:27:39Z</time>
      </trkpt>
      <trkpt lat="42.11981" lon="9.09796">
        <ele>1311.86</ele>
        <time>2016-09-10T06:27:54Z</time>
      </trkpt>
      <trkpt lat="42.11981" lon="9.09796">
        <ele>1312.34</ele>
        <time>2016-09-10T06:28:10Z</time>
      </trkpt>
      <trkpt lat="42.1198" lon="9.09795">
        <ele>1312.34</ele>
        <time>2016-09-10T06:28:20Z</time>
      </trkpt>
      <trkpt lat="42.11981" lon="9.09796">
        <ele>1312.34</ele>
        <time>2016-09-10T06:28:32Z</time>
      </trkpt>
      <trkpt lat="42.11981" lon="9.09795">
        <ele>1312.34</ele>
        <time>2016-09-10T06:28:41Z</time>
      </trkpt>
      <trkpt lat="42.11982" lon="9.09795">
        <ele>1312.82</ele>
        <time>2016-09-10T06:28:52Z</time>
      </trkpt>
      <trkpt lat="42.11981" lon="9.09795">
        <ele>1312.82</ele>
        <time>2016-09-10T06:29:00Z</time>
      </trkpt>
      <trkpt lat="42.1198" lon="9.09796">
        <ele>1310.9</ele>
        <time>2016-09-10T06:29:07Z</time>
      </trkpt>
      <trkpt lat="42.11973" lon="9.09799">
        <ele>1312.82</ele>
        <time>2016-09-10T06:29:14Z</time>
      </trkpt>
      <trkpt lat="42.11968" lon="9.09799">
        <ele>1314.26</ele>
        <time>2016-09-10T06:29:21Z</time>
      </trkpt>
      <trkpt lat="42.11967" lon="9.0979">
        <ele>1316.18</ele>
        <time>2016-09-10T06:29:30Z</time>
      </trkpt>
      <trkpt lat="42.11967" lon="9.09786">
        <ele>1317.14</ele>
        <time>2016-09-10T06:29:34Z</time>
      </trkpt>
      <trkpt lat="42.11971" lon="9.09772">
        <ele>1318.1</ele>
        <time>2016-09-10T06:29:41Z</time>
      </trkpt>
      <trkpt lat="42.11971" lon="9.09764">
        <ele>1319.55</ele>
        <time>2016-09-10T06:29:48Z</time>
      </trkpt>
      <trkpt lat="42.11974" lon="9.09762">
        <ele>1320.03</ele>
        <time>2016-09-10T06:29:50Z</time>
      </trkpt>
      <trkpt lat="42.11976" lon="9.09756">
        <ele>1320.99</ele>
        <time>2016-09-10T06:29:56Z</time>
      </trkpt>
      <trkpt lat="42.11976" lon="9.09746">
        <ele>1321.47</ele>
        <time>2016-09-10T06:30:04Z</time>
      </trkpt>
      <trkpt lat="42.11979" lon="9.0974">
        <ele>1321.95</ele>
        <time>2016-09-10T06:30:11Z</time>
      </trkpt>
      <trkpt lat="42.11984" lon="9.09736">
        <ele>1321.47</ele>
        <time>2016-09-10T06:30:18Z</time>
      </trkpt>
      <trkpt lat="42.11984" lon="9.09735">
        <ele>1321.47</ele>
        <time>2016-09-10T06:30:19Z</time>
      </trkpt>
      <trkpt lat="42.11987" lon="9.09723">
        <ele>1320.99</ele>
        <time>2016-09-10T06:30:27Z</time>
      </trkpt>
      <trkpt lat="42.1199" lon="9.09714">
        <ele>1320.03</ele>
        <time>2016-09-10T06:30:34Z</time>
      </trkpt>
      <trkpt lat="42.11992" lon="9.09708">
        <ele>1321.47</ele>
        <time>2016-09-10T06:30:40Z</time>
      </trkpt>
      <trkpt lat="42.11993" lon="9.09706">
        <ele>1320.99</ele>
        <time>2016-09-10T06:30:48Z</time>
      </trkpt>
      <trkpt lat="42.11993" lon="9.09703">
        <ele>1320.51</ele>
        <time>2016-09-10T06:30:56Z</time>
      </trkpt>
      <trkpt lat="42.11993" lon="9.097">
        <ele>1320.99</ele>
        <time>2016-09-10T06:31:02Z</time>
      </trkpt>
      <trkpt lat="42.11997" lon="9.09698">
        <ele>1321.47</ele>
        <time>2016-09-10T06:31:07Z</time>
      </trkpt>
      <trkpt lat="42.11999" lon="9.09688">
        <ele>1321.95</ele>
        <time>2016-09-10T06:31:14Z</time>
      </trkpt>
      <trkpt lat="42.12001" lon="9.09679">
        <ele>1322.43</ele>
        <time>2016-09-10T06:31:21Z</time>
      </trkpt>
      <trkpt lat="42.12005" lon="9.0967">
        <ele>1322.91</ele>
        <time>2016-09-10T06:31:27Z</time>
      </trkpt>
      <trkpt lat="42.12006" lon="9.09664">
        <ele>1323.39</ele>
        <time>2016-09-10T06:31:33Z</time>
      </trkpt>
      <trkpt lat="42.12005" lon="9.0966">
        <ele>1323.39</ele>
        <time>2016-09-10T06:31:39Z</time>
      </trkpt>
      <trkpt lat="42.12003" lon="9.09654">
        <ele>1323.87</ele>
        <time>2016-09-10T06:31:46Z</time>
      </trkpt>
      <trkpt lat="42.12007" lon="9.09648">
        <ele>1324.35</ele>
        <time>2016-09-10T06:31:53Z</time>
      </trkpt>
      <trkpt lat="42.12009" lon="9.09646">
        <ele>1323.87</ele>
        <time>2016-09-10T06:32:01Z</time>
      </trkpt>
      <trkpt lat="42.1201" lon="9.09641">
        <ele>1324.83</ele>
        <time>2016-09-10T06:32:07Z</time>
      </trkpt>
      <trkpt lat="42.12014" lon="9.09634">
        <ele>1325.8</ele>
        <time>2016-09-10T06:32:14Z</time>
      </trkpt>
      <trkpt lat="42.12016" lon="9.09628">
        <ele>1325.8</ele>
        <time>2016-09-10T06:32:20Z</time>
      </trkpt>
      <trkpt lat="42.12018" lon="9.09622">
        <ele>1325.8</ele>
        <time>2016-09-10T06:32:23Z</time>
      </trkpt>
      <trkpt lat="42.12019" lon="9.09616">
        <ele>1325.8</ele>
        <time>2016-09-10T06:32:29Z</time>
      </trkpt>
      <trkpt lat="42.12017" lon="9.0961">
        <ele>1325.8</ele>
        <time>2016-09-10T06:32:35Z</time>
      </trkpt>
      <trkpt lat="42.1202" lon="9.09604">
        <ele>1326.76</ele>
        <time>2016-09-10T06:32:42Z</time>
      </trkpt>
      <trkpt lat="42.12028" lon="9.09597">
        <ele>1326.76</ele>
        <time>2016-09-10T06:32:50Z</time>
      </trkpt>
      <trkpt lat="42.12032" lon="9.09597">
        <ele>1328.2</ele>
        <time>2016-09-10T06:32:58Z</time>
      </trkpt>
      <trkpt lat="42.12037" lon="9.09595">
        <ele>1327.72</ele>
        <time>2016-09-10T06:33:05Z</time>
      </trkpt>
      <trkpt lat="42.12038" lon="9.09591">
        <ele>1328.68</ele>
        <time>2016-09-10T06:33:14Z</time>
      </trkpt>
      <trkpt lat="42.12036" lon="9.09589">
        <ele>1328.68</ele>
        <time>2016-09-10T06:33:22Z</time>
      </trkpt>
      <trkpt lat="42.12038" lon="9.09585">
        <ele>1329.16</ele>
        <time>2016-09-10T06:33:29Z</time>
      </trkpt>
      <trkpt lat="42.12038" lon="9.09584">
        <ele>1329.16</ele>
        <time>2016-09-10T06:33:38Z</time>
      </trkpt>
      <trkpt lat="42.12038" lon="9.09583">
        <ele>1330.6</ele>
        <time>2016-09-10T06:33:47Z</time>
      </trkpt>
      <trkpt lat="42.12038" lon="9.09581">
        <ele>1331.56</ele>
        <time>2016-09-10T06:33:56Z</time>
      </trkpt>
      <trkpt lat="42.1204" lon="9.0958">
        <ele>1332.52</ele>
        <time>2016-09-10T06:34:03Z</time>
      </trkpt>
      <trkpt lat="42.12041" lon="9.0958">
        <ele>1333.49</ele>
        <time>2016-09-10T06:34:10Z</time>
      </trkpt>
      <trkpt lat="42.12047" lon="9.09579">
        <ele>1334.93</ele>
        <time>2016-09-10T06:34:18Z</time>
      </trkpt>
      <trkpt lat="42.12051" lon="9.09575">
        <ele>1336.37</ele>
        <time>2016-09-10T06:34:25Z</time>
      </trkpt>
      <trkpt lat="42.12053" lon="9.09568">
        <ele>1338.77</ele>
        <time>2016-09-10T06:34:33Z</time>
      </trkpt>
      <trkpt lat="42.12053" lon="9.09567">
        <ele>1338.77</ele>
        <time>2016-09-10T06:34:34Z</time>
      </trkpt>
      <trkpt lat="42.12057" lon="9.09559">
        <ele>1340.22</ele>
        <time>2016-09-10T06:34:44Z</time>
      </trkpt>
      <trkpt lat="42.12058" lon="9.09555">
        <ele>1341.66</ele>
        <time>2016-09-10T06:34:51Z</time>
      </trkpt>
      <trkpt lat="42.12061" lon="9.09549">
        <ele>1344.06</ele>
        <time>2016-09-10T06:35:00Z</time>
      </trkpt>
      <trkpt lat="42.12064" lon="9.09543">
        <ele>1344.54</ele>
        <time>2016-09-10T06:35:08Z</time>
      </trkpt>
      <trkpt lat="42.12067" lon="9.09537">
        <ele>1344.06</ele>
        <time>2016-09-10T06:35:17Z</time>
      </trkpt>
      <trkpt lat="42.12072" lon="9.09532">
        <ele>1345.02</ele>
        <time>2016-09-10T06:35:23Z</time>
      </trkpt>
      <trkpt lat="42.12076" lon="9.09526">
        <ele>1345.5</ele>
        <time>2016-09-10T06:35:30Z</time>
      </trkpt>
      <trkpt lat="42.12077" lon="9.09518">
        <ele>1346.46</ele>
        <time>2016-09-10T06:35:39Z</time>
      </trkpt>
      <trkpt lat="42.12079" lon="9.09507">
        <ele>1346.94</ele>
        <time>2016-09-10T06:35:50Z</time>
      </trkpt>
      <trkpt lat="42.12087" lon="9.09503">
        <ele>1347.43</ele>
        <time>2016-09-10T06:35:59Z</time>
      </trkpt>
      <trkpt lat="42.12092" lon="9.09503">
        <ele>1347.91</ele>
        <time>2016-09-10T06:36:06Z</time>
      </trkpt>
      <trkpt lat="42.12098" lon="9.09503">
        <ele>1347.91</ele>
        <time>2016-09-10T06:36:13Z</time>
      </trkpt>
      <trkpt lat="42.121" lon="9.09501">
        <ele>1348.39</ele>
        <time>2016-09-10T06:36:21Z</time>
      </trkpt>
      <trkpt lat="42.121" lon="9.09498">
        <ele>1349.35</ele>
        <time>2016-09-10T06:36:29Z</time>
      </trkpt>
      <trkpt lat="42.12103" lon="9.09496">
        <ele>1349.83</ele>
        <time>2016-09-10T06:36:35Z</time>
      </trkpt>
      <trkpt lat="42.12104" lon="9.09495">
        <ele>1350.79</ele>
        <time>2016-09-10T06:36:43Z</time>
      </trkpt>
      <trkpt lat="42.12105" lon="9.0949">
        <ele>1351.27</ele>
        <time>2016-09-10T06:36:51Z</time>
      </trkpt>
      <trkpt lat="42.12106" lon="9.09487">
        <ele>1352.23</ele>
        <time>2016-09-10T06:37:00Z</time>
      </trkpt>
      <trkpt lat="42.12109" lon="9.0948">
        <ele>1353.19</ele>
        <time>2016-09-10T06:37:08Z</time>
      </trkpt>
      <trkpt lat="42.12107" lon="9.09478">
        <ele>1354.15</ele>
        <time>2016-09-10T06:37:14Z</time>
      </trkpt>
      <trkpt lat="42.12105" lon="9.09476">
        <ele>1354.63</ele>
        <time>2016-09-10T06:37:20Z</time>
      </trkpt>
      <trkpt lat="42.12106" lon="9.09472">
        <ele>1355.12</ele>
        <time>2016-09-10T06:37:28Z</time>
      </trkpt>
      <trkpt lat="42.12106" lon="9.09467">
        <ele>1356.56</ele>
        <time>2016-09-10T06:37:35Z</time>
      </trkpt>
      <trkpt lat="42.12105" lon="9.09464">
        <ele>1357.04</ele>
        <time>2016-09-10T06:37:42Z</time>
      </trkpt>
      <trkpt lat="42.12102" lon="9.09465">
        <ele>1358</ele>
        <time>2016-09-10T06:37:50Z</time>
      </trkpt>
      <trkpt lat="42.121" lon="9.09461">
        <ele>1358.96</ele>
        <time>2016-09-10T06:37:58Z</time>
      </trkpt>
      <trkpt lat="42.12099" lon="9.09458">
        <ele>1359.92</ele>
        <time>2016-09-10T06:38:07Z</time>
      </trkpt>
      <trkpt lat="42.12102" lon="9.09452">
        <ele>1361.36</ele>
        <time>2016-09-10T06:38:17Z</time>
      </trkpt>
      <trkpt lat="42.12104" lon="9.09447">
        <ele>1361.84</ele>
        <time>2016-09-10T06:38:25Z</time>
      </trkpt>
      <trkpt lat="42.12106" lon="9.09446">
        <ele>1361.84</ele>
        <time>2016-09-10T06:38:33Z</time>
      </trkpt>
      <trkpt lat="42.1211" lon="9.09446">
        <ele>1363.29</ele>
        <time>2016-09-10T06:38:39Z</time>
      </trkpt>
      <trkpt lat="42.12113" lon="9.09441">
        <ele>1365.21</ele>
        <time>2016-09-10T06:38:46Z</time>
      </trkpt>
      <trkpt lat="42.12113" lon="9.09433">
        <ele>1366.17</ele>
        <time>2016-09-10T06:38:54Z</time>
      </trkpt>
      <trkpt lat="42.12113" lon="9.09427">
        <ele>1367.13</ele>
        <time>2016-09-10T06:39:01Z</time>
      </trkpt>
      <trkpt lat="42.12111" lon="9.09417">
        <ele>1367.13</ele>
        <time>2016-09-10T06:39:10Z</time>
      </trkpt>
      <trkpt lat="42.12111" lon="9.09409">
        <ele>1367.13</ele>
        <time>2016-09-10T06:39:18Z</time>
      </trkpt>
      <trkpt lat="42.12108" lon="9.09401">
        <ele>1367.61</ele>
        <time>2016-09-10T06:39:26Z</time>
      </trkpt>
      <trkpt lat="42.12107" lon="9.09396">
        <ele>1368.09</ele>
        <time>2016-09-10T06:39:33Z</time>
      </trkpt>
      <trkpt lat="42.12105" lon="9.09394">
        <ele>1368.57</ele>
        <time>2016-09-10T06:39:39Z</time>
      </trkpt>
      <trkpt lat="42.12105" lon="9.09391">
        <ele>1369.54</ele>
        <time>2016-09-10T06:39:46Z</time>
      </trkpt>
      <trkpt lat="42.12104" lon="9.09388">
        <ele>1370.5</ele>
        <time>2016-09-10T06:39:56Z</time>
      </trkpt>
      <trkpt lat="42.12105" lon="9.0938">
        <ele>1370.02</ele>
        <time>2016-09-10T06:40:06Z</time>
      </trkpt>
      <trkpt lat="42.12107" lon="9.09374">
        <ele>1372.42</ele>
        <time>2016-09-10T06:40:12Z</time>
      </trkpt>
      <trkpt lat="42.12109" lon="9.09367">
        <ele>1372.9</ele>
        <time>2016-09-10T06:40:19Z</time>
      </trkpt>
      <trkpt lat="42.12109" lon="9.0936">
        <ele>1373.86</ele>
        <time>2016-09-10T06:40:26Z</time>
      </trkpt>
      <trkpt lat="42.12107" lon="9.09351">
        <ele>1375.3</ele>
        <time>2016-09-10T06:40:35Z</time>
      </trkpt>
      <trkpt lat="42.12103" lon="9.09348">
        <ele>1375.78</ele>
        <time>2016-09-10T06:40:41Z</time>
      </trkpt>
      <trkpt lat="42.12098" lon="9.0934">
        <ele>1375.78</ele>
        <time>2016-09-10T06:40:49Z</time>
      </trkpt>
      <trkpt lat="42.12099" lon="9.09334">
        <ele>1375.78</ele>
        <time>2016-09-10T06:40:56Z</time>
      </trkpt>
      <trkpt lat="42.12098" lon="9.09332">
        <ele>1376.26</ele>
        <time>2016-09-10T06:41:04Z</time>
      </trkpt>
      <trkpt lat="42.12097" lon="9.09327">
        <ele>1376.75</ele>
        <time>2016-09-10T06:41:13Z</time>
      </trkpt>
      <trkpt lat="42.12096" lon="9.0932">
        <ele>1377.23</ele>
        <time>2016-09-10T06:41:21Z</time>
      </trkpt>
      <trkpt lat="42.12094" lon="9.09313">
        <ele>1378.67</ele>
        <time>2016-09-10T06:41:32Z</time>
      </trkpt>
      <trkpt lat="42.12099" lon="9.09308">
        <ele>1379.63</ele>
        <time>2016-09-10T06:41:39Z</time>
      </trkpt>
      <trkpt lat="42.12098" lon="9.09304">
        <ele>1380.59</ele>
        <time>2016-09-10T06:41:48Z</time>
      </trkpt>
      <trkpt lat="42.12098" lon="9.09301">
        <ele>1381.55</ele>
        <time>2016-09-10T06:41:56Z</time>
      </trkpt>
      <trkpt lat="42.12103" lon="9.09294">
        <ele>1382.03</ele>
        <time>2016-09-10T06:42:05Z</time>
      </trkpt>
      <trkpt lat="42.12103" lon="9.09291">
        <ele>1382.99</ele>
        <time>2016-09-10T06:42:12Z</time>
      </trkpt>
      <trkpt lat="42.12106" lon="9.09286">
        <ele>1383.96</ele>
        <time>2016-09-10T06:42:19Z</time>
      </trkpt>
      <trkpt lat="42.12107" lon="9.09281">
        <ele>1383.96</ele>
        <time>2016-09-10T06:42:30Z</time>
      </trkpt>
      <trkpt lat="42.12109" lon="9.09275">
        <ele>1385.4</ele>
        <time>2016-09-10T06:42:40Z</time>
      </trkpt>
      <trkpt lat="42.1211" lon="9.09271">
        <ele>1385.88</ele>
        <time>2016-09-10T06:42:47Z</time>
      </trkpt>
      <trkpt lat="42.12113" lon="9.09265">
        <ele>1387.32</ele>
        <time>2016-09-10T06:42:56Z</time>
      </trkpt>
      <trkpt lat="42.12115" lon="9.09263">
        <ele>1387.8</ele>
        <time>2016-09-10T06:43:04Z</time>
      </trkpt>
      <trkpt lat="42.12116" lon="9.09262">
        <ele>1387.8</ele>
        <time>2016-09-10T06:43:13Z</time>
      </trkpt>
      <trkpt lat="42.12117" lon="9.09261">
        <ele>1388.76</ele>
        <time>2016-09-10T06:43:20Z</time>
      </trkpt>
      <trkpt lat="42.1212" lon="9.09256">
        <ele>1390.2</ele>
        <time>2016-09-10T06:43:30Z</time>
      </trkpt>
      <trkpt lat="42.12118" lon="9.09255">
        <ele>1391.17</ele>
        <time>2016-09-10T06:43:40Z</time>
      </trkpt>
      <trkpt lat="42.1212" lon="9.09249">
        <ele>1392.61</ele>
        <time>2016-09-10T06:43:49Z</time>
      </trkpt>
      <trkpt lat="42.12119" lon="9.09241">
        <ele>1393.09</ele>
        <time>2016-09-10T06:43:57Z</time>
      </trkpt>
      <trkpt lat="42.12119" lon="9.09235">
        <ele>1394.05</ele>
        <time>2016-09-10T06:44:04Z</time>
      </trkpt>
      <trkpt lat="42.12121" lon="9.09233">
        <ele>1394.05</ele>
        <time>2016-09-10T06:44:11Z</time>
      </trkpt>
      <trkpt lat="42.12121" lon="9.0923">
        <ele>1394.53</ele>
        <time>2016-09-10T06:44:18Z</time>
      </trkpt>
      <trkpt lat="42.12121" lon="9.09223">
        <ele>1395.97</ele>
        <time>2016-09-10T06:44:25Z</time>
      </trkpt>
      <trkpt lat="42.12121" lon="9.09218">
        <ele>1397.41</ele>
        <time>2016-09-10T06:44:32Z</time>
      </trkpt>
      <trkpt lat="42.12122" lon="9.09213">
        <ele>1397.89</ele>
        <time>2016-09-10T06:44:39Z</time>
      </trkpt>
      <trkpt lat="42.1212" lon="9.0921">
        <ele>1398.37</ele>
        <time>2016-09-10T06:44:44Z</time>
      </trkpt>
      <trkpt lat="42.12118" lon="9.09203">
        <ele>1399.82</ele>
        <time>2016-09-10T06:44:49Z</time>
      </trkpt>
      <trkpt lat="42.12121" lon="9.09197">
        <ele>1400.3</ele>
        <time>2016-09-10T06:44:56Z</time>
      </trkpt>
      <trkpt lat="42.12121" lon="9.09191">
        <ele>1399.34</ele>
        <time>2016-09-10T06:45:04Z</time>
      </trkpt>
      <trkpt lat="42.12123" lon="9.09185">
        <ele>1399.82</ele>
        <time>2016-09-10T06:45:12Z</time>
      </trkpt>
      <trkpt lat="42.12126" lon="9.09181">
        <ele>1399.34</ele>
        <time>2016-09-10T06:45:19Z</time>
      </trkpt>
      <trkpt lat="42.12126" lon="9.09176">
        <ele>1400.3</ele>
        <time>2016-09-10T06:45:28Z</time>
      </trkpt>
      <trkpt lat="42.12133" lon="9.09174">
        <ele>1400.3</ele>
        <time>2016-09-10T06:45:35Z</time>
      </trkpt>
      <trkpt lat="42.12138" lon="9.09171">
        <ele>1400.3</ele>
        <time>2016-09-10T06:45:41Z</time>
      </trkpt>
      <trkpt lat="42.12143" lon="9.09166">
        <ele>1400.3</ele>
        <time>2016-09-10T06:45:49Z</time>
      </trkpt>
      <trkpt lat="42.12144" lon="9.09164">
        <ele>1400.3</ele>
        <time>2016-09-10T06:45:54Z</time>
      </trkpt>
      <trkpt lat="42.12146" lon="9.09162">
        <ele>1399.34</ele>
        <time>2016-09-10T06:46:00Z</time>
      </trkpt>
      <trkpt lat="42.12152" lon="9.09159">
        <ele>1399.34</ele>
        <time>2016-09-10T06:46:07Z</time>
      </trkpt>
      <trkpt lat="42.12156" lon="9.09159">
        <ele>1399.34</ele>
        <time>2016-09-10T06:46:15Z</time>
      </trkpt>
      <trkpt lat="42.12157" lon="9.09158">
        <ele>1399.34</ele>
        <time>2016-09-10T06:46:21Z</time>
      </trkpt>
      <trkpt lat="42.12161" lon="9.09158">
        <ele>1398.37</ele>
        <time>2016-09-10T06:46:30Z</time>
      </trkpt>
      <trkpt lat="42.12163" lon="9.09158">
        <ele>1399.34</ele>
        <time>2016-09-10T06:46:38Z</time>
      </trkpt>
      <trkpt lat="42.12167" lon="9.09159">
        <ele>1400.3</ele>
        <time>2016-09-10T06:46:44Z</time>
      </trkpt>
      <trkpt lat="42.12167" lon="9.09159">
        <ele>1400.3</ele>
        <time>2016-09-10T06:46:53Z</time>
      </trkpt>
      <trkpt lat="42.12171" lon="9.0916">
        <ele>1402.22</ele>
        <time>2016-09-10T06:47:02Z</time>
      </trkpt>
      <trkpt lat="42.12175" lon="9.0916">
        <ele>1401.74</ele>
        <time>2016-09-10T06:47:08Z</time>
      </trkpt>
      <trkpt lat="42.12182" lon="9.0916">
        <ele>1401.74</ele>
        <time>2016-09-10T06:47:16Z</time>
      </trkpt>
      <trkpt lat="42.12184" lon="9.09159">
        <ele>1402.22</ele>
        <time>2016-09-10T06:47:22Z</time>
      </trkpt>
      <trkpt lat="42.12188" lon="9.09158">
        <ele>1402.22</ele>
        <time>2016-09-10T06:47:30Z</time>
      </trkpt>
      <trkpt lat="42.12189" lon="9.09158">
        <ele>1403.18</ele>
        <time>2016-09-10T06:47:37Z</time>
      </trkpt>
      <trkpt lat="42.1219" lon="9.09154">
        <ele>1403.66</ele>
        <time>2016-09-10T06:47:44Z</time>
      </trkpt>
      <trkpt lat="42.12192" lon="9.09152">
        <ele>1405.1</ele>
        <time>2016-09-10T06:47:53Z</time>
      </trkpt>
      <trkpt lat="42.12192" lon="9.09152">
        <ele>1404.14</ele>
        <time>2016-09-10T06:47:54Z</time>
      </trkpt>
      <trkpt lat="42.12197" lon="9.0915">
        <ele>1404.62</ele>
        <time>2016-09-10T06:48:03Z</time>
      </trkpt>
      <trkpt lat="42.12201" lon="9.09147">
        <ele>1405.58</ele>
        <time>2016-09-10T06:48:10Z</time>
      </trkpt>
      <trkpt lat="42.12204" lon="9.09144">
        <ele>1405.58</ele>
        <time>2016-09-10T06:48:17Z</time>
      </trkpt>
      <trkpt lat="42.12204" lon="9.09139">
        <ele>1406.07</ele>
        <time>2016-09-10T06:48:27Z</time>
      </trkpt>
      <trkpt lat="42.12204" lon="9.09134">
        <ele>1406.07</ele>
        <time>2016-09-10T06:48:35Z</time>
      </trkpt>
      <trkpt lat="42.12205" lon="9.0913">
        <ele>1405.58</ele>
        <time>2016-09-10T06:48:45Z</time>
      </trkpt>
      <trkpt lat="42.12208" lon="9.09124">
        <ele>1405.58</ele>
        <time>2016-09-10T06:48:55Z</time>
      </trkpt>
      <trkpt lat="42.12211" lon="9.0912">
        <ele>1407.51</ele>
        <time>2016-09-10T06:49:04Z</time>
      </trkpt>
      <trkpt lat="42.12212" lon="9.09115">
        <ele>1407.51</ele>
        <time>2016-09-10T06:49:12Z</time>
      </trkpt>
      <trkpt lat="42.12213" lon="9.09111">
        <ele>1407.51</ele>
        <time>2016-09-10T06:49:20Z</time>
      </trkpt>
      <trkpt lat="42.12211" lon="9.09106">
        <ele>1408.47</ele>
        <time>2016-09-10T06:49:26Z</time>
      </trkpt>
      <trkpt lat="42.12209" lon="9.09098">
        <ele>1408.47</ele>
        <time>2016-09-10T06:49:35Z</time>
      </trkpt>
      <trkpt lat="42.12205" lon="9.09089">
        <ele>1407.99</ele>
        <time>2016-09-10T06:49:42Z</time>
      </trkpt>
      <trkpt lat="42.12205" lon="9.09087">
        <ele>1408.95</ele>
        <time>2016-09-10T06:49:49Z</time>
      </trkpt>
      <trkpt lat="42.1221" lon="9.09085">
        <ele>1410.39</ele>
        <time>2016-09-10T06:49:58Z</time>
      </trkpt>
      <trkpt lat="42.12211" lon="9.09084">
        <ele>1410.87</ele>
        <time>2016-09-10T06:50:01Z</time>
      </trkpt>
      <trkpt lat="42.12217" lon="9.09085">
        <ele>1411.35</ele>
        <time>2016-09-10T06:50:08Z</time>
      </trkpt>
      <trkpt lat="42.12221" lon="9.09081">
        <ele>1411.83</ele>
        <time>2016-09-10T06:50:14Z</time>
      </trkpt>
      <trkpt lat="42.12221" lon="9.09078">
        <ele>1412.31</ele>
        <time>2016-09-10T06:50:22Z</time>
      </trkpt>
      <trkpt lat="42.12224" lon="9.09076">
        <ele>1413.28</ele>
        <time>2016-09-10T06:50:32Z</time>
      </trkpt>
      <trkpt lat="42.12226" lon="9.09075">
        <ele>1413.76</ele>
        <time>2016-09-10T06:50:38Z</time>
      </trkpt>
      <trkpt lat="42.1223" lon="9.09073">
        <ele>1413.76</ele>
        <time>2016-09-10T06:50:44Z</time>
      </trkpt>
      <trkpt lat="42.12231" lon="9.09071">
        <ele>1414.24</ele>
        <time>2016-09-10T06:50:47Z</time>
      </trkpt>
      <trkpt lat="42.12238" lon="9.0907">
        <ele>1414.72</ele>
        <time>2016-09-10T06:50:54Z</time>
      </trkpt>
      <trkpt lat="42.12242" lon="9.09066">
        <ele>1415.68</ele>
        <time>2016-09-10T06:51:02Z</time>
      </trkpt>
      <trkpt lat="42.12242" lon="9.09064">
        <ele>1413.28</ele>
        <time>2016-09-10T06:51:08Z</time>
      </trkpt>
      <trkpt lat="42.12242" lon="9.09064">
        <ele>1416.64</ele>
        <time>2016-09-10T06:51:10Z</time>
      </trkpt>
      <trkpt lat="42.12241" lon="9.0906">
        <ele>1416.64</ele>
        <time>2016-09-10T06:51:17Z</time>
      </trkpt>
      <trkpt lat="42.12247" lon="9.09057">
        <ele>1417.12</ele>
        <time>2016-09-10T06:51:23Z</time>
      </trkpt>
      <trkpt lat="42.12248" lon="9.09056">
        <ele>1417.12</ele>
        <time>2016-09-10T06:51:30Z</time>
      </trkpt>
      <trkpt lat="42.12249" lon="9.09053">
        <ele>1418.08</ele>
        <time>2016-09-10T06:51:38Z</time>
      </trkpt>
      <trkpt lat="42.12253" lon="9.09051">
        <ele>1419.04</ele>
        <time>2016-09-10T06:51:45Z</time>
      </trkpt>
      <trkpt lat="42.12256" lon="9.09049">
        <ele>1419.52</ele>
        <time>2016-09-10T06:51:49Z</time>
      </trkpt>
      <trkpt lat="42.12258" lon="9.09045">
        <ele>1420.49</ele>
        <time>2016-09-10T06:51:56Z</time>
      </trkpt>
      <trkpt lat="42.1226" lon="9.09038">
        <ele>1420.97</ele>
        <time>2016-09-10T06:52:06Z</time>
      </trkpt>
      <trkpt lat="42.12263" lon="9.09039">
        <ele>1421.45</ele>
        <time>2016-09-10T06:52:13Z</time>
      </trkpt>
      <trkpt lat="42.12269" lon="9.0904">
        <ele>1421.93</ele>
        <time>2016-09-10T06:52:23Z</time>
      </trkpt>
      <trkpt lat="42.1227" lon="9.09039">
        <ele>1422.41</ele>
        <time>2016-09-10T06:52:31Z</time>
      </trkpt>
      <trkpt lat="42.12272" lon="9.09039">
        <ele>1422.89</ele>
        <time>2016-09-10T06:52:35Z</time>
      </trkpt>
      <trkpt lat="42.12278" lon="9.09039">
        <ele>1423.37</ele>
        <time>2016-09-10T06:52:42Z</time>
      </trkpt>
      <trkpt lat="42.1228" lon="9.09036">
        <ele>1424.33</ele>
        <time>2016-09-10T06:52:50Z</time>
      </trkpt>
      <trkpt lat="42.12285" lon="9.09035">
        <ele>1425.29</ele>
        <time>2016-09-10T06:52:59Z</time>
      </trkpt>
      <trkpt lat="42.1229" lon="9.09035">
        <ele>1425.77</ele>
        <time>2016-09-10T06:53:02Z</time>
      </trkpt>
      <trkpt lat="42.1229" lon="9.09033">
        <ele>1426.25</ele>
        <time>2016-09-10T06:53:08Z</time>
      </trkpt>
      <trkpt lat="42.12294" lon="9.0903">
        <ele>1426.73</ele>
        <time>2016-09-10T06:53:14Z</time>
      </trkpt>
      <trkpt lat="42.12299" lon="9.09028">
        <ele>1427.7</ele>
        <time>2016-09-10T06:53:20Z</time>
      </trkpt>
      <trkpt lat="42.12302" lon="9.09031">
        <ele>1427.7</ele>
        <time>2016-09-10T06:53:26Z</time>
      </trkpt>
      <trkpt lat="42.12304" lon="9.09032">
        <ele>1428.66</ele>
        <time>2016-09-10T06:53:31Z</time>
      </trkpt>
      <trkpt lat="42.12307" lon="9.09032">
        <ele>1428.66</ele>
        <time>2016-09-10T06:53:35Z</time>
      </trkpt>
      <trkpt lat="42.12308" lon="9.09027">
        <ele>1429.14</ele>
        <time>2016-09-10T06:53:43Z</time>
      </trkpt>
      <trkpt lat="42.1231" lon="9.09025">
        <ele>1430.1</ele>
        <time>2016-09-10T06:53:49Z</time>
      </trkpt>
      <trkpt lat="42.12314" lon="9.09027">
        <ele>1431.06</ele>
        <time>2016-09-10T06:53:56Z</time>
      </trkpt>
      <trkpt lat="42.12314" lon="9.09027">
        <ele>1431.06</ele>
        <time>2016-09-10T06:53:57Z</time>
      </trkpt>
      <trkpt lat="42.12322" lon="9.09029">
        <ele>1432.02</ele>
        <time>2016-09-10T06:54:05Z</time>
      </trkpt>
      <trkpt lat="42.12326" lon="9.09027">
        <ele>1432.02</ele>
        <time>2016-09-10T06:54:11Z</time>
      </trkpt>
      <trkpt lat="42.1233" lon="9.09025">
        <ele>1432.5</ele>
        <time>2016-09-10T06:54:18Z</time>
      </trkpt>
      <trkpt lat="42.12333" lon="9.09023">
        <ele>1432.98</ele>
        <time>2016-09-10T06:54:24Z</time>
      </trkpt>
      <trkpt lat="42.12339" lon="9.09019">
        <ele>1433.94</ele>
        <time>2016-09-10T06:54:33Z</time>
      </trkpt>
      <trkpt lat="42.12344" lon="9.09017">
        <ele>1434.42</ele>
        <time>2016-09-10T06:54:40Z</time>
      </trkpt>
      <trkpt lat="42.12346" lon="9.09013">
        <ele>1435.39</ele>
        <time>2016-09-10T06:54:48Z</time>
      </trkpt>
      <trkpt lat="42.1235" lon="9.09009">
        <ele>1435.87</ele>
        <time>2016-09-10T06:54:56Z</time>
      </trkpt>
      <trkpt lat="42.1235" lon="9.09001">
        <ele>1436.83</ele>
        <time>2016-09-10T06:55:04Z</time>
      </trkpt>
      <trkpt lat="42.12353" lon="9.08999">
        <ele>1436.83</ele>
        <time>2016-09-10T06:55:11Z</time>
      </trkpt>
      <trkpt lat="42.12359" lon="9.08995">
        <ele>1438.27</ele>
        <time>2016-09-10T06:55:18Z</time>
      </trkpt>
      <trkpt lat="42.12363" lon="9.08996">
        <ele>1438.27</ele>
        <time>2016-09-10T06:55:22Z</time>
      </trkpt>
      <trkpt lat="42.12368" lon="9.08998">
        <ele>1438.75</ele>
        <time>2016-09-10T06:55:26Z</time>
      </trkpt>
      <trkpt lat="42.12373" lon="9.08997">
        <ele>1439.71</ele>
        <time>2016-09-10T06:55:33Z</time>
      </trkpt>
      <trkpt lat="42.12378" lon="9.08998">
        <ele>1440.19</ele>
        <time>2016-09-10T06:55:40Z</time>
      </trkpt>
      <trkpt lat="42.12382" lon="9.09">
        <ele>1440.67</ele>
        <time>2016-09-10T06:55:47Z</time>
      </trkpt>
      <trkpt lat="42.12384" lon="9.09002">
        <ele>1442.11</ele>
        <time>2016-09-10T06:55:54Z</time>
      </trkpt>
      <trkpt lat="42.12385" lon="9.09002">
        <ele>1442.11</ele>
        <time>2016-09-10T06:55:56Z</time>
      </trkpt>
      <trkpt lat="42.12388" lon="9.08999">
        <ele>1442.11</ele>
        <time>2016-09-10T06:56:02Z</time>
      </trkpt>
      <trkpt lat="42.1239" lon="9.08996">
        <ele>1442.6</ele>
        <time>2016-09-10T06:56:10Z</time>
      </trkpt>
      <trkpt lat="42.12392" lon="9.08993">
        <ele>1443.08</ele>
        <time>2016-09-10T06:56:19Z</time>
      </trkpt>
      <trkpt lat="42.12394" lon="9.08989">
        <ele>1443.56</ele>
        <time>2016-09-10T06:56:25Z</time>
      </trkpt>
      <trkpt lat="42.12396" lon="9.08988">
        <ele>1444.04</ele>
        <time>2016-09-10T06:56:31Z</time>
      </trkpt>
      <trkpt lat="42.12397" lon="9.08986">
        <ele>1444.52</ele>
        <time>2016-09-10T06:56:38Z</time>
      </trkpt>
      <trkpt lat="42.12397" lon="9.08984">
        <ele>1445.48</ele>
        <time>2016-09-10T06:56:44Z</time>
      </trkpt>
      <trkpt lat="42.12396" lon="9.08982">
        <ele>1445.48</ele>
        <time>2016-09-10T06:56:45Z</time>
      </trkpt>
      <trkpt lat="42.12395" lon="9.08977">
        <ele>1446.44</ele>
        <time>2016-09-10T06:56:54Z</time>
      </trkpt>
      <trkpt lat="42.12398" lon="9.08977">
        <ele>1447.4</ele>
        <time>2016-09-10T06:57:00Z</time>
      </trkpt>
      <trkpt lat="42.12405" lon="9.08974">
        <ele>1448.36</ele>
        <time>2016-09-10T06:57:08Z</time>
      </trkpt>
      <trkpt lat="42.12407" lon="9.0897">
        <ele>1448.84</ele>
        <time>2016-09-10T06:57:14Z</time>
      </trkpt>
      <trkpt lat="42.12408" lon="9.08969">
        <ele>1449.32</ele>
        <time>2016-09-10T06:57:22Z</time>
      </trkpt>
      <trkpt lat="42.12413" lon="9.08968">
        <ele>1450.29</ele>
        <time>2016-09-10T06:57:31Z</time>
      </trkpt>
      <trkpt lat="42.12413" lon="9.08966">
        <ele>1450.77</ele>
        <time>2016-09-10T06:57:39Z</time>
      </trkpt>
      <trkpt lat="42.12417" lon="9.08966">
        <ele>1450.29</ele>
        <time>2016-09-10T06:57:47Z</time>
      </trkpt>
      <trkpt lat="42.1242" lon="9.08965">
        <ele>1452.21</ele>
        <time>2016-09-10T06:57:58Z</time>
      </trkpt>
      <trkpt lat="42.1242" lon="9.08963">
        <ele>1452.69</ele>
        <time>2016-09-10T06:58:06Z</time>
      </trkpt>
      <trkpt lat="42.12422" lon="9.08962">
        <ele>1453.65</ele>
        <time>2016-09-10T06:58:14Z</time>
      </trkpt>
      <trkpt lat="42.12422" lon="9.0896">
        <ele>1454.13</ele>
        <time>2016-09-10T06:58:20Z</time>
      </trkpt>
      <trkpt lat="42.12426" lon="9.08957">
        <ele>1454.61</ele>
        <time>2016-09-10T06:58:27Z</time>
      </trkpt>
      <trkpt lat="42.12433" lon="9.08952">
        <ele>1455.57</ele>
        <time>2016-09-10T06:58:35Z</time>
      </trkpt>
      <trkpt lat="42.12437" lon="9.08955">
        <ele>1456.05</ele>
        <time>2016-09-10T06:58:43Z</time>
      </trkpt>
      <trkpt lat="42.12441" lon="9.08953">
        <ele>1456.53</ele>
        <time>2016-09-10T06:58:50Z</time>
      </trkpt>
      <trkpt lat="42.12448" lon="9.08951">
        <ele>1457.98</ele>
        <time>2016-09-10T06:58:57Z</time>
      </trkpt>
      <trkpt lat="42.12451" lon="9.08949">
        <ele>1458.46</ele>
        <time>2016-09-10T06:59:04Z</time>
      </trkpt>
      <trkpt lat="42.12456" lon="9.0895">
        <ele>1458.46</ele>
        <time>2016-09-10T06:59:11Z</time>
      </trkpt>
      <trkpt lat="42.12459" lon="9.0895">
        <ele>1458.94</ele>
        <time>2016-09-10T06:59:18Z</time>
      </trkpt>
      <trkpt lat="42.12461" lon="9.08949">
        <ele>1459.42</ele>
        <time>2016-09-10T06:59:26Z</time>
      </trkpt>
      <trkpt lat="42.12468" lon="9.08945">
        <ele>1460.86</ele>
        <time>2016-09-10T06:59:35Z</time>
      </trkpt>
      <trkpt lat="42.1247" lon="9.08942">
        <ele>1460.86</ele>
        <time>2016-09-10T06:59:41Z</time>
      </trkpt>
      <trkpt lat="42.12472" lon="9.08941">
        <ele>1461.34</ele>
        <time>2016-09-10T06:59:47Z</time>
      </trkpt>
      <trkpt lat="42.12479" lon="9.0894">
        <ele>1461.82</ele>
        <time>2016-09-10T06:59:54Z</time>
      </trkpt>
      <trkpt lat="42.12483" lon="9.08938">
        <ele>1462.3</ele>
        <time>2016-09-10T07:00:00Z</time>
      </trkpt>
      <trkpt lat="42.12486" lon="9.08936">
        <ele>1462.78</ele>
        <time>2016-09-10T07:00:06Z</time>
      </trkpt>
      <trkpt lat="42.12485" lon="9.08934">
        <ele>1462.78</ele>
        <time>2016-09-10T07:00:12Z</time>
      </trkpt>
      <trkpt lat="42.1249" lon="9.08936">
        <ele>1464.23</ele>
        <time>2016-09-10T07:00:22Z</time>
      </trkpt>
      <trkpt lat="42.12493" lon="9.08935">
        <ele>1464.71</ele>
        <time>2016-09-10T07:00:29Z</time>
      </trkpt>
      <trkpt lat="42.12495" lon="9.08935">
        <ele>1465.19</ele>
        <time>2016-09-10T07:00:35Z</time>
      </trkpt>
      <trkpt lat="42.12496" lon="9.08932">
        <ele>1466.15</ele>
        <time>2016-09-10T07:00:42Z</time>
      </trkpt>
      <trkpt lat="42.12496" lon="9.08927">
        <ele>1466.15</ele>
        <time>2016-09-10T07:00:50Z</time>
      </trkpt>
      <trkpt lat="42.12495" lon="9.0892">
        <ele>1466.15</ele>
        <time>2016-09-10T07:00:59Z</time>
      </trkpt>
      <trkpt lat="42.12497" lon="9.08914">
        <ele>1467.59</ele>
        <time>2016-09-10T07:01:09Z</time>
      </trkpt>
      <trkpt lat="42.12499" lon="9.08907">
        <ele>1468.07</ele>
        <time>2016-09-10T07:01:18Z</time>
      </trkpt>
      <trkpt lat="42.12499" lon="9.08905">
        <ele>1469.03</ele>
        <time>2016-09-10T07:01:29Z</time>
      </trkpt>
      <trkpt lat="42.12504" lon="9.08905">
        <ele>1469.99</ele>
        <time>2016-09-10T07:01:37Z</time>
      </trkpt>
      <trkpt lat="42.12505" lon="9.08904">
        <ele>1470.47</ele>
        <time>2016-09-10T07:01:45Z</time>
      </trkpt>
      <trkpt lat="42.12507" lon="9.08903">
        <ele>1470.95</ele>
        <time>2016-09-10T07:01:58Z</time>
      </trkpt>
      <trkpt lat="42.1251" lon="9.08899">
        <ele>1472.88</ele>
        <time>2016-09-10T07:02:08Z</time>
      </trkpt>
      <trkpt lat="42.12514" lon="9.08897">
        <ele>1473.36</ele>
        <time>2016-09-10T07:02:18Z</time>
      </trkpt>
      <trkpt lat="42.12515" lon="9.08894">
        <ele>1474.32</ele>
        <time>2016-09-10T07:02:28Z</time>
      </trkpt>
      <trkpt lat="42.12516" lon="9.08892">
        <ele>1475.76</ele>
        <time>2016-09-10T07:02:37Z</time>
      </trkpt>
      <trkpt lat="42.12517" lon="9.0889">
        <ele>1475.76</ele>
        <time>2016-09-10T07:02:48Z</time>
      </trkpt>
      <trkpt lat="42.12521" lon="9.08884">
        <ele>1476.72</ele>
        <time>2016-09-10T07:02:57Z</time>
      </trkpt>
      <trkpt lat="42.12522" lon="9.08882">
        <ele>1476.72</ele>
        <time>2016-09-10T07:03:00Z</time>
      </trkpt>
      <trkpt lat="42.12522" lon="9.08882">
        <ele>1478.16</ele>
        <time>2016-09-10T07:03:02Z</time>
      </trkpt>
      <trkpt lat="42.12523" lon="9.08877">
        <ele>1478.16</ele>
        <time>2016-09-10T07:03:07Z</time>
      </trkpt>
      <trkpt lat="42.12525" lon="9.08875">
        <ele>1478.65</ele>
        <time>2016-09-10T07:03:15Z</time>
      </trkpt>
      <trkpt lat="42.12526" lon="9.08871">
        <ele>1479.61</ele>
        <time>2016-09-10T07:03:24Z</time>
      </trkpt>
      <trkpt lat="42.1253" lon="9.08865">
        <ele>1480.57</ele>
        <time>2016-09-10T07:03:34Z</time>
      </trkpt>
      <trkpt lat="42.12531" lon="9.08858">
        <ele>1481.53</ele>
        <time>2016-09-10T07:03:43Z</time>
      </trkpt>
      <trkpt lat="42.12533" lon="9.08855">
        <ele>1482.01</ele>
        <time>2016-09-10T07:03:49Z</time>
      </trkpt>
      <trkpt lat="42.12538" lon="9.08853">
        <ele>1482.97</ele>
        <time>2016-09-10T07:03:56Z</time>
      </trkpt>
      <trkpt lat="42.12538" lon="9.08853">
        <ele>1482.97</ele>
        <time>2016-09-10T07:03:57Z</time>
      </trkpt>
      <trkpt lat="42.1254" lon="9.08851">
        <ele>1483.45</ele>
        <time>2016-09-10T07:04:04Z</time>
      </trkpt>
      <trkpt lat="42.12543" lon="9.0885">
        <ele>1483.45</ele>
        <time>2016-09-10T07:04:13Z</time>
      </trkpt>
      <trkpt lat="42.12546" lon="9.08851">
        <ele>1483.45</ele>
        <time>2016-09-10T07:04:21Z</time>
      </trkpt>
      <trkpt lat="42.12549" lon="9.08849">
        <ele>1486.34</ele>
        <time>2016-09-10T07:04:28Z</time>
      </trkpt>
      <trkpt lat="42.12552" lon="9.08847">
        <ele>1487.3</ele>
        <time>2016-09-10T07:04:35Z</time>
      </trkpt>
      <trkpt lat="42.12555" lon="9.08845">
        <ele>1487.3</ele>
        <time>2016-09-10T07:04:43Z</time>
      </trkpt>
      <trkpt lat="42.12556" lon="9.08842">
        <ele>1488.26</ele>
        <time>2016-09-10T07:04:51Z</time>
      </trkpt>
      <trkpt lat="42.1256" lon="9.08835">
        <ele>1488.26</ele>
        <time>2016-09-10T07:05:00Z</time>
      </trkpt>
      <trkpt lat="42.12563" lon="9.08827">
        <ele>1488.74</ele>
        <time>2016-09-10T07:05:08Z</time>
      </trkpt>
      <trkpt lat="42.12565" lon="9.08819">
        <ele>1488.74</ele>
        <time>2016-09-10T07:05:16Z</time>
      </trkpt>
      <trkpt lat="42.12569" lon="9.08817">
        <ele>1490.18</ele>
        <time>2016-09-10T07:05:25Z</time>
      </trkpt>
      <trkpt lat="42.12574" lon="9.08813">
        <ele>1490.66</ele>
        <time>2016-09-10T07:05:33Z</time>
      </trkpt>
      <trkpt lat="42.12576" lon="9.0881">
        <ele>1490.66</ele>
        <time>2016-09-10T07:05:42Z</time>
      </trkpt>
      <trkpt lat="42.1258" lon="9.08807">
        <ele>1490.18</ele>
        <time>2016-09-10T07:05:50Z</time>
      </trkpt>
      <trkpt lat="42.12583" lon="9.08805">
        <ele>1492.1</ele>
        <time>2016-09-10T07:06:00Z</time>
      </trkpt>
      <trkpt lat="42.12585" lon="9.08808">
        <ele>1493.06</ele>
        <time>2016-09-10T07:06:07Z</time>
      </trkpt>
      <trkpt lat="42.1259" lon="9.08805">
        <ele>1493.55</ele>
        <time>2016-09-10T07:06:14Z</time>
      </trkpt>
      <trkpt lat="42.12594" lon="9.08802">
        <ele>1494.03</ele>
        <time>2016-09-10T07:06:22Z</time>
      </trkpt>
      <trkpt lat="42.126" lon="9.08797">
        <ele>1494.51</ele>
        <time>2016-09-10T07:06:31Z</time>
      </trkpt>
      <trkpt lat="42.12605" lon="9.08795">
        <ele>1494.51</ele>
        <time>2016-09-10T07:06:40Z</time>
      </trkpt>
      <trkpt lat="42.1261" lon="9.08789">
        <ele>1496.43</ele>
        <time>2016-09-10T07:06:50Z</time>
      </trkpt>
      <trkpt lat="42.12613" lon="9.08791">
        <ele>1496.91</ele>
        <time>2016-09-10T07:06:59Z</time>
      </trkpt>
      <trkpt lat="42.12615" lon="9.08792">
        <ele>1496.43</ele>
        <time>2016-09-10T07:07:13Z</time>
      </trkpt>
      <trkpt lat="42.12615" lon="9.08792">
        <ele>1496.91</ele>
        <time>2016-09-10T07:07:24Z</time>
      </trkpt>
      <trkpt lat="42.12616" lon="9.08792">
        <ele>1495.95</ele>
        <time>2016-09-10T07:07:34Z</time>
      </trkpt>
      <trkpt lat="42.12616" lon="9.08793">
        <ele>1495.95</ele>
        <time>2016-09-10T07:07:46Z</time>
      </trkpt>
      <trkpt lat="42.12619" lon="9.08794">
        <ele>1496.43</ele>
        <time>2016-09-10T07:08:03Z</time>
      </trkpt>
      <trkpt lat="42.1262" lon="9.08795">
        <ele>1495.95</ele>
        <time>2016-09-10T07:08:16Z</time>
      </trkpt>
      <trkpt lat="42.12621" lon="9.08796">
        <ele>1495.95</ele>
        <time>2016-09-10T07:08:27Z</time>
      </trkpt>
      <trkpt lat="42.12621" lon="9.08795">
        <ele>1495.95</ele>
        <time>2016-09-10T07:08:43Z</time>
      </trkpt>
      <trkpt lat="42.12621" lon="9.08796">
        <ele>1496.43</ele>
        <time>2016-09-10T07:08:58Z</time>
      </trkpt>
      <trkpt lat="42.12621" lon="9.08795">
        <ele>1496.43</ele>
        <time>2016-09-10T07:09:09Z</time>
      </trkpt>
      <trkpt lat="42.1262" lon="9.08795">
        <ele>1494.51</ele>
        <time>2016-09-10T07:09:22Z</time>
      </trkpt>
      <trkpt lat="42.1262" lon="9.08795">
        <ele>1497.87</ele>
        <time>2016-09-10T07:09:24Z</time>
      </trkpt>
      <trkpt lat="42.1262" lon="9.08795">
        <ele>1496.91</ele>
        <time>2016-09-10T07:09:25Z</time>
      </trkpt>
      <trkpt lat="42.1262" lon="9.08794">
        <ele>1496.43</ele>
        <time>2016-09-10T07:09:39Z</time>
      </trkpt>
      <trkpt lat="42.12619" lon="9.08794">
        <ele>1496.91</ele>
        <time>2016-09-10T07:09:51Z</time>
      </trkpt>
      <trkpt lat="42.12619" lon="9.08795">
        <ele>1497.39</ele>
        <time>2016-09-10T07:10:07Z</time>
      </trkpt>
      <trkpt lat="42.1262" lon="9.08795">
        <ele>1495.95</ele>
        <time>2016-09-10T07:10:16Z</time>
      </trkpt>
      <trkpt lat="42.1262" lon="9.08795">
        <ele>1499.79</ele>
        <time>2016-09-10T07:10:18Z</time>
      </trkpt>
      <trkpt lat="42.1262" lon="9.08795">
        <ele>1497.87</ele>
        <time>2016-09-10T07:10:19Z</time>
      </trkpt>
      <trkpt lat="42.1262" lon="9.08795">
        <ele>1497.39</ele>
        <time>2016-09-10T07:10:21Z</time>
      </trkpt>
      <trkpt lat="42.1262" lon="9.08794">
        <ele>1496.91</ele>
        <time>2016-09-10T07:10:34Z</time>
      </trkpt>
      <trkpt lat="42.12619" lon="9.08794">
        <ele>1496.91</ele>
        <time>2016-09-10T07:10:50Z</time>
      </trkpt>
      <trkpt lat="42.12619" lon="9.08794">
        <ele>1496.91</ele>
        <time>2016-09-10T07:11:06Z</time>
      </trkpt>
      <trkpt lat="42.12619" lon="9.08794">
        <ele>1496.91</ele>
        <time>2016-09-10T07:11:20Z</time>
      </trkpt>
      <trkpt lat="42.12619" lon="9.08793">
        <ele>1497.39</ele>
        <time>2016-09-10T07:11:31Z</time>
      </trkpt>
      <trkpt lat="42.12621" lon="9.0879">
        <ele>1496.91</ele>
        <time>2016-09-10T07:11:39Z</time>
      </trkpt>
      <trkpt lat="42.12619" lon="9.08789">
        <ele>1496.43</ele>
        <time>2016-09-10T07:11:50Z</time>
      </trkpt>
      <trkpt lat="42.12617" lon="9.08785">
        <ele>1493.55</ele>
        <time>2016-09-10T07:11:56Z</time>
      </trkpt>
      <trkpt lat="42.12617" lon="9.08784">
        <ele>1496.91</ele>
        <time>2016-09-10T07:11:57Z</time>
      </trkpt>
      <trkpt lat="42.12618" lon="9.08777">
        <ele>1495.95</ele>
        <time>2016-09-10T07:12:04Z</time>
      </trkpt>
      <trkpt lat="42.12621" lon="9.08775">
        <ele>1495.95</ele>
        <time>2016-09-10T07:12:10Z</time>
      </trkpt>
      <trkpt lat="42.12624" lon="9.0877">
        <ele>1496.43</ele>
        <time>2016-09-10T07:12:17Z</time>
      </trkpt>
      <trkpt lat="42.12621" lon="9.08765">
        <ele>1496.43</ele>
        <time>2016-09-10T07:12:23Z</time>
      </trkpt>
      <trkpt lat="42.12621" lon="9.08765">
        <ele>1496.91</ele>
        <time>2016-09-10T07:12:31Z</time>
      </trkpt>
      <trkpt lat="42.12618" lon="9.08765">
        <ele>1495.95</ele>
        <time>2016-09-10T07:12:37Z</time>
      </trkpt>
      <trkpt lat="42.12616" lon="9.08762">
        <ele>1495.47</ele>
        <time>2016-09-10T07:12:44Z</time>
      </trkpt>
      <trkpt lat="42.12616" lon="9.08758">
        <ele>1494.51</ele>
        <time>2016-09-10T07:12:49Z</time>
      </trkpt>
      <trkpt lat="42.12615" lon="9.08756">
        <ele>1494.99</ele>
        <time>2016-09-10T07:12:50Z</time>
      </trkpt>
      <trkpt lat="42.12613" lon="9.08746">
        <ele>1494.03</ele>
        <time>2016-09-10T07:12:58Z</time>
      </trkpt>
      <trkpt lat="42.1261" lon="9.08738">
        <ele>1493.55</ele>
        <time>2016-09-10T07:13:06Z</time>
      </trkpt>
      <trkpt lat="42.12611" lon="9.08734">
        <ele>1493.06</ele>
        <time>2016-09-10T07:13:09Z</time>
      </trkpt>
      <trkpt lat="42.12609" lon="9.08733">
        <ele>1493.06</ele>
        <time>2016-09-10T07:13:15Z</time>
      </trkpt>
      <trkpt lat="42.12607" lon="9.0873">
        <ele>1492.58</ele>
        <time>2016-09-10T07:13:22Z</time>
      </trkpt>
      <trkpt lat="42.12606" lon="9.08729">
        <ele>1492.1</ele>
        <time>2016-09-10T07:13:28Z</time>
      </trkpt>
      <trkpt lat="42.12605" lon="9.08727">
        <ele>1490.66</ele>
        <time>2016-09-10T07:13:37Z</time>
      </trkpt>
      <trkpt lat="42.12605" lon="9.08726">
        <ele>1489.7</ele>
        <time>2016-09-10T07:13:42Z</time>
      </trkpt>
      <trkpt lat="42.12606" lon="9.08724">
        <ele>1488.74</ele>
        <time>2016-09-10T07:13:48Z</time>
      </trkpt>
      <trkpt lat="42.12608" lon="9.08721">
        <ele>1489.7</ele>
        <time>2016-09-10T07:13:56Z</time>
      </trkpt>
      <trkpt lat="42.12609" lon="9.08717">
        <ele>1489.22</ele>
        <time>2016-09-10T07:14:01Z</time>
      </trkpt>
      <trkpt lat="42.12609" lon="9.08714">
        <ele>1490.18</ele>
        <time>2016-09-10T07:14:08Z</time>
      </trkpt>
      <trkpt lat="42.12609" lon="9.08712">
        <ele>1489.7</ele>
        <time>2016-09-10T07:14:16Z</time>
      </trkpt>
      <trkpt lat="42.12609" lon="9.08711">
        <ele>1489.7</ele>
        <time>2016-09-10T07:14:27Z</time>
      </trkpt>
      <trkpt lat="42.12609" lon="9.08711">
        <ele>1489.7</ele>
        <time>2016-09-10T07:14:35Z</time>
      </trkpt>
      <trkpt lat="42.1261" lon="9.08711">
        <ele>1489.22</ele>
        <time>2016-09-10T07:14:43Z</time>
      </trkpt>
      <trkpt lat="42.1261" lon="9.0871">
        <ele>1490.18</ele>
        <time>2016-09-10T07:14:56Z</time>
      </trkpt>
      <trkpt lat="42.12611" lon="9.08712">
        <ele>1490.66</ele>
        <time>2016-09-10T07:15:03Z</time>
      </trkpt>
      <trkpt lat="42.12609" lon="9.08711">
        <ele>1490.66</ele>
        <time>2016-09-10T07:15:09Z</time>
      </trkpt>
      <trkpt lat="42.12608" lon="9.08713">
        <ele>1490.66</ele>
        <time>2016-09-10T07:15:14Z</time>
      </trkpt>
      <trkpt lat="42.12608" lon="9.08715">
        <ele>1490.18</ele>
        <time>2016-09-10T07:15:22Z</time>
      </trkpt>
      <trkpt lat="42.12608" lon="9.08719">
        <ele>1490.18</ele>
        <time>2016-09-10T07:15:29Z</time>
      </trkpt>
      <trkpt lat="42.12607" lon="9.08723">
        <ele>1490.18</ele>
        <time>2016-09-10T07:15:35Z</time>
      </trkpt>
      <trkpt lat="42.12606" lon="9.08723">
        <ele>1490.18</ele>
        <time>2016-09-10T07:15:42Z</time>
      </trkpt>
      <trkpt lat="42.12606" lon="9.08726">
        <ele>1492.58</ele>
        <time>2016-09-10T07:15:51Z</time>
      </trkpt>
      <trkpt lat="42.12606" lon="9.0873">
        <ele>1493.55</ele>
        <time>2016-09-10T07:15:57Z</time>
      </trkpt>
      <trkpt lat="42.1261" lon="9.08738">
        <ele>1494.51</ele>
        <time>2016-09-10T07:16:05Z</time>
      </trkpt>
      <trkpt lat="42.12611" lon="9.08745">
        <ele>1494.99</ele>
        <time>2016-09-10T07:16:13Z</time>
      </trkpt>
      <trkpt lat="42.12613" lon="9.0875">
        <ele>1494.99</ele>
        <time>2016-09-10T07:16:18Z</time>
      </trkpt>
      <trkpt lat="42.12615" lon="9.08759">
        <ele>1495.95</ele>
        <time>2016-09-10T07:16:26Z</time>
      </trkpt>
      <trkpt lat="42.12618" lon="9.08763">
        <ele>1496.43</ele>
        <time>2016-09-10T07:16:32Z</time>
      </trkpt>
      <trkpt lat="42.12621" lon="9.08765">
        <ele>1496.91</ele>
        <time>2016-09-10T07:16:39Z</time>
      </trkpt>
      <trkpt lat="42.12621" lon="9.08771">
        <ele>1496.43</ele>
        <time>2016-09-10T07:16:45Z</time>
      </trkpt>
      <trkpt lat="42.1262" lon="9.08778">
        <ele>1496.43</ele>
        <time>2016-09-10T07:16:53Z</time>
      </trkpt>
      <trkpt lat="42.1262" lon="9.08781">
        <ele>1496.43</ele>
        <time>2016-09-10T07:16:59Z</time>
      </trkpt>
      <trkpt lat="42.12618" lon="9.08784">
        <ele>1496.43</ele>
        <time>2016-09-10T07:17:11Z</time>
      </trkpt>
      <trkpt lat="42.12617" lon="9.08786">
        <ele>1496.91</ele>
        <time>2016-09-10T07:17:25Z</time>
      </trkpt>
      <trkpt lat="42.12616" lon="9.08787">
        <ele>1496.91</ele>
        <time>2016-09-10T07:17:39Z</time>
      </trkpt>
      <trkpt lat="42.12616" lon="9.08789">
        <ele>1497.39</ele>
        <time>2016-09-10T07:17:52Z</time>
      </trkpt>
      <trkpt lat="42.12616" lon="9.08789">
        <ele>1497.39</ele>
        <time>2016-09-10T07:18:07Z</time>
      </trkpt>
      <trkpt lat="42.12617" lon="9.08788">
        <ele>1497.39</ele>
        <time>2016-09-10T07:18:16Z</time>
      </trkpt>
      <trkpt lat="42.12617" lon="9.08789">
        <ele>1497.39</ele>
        <time>2016-09-10T07:18:34Z</time>
      </trkpt>
      <trkpt lat="42.12617" lon="9.08789">
        <ele>1497.87</ele>
        <time>2016-09-10T07:18:50Z</time>
      </trkpt>
      <trkpt lat="42.12617" lon="9.08788">
        <ele>1497.87</ele>
        <time>2016-09-10T07:18:58Z</time>
      </trkpt>
      <trkpt lat="42.12618" lon="9.08788">
        <ele>1497.87</ele>
        <time>2016-09-10T07:19:07Z</time>
      </trkpt>
      <trkpt lat="42.12618" lon="9.0879">
        <ele>1497.87</ele>
        <time>2016-09-10T07:19:15Z</time>
      </trkpt>
      <trkpt lat="42.12618" lon="9.0879">
        <ele>1498.35</ele>
        <time>2016-09-10T07:19:30Z</time>
      </trkpt>
      <trkpt lat="42.12618" lon="9.0879">
        <ele>1498.35</ele>
        <time>2016-09-10T07:19:38Z</time>
      </trkpt>
      <trkpt lat="42.12619" lon="9.0879">
        <ele>1498.35</ele>
        <time>2016-09-10T07:19:54Z</time>
      </trkpt>
      <trkpt lat="42.12619" lon="9.0879">
        <ele>1498.35</ele>
        <time>2016-09-10T07:20:11Z</time>
      </trkpt>
      <trkpt lat="42.12621" lon="9.0879">
        <ele>1497.87</ele>
        <time>2016-09-10T07:20:25Z</time>
      </trkpt>
      <trkpt lat="42.12623" lon="9.08788">
        <ele>1497.87</ele>
        <time>2016-09-10T07:20:44Z</time>
      </trkpt>
      <trkpt lat="42.12623" lon="9.08788">
        <ele>1497.87</ele>
        <time>2016-09-10T07:21:00Z</time>
      </trkpt>
      <trkpt lat="42.12624" lon="9.08788">
        <ele>1498.35</ele>
        <time>2016-09-10T07:21:16Z</time>
      </trkpt>
      <trkpt lat="42.12624" lon="9.08788">
        <ele>1498.35</ele>
        <time>2016-09-10T07:21:31Z</time>
      </trkpt>
      <trkpt lat="42.12624" lon="9.08789">
        <ele>1498.35</ele>
        <time>2016-09-10T07:21:49Z</time>
      </trkpt>
      <trkpt lat="42.12622" lon="9.08792">
        <ele>1498.35</ele>
        <time>2016-09-10T07:21:55Z</time>
      </trkpt>
      <trkpt lat="42.12622" lon="9.08792">
        <ele>1498.83</ele>
        <time>2016-09-10T07:22:07Z</time>
      </trkpt>
      <trkpt lat="42.12622" lon="9.08792">
        <ele>1498.83</ele>
        <time>2016-09-10T07:22:15Z</time>
      </trkpt>
      <trkpt lat="42.12622" lon="9.08792">
        <ele>1498.83</ele>
        <time>2016-09-10T07:22:26Z</time>
      </trkpt>
      <trkpt lat="42.12621" lon="9.08792">
        <ele>1499.31</ele>
        <time>2016-09-10T07:22:35Z</time>
      </trkpt>
      <trkpt lat="42.1262" lon="9.08792">
        <ele>1499.31</ele>
        <time>2016-09-10T07:22:44Z</time>
      </trkpt>
      <trkpt lat="42.1262" lon="9.08793">
        <ele>1499.31</ele>
        <time>2016-09-10T07:22:54Z</time>
      </trkpt>
      <trkpt lat="42.1262" lon="9.08792">
        <ele>1500.27</ele>
        <time>2016-09-10T07:23:03Z</time>
      </trkpt>
      <trkpt lat="42.12619" lon="9.08792">
        <ele>1498.83</ele>
        <time>2016-09-10T07:23:14Z</time>
      </trkpt>
      <trkpt lat="42.12618" lon="9.08792">
        <ele>1498.83</ele>
        <time>2016-09-10T07:23:25Z</time>
      </trkpt>
      <trkpt lat="42.12617" lon="9.08793">
        <ele>1499.31</ele>
        <time>2016-09-10T07:23:38Z</time>
      </trkpt>
      <trkpt lat="42.12618" lon="9.08791">
        <ele>1498.35</ele>
        <time>2016-09-10T07:23:48Z</time>
      </trkpt>
      <trkpt lat="42.12619" lon="9.08788">
        <ele>1499.31</ele>
        <time>2016-09-10T07:23:54Z</time>
      </trkpt>
      <trkpt lat="42.12621" lon="9.08783">
        <ele>1498.35</ele>
        <time>2016-09-10T07:24:00Z</time>
      </trkpt>
      <trkpt lat="42.12622" lon="9.08775">
        <ele>1499.31</ele>
        <time>2016-09-10T07:24:06Z</time>
      </trkpt>
      <trkpt lat="42.12622" lon="9.08765">
        <ele>1498.83</ele>
        <time>2016-09-10T07:24:14Z</time>
      </trkpt>
      <trkpt lat="42.12623" lon="9.08759">
        <ele>1498.83</ele>
        <time>2016-09-10T07:24:19Z</time>
      </trkpt>
      <trkpt lat="42.12625" lon="9.08754">
        <ele>1499.31</ele>
        <time>2016-09-10T07:24:25Z</time>
      </trkpt>
      <trkpt lat="42.12625" lon="9.08754">
        <ele>1498.83</ele>
        <time>2016-09-10T07:24:26Z</time>
      </trkpt>
      <trkpt lat="42.1263" lon="9.08751">
        <ele>1499.31</ele>
        <time>2016-09-10T07:24:32Z</time>
      </trkpt>
      <trkpt lat="42.12635" lon="9.0875">
        <ele>1499.79</ele>
        <time>2016-09-10T07:24:39Z</time>
      </trkpt>
      <trkpt lat="42.12641" lon="9.08752">
        <ele>1501.72</ele>
        <time>2016-09-10T07:24:46Z</time>
      </trkpt>
      <trkpt lat="42.12644" lon="9.08753">
        <ele>1501.72</ele>
        <time>2016-09-10T07:24:52Z</time>
      </trkpt>
      <trkpt lat="42.12645" lon="9.08753">
        <ele>1502.2</ele>
        <time>2016-09-10T07:24:59Z</time>
      </trkpt>
      <trkpt lat="42.12647" lon="9.08756">
        <ele>1503.16</ele>
        <time>2016-09-10T07:25:06Z</time>
      </trkpt>
      <trkpt lat="42.12647" lon="9.08756">
        <ele>1503.16</ele>
        <time>2016-09-10T07:25:12Z</time>
      </trkpt>
      <trkpt lat="42.12649" lon="9.08758">
        <ele>1504.6</ele>
        <time>2016-09-10T07:25:18Z</time>
      </trkpt>
      <trkpt lat="42.12651" lon="9.08757">
        <ele>1503.64</ele>
        <time>2016-09-10T07:25:24Z</time>
      </trkpt>
      <trkpt lat="42.12655" lon="9.08757">
        <ele>1504.12</ele>
        <time>2016-09-10T07:25:28Z</time>
      </trkpt>
      <trkpt lat="42.12661" lon="9.08757">
        <ele>1504.6</ele>
        <time>2016-09-10T07:25:34Z</time>
      </trkpt>
      <trkpt lat="42.12666" lon="9.08757">
        <ele>1504.6</ele>
        <time>2016-09-10T07:25:40Z</time>
      </trkpt>
      <trkpt lat="42.12671" lon="9.08758">
        <ele>1506.52</ele>
        <time>2016-09-10T07:25:46Z</time>
      </trkpt>
      <trkpt lat="42.12677" lon="9.08758">
        <ele>1507</ele>
        <time>2016-09-10T07:25:54Z</time>
      </trkpt>
      <trkpt lat="42.12681" lon="9.08758">
        <ele>1507.48</ele>
        <time>2016-09-10T07:26:02Z</time>
      </trkpt>
      <trkpt lat="42.12683" lon="9.08758">
        <ele>1507.97</ele>
        <time>2016-09-10T07:26:08Z</time>
      </trkpt>
      <trkpt lat="42.12687" lon="9.0876">
        <ele>1508.45</ele>
        <time>2016-09-10T07:26:15Z</time>
      </trkpt>
      <trkpt lat="42.1269" lon="9.0876">
        <ele>1509.41</ele>
        <time>2016-09-10T07:26:23Z</time>
      </trkpt>
      <trkpt lat="42.12692" lon="9.0876">
        <ele>1510.37</ele>
        <time>2016-09-10T07:26:29Z</time>
      </trkpt>
      <trkpt lat="42.12695" lon="9.08759">
        <ele>1510.85</ele>
        <time>2016-09-10T07:26:35Z</time>
      </trkpt>
      <trkpt lat="42.12698" lon="9.08759">
        <ele>1512.29</ele>
        <time>2016-09-10T07:26:44Z</time>
      </trkpt>
      <trkpt lat="42.127" lon="9.08761">
        <ele>1512.77</ele>
        <time>2016-09-10T07:26:51Z</time>
      </trkpt>
      <trkpt lat="42.127" lon="9.08762">
        <ele>1512.77</ele>
        <time>2016-09-10T07:26:59Z</time>
      </trkpt>
      <trkpt lat="42.12702" lon="9.08764">
        <ele>1514.21</ele>
        <time>2016-09-10T07:27:07Z</time>
      </trkpt>
      <trkpt lat="42.12703" lon="9.08765">
        <ele>1515.18</ele>
        <time>2016-09-10T07:27:12Z</time>
      </trkpt>
      <trkpt lat="42.12704" lon="9.08765">
        <ele>1512.77</ele>
        <time>2016-09-10T07:27:13Z</time>
      </trkpt>
      <trkpt lat="42.12704" lon="9.08765">
        <ele>1516.14</ele>
        <time>2016-09-10T07:27:14Z</time>
      </trkpt>
      <trkpt lat="42.12707" lon="9.08765">
        <ele>1515.66</ele>
        <time>2016-09-10T07:27:21Z</time>
      </trkpt>
      <trkpt lat="42.1271" lon="9.08766">
        <ele>1516.14</ele>
        <time>2016-09-10T07:27:28Z</time>
      </trkpt>
      <trkpt lat="42.12712" lon="9.08767">
        <ele>1517.1</ele>
        <time>2016-09-10T07:27:34Z</time>
      </trkpt>
      <trkpt lat="42.12715" lon="9.08768">
        <ele>1517.1</ele>
        <time>2016-09-10T07:27:41Z</time>
      </trkpt>
      <trkpt lat="42.12717" lon="9.08768">
        <ele>1518.54</ele>
        <time>2016-09-10T07:27:48Z</time>
      </trkpt>
      <trkpt lat="42.12711" lon="9.0875">
        <ele>1519.02</ele>
        <time>2016-09-10T07:27:56Z</time>
      </trkpt>
      <trkpt lat="42.12696" lon="9.08751">
        <ele>1519.98</ele>
        <time>2016-09-10T07:28:04Z</time>
      </trkpt>
      <trkpt lat="42.12705" lon="9.08751">
        <ele>1519.98</ele>
        <time>2016-09-10T07:28:11Z</time>
      </trkpt>
      <trkpt lat="42.12709" lon="9.08755">
        <ele>1521.9</ele>
        <time>2016-09-10T07:28:20Z</time>
      </trkpt>
      <trkpt lat="42.12711" lon="9.08756">
        <ele>1522.39</ele>
        <time>2016-09-10T07:28:28Z</time>
      </trkpt>
      <trkpt lat="42.12712" lon="9.08758">
        <ele>1522.87</ele>
        <time>2016-09-10T07:28:35Z</time>
      </trkpt>
      <trkpt lat="42.12711" lon="9.08763">
        <ele>1523.83</ele>
        <time>2016-09-10T07:28:45Z</time>
      </trkpt>
      <trkpt lat="42.1271" lon="9.08761">
        <ele>1524.79</ele>
        <time>2016-09-10T07:28:53Z</time>
      </trkpt>
      <trkpt lat="42.12705" lon="9.08768">
        <ele>1525.75</ele>
        <time>2016-09-10T07:29:01Z</time>
      </trkpt>
      <trkpt lat="42.12709" lon="9.0877">
        <ele>1526.71</ele>
        <time>2016-09-10T07:29:09Z</time>
      </trkpt>
      <trkpt lat="42.1271" lon="9.08769">
        <ele>1527.67</ele>
        <time>2016-09-10T07:29:17Z</time>
      </trkpt>
      <trkpt lat="42.12711" lon="9.08775">
        <ele>1528.15</ele>
        <time>2016-09-10T07:29:23Z</time>
      </trkpt>
      <trkpt lat="42.12716" lon="9.08768">
        <ele>1529.11</ele>
        <time>2016-09-10T07:29:30Z</time>
      </trkpt>
      <trkpt lat="42.12722" lon="9.08767">
        <ele>1530.56</ele>
        <time>2016-09-10T07:29:37Z</time>
      </trkpt>
      <trkpt lat="42.12722" lon="9.08767">
        <ele>1530.56</ele>
        <time>2016-09-10T07:29:45Z</time>
      </trkpt>
      <trkpt lat="42.12724" lon="9.08767">
        <ele>1530.56</ele>
        <time>2016-09-10T07:29:55Z</time>
      </trkpt>
      <trkpt lat="42.12724" lon="9.08767">
        <ele>1530.56</ele>
        <time>2016-09-10T07:30:02Z</time>
      </trkpt>
      <trkpt lat="42.12724" lon="9.08766">
        <ele>1531.04</ele>
        <time>2016-09-10T07:30:09Z</time>
      </trkpt>
      <trkpt lat="42.12725" lon="9.08766">
        <ele>1531.52</ele>
        <time>2016-09-10T07:30:15Z</time>
      </trkpt>
      <trkpt lat="42.12727" lon="9.08767">
        <ele>1532</ele>
        <time>2016-09-10T07:30:22Z</time>
      </trkpt>
      <trkpt lat="42.12728" lon="9.08767">
        <ele>1532</ele>
        <time>2016-09-10T07:30:28Z</time>
      </trkpt>
      <trkpt lat="42.1273" lon="9.08767">
        <ele>1532.96</ele>
        <time>2016-09-10T07:30:35Z</time>
      </trkpt>
      <trkpt lat="42.12737" lon="9.08766">
        <ele>1532.48</ele>
        <time>2016-09-10T07:30:44Z</time>
      </trkpt>
      <trkpt lat="42.1274" lon="9.08768">
        <ele>1533.44</ele>
        <time>2016-09-10T07:30:51Z</time>
      </trkpt>
      <trkpt lat="42.12743" lon="9.08767">
        <ele>1534.4</ele>
        <time>2016-09-10T07:30:58Z</time>
      </trkpt>
      <trkpt lat="42.12745" lon="9.08766">
        <ele>1535.36</ele>
        <time>2016-09-10T07:31:04Z</time>
      </trkpt>
      <trkpt lat="42.12747" lon="9.08765">
        <ele>1536.8</ele>
        <time>2016-09-10T07:31:13Z</time>
      </trkpt>
      <trkpt lat="42.12751" lon="9.08765">
        <ele>1537.77</ele>
        <time>2016-09-10T07:31:20Z</time>
      </trkpt>
      <trkpt lat="42.12753" lon="9.08766">
        <ele>1538.25</ele>
        <time>2016-09-10T07:31:26Z</time>
      </trkpt>
      <trkpt lat="42.12755" lon="9.08766">
        <ele>1539.21</ele>
        <time>2016-09-10T07:31:34Z</time>
      </trkpt>
      <trkpt lat="42.12757" lon="9.08766">
        <ele>1540.65</ele>
        <time>2016-09-10T07:31:43Z</time>
      </trkpt>
      <trkpt lat="42.1276" lon="9.08767">
        <ele>1537.77</ele>
        <time>2016-09-10T07:31:46Z</time>
      </trkpt>
      <trkpt lat="42.1276" lon="9.08767">
        <ele>1542.09</ele>
        <time>2016-09-10T07:31:47Z</time>
      </trkpt>
      <trkpt lat="42.12765" lon="9.08768">
        <ele>1541.13</ele>
        <time>2016-09-10T07:31:55Z</time>
      </trkpt>
      <trkpt lat="42.12766" lon="9.08768">
        <ele>1541.13</ele>
        <time>2016-09-10T07:32:02Z</time>
      </trkpt>
      <trkpt lat="42.12767" lon="9.08768">
        <ele>1541.61</ele>
        <time>2016-09-10T07:32:07Z</time>
      </trkpt>
      <trkpt lat="42.12768" lon="9.08768">
        <ele>1543.05</ele>
        <time>2016-09-10T07:32:16Z</time>
      </trkpt>
      <trkpt lat="42.12771" lon="9.08768">
        <ele>1544.5</ele>
        <time>2016-09-10T07:32:26Z</time>
      </trkpt>
      <trkpt lat="42.12772" lon="9.08769">
        <ele>1544.98</ele>
        <time>2016-09-10T07:32:36Z</time>
      </trkpt>
      <trkpt lat="42.12774" lon="9.08769">
        <ele>1545.94</ele>
        <time>2016-09-10T07:32:45Z</time>
      </trkpt>
      <trkpt lat="42.12776" lon="9.0877">
        <ele>1547.38</ele>
        <time>2016-09-10T07:32:53Z</time>
      </trkpt>
      <trkpt lat="42.12778" lon="9.0877">
        <ele>1548.34</ele>
        <time>2016-09-10T07:32:59Z</time>
      </trkpt>
      <trkpt lat="42.12779" lon="9.08771">
        <ele>1549.3</ele>
        <time>2016-09-10T07:33:06Z</time>
      </trkpt>
      <trkpt lat="42.12781" lon="9.08771">
        <ele>1550.26</ele>
        <time>2016-09-10T07:33:13Z</time>
      </trkpt>
      <trkpt lat="42.12814" lon="9.08751">
        <ele>1550.74</ele>
        <time>2016-09-10T07:33:21Z</time>
      </trkpt>
      <trkpt lat="42.12818" lon="9.08753">
        <ele>1551.22</ele>
        <time>2016-09-10T07:33:29Z</time>
      </trkpt>
      <trkpt lat="42.12821" lon="9.08755">
        <ele>1551.71</ele>
        <time>2016-09-10T07:33:35Z</time>
      </trkpt>
      <trkpt lat="42.12826" lon="9.08757">
        <ele>1552.67</ele>
        <time>2016-09-10T07:33:42Z</time>
      </trkpt>
      <trkpt lat="42.12828" lon="9.08757">
        <ele>1553.15</ele>
        <time>2016-09-10T07:33:49Z</time>
      </trkpt>
      <trkpt lat="42.12832" lon="9.08756">
        <ele>1553.63</ele>
        <time>2016-09-10T07:33:55Z</time>
      </trkpt>
      <trkpt lat="42.12835" lon="9.0876">
        <ele>1554.11</ele>
        <time>2016-09-10T07:34:03Z</time>
      </trkpt>
      <trkpt lat="42.1284" lon="9.08758">
        <ele>1556.03</ele>
        <time>2016-09-10T07:34:11Z</time>
      </trkpt>
      <trkpt lat="42.12847" lon="9.08759">
        <ele>1556.51</ele>
        <time>2016-09-10T07:34:19Z</time>
      </trkpt>
      <trkpt lat="42.12853" lon="9.08759">
        <ele>1557.47</ele>
        <time>2016-09-10T07:34:29Z</time>
      </trkpt>
      <trkpt lat="42.12861" lon="9.08756">
        <ele>1557.95</ele>
        <time>2016-09-10T07:34:37Z</time>
      </trkpt>
      <trkpt lat="42.12868" lon="9.08752">
        <ele>1558.43</ele>
        <time>2016-09-10T07:34:46Z</time>
      </trkpt>
      <trkpt lat="42.12874" lon="9.08751">
        <ele>1558.92</ele>
        <time>2016-09-10T07:34:54Z</time>
      </trkpt>
      <trkpt lat="42.12876" lon="9.08747">
        <ele>1558.92</ele>
        <time>2016-09-10T07:35:00Z</time>
      </trkpt>
      <trkpt lat="42.12879" lon="9.08744">
        <ele>1558.92</ele>
        <time>2016-09-10T07:35:06Z</time>
      </trkpt>
      <trkpt lat="42.1288" lon="9.08742">
        <ele>1559.88</ele>
        <time>2016-09-10T07:35:15Z</time>
      </trkpt>
      <trkpt lat="42.12884" lon="9.0874">
        <ele>1559.88</ele>
        <time>2016-09-10T07:35:23Z</time>
      </trkpt>
      <trkpt lat="42.12886" lon="9.08739">
        <ele>1559.88</ele>
        <time>2016-09-10T07:35:30Z</time>
      </trkpt>
      <trkpt lat="42.12889" lon="9.08737">
        <ele>1559.88</ele>
        <time>2016-09-10T07:35:40Z</time>
      </trkpt>
      <trkpt lat="42.12893" lon="9.08735">
        <ele>1559.88</ele>
        <time>2016-09-10T07:35:49Z</time>
      </trkpt>
      <trkpt lat="42.12895" lon="9.08731">
        <ele>1559.88</ele>
        <time>2016-09-10T07:36:00Z</time>
      </trkpt>
      <trkpt lat="42.12896" lon="9.0873">
        <ele>1559.88</ele>
        <time>2016-09-10T07:36:08Z</time>
      </trkpt>
      <trkpt lat="42.12897" lon="9.08729">
        <ele>1559.88</ele>
        <time>2016-09-10T07:36:18Z</time>
      </trkpt>
      <trkpt lat="42.12897" lon="9.08729">
        <ele>1560.36</ele>
        <time>2016-09-10T07:36:28Z</time>
      </trkpt>
      <trkpt lat="42.12897" lon="9.08728">
        <ele>1560.84</ele>
        <time>2016-09-10T07:36:35Z</time>
      </trkpt>
      <trkpt lat="42.12897" lon="9.08729">
        <ele>1562.76</ele>
        <time>2016-09-10T07:36:45Z</time>
      </trkpt>
      <trkpt lat="42.12898" lon="9.08728">
        <ele>1561.8</ele>
        <time>2016-09-10T07:36:54Z</time>
      </trkpt>
      <trkpt lat="42.12898" lon="9.08727">
        <ele>1562.28</ele>
        <time>2016-09-10T07:37:02Z</time>
      </trkpt>
      <trkpt lat="42.129" lon="9.08726">
        <ele>1563.24</ele>
        <time>2016-09-10T07:37:10Z</time>
      </trkpt>
      <trkpt lat="42.12901" lon="9.08723">
        <ele>1564.68</ele>
        <time>2016-09-10T07:37:16Z</time>
      </trkpt>
      <trkpt lat="42.12901" lon="9.08722">
        <ele>1565.16</ele>
        <time>2016-09-10T07:37:23Z</time>
      </trkpt>
      <trkpt lat="42.12902" lon="9.08721">
        <ele>1567.09</ele>
        <time>2016-09-10T07:37:31Z</time>
      </trkpt>
      <trkpt lat="42.12905" lon="9.08718">
        <ele>1568.05</ele>
        <time>2016-09-10T07:37:38Z</time>
      </trkpt>
      <trkpt lat="42.12907" lon="9.08719">
        <ele>1569.01</ele>
        <time>2016-09-10T07:37:45Z</time>
      </trkpt>
      <trkpt lat="42.1291" lon="9.08718">
        <ele>1569.97</ele>
        <time>2016-09-10T07:37:52Z</time>
      </trkpt>
      <trkpt lat="42.12912" lon="9.08714">
        <ele>1570.93</ele>
        <time>2016-09-10T07:37:58Z</time>
      </trkpt>
      <trkpt lat="42.12913" lon="9.08712">
        <ele>1570.93</ele>
        <time>2016-09-10T07:38:06Z</time>
      </trkpt>
      <trkpt lat="42.12914" lon="9.0871">
        <ele>1572.37</ele>
        <time>2016-09-10T07:38:14Z</time>
      </trkpt>
      <trkpt lat="42.12916" lon="9.0871">
        <ele>1573.82</ele>
        <time>2016-09-10T07:38:20Z</time>
      </trkpt>
      <trkpt lat="42.12919" lon="9.08709">
        <ele>1573.82</ele>
        <time>2016-09-10T07:38:27Z</time>
      </trkpt>
      <trkpt lat="42.12919" lon="9.08708">
        <ele>1575.26</ele>
        <time>2016-09-10T07:38:35Z</time>
      </trkpt>
      <trkpt lat="42.12921" lon="9.08706">
        <ele>1575.74</ele>
        <time>2016-09-10T07:38:41Z</time>
      </trkpt>
      <trkpt lat="42.12921" lon="9.08707">
        <ele>1577.66</ele>
        <time>2016-09-10T07:38:49Z</time>
      </trkpt>
      <trkpt lat="42.12922" lon="9.08706">
        <ele>1579.1</ele>
        <time>2016-09-10T07:38:58Z</time>
      </trkpt>
      <trkpt lat="42.12925" lon="9.08702">
        <ele>1580.06</ele>
        <time>2016-09-10T07:39:05Z</time>
      </trkpt>
      <trkpt lat="42.12926" lon="9.087">
        <ele>1581.03</ele>
        <time>2016-09-10T07:39:15Z</time>
      </trkpt>
      <trkpt lat="42.12926" lon="9.08697">
        <ele>1580.54</ele>
        <time>2016-09-10T07:39:23Z</time>
      </trkpt>
      <trkpt lat="42.12927" lon="9.08697">
        <ele>1583.91</ele>
        <time>2016-09-10T07:39:31Z</time>
      </trkpt>
      <trkpt lat="42.12928" lon="9.08695">
        <ele>1583.43</ele>
        <time>2016-09-10T07:39:37Z</time>
      </trkpt>
      <trkpt lat="42.12926" lon="9.08693">
        <ele>1584.39</ele>
        <time>2016-09-10T07:39:44Z</time>
      </trkpt>
      <trkpt lat="42.12926" lon="9.08691">
        <ele>1584.87</ele>
        <time>2016-09-10T07:39:49Z</time>
      </trkpt>
      <trkpt lat="42.12927" lon="9.08689">
        <ele>1585.83</ele>
        <time>2016-09-10T07:39:56Z</time>
      </trkpt>
      <trkpt lat="42.12928" lon="9.08687">
        <ele>1587.27</ele>
        <time>2016-09-10T07:40:03Z</time>
      </trkpt>
      <trkpt lat="42.12928" lon="9.08685">
        <ele>1587.27</ele>
        <time>2016-09-10T07:40:12Z</time>
      </trkpt>
      <trkpt lat="42.12929" lon="9.08683">
        <ele>1589.68</ele>
        <time>2016-09-10T07:40:19Z</time>
      </trkpt>
      <trkpt lat="42.12929" lon="9.08682">
        <ele>1590.16</ele>
        <time>2016-09-10T07:40:21Z</time>
      </trkpt>
      <trkpt lat="42.1293" lon="9.08677">
        <ele>1591.12</ele>
        <time>2016-09-10T07:40:29Z</time>
      </trkpt>
      <trkpt lat="42.1293" lon="9.08676">
        <ele>1592.08</ele>
        <time>2016-09-10T07:40:36Z</time>
      </trkpt>
      <trkpt lat="42.12931" lon="9.08672">
        <ele>1593.04</ele>
        <time>2016-09-10T07:40:42Z</time>
      </trkpt>
      <trkpt lat="42.12932" lon="9.08672">
        <ele>1594</ele>
        <time>2016-09-10T07:40:47Z</time>
      </trkpt>
      <trkpt lat="42.12931" lon="9.08669">
        <ele>1594.48</ele>
        <time>2016-09-10T07:40:56Z</time>
      </trkpt>
      <trkpt lat="42.12931" lon="9.08667">
        <ele>1594.96</ele>
        <time>2016-09-10T07:41:05Z</time>
      </trkpt>
      <trkpt lat="42.12932" lon="9.08662">
        <ele>1596.89</ele>
        <time>2016-09-10T07:41:11Z</time>
      </trkpt>
      <trkpt lat="42.12933" lon="9.08655">
        <ele>1597.85</ele>
        <time>2016-09-10T07:41:18Z</time>
      </trkpt>
      <trkpt lat="42.12933" lon="9.08649">
        <ele>1598.81</ele>
        <time>2016-09-10T07:41:26Z</time>
      </trkpt>
      <trkpt lat="42.12934" lon="9.08637">
        <ele>1599.29</ele>
        <time>2016-09-10T07:41:32Z</time>
      </trkpt>
      <trkpt lat="42.12937" lon="9.08625">
        <ele>1599.77</ele>
        <time>2016-09-10T07:41:38Z</time>
      </trkpt>
      <trkpt lat="42.12943" lon="9.08617">
        <ele>1599.77</ele>
        <time>2016-09-10T07:41:47Z</time>
      </trkpt>
      <trkpt lat="42.12951" lon="9.08613">
        <ele>1598.81</ele>
        <time>2016-09-10T07:41:57Z</time>
      </trkpt>
      <trkpt lat="42.12957" lon="9.08616">
        <ele>1599.29</ele>
        <time>2016-09-10T07:42:03Z</time>
      </trkpt>
      <trkpt lat="42.12961" lon="9.08618">
        <ele>1599.29</ele>
        <time>2016-09-10T07:42:09Z</time>
      </trkpt>
      <trkpt lat="42.12965" lon="9.08615">
        <ele>1599.77</ele>
        <time>2016-09-10T07:42:15Z</time>
      </trkpt>
      <trkpt lat="42.12967" lon="9.08614">
        <ele>1600.73</ele>
        <time>2016-09-10T07:42:22Z</time>
      </trkpt>
      <trkpt lat="42.12969" lon="9.08614">
        <ele>1601.21</ele>
        <time>2016-09-10T07:42:29Z</time>
      </trkpt>
      <trkpt lat="42.12973" lon="9.08609">
        <ele>1602.66</ele>
        <time>2016-09-10T07:42:37Z</time>
      </trkpt>
      <trkpt lat="42.12977" lon="9.08609">
        <ele>1603.62</ele>
        <time>2016-09-10T07:42:42Z</time>
      </trkpt>
      <trkpt lat="42.12981" lon="9.08606">
        <ele>1603.62</ele>
        <time>2016-09-10T07:42:49Z</time>
      </trkpt>
      <trkpt lat="42.12985" lon="9.08604">
        <ele>1603.62</ele>
        <time>2016-09-10T07:42:55Z</time>
      </trkpt>
      <trkpt lat="42.12989" lon="9.08605">
        <ele>1604.1</ele>
        <time>2016-09-10T07:43:03Z</time>
      </trkpt>
      <trkpt lat="42.12992" lon="9.08605">
        <ele>1605.06</ele>
        <time>2016-09-10T07:43:09Z</time>
      </trkpt>
      <trkpt lat="42.12998" lon="9.08606">
        <ele>1606.02</ele>
        <time>2016-09-10T07:43:16Z</time>
      </trkpt>
      <trkpt lat="42.13004" lon="9.08602">
        <ele>1606.5</ele>
        <time>2016-09-10T07:43:23Z</time>
      </trkpt>
      <trkpt lat="42.13009" lon="9.08598">
        <ele>1606.98</ele>
        <time>2016-09-10T07:43:32Z</time>
      </trkpt>
      <trkpt lat="42.13011" lon="9.08594">
        <ele>1607.46</ele>
        <time>2016-09-10T07:43:40Z</time>
      </trkpt>
      <trkpt lat="42.13015" lon="9.08593">
        <ele>1608.42</ele>
        <time>2016-09-10T07:43:46Z</time>
      </trkpt>
      <trkpt lat="42.1302" lon="9.08591">
        <ele>1608.9</ele>
        <time>2016-09-10T07:43:54Z</time>
      </trkpt>
      <trkpt lat="42.13026" lon="9.0859">
        <ele>1609.38</ele>
        <time>2016-09-10T07:44:02Z</time>
      </trkpt>
      <trkpt lat="42.1303" lon="9.08589">
        <ele>1610.35</ele>
        <time>2016-09-10T07:44:09Z</time>
      </trkpt>
      <trkpt lat="42.13033" lon="9.08589">
        <ele>1610.35</ele>
        <time>2016-09-10T07:44:14Z</time>
      </trkpt>
      <trkpt lat="42.13037" lon="9.08589">
        <ele>1610.83</ele>
        <time>2016-09-10T07:44:20Z</time>
      </trkpt>
      <trkpt lat="42.13041" lon="9.0859">
        <ele>1611.79</ele>
        <time>2016-09-10T07:44:27Z</time>
      </trkpt>
      <trkpt lat="42.13045" lon="9.08587">
        <ele>1612.75</ele>
        <time>2016-09-10T07:44:36Z</time>
      </trkpt>
      <trkpt lat="42.13049" lon="9.08584">
        <ele>1613.71</ele>
        <time>2016-09-10T07:44:44Z</time>
      </trkpt>
      <trkpt lat="42.13053" lon="9.08582">
        <ele>1614.19</ele>
        <time>2016-09-10T07:44:51Z</time>
      </trkpt>
      <trkpt lat="42.13056" lon="9.08579">
        <ele>1614.67</ele>
        <time>2016-09-10T07:44:54Z</time>
      </trkpt>
      <trkpt lat="42.13061" lon="9.08572">
        <ele>1615.15</ele>
        <time>2016-09-10T07:45:01Z</time>
      </trkpt>
      <trkpt lat="42.13064" lon="9.08571">
        <ele>1615.63</ele>
        <time>2016-09-10T07:45:07Z</time>
      </trkpt>
      <trkpt lat="42.13067" lon="9.08569">
        <ele>1616.59</ele>
        <time>2016-09-10T07:45:14Z</time>
      </trkpt>
      <trkpt lat="42.13071" lon="9.0857">
        <ele>1617.07</ele>
        <time>2016-09-10T07:45:21Z</time>
      </trkpt>
      <trkpt lat="42.13073" lon="9.0857">
        <ele>1618.52</ele>
        <time>2016-09-10T07:45:30Z</time>
      </trkpt>
      <trkpt lat="42.13076" lon="9.0857">
        <ele>1619</ele>
        <time>2016-09-10T07:45:36Z</time>
      </trkpt>
      <trkpt lat="42.13079" lon="9.08572">
        <ele>1619.48</ele>
        <time>2016-09-10T07:45:43Z</time>
      </trkpt>
      <trkpt lat="42.13082" lon="9.08574">
        <ele>1619.96</ele>
        <time>2016-09-10T07:45:51Z</time>
      </trkpt>
      <trkpt lat="42.13085" lon="9.08575">
        <ele>1620.92</ele>
        <time>2016-09-10T07:45:59Z</time>
      </trkpt>
      <trkpt lat="42.13088" lon="9.08575">
        <ele>1621.4</ele>
        <time>2016-09-10T07:46:06Z</time>
      </trkpt>
      <trkpt lat="42.13091" lon="9.08576">
        <ele>1621.88</ele>
        <time>2016-09-10T07:46:10Z</time>
      </trkpt>
      <trkpt lat="42.13093" lon="9.08578">
        <ele>1622.36</ele>
        <time>2016-09-10T07:46:16Z</time>
      </trkpt>
      <trkpt lat="42.13095" lon="9.08581">
        <ele>1623.32</ele>
        <time>2016-09-10T07:46:22Z</time>
      </trkpt>
      <trkpt lat="42.13098" lon="9.08585">
        <ele>1624.28</ele>
        <time>2016-09-10T07:46:30Z</time>
      </trkpt>
      <trkpt lat="42.13098" lon="9.08585">
        <ele>1624.28</ele>
        <time>2016-09-10T07:46:31Z</time>
      </trkpt>
      <trkpt lat="42.13101" lon="9.08588">
        <ele>1624.77</ele>
        <time>2016-09-10T07:46:37Z</time>
      </trkpt>
      <trkpt lat="42.13102" lon="9.08592">
        <ele>1625.25</ele>
        <time>2016-09-10T07:46:44Z</time>
      </trkpt>
      <trkpt lat="42.13103" lon="9.086">
        <ele>1626.69</ele>
        <time>2016-09-10T07:46:52Z</time>
      </trkpt>
      <trkpt lat="42.13104" lon="9.08602">
        <ele>1627.65</ele>
        <time>2016-09-10T07:46:59Z</time>
      </trkpt>
      <trkpt lat="42.13109" lon="9.08603">
        <ele>1628.61</ele>
        <time>2016-09-10T07:47:07Z</time>
      </trkpt>
      <trkpt lat="42.13113" lon="9.08604">
        <ele>1628.13</ele>
        <time>2016-09-10T07:47:15Z</time>
      </trkpt>
      <trkpt lat="42.1312" lon="9.08609">
        <ele>1628.13</ele>
        <time>2016-09-10T07:47:23Z</time>
      </trkpt>
      <trkpt lat="42.13122" lon="9.08607">
        <ele>1629.09</ele>
        <time>2016-09-10T07:47:29Z</time>
      </trkpt>
      <trkpt lat="42.13125" lon="9.08606">
        <ele>1630.05</ele>
        <time>2016-09-10T07:47:37Z</time>
      </trkpt>
      <trkpt lat="42.13127" lon="9.08604">
        <ele>1631.01</ele>
        <time>2016-09-10T07:47:45Z</time>
      </trkpt>
      <trkpt lat="42.13128" lon="9.08607">
        <ele>1631.98</ele>
        <time>2016-09-10T07:47:53Z</time>
      </trkpt>
      <trkpt lat="42.13132" lon="9.08607">
        <ele>1632.94</ele>
        <time>2016-09-10T07:48:02Z</time>
      </trkpt>
      <trkpt lat="42.13133" lon="9.08607">
        <ele>1632.94</ele>
        <time>2016-09-10T07:48:10Z</time>
      </trkpt>
      <trkpt lat="42.13135" lon="9.08604">
        <ele>1633.9</ele>
        <time>2016-09-10T07:48:18Z</time>
      </trkpt>
      <trkpt lat="42.13136" lon="9.08603">
        <ele>1634.86</ele>
        <time>2016-09-10T07:48:24Z</time>
      </trkpt>
      <trkpt lat="42.13139" lon="9.08605">
        <ele>1635.82</ele>
        <time>2016-09-10T07:48:33Z</time>
      </trkpt>
      <trkpt lat="42.13142" lon="9.08607">
        <ele>1636.3</ele>
        <time>2016-09-10T07:48:39Z</time>
      </trkpt>
      <trkpt lat="42.13146" lon="9.08605">
        <ele>1637.74</ele>
        <time>2016-09-10T07:48:47Z</time>
      </trkpt>
      <trkpt lat="42.13148" lon="9.08607">
        <ele>1638.22</ele>
        <time>2016-09-10T07:48:54Z</time>
      </trkpt>
      <trkpt lat="42.13152" lon="9.08608">
        <ele>1639.67</ele>
        <time>2016-09-10T07:49:03Z</time>
      </trkpt>
      <trkpt lat="42.13156" lon="9.08608">
        <ele>1640.15</ele>
        <time>2016-09-10T07:49:10Z</time>
      </trkpt>
      <trkpt lat="42.13157" lon="9.08606">
        <ele>1640.63</ele>
        <time>2016-09-10T07:49:18Z</time>
      </trkpt>
      <trkpt lat="42.13157" lon="9.08606">
        <ele>1641.59</ele>
        <time>2016-09-10T07:49:23Z</time>
      </trkpt>
      <trkpt lat="42.13158" lon="9.08604">
        <ele>1642.55</ele>
        <time>2016-09-10T07:49:29Z</time>
      </trkpt>
      <trkpt lat="42.13159" lon="9.08601">
        <ele>1642.55</ele>
        <time>2016-09-10T07:49:37Z</time>
      </trkpt>
      <trkpt lat="42.13159" lon="9.08599">
        <ele>1644.47</ele>
        <time>2016-09-10T07:49:46Z</time>
      </trkpt>
      <trkpt lat="42.13158" lon="9.08596">
        <ele>1644.95</ele>
        <time>2016-09-10T07:49:52Z</time>
      </trkpt>
      <trkpt lat="42.13156" lon="9.08594">
        <ele>1645.91</ele>
        <time>2016-09-10T07:49:58Z</time>
      </trkpt>
      <trkpt lat="42.13157" lon="9.08592">
        <ele>1646.88</ele>
        <time>2016-09-10T07:50:08Z</time>
      </trkpt>
      <trkpt lat="42.13156" lon="9.0859">
        <ele>1647.84</ele>
        <time>2016-09-10T07:50:15Z</time>
      </trkpt>
      <trkpt lat="42.13156" lon="9.08589">
        <ele>1648.8</ele>
        <time>2016-09-10T07:50:21Z</time>
      </trkpt>
      <trkpt lat="42.13156" lon="9.08586">
        <ele>1649.28</ele>
        <time>2016-09-10T07:50:31Z</time>
      </trkpt>
      <trkpt lat="42.13157" lon="9.08583">
        <ele>1650.24</ele>
        <time>2016-09-10T07:50:38Z</time>
      </trkpt>
      <trkpt lat="42.13157" lon="9.08582">
        <ele>1651.2</ele>
        <time>2016-09-10T07:50:44Z</time>
      </trkpt>
      <trkpt lat="42.13156" lon="9.08576">
        <ele>1652.16</ele>
        <time>2016-09-10T07:50:52Z</time>
      </trkpt>
      <trkpt lat="42.13156" lon="9.08572">
        <ele>1653.6</ele>
        <time>2016-09-10T07:51:01Z</time>
      </trkpt>
      <trkpt lat="42.13155" lon="9.08569">
        <ele>1654.09</ele>
        <time>2016-09-10T07:51:09Z</time>
      </trkpt>
      <trkpt lat="42.13155" lon="9.08568">
        <ele>1655.05</ele>
        <time>2016-09-10T07:51:12Z</time>
      </trkpt>
      <trkpt lat="42.13154" lon="9.08563">
        <ele>1654.57</ele>
        <time>2016-09-10T07:51:22Z</time>
      </trkpt>
      <trkpt lat="42.13154" lon="9.08562">
        <ele>1656.01</ele>
        <time>2016-09-10T07:51:29Z</time>
      </trkpt>
      <trkpt lat="42.13152" lon="9.08559">
        <ele>1656.49</ele>
        <time>2016-09-10T07:51:34Z</time>
      </trkpt>
      <trkpt lat="42.13143" lon="9.08554">
        <ele>1656.97</ele>
        <time>2016-09-10T07:51:41Z</time>
      </trkpt>
      <trkpt lat="42.13141" lon="9.0855">
        <ele>1657.45</ele>
        <time>2016-09-10T07:51:49Z</time>
      </trkpt>
      <trkpt lat="42.13138" lon="9.0855">
        <ele>1657.93</ele>
        <time>2016-09-10T07:51:57Z</time>
      </trkpt>
      <trkpt lat="42.13137" lon="9.08547">
        <ele>1658.41</ele>
        <time>2016-09-10T07:52:05Z</time>
      </trkpt>
      <trkpt lat="42.13137" lon="9.08544">
        <ele>1658.89</ele>
        <time>2016-09-10T07:52:12Z</time>
      </trkpt>
      <trkpt lat="42.13135" lon="9.08541">
        <ele>1660.33</ele>
        <time>2016-09-10T07:52:19Z</time>
      </trkpt>
      <trkpt lat="42.13137" lon="9.08535">
        <ele>1661.78</ele>
        <time>2016-09-10T07:52:28Z</time>
      </trkpt>
      <trkpt lat="42.13138" lon="9.08536">
        <ele>1662.74</ele>
        <time>2016-09-10T07:52:35Z</time>
      </trkpt>
      <trkpt lat="42.13138" lon="9.08531">
        <ele>1663.7</ele>
        <time>2016-09-10T07:52:42Z</time>
      </trkpt>
      <trkpt lat="42.1314" lon="9.08526">
        <ele>1664.66</ele>
        <time>2016-09-10T07:52:49Z</time>
      </trkpt>
      <trkpt lat="42.13142" lon="9.08523">
        <ele>1664.18</ele>
        <time>2016-09-10T07:52:57Z</time>
      </trkpt>
      <trkpt lat="42.13145" lon="9.08517">
        <ele>1666.1</ele>
        <time>2016-09-10T07:53:05Z</time>
      </trkpt>
      <trkpt lat="42.13148" lon="9.08514">
        <ele>1668.02</ele>
        <time>2016-09-10T07:53:14Z</time>
      </trkpt>
      <trkpt lat="42.13147" lon="9.08513">
        <ele>1667.06</ele>
        <time>2016-09-10T07:53:21Z</time>
      </trkpt>
      <trkpt lat="42.13146" lon="9.08511">
        <ele>1668.02</ele>
        <time>2016-09-10T07:53:29Z</time>
      </trkpt>
      <trkpt lat="42.13146" lon="9.0851">
        <ele>1668.99</ele>
        <time>2016-09-10T07:53:36Z</time>
      </trkpt>
      <trkpt lat="42.13145" lon="9.08508">
        <ele>1669.47</ele>
        <time>2016-09-10T07:53:46Z</time>
      </trkpt>
      <trkpt lat="42.13144" lon="9.08508">
        <ele>1670.43</ele>
        <time>2016-09-10T07:53:53Z</time>
      </trkpt>
      <trkpt lat="42.13144" lon="9.08506">
        <ele>1671.39</ele>
        <time>2016-09-10T07:54:02Z</time>
      </trkpt>
      <trkpt lat="42.13144" lon="9.08506">
        <ele>1672.35</ele>
        <time>2016-09-10T07:54:05Z</time>
      </trkpt>
      <trkpt lat="42.13144" lon="9.08505">
        <ele>1673.31</ele>
        <time>2016-09-10T07:54:11Z</time>
      </trkpt>
      <trkpt lat="42.13145" lon="9.08502">
        <ele>1673.79</ele>
        <time>2016-09-10T07:54:19Z</time>
      </trkpt>
      <trkpt lat="42.13145" lon="9.08499">
        <ele>1674.27</ele>
        <time>2016-09-10T07:54:29Z</time>
      </trkpt>
      <trkpt lat="42.13145" lon="9.08495">
        <ele>1675.23</ele>
        <time>2016-09-10T07:54:38Z</time>
      </trkpt>
      <trkpt lat="42.13143" lon="9.08493">
        <ele>1676.68</ele>
        <time>2016-09-10T07:54:46Z</time>
      </trkpt>
      <trkpt lat="42.13141" lon="9.0849">
        <ele>1677.64</ele>
        <time>2016-09-10T07:54:56Z</time>
      </trkpt>
      <trkpt lat="42.13141" lon="9.08486">
        <ele>1678.12</ele>
        <time>2016-09-10T07:55:04Z</time>
      </trkpt>
      <trkpt lat="42.13141" lon="9.08484">
        <ele>1680.52</ele>
        <time>2016-09-10T07:55:14Z</time>
      </trkpt>
      <trkpt lat="42.13142" lon="9.08482">
        <ele>1678.12</ele>
        <time>2016-09-10T07:55:22Z</time>
      </trkpt>
      <trkpt lat="42.13143" lon="9.08476">
        <ele>1677.16</ele>
        <time>2016-09-10T07:55:29Z</time>
      </trkpt>
      <trkpt lat="42.13145" lon="9.08475">
        <ele>1677.64</ele>
        <time>2016-09-10T07:55:35Z</time>
      </trkpt>
      <trkpt lat="42.13147" lon="9.08473">
        <ele>1678.6</ele>
        <time>2016-09-10T07:55:45Z</time>
      </trkpt>
      <trkpt lat="42.13147" lon="9.08473">
        <ele>1679.56</ele>
        <time>2016-09-10T07:55:54Z</time>
      </trkpt>
      <trkpt lat="42.1315" lon="9.08471">
        <ele>1679.56</ele>
        <time>2016-09-10T07:56:07Z</time>
      </trkpt>
      <trkpt lat="42.13151" lon="9.0847">
        <ele>1680.04</ele>
        <time>2016-09-10T07:56:15Z</time>
      </trkpt>
      <trkpt lat="42.13152" lon="9.08469">
        <ele>1680.52</ele>
        <time>2016-09-10T07:56:22Z</time>
      </trkpt>
      <trkpt lat="42.13152" lon="9.0847">
        <ele>1681.96</ele>
        <time>2016-09-10T07:56:29Z</time>
      </trkpt>
      <trkpt lat="42.13153" lon="9.08469">
        <ele>1682.44</ele>
        <time>2016-09-10T07:56:38Z</time>
      </trkpt>
      <trkpt lat="42.13153" lon="9.08467">
        <ele>1681.96</ele>
        <time>2016-09-10T07:56:41Z</time>
      </trkpt>
      <trkpt lat="42.13152" lon="9.08465">
        <ele>1683.89</ele>
        <time>2016-09-10T07:56:44Z</time>
      </trkpt>
      <trkpt lat="42.13153" lon="9.08463">
        <ele>1684.85</ele>
        <time>2016-09-10T07:56:52Z</time>
      </trkpt>
      <trkpt lat="42.13155" lon="9.08463">
        <ele>1684.85</ele>
        <time>2016-09-10T07:56:55Z</time>
      </trkpt>
      <trkpt lat="42.13159" lon="9.08466">
        <ele>1686.29</ele>
        <time>2016-09-10T07:57:03Z</time>
      </trkpt>
      <trkpt lat="42.13161" lon="9.08465">
        <ele>1687.25</ele>
        <time>2016-09-10T07:57:12Z</time>
      </trkpt>
      <trkpt lat="42.13161" lon="9.08464">
        <ele>1687.73</ele>
        <time>2016-09-10T07:57:13Z</time>
      </trkpt>
      <trkpt lat="42.13164" lon="9.08464">
        <ele>1688.69</ele>
        <time>2016-09-10T07:57:16Z</time>
      </trkpt>
      <trkpt lat="42.13168" lon="9.08466">
        <ele>1688.69</ele>
        <time>2016-09-10T07:57:23Z</time>
      </trkpt>
      <trkpt lat="42.13172" lon="9.08463">
        <ele>1690.14</ele>
        <time>2016-09-10T07:57:31Z</time>
      </trkpt>
      <trkpt lat="42.13173" lon="9.08468">
        <ele>1690.62</ele>
        <time>2016-09-10T07:57:38Z</time>
      </trkpt>
      <trkpt lat="42.13176" lon="9.08466">
        <ele>1691.58</ele>
        <time>2016-09-10T07:57:44Z</time>
      </trkpt>
      <trkpt lat="42.13179" lon="9.08469">
        <ele>1692.06</ele>
        <time>2016-09-10T07:57:51Z</time>
      </trkpt>
      <trkpt lat="42.1318" lon="9.08467">
        <ele>1693.02</ele>
        <time>2016-09-10T07:57:59Z</time>
      </trkpt>
      <trkpt lat="42.13182" lon="9.08468">
        <ele>1692.54</ele>
        <time>2016-09-10T07:58:06Z</time>
      </trkpt>
      <trkpt lat="42.13183" lon="9.08469">
        <ele>1694.46</ele>
        <time>2016-09-10T07:58:13Z</time>
      </trkpt>
      <trkpt lat="42.13184" lon="9.08469">
        <ele>1694.46</ele>
        <time>2016-09-10T07:58:22Z</time>
      </trkpt>
      <trkpt lat="42.13184" lon="9.08469">
        <ele>1693.98</ele>
        <time>2016-09-10T07:58:30Z</time>
      </trkpt>
      <trkpt lat="42.13185" lon="9.0847">
        <ele>1693.98</ele>
        <time>2016-09-10T07:58:39Z</time>
      </trkpt>
      <trkpt lat="42.13186" lon="9.08473">
        <ele>1695.9</ele>
        <time>2016-09-10T07:58:47Z</time>
      </trkpt>
      <trkpt lat="42.13186" lon="9.08476">
        <ele>1698.31</ele>
        <time>2016-09-10T07:58:50Z</time>
      </trkpt>
      <trkpt lat="42.13189" lon="9.0848">
        <ele>1697.34</ele>
        <time>2016-09-10T07:58:55Z</time>
      </trkpt>
      <trkpt lat="42.13194" lon="9.08486">
        <ele>1697.34</ele>
        <time>2016-09-10T07:59:02Z</time>
      </trkpt>
      <trkpt lat="42.13199" lon="9.08486">
        <ele>1697.83</ele>
        <time>2016-09-10T07:59:10Z</time>
      </trkpt>
      <trkpt lat="42.132" lon="9.08485">
        <ele>1697.83</ele>
        <time>2016-09-10T07:59:20Z</time>
      </trkpt>
      <trkpt lat="42.13202" lon="9.08483">
        <ele>1700.23</ele>
        <time>2016-09-10T07:59:28Z</time>
      </trkpt>
      <trkpt lat="42.132" lon="9.08485">
        <ele>1699.75</ele>
        <time>2016-09-10T07:59:35Z</time>
      </trkpt>
      <trkpt lat="42.13203" lon="9.08485">
        <ele>1700.23</ele>
        <time>2016-09-10T07:59:44Z</time>
      </trkpt>
      <trkpt lat="42.13206" lon="9.08483">
        <ele>1701.19</ele>
        <time>2016-09-10T07:59:51Z</time>
      </trkpt>
      <trkpt lat="42.13208" lon="9.0848">
        <ele>1701.67</ele>
        <time>2016-09-10T07:59:58Z</time>
      </trkpt>
      <trkpt lat="42.1321" lon="9.08485">
        <ele>1703.11</ele>
        <time>2016-09-10T08:00:06Z</time>
      </trkpt>
      <trkpt lat="42.13213" lon="9.08491">
        <ele>1704.55</ele>
        <time>2016-09-10T08:00:14Z</time>
      </trkpt>
      <trkpt lat="42.13216" lon="9.08492">
        <ele>1705.04</ele>
        <time>2016-09-10T08:00:20Z</time>
      </trkpt>
      <trkpt lat="42.13217" lon="9.08492">
        <ele>1706.48</ele>
        <time>2016-09-10T08:00:29Z</time>
      </trkpt>
      <trkpt lat="42.13221" lon="9.08496">
        <ele>1706.48</ele>
        <time>2016-09-10T08:00:35Z</time>
      </trkpt>
      <trkpt lat="42.13226" lon="9.08503">
        <ele>1706.48</ele>
        <time>2016-09-10T08:00:43Z</time>
      </trkpt>
      <trkpt lat="42.13227" lon="9.08505">
        <ele>1707.44</ele>
        <time>2016-09-10T08:00:50Z</time>
      </trkpt>
      <trkpt lat="42.1323" lon="9.08508">
        <ele>1709.36</ele>
        <time>2016-09-10T08:00:58Z</time>
      </trkpt>
      <trkpt lat="42.13234" lon="9.08509">
        <ele>1709.84</ele>
        <time>2016-09-10T08:01:07Z</time>
      </trkpt>
      <trkpt lat="42.13237" lon="9.08509">
        <ele>1710.8</ele>
        <time>2016-09-10T08:01:14Z</time>
      </trkpt>
      <trkpt lat="42.13241" lon="9.08513">
        <ele>1710.8</ele>
        <time>2016-09-10T08:01:22Z</time>
      </trkpt>
      <trkpt lat="42.13244" lon="9.08513">
        <ele>1711.76</ele>
        <time>2016-09-10T08:01:30Z</time>
      </trkpt>
      <trkpt lat="42.13247" lon="9.08514">
        <ele>1713.21</ele>
        <time>2016-09-10T08:01:37Z</time>
      </trkpt>
      <trkpt lat="42.13252" lon="9.08514">
        <ele>1714.65</ele>
        <time>2016-09-10T08:01:45Z</time>
      </trkpt>
      <trkpt lat="42.13257" lon="9.08515">
        <ele>1715.13</ele>
        <time>2016-09-10T08:01:52Z</time>
      </trkpt>
      <trkpt lat="42.13261" lon="9.08516">
        <ele>1715.13</ele>
        <time>2016-09-10T08:01:59Z</time>
      </trkpt>
      <trkpt lat="42.13267" lon="9.08518">
        <ele>1716.09</ele>
        <time>2016-09-10T08:02:09Z</time>
      </trkpt>
      <trkpt lat="42.1327" lon="9.08517">
        <ele>1716.09</ele>
        <time>2016-09-10T08:02:17Z</time>
      </trkpt>
      <trkpt lat="42.13271" lon="9.08515">
        <ele>1717.53</ele>
        <time>2016-09-10T08:02:25Z</time>
      </trkpt>
      <trkpt lat="42.1327" lon="9.08512">
        <ele>1718.49</ele>
        <time>2016-09-10T08:02:32Z</time>
      </trkpt>
      <trkpt lat="42.13271" lon="9.08508">
        <ele>1719.46</ele>
        <time>2016-09-10T08:02:39Z</time>
      </trkpt>
      <trkpt lat="42.13271" lon="9.08502">
        <ele>1719.94</ele>
        <time>2016-09-10T08:02:46Z</time>
      </trkpt>
      <trkpt lat="42.13271" lon="9.08498">
        <ele>1719.94</ele>
        <time>2016-09-10T08:02:53Z</time>
      </trkpt>
      <trkpt lat="42.13273" lon="9.08494">
        <ele>1720.9</ele>
        <time>2016-09-10T08:02:58Z</time>
      </trkpt>
      <trkpt lat="42.13274" lon="9.08493">
        <ele>1721.86</ele>
        <time>2016-09-10T08:03:05Z</time>
      </trkpt>
      <trkpt lat="42.13276" lon="9.08492">
        <ele>1722.82</ele>
        <time>2016-09-10T08:03:15Z</time>
      </trkpt>
      <trkpt lat="42.13278" lon="9.0849">
        <ele>1724.26</ele>
        <time>2016-09-10T08:03:23Z</time>
      </trkpt>
      <trkpt lat="42.1328" lon="9.08488">
        <ele>1724.74</ele>
        <time>2016-09-10T08:03:31Z</time>
      </trkpt>
      <trkpt lat="42.13283" lon="9.08487">
        <ele>1724.26</ele>
        <time>2016-09-10T08:03:38Z</time>
      </trkpt>
      <trkpt lat="42.13284" lon="9.08487">
        <ele>1725.22</ele>
        <time>2016-09-10T08:03:45Z</time>
      </trkpt>
      <trkpt lat="42.13284" lon="9.08485">
        <ele>1727.63</ele>
        <time>2016-09-10T08:03:53Z</time>
      </trkpt>
      <trkpt lat="42.13285" lon="9.08485">
        <ele>1726.67</ele>
        <time>2016-09-10T08:03:54Z</time>
      </trkpt>
      <trkpt lat="42.13287" lon="9.08484">
        <ele>1728.11</ele>
        <time>2016-09-10T08:04:03Z</time>
      </trkpt>
      <trkpt lat="42.13288" lon="9.08482">
        <ele>1728.59</ele>
        <time>2016-09-10T08:04:10Z</time>
      </trkpt>
      <trkpt lat="42.1329" lon="9.08479">
        <ele>1730.03</ele>
        <time>2016-09-10T08:04:17Z</time>
      </trkpt>
      <trkpt lat="42.13293" lon="9.08475">
        <ele>1730.03</ele>
        <time>2016-09-10T08:04:25Z</time>
      </trkpt>
      <trkpt lat="42.13295" lon="9.08471">
        <ele>1730.99</ele>
        <time>2016-09-10T08:04:34Z</time>
      </trkpt>
      <trkpt lat="42.13296" lon="9.08471">
        <ele>1732.43</ele>
        <time>2016-09-10T08:04:43Z</time>
      </trkpt>
      <trkpt lat="42.13299" lon="9.08471">
        <ele>1732.91</ele>
        <time>2016-09-10T08:04:50Z</time>
      </trkpt>
      <trkpt lat="42.13301" lon="9.08469">
        <ele>1734.36</ele>
        <time>2016-09-10T08:04:57Z</time>
      </trkpt>
      <trkpt lat="42.13303" lon="9.08467">
        <ele>1734.84</ele>
        <time>2016-09-10T08:05:03Z</time>
      </trkpt>
      <trkpt lat="42.13304" lon="9.08464">
        <ele>1735.32</ele>
        <time>2016-09-10T08:05:11Z</time>
      </trkpt>
      <trkpt lat="42.13306" lon="9.08463">
        <ele>1735.8</ele>
        <time>2016-09-10T08:05:19Z</time>
      </trkpt>
      <trkpt lat="42.13309" lon="9.08459">
        <ele>1736.76</ele>
        <time>2016-09-10T08:05:25Z</time>
      </trkpt>
      <trkpt lat="42.13309" lon="9.08456">
        <ele>1735.8</ele>
        <time>2016-09-10T08:05:33Z</time>
      </trkpt>
      <trkpt lat="42.13311" lon="9.08453">
        <ele>1737.72</ele>
        <time>2016-09-10T08:05:42Z</time>
      </trkpt>
      <trkpt lat="42.13312" lon="9.08453">
        <ele>1739.16</ele>
        <time>2016-09-10T08:05:51Z</time>
      </trkpt>
      <trkpt lat="42.13315" lon="9.08452">
        <ele>1739.64</ele>
        <time>2016-09-10T08:06:01Z</time>
      </trkpt>
      <trkpt lat="42.13317" lon="9.08454">
        <ele>1740.6</ele>
        <time>2016-09-10T08:06:08Z</time>
      </trkpt>
      <trkpt lat="42.13318" lon="9.08454">
        <ele>1741.57</ele>
        <time>2016-09-10T08:06:19Z</time>
      </trkpt>
      <trkpt lat="42.1332" lon="9.08455">
        <ele>1742.05</ele>
        <time>2016-09-10T08:06:27Z</time>
      </trkpt>
      <trkpt lat="42.13321" lon="9.08453">
        <ele>1743.01</ele>
        <time>2016-09-10T08:06:37Z</time>
      </trkpt>
      <trkpt lat="42.13322" lon="9.08454">
        <ele>1744.45</ele>
        <time>2016-09-10T08:06:43Z</time>
      </trkpt>
      <trkpt lat="42.13323" lon="9.08455">
        <ele>1744.45</ele>
        <time>2016-09-10T08:06:52Z</time>
      </trkpt>
      <trkpt lat="42.13325" lon="9.08456">
        <ele>1744.93</ele>
        <time>2016-09-10T08:06:59Z</time>
      </trkpt>
      <trkpt lat="42.13325" lon="9.08459">
        <ele>1745.89</ele>
        <time>2016-09-10T08:07:08Z</time>
      </trkpt>
      <trkpt lat="42.13325" lon="9.08461">
        <ele>1747.33</ele>
        <time>2016-09-10T08:07:17Z</time>
      </trkpt>
      <trkpt lat="42.13325" lon="9.08465">
        <ele>1748.78</ele>
        <time>2016-09-10T08:07:24Z</time>
      </trkpt>
      <trkpt lat="42.13324" lon="9.08471">
        <ele>1749.74</ele>
        <time>2016-09-10T08:07:31Z</time>
      </trkpt>
      <trkpt lat="42.13324" lon="9.08478">
        <ele>1750.7</ele>
        <time>2016-09-10T08:07:39Z</time>
      </trkpt>
      <trkpt lat="42.13325" lon="9.08482">
        <ele>1751.66</ele>
        <time>2016-09-10T08:07:47Z</time>
      </trkpt>
      <trkpt lat="42.13326" lon="9.08485">
        <ele>1751.66</ele>
        <time>2016-09-10T08:07:56Z</time>
      </trkpt>
      <trkpt lat="42.13326" lon="9.08485">
        <ele>1747.81</ele>
        <time>2016-09-10T08:07:57Z</time>
      </trkpt>
      <trkpt lat="42.13326" lon="9.08485">
        <ele>1751.66</ele>
        <time>2016-09-10T08:07:58Z</time>
      </trkpt>
      <trkpt lat="42.13326" lon="9.08486">
        <ele>1752.14</ele>
        <time>2016-09-10T08:08:16Z</time>
      </trkpt>
      <trkpt lat="42.13326" lon="9.08486">
        <ele>1756.47</ele>
        <time>2016-09-10T08:08:25Z</time>
      </trkpt>
      <trkpt lat="42.13326" lon="9.08486">
        <ele>1754.06</ele>
        <time>2016-09-10T08:08:26Z</time>
      </trkpt>
      <trkpt lat="42.13326" lon="9.08487">
        <ele>1752.14</ele>
        <time>2016-09-10T08:08:28Z</time>
      </trkpt>
      <trkpt lat="42.13326" lon="9.08488">
        <ele>1754.54</ele>
        <time>2016-09-10T08:08:35Z</time>
      </trkpt>
      <trkpt lat="42.13328" lon="9.08491">
        <ele>1755.02</ele>
        <time>2016-09-10T08:08:41Z</time>
      </trkpt>
      <trkpt lat="42.13329" lon="9.08493">
        <ele>1755.02</ele>
        <time>2016-09-10T08:08:48Z</time>
      </trkpt>
      <trkpt lat="42.1333" lon="9.08494">
        <ele>1755.02</ele>
        <time>2016-09-10T08:08:54Z</time>
      </trkpt>
      <trkpt lat="42.13331" lon="9.08495">
        <ele>1756.47</ele>
        <time>2016-09-10T08:09:04Z</time>
      </trkpt>
      <trkpt lat="42.13333" lon="9.08496">
        <ele>1756.95</ele>
        <time>2016-09-10T08:09:12Z</time>
      </trkpt>
      <trkpt lat="42.13333" lon="9.08497">
        <ele>1757.43</ele>
        <time>2016-09-10T08:09:21Z</time>
      </trkpt>
      <trkpt lat="42.13334" lon="9.08498">
        <ele>1758.87</ele>
        <time>2016-09-10T08:09:32Z</time>
      </trkpt>
      <trkpt lat="42.13335" lon="9.085">
        <ele>1758.87</ele>
        <time>2016-09-10T08:09:41Z</time>
      </trkpt>
      <trkpt lat="42.13337" lon="9.08503">
        <ele>1758.39</ele>
        <time>2016-09-10T08:09:48Z</time>
      </trkpt>
      <trkpt lat="42.13339" lon="9.08505">
        <ele>1757.91</ele>
        <time>2016-09-10T08:09:54Z</time>
      </trkpt>
      <trkpt lat="42.13341" lon="9.08509">
        <ele>1759.35</ele>
        <time>2016-09-10T08:10:02Z</time>
      </trkpt>
      <trkpt lat="42.13344" lon="9.08513">
        <ele>1759.35</ele>
        <time>2016-09-10T08:10:11Z</time>
      </trkpt>
      <trkpt lat="42.13346" lon="9.08519">
        <ele>1760.31</ele>
        <time>2016-09-10T08:10:20Z</time>
      </trkpt>
      <trkpt lat="42.13347" lon="9.0852">
        <ele>1760.31</ele>
        <time>2016-09-10T08:10:27Z</time>
      </trkpt>
      <trkpt lat="42.13347" lon="9.08523">
        <ele>1761.75</ele>
        <time>2016-09-10T08:10:35Z</time>
      </trkpt>
      <trkpt lat="42.13348" lon="9.08525">
        <ele>1762.71</ele>
        <time>2016-09-10T08:10:46Z</time>
      </trkpt>
      <trkpt lat="42.13348" lon="9.0853">
        <ele>1763.2</ele>
        <time>2016-09-10T08:10:53Z</time>
      </trkpt>
      <trkpt lat="42.13351" lon="9.0853">
        <ele>1763.68</ele>
        <time>2016-09-10T08:11:00Z</time>
      </trkpt>
      <trkpt lat="42.13351" lon="9.0853">
        <ele>1764.16</ele>
        <time>2016-09-10T08:11:09Z</time>
      </trkpt>
      <trkpt lat="42.13353" lon="9.08531">
        <ele>1764.64</ele>
        <time>2016-09-10T08:11:17Z</time>
      </trkpt>
      <trkpt lat="42.13355" lon="9.08532">
        <ele>1766.56</ele>
        <time>2016-09-10T08:11:25Z</time>
      </trkpt>
      <trkpt lat="42.13356" lon="9.08533">
        <ele>1766.56</ele>
        <time>2016-09-10T08:11:36Z</time>
      </trkpt>
      <trkpt lat="42.13356" lon="9.08535">
        <ele>1767.52</ele>
        <time>2016-09-10T08:11:42Z</time>
      </trkpt>
      <trkpt lat="42.13357" lon="9.08538">
        <ele>1768.96</ele>
        <time>2016-09-10T08:11:50Z</time>
      </trkpt>
      <trkpt lat="42.13357" lon="9.08542">
        <ele>1769.92</ele>
        <time>2016-09-10T08:11:56Z</time>
      </trkpt>
      <trkpt lat="42.1336" lon="9.08543">
        <ele>1769.44</ele>
        <time>2016-09-10T08:12:03Z</time>
      </trkpt>
      <trkpt lat="42.13362" lon="9.08545">
        <ele>1770.89</ele>
        <time>2016-09-10T08:12:10Z</time>
      </trkpt>
      <trkpt lat="42.13364" lon="9.08546">
        <ele>1771.37</ele>
        <time>2016-09-10T08:12:17Z</time>
      </trkpt>
      <trkpt lat="42.13365" lon="9.08547">
        <ele>1772.33</ele>
        <time>2016-09-10T08:12:25Z</time>
      </trkpt>
      <trkpt lat="42.13367" lon="9.08548">
        <ele>1772.81</ele>
        <time>2016-09-10T08:12:32Z</time>
      </trkpt>
      <trkpt lat="42.13369" lon="9.0855">
        <ele>1773.29</ele>
        <time>2016-09-10T08:12:40Z</time>
      </trkpt>
      <trkpt lat="42.1337" lon="9.08551">
        <ele>1774.25</ele>
        <time>2016-09-10T08:12:48Z</time>
      </trkpt>
      <trkpt lat="42.13372" lon="9.08554">
        <ele>1775.69</ele>
        <time>2016-09-10T08:12:57Z</time>
      </trkpt>
      <trkpt lat="42.13374" lon="9.08554">
        <ele>1776.65</ele>
        <time>2016-09-10T08:13:05Z</time>
      </trkpt>
      <trkpt lat="42.13376" lon="9.08556">
        <ele>1777.13</ele>
        <time>2016-09-10T08:13:13Z</time>
      </trkpt>
      <trkpt lat="42.13377" lon="9.08557">
        <ele>1777.61</ele>
        <time>2016-09-10T08:13:21Z</time>
      </trkpt>
      <trkpt lat="42.13379" lon="9.08557">
        <ele>1778.1</ele>
        <time>2016-09-10T08:13:32Z</time>
      </trkpt>
      <trkpt lat="42.1338" lon="9.08556">
        <ele>1780.02</ele>
        <time>2016-09-10T08:13:39Z</time>
      </trkpt>
      <trkpt lat="42.13382" lon="9.08556">
        <ele>1780.02</ele>
        <time>2016-09-10T08:13:49Z</time>
      </trkpt>
      <trkpt lat="42.13383" lon="9.08556">
        <ele>1781.46</ele>
        <time>2016-09-10T08:13:59Z</time>
      </trkpt>
      <trkpt lat="42.13384" lon="9.08555">
        <ele>1782.42</ele>
        <time>2016-09-10T08:14:06Z</time>
      </trkpt>
      <trkpt lat="42.13384" lon="9.08554">
        <ele>1782.9</ele>
        <time>2016-09-10T08:14:14Z</time>
      </trkpt>
      <trkpt lat="42.13385" lon="9.08554">
        <ele>1784.34</ele>
        <time>2016-09-10T08:14:20Z</time>
      </trkpt>
      <trkpt lat="42.13386" lon="9.08553">
        <ele>1784.82</ele>
        <time>2016-09-10T08:14:28Z</time>
      </trkpt>
      <trkpt lat="42.13386" lon="9.08553">
        <ele>1785.79</ele>
        <time>2016-09-10T08:14:38Z</time>
      </trkpt>
      <trkpt lat="42.13387" lon="9.08553">
        <ele>1785.79</ele>
        <time>2016-09-10T08:14:39Z</time>
      </trkpt>
      <trkpt lat="42.13387" lon="9.08552">
        <ele>1786.27</ele>
        <time>2016-09-10T08:14:49Z</time>
      </trkpt>
      <trkpt lat="42.13387" lon="9.0855">
        <ele>1787.23</ele>
        <time>2016-09-10T08:14:51Z</time>
      </trkpt>
      <trkpt lat="42.13389" lon="9.08548">
        <ele>1788.19</ele>
        <time>2016-09-10T08:14:58Z</time>
      </trkpt>
      <trkpt lat="42.1339" lon="9.08546">
        <ele>1789.63</ele>
        <time>2016-09-10T08:15:05Z</time>
      </trkpt>
      <trkpt lat="42.13391" lon="9.08544">
        <ele>1789.63</ele>
        <time>2016-09-10T08:15:11Z</time>
      </trkpt>
      <trkpt lat="42.13391" lon="9.0854">
        <ele>1790.11</ele>
        <time>2016-09-10T08:15:18Z</time>
      </trkpt>
      <trkpt lat="42.13391" lon="9.08537">
        <ele>1791.07</ele>
        <time>2016-09-10T08:15:25Z</time>
      </trkpt>
      <trkpt lat="42.13391" lon="9.08532">
        <ele>1790.59</ele>
        <time>2016-09-10T08:15:33Z</time>
      </trkpt>
      <trkpt lat="42.13391" lon="9.08532">
        <ele>1789.63</ele>
        <time>2016-09-10T08:15:40Z</time>
      </trkpt>
      <trkpt lat="42.13391" lon="9.08529">
        <ele>1790.59</ele>
        <time>2016-09-10T08:15:49Z</time>
      </trkpt>
      <trkpt lat="42.13391" lon="9.08528">
        <ele>1790.59</ele>
        <time>2016-09-10T08:15:52Z</time>
      </trkpt>
      <trkpt lat="42.13389" lon="9.08527">
        <ele>1793.48</ele>
        <time>2016-09-10T08:15:54Z</time>
      </trkpt>
      <trkpt lat="42.13389" lon="9.08527">
        <ele>1790.59</ele>
        <time>2016-09-10T08:15:55Z</time>
      </trkpt>
      <trkpt lat="42.13389" lon="9.08526">
        <ele>1791.55</ele>
        <time>2016-09-10T08:16:02Z</time>
      </trkpt>
      <trkpt lat="42.13389" lon="9.08526">
        <ele>1789.63</ele>
        <time>2016-09-10T08:16:16Z</time>
      </trkpt>
      <trkpt lat="42.1339" lon="9.08527">
        <ele>1790.11</ele>
        <time>2016-09-10T08:16:29Z</time>
      </trkpt>
      <trkpt lat="42.13389" lon="9.08527">
        <ele>1790.59</ele>
        <time>2016-09-10T08:16:41Z</time>
      </trkpt>
      <trkpt lat="42.13389" lon="9.08527">
        <ele>1790.59</ele>
        <time>2016-09-10T08:16:52Z</time>
      </trkpt>
      <trkpt lat="42.13389" lon="9.08526">
        <ele>1791.07</ele>
        <time>2016-09-10T08:17:03Z</time>
      </trkpt>
      <trkpt lat="42.1339" lon="9.08527">
        <ele>1790.59</ele>
        <time>2016-09-10T08:17:17Z</time>
      </trkpt>
      <trkpt lat="42.1339" lon="9.08528">
        <ele>1790.59</ele>
        <time>2016-09-10T08:17:28Z</time>
      </trkpt>
      <trkpt lat="42.13391" lon="9.08529">
        <ele>1791.55</ele>
        <time>2016-09-10T08:17:44Z</time>
      </trkpt>
      <trkpt lat="42.13391" lon="9.08528">
        <ele>1791.55</ele>
        <time>2016-09-10T08:17:55Z</time>
      </trkpt>
      <trkpt lat="42.13391" lon="9.08528">
        <ele>1790.59</ele>
        <time>2016-09-10T08:18:11Z</time>
      </trkpt>
      <trkpt lat="42.13391" lon="9.08528">
        <ele>1790.11</ele>
        <time>2016-09-10T08:18:28Z</time>
      </trkpt>
      <trkpt lat="42.13391" lon="9.08528">
        <ele>1791.07</ele>
        <time>2016-09-10T08:18:42Z</time>
      </trkpt>
      <trkpt lat="42.13392" lon="9.08528">
        <ele>1791.07</ele>
        <time>2016-09-10T08:18:55Z</time>
      </trkpt>
      <trkpt lat="42.13392" lon="9.08528">
        <ele>1792.03</ele>
        <time>2016-09-10T08:19:10Z</time>
      </trkpt>
      <trkpt lat="42.13393" lon="9.08528">
        <ele>1792.03</ele>
        <time>2016-09-10T08:19:26Z</time>
      </trkpt>
      <trkpt lat="42.13393" lon="9.08528">
        <ele>1791.55</ele>
        <time>2016-09-10T08:19:42Z</time>
      </trkpt>
      <trkpt lat="42.13393" lon="9.08528">
        <ele>1791.07</ele>
        <time>2016-09-10T08:19:55Z</time>
      </trkpt>
      <trkpt lat="42.13393" lon="9.08528">
        <ele>1791.07</ele>
        <time>2016-09-10T08:20:07Z</time>
      </trkpt>
      <trkpt lat="42.13393" lon="9.08528">
        <ele>1792.03</ele>
        <time>2016-09-10T08:20:21Z</time>
      </trkpt>
      <trkpt lat="42.13392" lon="9.08528">
        <ele>1792.03</ele>
        <time>2016-09-10T08:20:32Z</time>
      </trkpt>
      <trkpt lat="42.13392" lon="9.08528">
        <ele>1792.03</ele>
        <time>2016-09-10T08:20:44Z</time>
      </trkpt>
      <trkpt lat="42.13392" lon="9.08528">
        <ele>1791.55</ele>
        <time>2016-09-10T08:20:55Z</time>
      </trkpt>
      <trkpt lat="42.13392" lon="9.08528">
        <ele>1790.59</ele>
        <time>2016-09-10T08:21:08Z</time>
      </trkpt>
      <trkpt lat="42.1339" lon="9.08528">
        <ele>1792.52</ele>
        <time>2016-09-10T08:21:17Z</time>
      </trkpt>
      <trkpt lat="42.1339" lon="9.08528">
        <ele>1792.52</ele>
        <time>2016-09-10T08:21:25Z</time>
      </trkpt>
      <trkpt lat="42.1339" lon="9.08529">
        <ele>1792.03</ele>
        <time>2016-09-10T08:21:34Z</time>
      </trkpt>
      <trkpt lat="42.1339" lon="9.08527">
        <ele>1791.55</ele>
        <time>2016-09-10T08:21:43Z</time>
      </trkpt>
      <trkpt lat="42.1339" lon="9.08528">
        <ele>1792.52</ele>
        <time>2016-09-10T08:21:51Z</time>
      </trkpt>
      <trkpt lat="42.1339" lon="9.08531">
        <ele>1792.03</ele>
        <time>2016-09-10T08:22:00Z</time>
      </trkpt>
      <trkpt lat="42.13391" lon="9.0853">
        <ele>1792.03</ele>
        <time>2016-09-10T08:22:10Z</time>
      </trkpt>
      <trkpt lat="42.13391" lon="9.08528">
        <ele>1792.52</ele>
        <time>2016-09-10T08:22:16Z</time>
      </trkpt>
      <trkpt lat="42.13392" lon="9.08528">
        <ele>1793.48</ele>
        <time>2016-09-10T08:22:27Z</time>
      </trkpt>
      <trkpt lat="42.13391" lon="9.08528">
        <ele>1793</ele>
        <time>2016-09-10T08:22:39Z</time>
      </trkpt>
      <trkpt lat="42.13393" lon="9.08527">
        <ele>1793.48</ele>
        <time>2016-09-10T08:22:54Z</time>
      </trkpt>
      <trkpt lat="42.13394" lon="9.08527">
        <ele>1793</ele>
        <time>2016-09-10T08:23:11Z</time>
      </trkpt>
      <trkpt lat="42.13393" lon="9.08525">
        <ele>1793.48</ele>
        <time>2016-09-10T08:23:29Z</time>
      </trkpt>
      <trkpt lat="42.13393" lon="9.08525">
        <ele>1793.48</ele>
        <time>2016-09-10T08:23:40Z</time>
      </trkpt>
      <trkpt lat="42.13393" lon="9.08525">
        <ele>1793.48</ele>
        <time>2016-09-10T08:23:52Z</time>
      </trkpt>
      <trkpt lat="42.13393" lon="9.08525">
        <ele>1793.48</ele>
        <time>2016-09-10T08:24:00Z</time>
      </trkpt>
      <trkpt lat="42.13393" lon="9.08525">
        <ele>1794.92</ele>
        <time>2016-09-10T08:24:17Z</time>
      </trkpt>
      <trkpt lat="42.13392" lon="9.08525">
        <ele>1794.44</ele>
        <time>2016-09-10T08:24:34Z</time>
      </trkpt>
      <trkpt lat="42.13392" lon="9.08525">
        <ele>1793</ele>
        <time>2016-09-10T08:24:52Z</time>
      </trkpt>
      <trkpt lat="42.13393" lon="9.08526">
        <ele>1793.96</ele>
        <time>2016-09-10T08:25:03Z</time>
      </trkpt>
      <trkpt lat="42.13393" lon="9.08526">
        <ele>1793.96</ele>
        <time>2016-09-10T08:25:16Z</time>
      </trkpt>
      <trkpt lat="42.13392" lon="9.08526">
        <ele>1793.96</ele>
        <time>2016-09-10T08:25:30Z</time>
      </trkpt>
      <trkpt lat="42.13392" lon="9.08526">
        <ele>1793.96</ele>
        <time>2016-09-10T08:25:45Z</time>
      </trkpt>
      <trkpt lat="42.13393" lon="9.08527">
        <ele>1794.44</ele>
        <time>2016-09-10T08:25:59Z</time>
      </trkpt>
      <trkpt lat="42.13393" lon="9.08527">
        <ele>1794.92</ele>
        <time>2016-09-10T08:26:13Z</time>
      </trkpt>
      <trkpt lat="42.13393" lon="9.08527">
        <ele>1793.48</ele>
        <time>2016-09-10T08:26:26Z</time>
      </trkpt>
      <trkpt lat="42.13393" lon="9.08527">
        <ele>1790.11</ele>
        <time>2016-09-10T08:26:31Z</time>
      </trkpt>
      <trkpt lat="42.13393" lon="9.08527">
        <ele>1796.84</ele>
        <time>2016-09-10T08:26:32Z</time>
      </trkpt>
      <trkpt lat="42.13393" lon="9.08526">
        <ele>1793.48</ele>
        <time>2016-09-10T08:26:39Z</time>
      </trkpt>
      <trkpt lat="42.13393" lon="9.08526">
        <ele>1793.48</ele>
        <time>2016-09-10T08:26:50Z</time>
      </trkpt>
      <trkpt lat="42.13393" lon="9.08526">
        <ele>1793.48</ele>
        <time>2016-09-10T08:26:59Z</time>
      </trkpt>
      <trkpt lat="42.13392" lon="9.08526">
        <ele>1793</ele>
        <time>2016-09-10T08:27:12Z</time>
      </trkpt>
      <trkpt lat="42.13392" lon="9.08525">
        <ele>1793</ele>
        <time>2016-09-10T08:27:26Z</time>
      </trkpt>
      <trkpt lat="42.13392" lon="9.08525">
        <ele>1793.48</ele>
        <time>2016-09-10T08:27:38Z</time>
      </trkpt>
      <trkpt lat="42.13392" lon="9.08524">
        <ele>1793.48</ele>
        <time>2016-09-10T08:27:56Z</time>
      </trkpt>
      <trkpt lat="42.1339" lon="9.08523">
        <ele>1793.48</ele>
        <time>2016-09-10T08:28:10Z</time>
      </trkpt>
      <trkpt lat="42.1339" lon="9.08523">
        <ele>1793.96</ele>
        <time>2016-09-10T08:28:25Z</time>
      </trkpt>
      <trkpt lat="42.1339" lon="9.08524">
        <ele>1793.96</ele>
        <time>2016-09-10T08:28:40Z</time>
      </trkpt>
      <trkpt lat="42.1339" lon="9.08524">
        <ele>1793.96</ele>
        <time>2016-09-10T08:28:57Z</time>
      </trkpt>
      <trkpt lat="42.13391" lon="9.08524">
        <ele>1794.44</ele>
        <time>2016-09-10T08:29:11Z</time>
      </trkpt>
      <trkpt lat="42.13391" lon="9.08525">
        <ele>1794.44</ele>
        <time>2016-09-10T08:29:21Z</time>
      </trkpt>
      <trkpt lat="42.13391" lon="9.08525">
        <ele>1793.96</ele>
        <time>2016-09-10T08:29:29Z</time>
      </trkpt>
      <trkpt lat="42.13391" lon="9.08525">
        <ele>1794.44</ele>
        <time>2016-09-10T08:29:39Z</time>
      </trkpt>
      <trkpt lat="42.13392" lon="9.08526">
        <ele>1794.44</ele>
        <time>2016-09-10T08:29:48Z</time>
      </trkpt>
      <trkpt lat="42.13393" lon="9.08527">
        <ele>1793.96</ele>
        <time>2016-09-10T08:29:55Z</time>
      </trkpt>
      <trkpt lat="42.13392" lon="9.08527">
        <ele>1792.03</ele>
        <time>2016-09-10T08:30:06Z</time>
      </trkpt>
      <trkpt lat="42.13393" lon="9.08527">
        <ele>1793.48</ele>
        <time>2016-09-10T08:30:14Z</time>
      </trkpt>
      <trkpt lat="42.13393" lon="9.08527">
        <ele>1792.52</ele>
        <time>2016-09-10T08:30:24Z</time>
      </trkpt>
      <trkpt lat="42.13394" lon="9.08527">
        <ele>1792.52</ele>
        <time>2016-09-10T08:30:34Z</time>
      </trkpt>
      <trkpt lat="42.13395" lon="9.08527">
        <ele>1793.96</ele>
        <time>2016-09-10T08:30:46Z</time>
      </trkpt>
      <trkpt lat="42.13395" lon="9.08524">
        <ele>1795.88</ele>
        <time>2016-09-10T08:30:55Z</time>
      </trkpt>
      <trkpt lat="42.13396" lon="9.08522">
        <ele>1795.4</ele>
        <time>2016-09-10T08:31:05Z</time>
      </trkpt>
      <trkpt lat="42.13397" lon="9.08519">
        <ele>1797.32</ele>
        <time>2016-09-10T08:31:13Z</time>
      </trkpt>
      <trkpt lat="42.13398" lon="9.08516">
        <ele>1796.84</ele>
        <time>2016-09-10T08:31:21Z</time>
      </trkpt>
      <trkpt lat="42.134" lon="9.08513">
        <ele>1797.8</ele>
        <time>2016-09-10T08:31:28Z</time>
      </trkpt>
      <trkpt lat="42.134" lon="9.08514">
        <ele>1797.8</ele>
        <time>2016-09-10T08:31:43Z</time>
      </trkpt>
      <trkpt lat="42.134" lon="9.08507">
        <ele>1798.28</ele>
        <time>2016-09-10T08:31:51Z</time>
      </trkpt>
      <trkpt lat="42.134" lon="9.08502">
        <ele>1799.24</ele>
        <time>2016-09-10T08:31:57Z</time>
      </trkpt>
      <trkpt lat="42.134" lon="9.08497">
        <ele>1800.69</ele>
        <time>2016-09-10T08:32:05Z</time>
      </trkpt>
      <trkpt lat="42.13404" lon="9.08495">
        <ele>1802.13</ele>
        <time>2016-09-10T08:32:13Z</time>
      </trkpt>
      <trkpt lat="42.13404" lon="9.08492">
        <ele>1802.61</ele>
        <time>2016-09-10T08:32:19Z</time>
      </trkpt>
      <trkpt lat="42.13406" lon="9.08488">
        <ele>1803.57</ele>
        <time>2016-09-10T08:32:27Z</time>
      </trkpt>
      <trkpt lat="42.13408" lon="9.08487">
        <ele>1805.01</ele>
        <time>2016-09-10T08:32:35Z</time>
      </trkpt>
      <trkpt lat="42.13409" lon="9.08487">
        <ele>1805.01</ele>
        <time>2016-09-10T08:32:41Z</time>
      </trkpt>
      <trkpt lat="42.13413" lon="9.08491">
        <ele>1806.45</ele>
        <time>2016-09-10T08:32:50Z</time>
      </trkpt>
      <trkpt lat="42.13413" lon="9.08492">
        <ele>1805.97</ele>
        <time>2016-09-10T08:32:57Z</time>
      </trkpt>
      <trkpt lat="42.13414" lon="9.08491">
        <ele>1807.42</ele>
        <time>2016-09-10T08:33:05Z</time>
      </trkpt>
      <trkpt lat="42.13415" lon="9.08489">
        <ele>1807.9</ele>
        <time>2016-09-10T08:33:15Z</time>
      </trkpt>
      <trkpt lat="42.13415" lon="9.08488">
        <ele>1808.86</ele>
        <time>2016-09-10T08:33:24Z</time>
      </trkpt>
      <trkpt lat="42.13416" lon="9.08486">
        <ele>1809.82</ele>
        <time>2016-09-10T08:33:32Z</time>
      </trkpt>
      <trkpt lat="42.13419" lon="9.08484">
        <ele>1810.78</ele>
        <time>2016-09-10T08:33:41Z</time>
      </trkpt>
      <trkpt lat="42.13419" lon="9.08481">
        <ele>1812.22</ele>
        <time>2016-09-10T08:33:49Z</time>
      </trkpt>
      <trkpt lat="42.1342" lon="9.08478">
        <ele>1813.66</ele>
        <time>2016-09-10T08:33:57Z</time>
      </trkpt>
      <trkpt lat="42.13421" lon="9.08474">
        <ele>1814.15</ele>
        <time>2016-09-10T08:34:04Z</time>
      </trkpt>
      <trkpt lat="42.13421" lon="9.08472">
        <ele>1814.63</ele>
        <time>2016-09-10T08:34:10Z</time>
      </trkpt>
      <trkpt lat="42.13423" lon="9.08472">
        <ele>1816.07</ele>
        <time>2016-09-10T08:34:18Z</time>
      </trkpt>
      <trkpt lat="42.13424" lon="9.08466">
        <ele>1817.03</ele>
        <time>2016-09-10T08:34:27Z</time>
      </trkpt>
      <trkpt lat="42.13426" lon="9.08462">
        <ele>1818.95</ele>
        <time>2016-09-10T08:34:35Z</time>
      </trkpt>
      <trkpt lat="42.13428" lon="9.0846">
        <ele>1819.43</ele>
        <time>2016-09-10T08:34:41Z</time>
      </trkpt>
      <trkpt lat="42.13431" lon="9.08455">
        <ele>1819.91</ele>
        <time>2016-09-10T08:34:49Z</time>
      </trkpt>
      <trkpt lat="42.13433" lon="9.08457">
        <ele>1821.35</ele>
        <time>2016-09-10T08:34:57Z</time>
      </trkpt>
      <trkpt lat="42.13435" lon="9.08456">
        <ele>1821.84</ele>
        <time>2016-09-10T08:35:04Z</time>
      </trkpt>
      <trkpt lat="42.13437" lon="9.08456">
        <ele>1823.28</ele>
        <time>2016-09-10T08:35:11Z</time>
      </trkpt>
      <trkpt lat="42.13439" lon="9.08457">
        <ele>1823.28</ele>
        <time>2016-09-10T08:35:19Z</time>
      </trkpt>
      <trkpt lat="42.1344" lon="9.08455">
        <ele>1823.76</ele>
        <time>2016-09-10T08:35:25Z</time>
      </trkpt>
      <trkpt lat="42.13441" lon="9.08448">
        <ele>1823.28</ele>
        <time>2016-09-10T08:35:33Z</time>
      </trkpt>
      <trkpt lat="42.13444" lon="9.08446">
        <ele>1824.24</ele>
        <time>2016-09-10T08:35:40Z</time>
      </trkpt>
      <trkpt lat="42.13448" lon="9.08445">
        <ele>1825.68</ele>
        <time>2016-09-10T08:35:47Z</time>
      </trkpt>
      <trkpt lat="42.13451" lon="9.08445">
        <ele>1827.12</ele>
        <time>2016-09-10T08:35:56Z</time>
      </trkpt>
      <trkpt lat="42.13452" lon="9.08442">
        <ele>1828.08</ele>
        <time>2016-09-10T08:36:04Z</time>
      </trkpt>
      <trkpt lat="42.13453" lon="9.08439">
        <ele>1828.56</ele>
        <time>2016-09-10T08:36:11Z</time>
      </trkpt>
      <trkpt lat="42.13455" lon="9.08438">
        <ele>1830.01</ele>
        <time>2016-09-10T08:36:20Z</time>
      </trkpt>
      <trkpt lat="42.13456" lon="9.08437">
        <ele>1830.49</ele>
        <time>2016-09-10T08:36:28Z</time>
      </trkpt>
      <trkpt lat="42.13457" lon="9.08438">
        <ele>1831.93</ele>
        <time>2016-09-10T08:36:38Z</time>
      </trkpt>
      <trkpt lat="42.13458" lon="9.08439">
        <ele>1832.41</ele>
        <time>2016-09-10T08:36:39Z</time>
      </trkpt>
      <trkpt lat="42.13459" lon="9.08442">
        <ele>1833.85</ele>
        <time>2016-09-10T08:36:46Z</time>
      </trkpt>
      <trkpt lat="42.13461" lon="9.08449">
        <ele>1833.85</ele>
        <time>2016-09-10T08:36:54Z</time>
      </trkpt>
      <trkpt lat="42.13462" lon="9.08451">
        <ele>1833.85</ele>
        <time>2016-09-10T08:37:02Z</time>
      </trkpt>
      <trkpt lat="42.13463" lon="9.08452">
        <ele>1833.37</ele>
        <time>2016-09-10T08:37:13Z</time>
      </trkpt>
      <trkpt lat="42.13463" lon="9.08454">
        <ele>1833.37</ele>
        <time>2016-09-10T08:37:21Z</time>
      </trkpt>
      <trkpt lat="42.13464" lon="9.08455">
        <ele>1833.85</ele>
        <time>2016-09-10T08:37:29Z</time>
      </trkpt>
      <trkpt lat="42.13464" lon="9.08455">
        <ele>1834.81</ele>
        <time>2016-09-10T08:37:35Z</time>
      </trkpt>
      <trkpt lat="42.13465" lon="9.08457">
        <ele>1836.74</ele>
        <time>2016-09-10T08:37:43Z</time>
      </trkpt>
      <trkpt lat="42.13467" lon="9.08457">
        <ele>1837.7</ele>
        <time>2016-09-10T08:37:52Z</time>
      </trkpt>
      <trkpt lat="42.1347" lon="9.08459">
        <ele>1838.66</ele>
        <time>2016-09-10T08:38:00Z</time>
      </trkpt>
      <trkpt lat="42.13472" lon="9.08459">
        <ele>1840.1</ele>
        <time>2016-09-10T08:38:08Z</time>
      </trkpt>
      <trkpt lat="42.13473" lon="9.08461">
        <ele>1840.1</ele>
        <time>2016-09-10T08:38:16Z</time>
      </trkpt>
      <trkpt lat="42.13475" lon="9.08459">
        <ele>1841.54</ele>
        <time>2016-09-10T08:38:23Z</time>
      </trkpt>
      <trkpt lat="42.13476" lon="9.08459">
        <ele>1842.02</ele>
        <time>2016-09-10T08:38:34Z</time>
      </trkpt>
      <trkpt lat="42.13476" lon="9.08459">
        <ele>1842.98</ele>
        <time>2016-09-10T08:38:43Z</time>
      </trkpt>
      <trkpt lat="42.13478" lon="9.0846">
        <ele>1842.98</ele>
        <time>2016-09-10T08:38:57Z</time>
      </trkpt>
      <trkpt lat="42.13479" lon="9.08461">
        <ele>1844.91</ele>
        <time>2016-09-10T08:39:05Z</time>
      </trkpt>
      <trkpt lat="42.13479" lon="9.08461">
        <ele>1845.39</ele>
        <time>2016-09-10T08:39:13Z</time>
      </trkpt>
      <trkpt lat="42.13481" lon="9.08464">
        <ele>1847.31</ele>
        <time>2016-09-10T08:39:21Z</time>
      </trkpt>
      <trkpt lat="42.13481" lon="9.08465">
        <ele>1847.79</ele>
        <time>2016-09-10T08:39:22Z</time>
      </trkpt>
      <trkpt lat="42.13484" lon="9.08467">
        <ele>1846.83</ele>
        <time>2016-09-10T08:39:30Z</time>
      </trkpt>
      <trkpt lat="42.13484" lon="9.08466">
        <ele>1846.83</ele>
        <time>2016-09-10T08:39:36Z</time>
      </trkpt>
      <trkpt lat="42.13485" lon="9.08467">
        <ele>1848.27</ele>
        <time>2016-09-10T08:39:38Z</time>
      </trkpt>
      <trkpt lat="42.13486" lon="9.0847">
        <ele>1849.23</ele>
        <time>2016-09-10T08:39:45Z</time>
      </trkpt>
      <trkpt lat="42.13488" lon="9.0847">
        <ele>1850.19</ele>
        <time>2016-09-10T08:39:52Z</time>
      </trkpt>
      <trkpt lat="42.13493" lon="9.08471">
        <ele>1851.16</ele>
        <time>2016-09-10T08:39:59Z</time>
      </trkpt>
      <trkpt lat="42.13494" lon="9.08469">
        <ele>1851.64</ele>
        <time>2016-09-10T08:40:07Z</time>
      </trkpt>
      <trkpt lat="42.13495" lon="9.08467">
        <ele>1852.12</ele>
        <time>2016-09-10T08:40:15Z</time>
      </trkpt>
      <trkpt lat="42.13495" lon="9.08464">
        <ele>1853.08</ele>
        <time>2016-09-10T08:40:22Z</time>
      </trkpt>
      <trkpt lat="42.13494" lon="9.08461">
        <ele>1854.04</ele>
        <time>2016-09-10T08:40:28Z</time>
      </trkpt>
      <trkpt lat="42.13495" lon="9.08459">
        <ele>1855</ele>
        <time>2016-09-10T08:40:38Z</time>
      </trkpt>
      <trkpt lat="42.13495" lon="9.08457">
        <ele>1855.96</ele>
        <time>2016-09-10T08:40:45Z</time>
      </trkpt>
      <trkpt lat="42.13495" lon="9.08456">
        <ele>1856.92</ele>
        <time>2016-09-10T08:40:53Z</time>
      </trkpt>
      <trkpt lat="42.13496" lon="9.08453">
        <ele>1857.89</ele>
        <time>2016-09-10T08:41:00Z</time>
      </trkpt>
      <trkpt lat="42.13496" lon="9.08452">
        <ele>1858.37</ele>
        <time>2016-09-10T08:41:07Z</time>
      </trkpt>
      <trkpt lat="42.13497" lon="9.08449">
        <ele>1858.85</ele>
        <time>2016-09-10T08:41:16Z</time>
      </trkpt>
      <trkpt lat="42.13499" lon="9.08446">
        <ele>1860.77</ele>
        <time>2016-09-10T08:41:23Z</time>
      </trkpt>
      <trkpt lat="42.13501" lon="9.08444">
        <ele>1861.25</ele>
        <time>2016-09-10T08:41:29Z</time>
      </trkpt>
      <trkpt lat="42.13505" lon="9.08448">
        <ele>1862.21</ele>
        <time>2016-09-10T08:41:37Z</time>
      </trkpt>
      <trkpt lat="42.13506" lon="9.08443">
        <ele>1863.65</ele>
        <time>2016-09-10T08:41:45Z</time>
      </trkpt>
      <trkpt lat="42.13506" lon="9.08439">
        <ele>1864.13</ele>
        <time>2016-09-10T08:41:51Z</time>
      </trkpt>
      <trkpt lat="42.13506" lon="9.08433">
        <ele>1864.61</ele>
        <time>2016-09-10T08:42:00Z</time>
      </trkpt>
      <trkpt lat="42.13505" lon="9.08427">
        <ele>1864.61</ele>
        <time>2016-09-10T08:42:08Z</time>
      </trkpt>
      <trkpt lat="42.13507" lon="9.08421">
        <ele>1865.09</ele>
        <time>2016-09-10T08:42:16Z</time>
      </trkpt>
      <trkpt lat="42.13507" lon="9.08419">
        <ele>1865.58</ele>
        <time>2016-09-10T08:42:24Z</time>
      </trkpt>
      <trkpt lat="42.13507" lon="9.08419">
        <ele>1866.06</ele>
        <time>2016-09-10T08:42:30Z</time>
      </trkpt>
      <trkpt lat="42.1351" lon="9.08417">
        <ele>1867.02</ele>
        <time>2016-09-10T08:42:37Z</time>
      </trkpt>
      <trkpt lat="42.13512" lon="9.08418">
        <ele>1867.98</ele>
        <time>2016-09-10T08:42:45Z</time>
      </trkpt>
      <trkpt lat="42.13514" lon="9.08417">
        <ele>1868.94</ele>
        <time>2016-09-10T08:42:52Z</time>
      </trkpt>
      <trkpt lat="42.13515" lon="9.08417">
        <ele>1869.9</ele>
        <time>2016-09-10T08:42:59Z</time>
      </trkpt>
      <trkpt lat="42.13518" lon="9.08415">
        <ele>1870.86</ele>
        <time>2016-09-10T08:43:11Z</time>
      </trkpt>
      <trkpt lat="42.1352" lon="9.08415">
        <ele>1871.82</ele>
        <time>2016-09-10T08:43:18Z</time>
      </trkpt>
      <trkpt lat="42.13523" lon="9.08419">
        <ele>1872.3</ele>
        <time>2016-09-10T08:43:25Z</time>
      </trkpt>
      <trkpt lat="42.13524" lon="9.08421">
        <ele>1872.3</ele>
        <time>2016-09-10T08:43:37Z</time>
      </trkpt>
      <trkpt lat="42.13524" lon="9.08421">
        <ele>1872.79</ele>
        <time>2016-09-10T08:43:47Z</time>
      </trkpt>
      <trkpt lat="42.13525" lon="9.08422">
        <ele>1873.27</ele>
        <time>2016-09-10T08:43:54Z</time>
      </trkpt>
      <trkpt lat="42.13525" lon="9.08422">
        <ele>1873.75</ele>
        <time>2016-09-10T08:43:59Z</time>
      </trkpt>
      <trkpt lat="42.13526" lon="9.08422">
        <ele>1875.19</ele>
        <time>2016-09-10T08:44:06Z</time>
      </trkpt>
      <trkpt lat="42.13527" lon="9.08421">
        <ele>1875.19</ele>
        <time>2016-09-10T08:44:14Z</time>
      </trkpt>
      <trkpt lat="42.13528" lon="9.08422">
        <ele>1876.63</ele>
        <time>2016-09-10T08:44:22Z</time>
      </trkpt>
      <trkpt lat="42.1353" lon="9.08422">
        <ele>1877.11</ele>
        <time>2016-09-10T08:44:32Z</time>
      </trkpt>
      <trkpt lat="42.13532" lon="9.08422">
        <ele>1879.03</ele>
        <time>2016-09-10T08:44:40Z</time>
      </trkpt>
      <trkpt lat="42.13534" lon="9.08421">
        <ele>1879.51</ele>
        <time>2016-09-10T08:44:49Z</time>
      </trkpt>
      <trkpt lat="42.13536" lon="9.08418">
        <ele>1880.96</ele>
        <time>2016-09-10T08:44:58Z</time>
      </trkpt>
      <trkpt lat="42.13536" lon="9.08418">
        <ele>1881.44</ele>
        <time>2016-09-10T08:45:09Z</time>
      </trkpt>
      <trkpt lat="42.13538" lon="9.08421">
        <ele>1881.44</ele>
        <time>2016-09-10T08:45:17Z</time>
      </trkpt>
      <trkpt lat="42.13538" lon="9.08422">
        <ele>1882.4</ele>
        <time>2016-09-10T08:45:24Z</time>
      </trkpt>
      <trkpt lat="42.13539" lon="9.08423">
        <ele>1882.4</ele>
        <time>2016-09-10T08:45:33Z</time>
      </trkpt>
      <trkpt lat="42.13539" lon="9.08424">
        <ele>1883.36</ele>
        <time>2016-09-10T08:45:42Z</time>
      </trkpt>
      <trkpt lat="42.1354" lon="9.08427">
        <ele>1884.32</ele>
        <time>2016-09-10T08:45:49Z</time>
      </trkpt>
      <trkpt lat="42.13543" lon="9.0843">
        <ele>1884.8</ele>
        <time>2016-09-10T08:45:55Z</time>
      </trkpt>
      <trkpt lat="42.13546" lon="9.08431">
        <ele>1885.76</ele>
        <time>2016-09-10T08:46:02Z</time>
      </trkpt>
      <trkpt lat="42.13547" lon="9.08432">
        <ele>1886.24</ele>
        <time>2016-09-10T08:46:09Z</time>
      </trkpt>
      <trkpt lat="42.13546" lon="9.08433">
        <ele>1886.24</ele>
        <time>2016-09-10T08:46:22Z</time>
      </trkpt>
      <trkpt lat="42.13546" lon="9.08434">
        <ele>1886.24</ele>
        <time>2016-09-10T08:46:30Z</time>
      </trkpt>
      <trkpt lat="42.13547" lon="9.08435">
        <ele>1886.24</ele>
        <time>2016-09-10T08:46:41Z</time>
      </trkpt>
      <trkpt lat="42.13548" lon="9.08436">
        <ele>1887.69</ele>
        <time>2016-09-10T08:46:49Z</time>
      </trkpt>
      <trkpt lat="42.13549" lon="9.08436">
        <ele>1887.69</ele>
        <time>2016-09-10T08:46:58Z</time>
      </trkpt>
      <trkpt lat="42.1355" lon="9.08435">
        <ele>1888.17</ele>
        <time>2016-09-10T08:47:14Z</time>
      </trkpt>
      <trkpt lat="42.13551" lon="9.08434">
        <ele>1888.65</ele>
        <time>2016-09-10T08:47:20Z</time>
      </trkpt>
      <trkpt lat="42.13553" lon="9.08434">
        <ele>1889.61</ele>
        <time>2016-09-10T08:47:28Z</time>
      </trkpt>
      <trkpt lat="42.13556" lon="9.08435">
        <ele>1890.57</ele>
        <time>2016-09-10T08:47:34Z</time>
      </trkpt>
      <trkpt lat="42.13559" lon="9.08434">
        <ele>1892.01</ele>
        <time>2016-09-10T08:47:41Z</time>
      </trkpt>
      <trkpt lat="42.13562" lon="9.08432">
        <ele>1894.42</ele>
        <time>2016-09-10T08:47:49Z</time>
      </trkpt>
      <trkpt lat="42.13567" lon="9.08432">
        <ele>1895.86</ele>
        <time>2016-09-10T08:47:56Z</time>
      </trkpt>
      <trkpt lat="42.13568" lon="9.08431">
        <ele>1897.3</ele>
        <time>2016-09-10T08:47:58Z</time>
      </trkpt>
      <trkpt lat="42.13572" lon="9.08434">
        <ele>1898.74</ele>
        <time>2016-09-10T08:48:07Z</time>
      </trkpt>
      <trkpt lat="42.13574" lon="9.08434">
        <ele>1899.22</ele>
        <time>2016-09-10T08:48:14Z</time>
      </trkpt>
      <trkpt lat="42.13576" lon="9.08434">
        <ele>1899.22</ele>
        <time>2016-09-10T08:48:25Z</time>
      </trkpt>
      <trkpt lat="42.13577" lon="9.08433">
        <ele>1900.66</ele>
        <time>2016-09-10T08:48:33Z</time>
      </trkpt>
      <trkpt lat="42.13577" lon="9.08435">
        <ele>1900.66</ele>
        <time>2016-09-10T08:48:40Z</time>
      </trkpt>
      <trkpt lat="42.13578" lon="9.08437">
        <ele>1901.14</ele>
        <time>2016-09-10T08:48:50Z</time>
      </trkpt>
      <trkpt lat="42.13582" lon="9.08442">
        <ele>1902.11</ele>
        <time>2016-09-10T08:48:58Z</time>
      </trkpt>
      <trkpt lat="42.13584" lon="9.08446">
        <ele>1903.07</ele>
        <time>2016-09-10T08:49:06Z</time>
      </trkpt>
      <trkpt lat="42.13585" lon="9.08449">
        <ele>1904.03</ele>
        <time>2016-09-10T08:49:16Z</time>
      </trkpt>
      <trkpt lat="42.13588" lon="9.08453">
        <ele>1904.99</ele>
        <time>2016-09-10T08:49:23Z</time>
      </trkpt>
      <trkpt lat="42.13591" lon="9.08454">
        <ele>1905.47</ele>
        <time>2016-09-10T08:49:32Z</time>
      </trkpt>
      <trkpt lat="42.13591" lon="9.08458">
        <ele>1906.43</ele>
        <time>2016-09-10T08:49:38Z</time>
      </trkpt>
      <trkpt lat="42.13592" lon="9.08458">
        <ele>1907.39</ele>
        <time>2016-09-10T08:49:45Z</time>
      </trkpt>
      <trkpt lat="42.13594" lon="9.08462">
        <ele>1907.39</ele>
        <time>2016-09-10T08:49:54Z</time>
      </trkpt>
      <trkpt lat="42.13595" lon="9.08466">
        <ele>1908.35</ele>
        <time>2016-09-10T08:50:00Z</time>
      </trkpt>
      <trkpt lat="42.13597" lon="9.08469">
        <ele>1908.35</ele>
        <time>2016-09-10T08:50:09Z</time>
      </trkpt>
      <trkpt lat="42.13598" lon="9.08473">
        <ele>1909.32</ele>
        <time>2016-09-10T08:50:16Z</time>
      </trkpt>
      <trkpt lat="42.136" lon="9.08478">
        <ele>1908.83</ele>
        <time>2016-09-10T08:50:23Z</time>
      </trkpt>
      <trkpt lat="42.13601" lon="9.08481">
        <ele>1908.83</ele>
        <time>2016-09-10T08:50:30Z</time>
      </trkpt>
      <trkpt lat="42.13602" lon="9.08485">
        <ele>1908.83</ele>
        <time>2016-09-10T08:50:37Z</time>
      </trkpt>
      <trkpt lat="42.13603" lon="9.0849">
        <ele>1909.32</ele>
        <time>2016-09-10T08:50:45Z</time>
      </trkpt>
      <trkpt lat="42.13604" lon="9.08493">
        <ele>1909.32</ele>
        <time>2016-09-10T08:50:54Z</time>
      </trkpt>
      <trkpt lat="42.13606" lon="9.08496">
        <ele>1910.28</ele>
        <time>2016-09-10T08:51:01Z</time>
      </trkpt>
      <trkpt lat="42.13606" lon="9.085">
        <ele>1910.76</ele>
        <time>2016-09-10T08:51:08Z</time>
      </trkpt>
      <trkpt lat="42.13606" lon="9.08503">
        <ele>1911.24</ele>
        <time>2016-09-10T08:51:16Z</time>
      </trkpt>
      <trkpt lat="42.13607" lon="9.08505">
        <ele>1911.72</ele>
        <time>2016-09-10T08:51:22Z</time>
      </trkpt>
      <trkpt lat="42.13609" lon="9.0851">
        <ele>1913.16</ele>
        <time>2016-09-10T08:51:32Z</time>
      </trkpt>
      <trkpt lat="42.13612" lon="9.08516">
        <ele>1914.12</ele>
        <time>2016-09-10T08:51:43Z</time>
      </trkpt>
      <trkpt lat="42.13614" lon="9.08518">
        <ele>1915.08</ele>
        <time>2016-09-10T08:51:52Z</time>
      </trkpt>
      <trkpt lat="42.13616" lon="9.08523">
        <ele>1916.04</ele>
        <time>2016-09-10T08:52:00Z</time>
      </trkpt>
      <trkpt lat="42.13616" lon="9.08527">
        <ele>1917.01</ele>
        <time>2016-09-10T08:52:06Z</time>
      </trkpt>
      <trkpt lat="42.13617" lon="9.08532">
        <ele>1917.49</ele>
        <time>2016-09-10T08:52:14Z</time>
      </trkpt>
      <trkpt lat="42.13617" lon="9.08535">
        <ele>1918.45</ele>
        <time>2016-09-10T08:52:23Z</time>
      </trkpt>
      <trkpt lat="42.13619" lon="9.08539">
        <ele>1919.41</ele>
        <time>2016-09-10T08:52:31Z</time>
      </trkpt>
      <trkpt lat="42.13621" lon="9.08543">
        <ele>1920.37</ele>
        <time>2016-09-10T08:52:38Z</time>
      </trkpt>
      <trkpt lat="42.13622" lon="9.08545">
        <ele>1920.85</ele>
        <time>2016-09-10T08:52:47Z</time>
      </trkpt>
      <trkpt lat="42.13624" lon="9.08548">
        <ele>1921.33</ele>
        <time>2016-09-10T08:52:54Z</time>
      </trkpt>
      <trkpt lat="42.13626" lon="9.08547">
        <ele>1922.29</ele>
        <time>2016-09-10T08:53:04Z</time>
      </trkpt>
      <trkpt lat="42.13627" lon="9.08546">
        <ele>1922.77</ele>
        <time>2016-09-10T08:53:14Z</time>
      </trkpt>
      <trkpt lat="42.13629" lon="9.08544">
        <ele>1923.74</ele>
        <time>2016-09-10T08:53:21Z</time>
      </trkpt>
      <trkpt lat="42.13631" lon="9.08544">
        <ele>1924.7</ele>
        <time>2016-09-10T08:53:29Z</time>
      </trkpt>
      <trkpt lat="42.13634" lon="9.08548">
        <ele>1925.66</ele>
        <time>2016-09-10T08:53:36Z</time>
      </trkpt>
      <trkpt lat="42.13635" lon="9.08545">
        <ele>1926.62</ele>
        <time>2016-09-10T08:53:43Z</time>
      </trkpt>
      <trkpt lat="42.13635" lon="9.08542">
        <ele>1927.1</ele>
        <time>2016-09-10T08:53:50Z</time>
      </trkpt>
      <trkpt lat="42.13636" lon="9.08537">
        <ele>1927.58</ele>
        <time>2016-09-10T08:53:58Z</time>
      </trkpt>
      <trkpt lat="42.13637" lon="9.08534">
        <ele>1928.54</ele>
        <time>2016-09-10T08:54:06Z</time>
      </trkpt>
      <trkpt lat="42.1364" lon="9.08535">
        <ele>1929.02</ele>
        <time>2016-09-10T08:54:15Z</time>
      </trkpt>
      <trkpt lat="42.1364" lon="9.08536">
        <ele>1929.5</ele>
        <time>2016-09-10T08:54:22Z</time>
      </trkpt>
      <trkpt lat="42.13643" lon="9.08538">
        <ele>1930.95</ele>
        <time>2016-09-10T08:54:31Z</time>
      </trkpt>
      <trkpt lat="42.13644" lon="9.08536">
        <ele>1931.91</ele>
        <time>2016-09-10T08:54:39Z</time>
      </trkpt>
      <trkpt lat="42.13646" lon="9.08534">
        <ele>1932.39</ele>
        <time>2016-09-10T08:54:48Z</time>
      </trkpt>
      <trkpt lat="42.13647" lon="9.08535">
        <ele>1933.83</ele>
        <time>2016-09-10T08:54:56Z</time>
      </trkpt>
      <trkpt lat="42.1365" lon="9.08537">
        <ele>1934.79</ele>
        <time>2016-09-10T08:55:04Z</time>
      </trkpt>
      <trkpt lat="42.13652" lon="9.08538">
        <ele>1935.75</ele>
        <time>2016-09-10T08:55:13Z</time>
      </trkpt>
      <trkpt lat="42.13654" lon="9.08538">
        <ele>1936.71</ele>
        <time>2016-09-10T08:55:22Z</time>
      </trkpt>
      <trkpt lat="42.13654" lon="9.08536">
        <ele>1937.19</ele>
        <time>2016-09-10T08:55:29Z</time>
      </trkpt>
      <trkpt lat="42.13655" lon="9.08534">
        <ele>1938.16</ele>
        <time>2016-09-10T08:55:37Z</time>
      </trkpt>
      <trkpt lat="42.13657" lon="9.08532">
        <ele>1938.64</ele>
        <time>2016-09-10T08:55:43Z</time>
      </trkpt>
      <trkpt lat="42.13657" lon="9.08529">
        <ele>1939.12</ele>
        <time>2016-09-10T08:55:50Z</time>
      </trkpt>
      <trkpt lat="42.13658" lon="9.08525">
        <ele>1940.56</ele>
        <time>2016-09-10T08:56:01Z</time>
      </trkpt>
      <trkpt lat="42.13662" lon="9.08525">
        <ele>1942</ele>
        <time>2016-09-10T08:56:09Z</time>
      </trkpt>
      <trkpt lat="42.13664" lon="9.08526">
        <ele>1942.48</ele>
        <time>2016-09-10T08:56:17Z</time>
      </trkpt>
      <trkpt lat="42.13665" lon="9.08522">
        <ele>1943.92</ele>
        <time>2016-09-10T08:56:25Z</time>
      </trkpt>
      <trkpt lat="42.13665" lon="9.08518">
        <ele>1943.92</ele>
        <time>2016-09-10T08:56:34Z</time>
      </trkpt>
      <trkpt lat="42.13665" lon="9.08517">
        <ele>1944.88</ele>
        <time>2016-09-10T08:56:43Z</time>
      </trkpt>
      <trkpt lat="42.13667" lon="9.08516">
        <ele>1945.36</ele>
        <time>2016-09-10T08:56:52Z</time>
      </trkpt>
      <trkpt lat="42.13671" lon="9.08518">
        <ele>1946.81</ele>
        <time>2016-09-10T08:57:01Z</time>
      </trkpt>
      <trkpt lat="42.13672" lon="9.08516">
        <ele>1947.29</ele>
        <time>2016-09-10T08:57:11Z</time>
      </trkpt>
      <trkpt lat="42.13672" lon="9.08515">
        <ele>1948.25</ele>
        <time>2016-09-10T08:57:18Z</time>
      </trkpt>
      <trkpt lat="42.13674" lon="9.08515">
        <ele>1948.73</ele>
        <time>2016-09-10T08:57:24Z</time>
      </trkpt>
      <trkpt lat="42.13674" lon="9.08514">
        <ele>1949.69</ele>
        <time>2016-09-10T08:57:32Z</time>
      </trkpt>
      <trkpt lat="42.13676" lon="9.08512">
        <ele>1950.65</ele>
        <time>2016-09-10T08:57:38Z</time>
      </trkpt>
      <trkpt lat="42.13679" lon="9.08513">
        <ele>1951.13</ele>
        <time>2016-09-10T08:57:46Z</time>
      </trkpt>
      <trkpt lat="42.13679" lon="9.08511">
        <ele>1951.61</ele>
        <time>2016-09-10T08:57:55Z</time>
      </trkpt>
      <trkpt lat="42.1368" lon="9.08511">
        <ele>1952.57</ele>
        <time>2016-09-10T08:58:02Z</time>
      </trkpt>
      <trkpt lat="42.13681" lon="9.08511">
        <ele>1953.06</ele>
        <time>2016-09-10T08:58:10Z</time>
      </trkpt>
      <trkpt lat="42.13681" lon="9.0851">
        <ele>1954.02</ele>
        <time>2016-09-10T08:58:18Z</time>
      </trkpt>
      <trkpt lat="42.13684" lon="9.08508">
        <ele>1954.5</ele>
        <time>2016-09-10T08:58:29Z</time>
      </trkpt>
      <trkpt lat="42.13685" lon="9.08508">
        <ele>1955.46</ele>
        <time>2016-09-10T08:58:38Z</time>
      </trkpt>
      <trkpt lat="42.13687" lon="9.08507">
        <ele>1956.9</ele>
        <time>2016-09-10T08:58:47Z</time>
      </trkpt>
      <trkpt lat="42.1369" lon="9.08507">
        <ele>1958.34</ele>
        <time>2016-09-10T08:58:56Z</time>
      </trkpt>
      <trkpt lat="42.13693" lon="9.08505">
        <ele>1959.3</ele>
        <time>2016-09-10T08:59:04Z</time>
      </trkpt>
      <trkpt lat="42.13693" lon="9.08504">
        <ele>1959.3</ele>
        <time>2016-09-10T08:59:13Z</time>
      </trkpt>
      <trkpt lat="42.13694" lon="9.08503">
        <ele>1960.27</ele>
        <time>2016-09-10T08:59:23Z</time>
      </trkpt>
      <trkpt lat="42.13695" lon="9.08503">
        <ele>1960.75</ele>
        <time>2016-09-10T08:59:34Z</time>
      </trkpt>
      <trkpt lat="42.13696" lon="9.08502">
        <ele>1960.75</ele>
        <time>2016-09-10T08:59:43Z</time>
      </trkpt>
      <trkpt lat="42.13698" lon="9.08501">
        <ele>1963.15</ele>
        <time>2016-09-10T08:59:49Z</time>
      </trkpt>
      <trkpt lat="42.137" lon="9.08498">
        <ele>1963.15</ele>
        <time>2016-09-10T08:59:57Z</time>
      </trkpt>
      <trkpt lat="42.13704" lon="9.08494">
        <ele>1967.48</ele>
        <time>2016-09-10T09:00:05Z</time>
      </trkpt>
      <trkpt lat="42.13705" lon="9.08491">
        <ele>1966.99</ele>
        <time>2016-09-10T09:00:13Z</time>
      </trkpt>
      <trkpt lat="42.13705" lon="9.0849">
        <ele>1966.51</ele>
        <time>2016-09-10T09:00:19Z</time>
      </trkpt>
      <trkpt lat="42.13705" lon="9.0849">
        <ele>1967.96</ele>
        <time>2016-09-10T09:00:21Z</time>
      </trkpt>
      <trkpt lat="42.13707" lon="9.08489">
        <ele>1968.44</ele>
        <time>2016-09-10T09:00:30Z</time>
      </trkpt>
      <trkpt lat="42.13708" lon="9.08485">
        <ele>1969.88</ele>
        <time>2016-09-10T09:00:38Z</time>
      </trkpt>
      <trkpt lat="42.13711" lon="9.08483">
        <ele>1970.84</ele>
        <time>2016-09-10T09:00:46Z</time>
      </trkpt>
      <trkpt lat="42.13712" lon="9.08482">
        <ele>1974.2</ele>
        <time>2016-09-10T09:00:51Z</time>
      </trkpt>
      <trkpt lat="42.13714" lon="9.08478">
        <ele>1973.24</ele>
        <time>2016-09-10T09:00:59Z</time>
      </trkpt>
      <trkpt lat="42.13714" lon="9.08477">
        <ele>1974.2</ele>
        <time>2016-09-10T09:01:09Z</time>
      </trkpt>
      <trkpt lat="42.13718" lon="9.08475">
        <ele>1975.65</ele>
        <time>2016-09-10T09:01:17Z</time>
      </trkpt>
      <trkpt lat="42.13718" lon="9.08473">
        <ele>1977.09</ele>
        <time>2016-09-10T09:01:24Z</time>
      </trkpt>
      <trkpt lat="42.1372" lon="9.08469">
        <ele>1977.57</ele>
        <time>2016-09-10T09:01:30Z</time>
      </trkpt>
      <trkpt lat="42.13721" lon="9.08466">
        <ele>1979.49</ele>
        <time>2016-09-10T09:01:37Z</time>
      </trkpt>
      <trkpt lat="42.13723" lon="9.08462">
        <ele>1980.93</ele>
        <time>2016-09-10T09:01:46Z</time>
      </trkpt>
      <trkpt lat="42.13722" lon="9.08459">
        <ele>1981.9</ele>
        <time>2016-09-10T09:01:54Z</time>
      </trkpt>
      <trkpt lat="42.13722" lon="9.08456">
        <ele>1982.38</ele>
        <time>2016-09-10T09:02:01Z</time>
      </trkpt>
      <trkpt lat="42.13721" lon="9.08453">
        <ele>1985.26</ele>
        <time>2016-09-10T09:02:08Z</time>
      </trkpt>
      <trkpt lat="42.1372" lon="9.0845">
        <ele>1984.3</ele>
        <time>2016-09-10T09:02:15Z</time>
      </trkpt>
      <trkpt lat="42.13717" lon="9.08441">
        <ele>1985.74</ele>
        <time>2016-09-10T09:02:23Z</time>
      </trkpt>
      <trkpt lat="42.13718" lon="9.08437">
        <ele>1987.18</ele>
        <time>2016-09-10T09:02:30Z</time>
      </trkpt>
      <trkpt lat="42.13718" lon="9.0843">
        <ele>1988.62</ele>
        <time>2016-09-10T09:02:39Z</time>
      </trkpt>
      <trkpt lat="42.13719" lon="9.08428">
        <ele>1989.59</ele>
        <time>2016-09-10T09:02:46Z</time>
      </trkpt>
      <trkpt lat="42.1372" lon="9.08427">
        <ele>1990.07</ele>
        <time>2016-09-10T09:02:54Z</time>
      </trkpt>
      <trkpt lat="42.13721" lon="9.08427">
        <ele>1991.99</ele>
        <time>2016-09-10T09:03:01Z</time>
      </trkpt>
      <trkpt lat="42.13724" lon="9.08424">
        <ele>1993.43</ele>
        <time>2016-09-10T09:03:09Z</time>
      </trkpt>
      <trkpt lat="42.13725" lon="9.08422">
        <ele>1994.87</ele>
        <time>2016-09-10T09:03:16Z</time>
      </trkpt>
      <trkpt lat="42.13725" lon="9.0842">
        <ele>1995.35</ele>
        <time>2016-09-10T09:03:20Z</time>
      </trkpt>
      <trkpt lat="42.13725" lon="9.08419">
        <ele>1996.32</ele>
        <time>2016-09-10T09:03:29Z</time>
      </trkpt>
      <trkpt lat="42.13725" lon="9.08416">
        <ele>1996.8</ele>
        <time>2016-09-10T09:03:37Z</time>
      </trkpt>
      <trkpt lat="42.13723" lon="9.08412">
        <ele>1995.83</ele>
        <time>2016-09-10T09:03:44Z</time>
      </trkpt>
      <trkpt lat="42.13723" lon="9.0841">
        <ele>1996.8</ele>
        <time>2016-09-10T09:03:55Z</time>
      </trkpt>
      <trkpt lat="42.13723" lon="9.08411">
        <ele>1992.95</ele>
        <time>2016-09-10T09:03:56Z</time>
      </trkpt>
      <trkpt lat="42.13723" lon="9.08411">
        <ele>1995.35</ele>
        <time>2016-09-10T09:03:57Z</time>
      </trkpt>
      <trkpt lat="42.13722" lon="9.08404">
        <ele>1993.43</ele>
        <time>2016-09-10T09:04:03Z</time>
      </trkpt>
      <trkpt lat="42.13721" lon="9.084">
        <ele>1992.95</ele>
        <time>2016-09-10T09:04:06Z</time>
      </trkpt>
      <trkpt lat="42.13721" lon="9.08393">
        <ele>1993.43</ele>
        <time>2016-09-10T09:04:13Z</time>
      </trkpt>
      <trkpt lat="42.13722" lon="9.08386">
        <ele>1994.39</ele>
        <time>2016-09-10T09:04:21Z</time>
      </trkpt>
      <trkpt lat="42.13721" lon="9.0838">
        <ele>1994.39</ele>
        <time>2016-09-10T09:04:28Z</time>
      </trkpt>
      <trkpt lat="42.13721" lon="9.08375">
        <ele>1993.43</ele>
        <time>2016-09-10T09:04:34Z</time>
      </trkpt>
      <trkpt lat="42.13719" lon="9.08371">
        <ele>1992.95</ele>
        <time>2016-09-10T09:04:41Z</time>
      </trkpt>
      <trkpt lat="42.13717" lon="9.08366">
        <ele>1991.51</ele>
        <time>2016-09-10T09:04:46Z</time>
      </trkpt>
      <trkpt lat="42.13717" lon="9.08357">
        <ele>1991.99</ele>
        <time>2016-09-10T09:04:54Z</time>
      </trkpt>
      <trkpt lat="42.13717" lon="9.08354">
        <ele>1991.99</ele>
        <time>2016-09-10T09:04:56Z</time>
      </trkpt>
      <trkpt lat="42.13716" lon="9.08351">
        <ele>1991.51</ele>
        <time>2016-09-10T09:04:59Z</time>
      </trkpt>
      <trkpt lat="42.13716" lon="9.0834">
        <ele>1992.47</ele>
        <time>2016-09-10T09:05:08Z</time>
      </trkpt>
      <trkpt lat="42.13715" lon="9.08336">
        <ele>1991.51</ele>
        <time>2016-09-10T09:05:11Z</time>
      </trkpt>
      <trkpt lat="42.13714" lon="9.08329">
        <ele>1991.03</ele>
        <time>2016-09-10T09:05:17Z</time>
      </trkpt>
      <trkpt lat="42.13713" lon="9.08321">
        <ele>1991.03</ele>
        <time>2016-09-10T09:05:24Z</time>
      </trkpt>
      <trkpt lat="42.13715" lon="9.08313">
        <ele>1991.51</ele>
        <time>2016-09-10T09:05:32Z</time>
      </trkpt>
      <trkpt lat="42.13714" lon="9.08305">
        <ele>1991.51</ele>
        <time>2016-09-10T09:05:40Z</time>
      </trkpt>
      <trkpt lat="42.13714" lon="9.083">
        <ele>1992.95</ele>
        <time>2016-09-10T09:05:46Z</time>
      </trkpt>
      <trkpt lat="42.13714" lon="9.08291">
        <ele>1994.39</ele>
        <time>2016-09-10T09:05:56Z</time>
      </trkpt>
      <trkpt lat="42.13715" lon="9.08289">
        <ele>1995.35</ele>
        <time>2016-09-10T09:06:04Z</time>
      </trkpt>
      <trkpt lat="42.13715" lon="9.08284">
        <ele>1995.83</ele>
        <time>2016-09-10T09:06:12Z</time>
      </trkpt>
      <trkpt lat="42.13715" lon="9.08282">
        <ele>1997.28</ele>
        <time>2016-09-10T09:06:18Z</time>
      </trkpt>
      <trkpt lat="42.13717" lon="9.0828">
        <ele>1997.28</ele>
        <time>2016-09-10T09:06:25Z</time>
      </trkpt>
      <trkpt lat="42.13719" lon="9.08279">
        <ele>1998.72</ele>
        <time>2016-09-10T09:06:34Z</time>
      </trkpt>
      <trkpt lat="42.1372" lon="9.08274">
        <ele>1999.2</ele>
        <time>2016-09-10T09:06:40Z</time>
      </trkpt>
      <trkpt lat="42.13723" lon="9.08265">
        <ele>1999.68</ele>
        <time>2016-09-10T09:06:47Z</time>
      </trkpt>
      <trkpt lat="42.13723" lon="9.08261">
        <ele>1999.2</ele>
        <time>2016-09-10T09:06:55Z</time>
      </trkpt>
      <trkpt lat="42.13724" lon="9.08256">
        <ele>1999.2</ele>
        <time>2016-09-10T09:07:02Z</time>
      </trkpt>
      <trkpt lat="42.13727" lon="9.08254">
        <ele>2002.08</ele>
        <time>2016-09-10T09:07:10Z</time>
      </trkpt>
      <trkpt lat="42.13729" lon="9.0825">
        <ele>2002.56</ele>
        <time>2016-09-10T09:07:18Z</time>
      </trkpt>
      <trkpt lat="42.13728" lon="9.08244">
        <ele>2001.6</ele>
        <time>2016-09-10T09:07:25Z</time>
      </trkpt>
      <trkpt lat="42.13728" lon="9.08239">
        <ele>2002.08</ele>
        <time>2016-09-10T09:07:32Z</time>
      </trkpt>
      <trkpt lat="42.13727" lon="9.08235">
        <ele>2002.08</ele>
        <time>2016-09-10T09:07:40Z</time>
      </trkpt>
      <trkpt lat="42.13726" lon="9.08231">
        <ele>2002.56</ele>
        <time>2016-09-10T09:07:47Z</time>
      </trkpt>
      <trkpt lat="42.13724" lon="9.08225">
        <ele>2002.56</ele>
        <time>2016-09-10T09:07:57Z</time>
      </trkpt>
      <trkpt lat="42.13723" lon="9.08224">
        <ele>2002.08</ele>
        <time>2016-09-10T09:08:00Z</time>
      </trkpt>
      <trkpt lat="42.13722" lon="9.0822">
        <ele>2002.08</ele>
        <time>2016-09-10T09:08:07Z</time>
      </trkpt>
      <trkpt lat="42.13721" lon="9.08217">
        <ele>2002.56</ele>
        <time>2016-09-10T09:08:14Z</time>
      </trkpt>
      <trkpt lat="42.13721" lon="9.08215">
        <ele>2003.04</ele>
        <time>2016-09-10T09:08:23Z</time>
      </trkpt>
      <trkpt lat="42.13719" lon="9.08211">
        <ele>2004.01</ele>
        <time>2016-09-10T09:08:32Z</time>
      </trkpt>
      <trkpt lat="42.13717" lon="9.08203">
        <ele>2004.49</ele>
        <time>2016-09-10T09:08:40Z</time>
      </trkpt>
      <trkpt lat="42.13715" lon="9.08198">
        <ele>2004.49</ele>
        <time>2016-09-10T09:08:47Z</time>
      </trkpt>
      <trkpt lat="42.13714" lon="9.08195">
        <ele>2004.49</ele>
        <time>2016-09-10T09:08:56Z</time>
      </trkpt>
      <trkpt lat="42.13713" lon="9.08193">
        <ele>2004.49</ele>
        <time>2016-09-10T09:09:02Z</time>
      </trkpt>
      <trkpt lat="42.13712" lon="9.08186">
        <ele>2004.97</ele>
        <time>2016-09-10T09:09:09Z</time>
      </trkpt>
      <trkpt lat="42.1371" lon="9.08179">
        <ele>2004.97</ele>
        <time>2016-09-10T09:09:17Z</time>
      </trkpt>
      <trkpt lat="42.13709" lon="9.08177">
        <ele>2005.45</ele>
        <time>2016-09-10T09:09:25Z</time>
      </trkpt>
      <trkpt lat="42.13708" lon="9.08176">
        <ele>2005.93</ele>
        <time>2016-09-10T09:09:36Z</time>
      </trkpt>
      <trkpt lat="42.13707" lon="9.08174">
        <ele>2006.41</ele>
        <time>2016-09-10T09:09:46Z</time>
      </trkpt>
      <trkpt lat="42.13706" lon="9.08172">
        <ele>2006.89</ele>
        <time>2016-09-10T09:09:53Z</time>
      </trkpt>
      <trkpt lat="42.13705" lon="9.0817">
        <ele>2007.37</ele>
        <time>2016-09-10T09:10:01Z</time>
      </trkpt>
      <trkpt lat="42.13705" lon="9.08169">
        <ele>2007.85</ele>
        <time>2016-09-10T09:10:08Z</time>
      </trkpt>
      <trkpt lat="42.13704" lon="9.08167">
        <ele>2008.33</ele>
        <time>2016-09-10T09:10:15Z</time>
      </trkpt>
      <trkpt lat="42.13703" lon="9.08166">
        <ele>2009.29</ele>
        <time>2016-09-10T09:10:22Z</time>
      </trkpt>
      <trkpt lat="42.13703" lon="9.08164">
        <ele>2010.73</ele>
        <time>2016-09-10T09:10:30Z</time>
      </trkpt>
      <trkpt lat="42.13701" lon="9.08159">
        <ele>2010.73</ele>
        <time>2016-09-10T09:10:36Z</time>
      </trkpt>
      <trkpt lat="42.137" lon="9.08152">
        <ele>2011.7</ele>
        <time>2016-09-10T09:10:43Z</time>
      </trkpt>
      <trkpt lat="42.13699" lon="9.08143">
        <ele>2013.14</ele>
        <time>2016-09-10T09:10:52Z</time>
      </trkpt>
      <trkpt lat="42.13699" lon="9.08137">
        <ele>2013.14</ele>
        <time>2016-09-10T09:10:59Z</time>
      </trkpt>
      <trkpt lat="42.13699" lon="9.08135">
        <ele>2014.1</ele>
        <time>2016-09-10T09:11:06Z</time>
      </trkpt>
      <trkpt lat="42.13698" lon="9.08131">
        <ele>2014.58</ele>
        <time>2016-09-10T09:11:15Z</time>
      </trkpt>
      <trkpt lat="42.13698" lon="9.08128">
        <ele>2015.54</ele>
        <time>2016-09-10T09:11:26Z</time>
      </trkpt>
      <trkpt lat="42.13698" lon="9.08126">
        <ele>2016.02</ele>
        <time>2016-09-10T09:11:32Z</time>
      </trkpt>
      <trkpt lat="42.13698" lon="9.08125">
        <ele>2016.5</ele>
        <time>2016-09-10T09:11:40Z</time>
      </trkpt>
      <trkpt lat="42.13699" lon="9.08124">
        <ele>2018.91</ele>
        <time>2016-09-10T09:11:46Z</time>
      </trkpt>
      <trkpt lat="42.13699" lon="9.08122">
        <ele>2017.94</ele>
        <time>2016-09-10T09:11:48Z</time>
      </trkpt>
      <trkpt lat="42.137" lon="9.08117">
        <ele>2018.91</ele>
        <time>2016-09-10T09:11:55Z</time>
      </trkpt>
      <trkpt lat="42.137" lon="9.08112">
        <ele>2020.35</ele>
        <time>2016-09-10T09:12:04Z</time>
      </trkpt>
      <trkpt lat="42.13699" lon="9.0811">
        <ele>2021.31</ele>
        <time>2016-09-10T09:12:12Z</time>
      </trkpt>
      <trkpt lat="42.13699" lon="9.08107">
        <ele>2021.31</ele>
        <time>2016-09-10T09:12:21Z</time>
      </trkpt>
      <trkpt lat="42.137" lon="9.08106">
        <ele>2022.75</ele>
        <time>2016-09-10T09:12:23Z</time>
      </trkpt>
      <trkpt lat="42.13699" lon="9.08103">
        <ele>2023.23</ele>
        <time>2016-09-10T09:12:31Z</time>
      </trkpt>
      <trkpt lat="42.13697" lon="9.08098">
        <ele>2022.75</ele>
        <time>2016-09-10T09:12:38Z</time>
      </trkpt>
      <trkpt lat="42.13697" lon="9.08098">
        <ele>2022.75</ele>
        <time>2016-09-10T09:12:40Z</time>
      </trkpt>
      <trkpt lat="42.13694" lon="9.08091">
        <ele>2022.27</ele>
        <time>2016-09-10T09:12:48Z</time>
      </trkpt>
      <trkpt lat="42.13693" lon="9.08086">
        <ele>2023.23</ele>
        <time>2016-09-10T09:12:55Z</time>
      </trkpt>
      <trkpt lat="42.13691" lon="9.08083">
        <ele>2022.75</ele>
        <time>2016-09-10T09:13:04Z</time>
      </trkpt>
      <trkpt lat="42.13688" lon="9.0808">
        <ele>2024.19</ele>
        <time>2016-09-10T09:13:10Z</time>
      </trkpt>
      <trkpt lat="42.13686" lon="9.08074">
        <ele>2023.71</ele>
        <time>2016-09-10T09:13:17Z</time>
      </trkpt>
      <trkpt lat="42.13684" lon="9.08068">
        <ele>2023.71</ele>
        <time>2016-09-10T09:13:27Z</time>
      </trkpt>
      <trkpt lat="42.13684" lon="9.08064">
        <ele>2024.19</ele>
        <time>2016-09-10T09:13:35Z</time>
      </trkpt>
      <trkpt lat="42.13684" lon="9.08061">
        <ele>2025.15</ele>
        <time>2016-09-10T09:13:44Z</time>
      </trkpt>
      <trkpt lat="42.13684" lon="9.08057">
        <ele>2025.64</ele>
        <time>2016-09-10T09:13:52Z</time>
      </trkpt>
      <trkpt lat="42.13684" lon="9.08053">
        <ele>2027.08</ele>
        <time>2016-09-10T09:13:58Z</time>
      </trkpt>
      <trkpt lat="42.13683" lon="9.08047">
        <ele>2027.08</ele>
        <time>2016-09-10T09:14:05Z</time>
      </trkpt>
      <trkpt lat="42.13682" lon="9.08044">
        <ele>2027.08</ele>
        <time>2016-09-10T09:14:13Z</time>
      </trkpt>
      <trkpt lat="42.13681" lon="9.08042">
        <ele>2027.08</ele>
        <time>2016-09-10T09:14:22Z</time>
      </trkpt>
      <trkpt lat="42.1368" lon="9.08034">
        <ele>2028.04</ele>
        <time>2016-09-10T09:14:30Z</time>
      </trkpt>
      <trkpt lat="42.1368" lon="9.0803">
        <ele>2028.52</ele>
        <time>2016-09-10T09:14:38Z</time>
      </trkpt>
      <trkpt lat="42.13679" lon="9.08026">
        <ele>2029.48</ele>
        <time>2016-09-10T09:14:44Z</time>
      </trkpt>
      <trkpt lat="42.13679" lon="9.0802">
        <ele>2029.96</ele>
        <time>2016-09-10T09:14:51Z</time>
      </trkpt>
      <trkpt lat="42.13678" lon="9.08016">
        <ele>2030.44</ele>
        <time>2016-09-10T09:15:01Z</time>
      </trkpt>
      <trkpt lat="42.13678" lon="9.08011">
        <ele>2030.44</ele>
        <time>2016-09-10T09:15:08Z</time>
      </trkpt>
      <trkpt lat="42.1368" lon="9.08006">
        <ele>2030.92</ele>
        <time>2016-09-10T09:15:14Z</time>
      </trkpt>
      <trkpt lat="42.13681" lon="9.08003">
        <ele>2030.92</ele>
        <time>2016-09-10T09:15:17Z</time>
      </trkpt>
      <trkpt lat="42.1368" lon="9.08">
        <ele>2030.92</ele>
        <time>2016-09-10T09:15:24Z</time>
      </trkpt>
      <trkpt lat="42.13679" lon="9.07993">
        <ele>2031.4</ele>
        <time>2016-09-10T09:15:31Z</time>
      </trkpt>
      <trkpt lat="42.13679" lon="9.07988">
        <ele>2031.4</ele>
        <time>2016-09-10T09:15:38Z</time>
      </trkpt>
      <trkpt lat="42.13678" lon="9.07984">
        <ele>2031.4</ele>
        <time>2016-09-10T09:15:45Z</time>
      </trkpt>
      <trkpt lat="42.13678" lon="9.07978">
        <ele>2031.88</ele>
        <time>2016-09-10T09:15:53Z</time>
      </trkpt>
      <trkpt lat="42.13678" lon="9.07978">
        <ele>2032.36</ele>
        <time>2016-09-10T09:16:03Z</time>
      </trkpt>
      <trkpt lat="42.13678" lon="9.07978">
        <ele>2032.36</ele>
        <time>2016-09-10T09:16:18Z</time>
      </trkpt>
      <trkpt lat="42.13678" lon="9.07978">
        <ele>2032.84</ele>
        <time>2016-09-10T09:16:29Z</time>
      </trkpt>
      <trkpt lat="42.13679" lon="9.07973">
        <ele>2032.84</ele>
        <time>2016-09-10T09:16:36Z</time>
      </trkpt>
      <trkpt lat="42.13677" lon="9.07966">
        <ele>2033.81</ele>
        <time>2016-09-10T09:16:46Z</time>
      </trkpt>
      <trkpt lat="42.13678" lon="9.07958">
        <ele>2034.29</ele>
        <time>2016-09-10T09:16:54Z</time>
      </trkpt>
      <trkpt lat="42.13677" lon="9.07951">
        <ele>2034.77</ele>
        <time>2016-09-10T09:17:01Z</time>
      </trkpt>
      <trkpt lat="42.13675" lon="9.07944">
        <ele>2034.77</ele>
        <time>2016-09-10T09:17:08Z</time>
      </trkpt>
      <trkpt lat="42.13676" lon="9.07938">
        <ele>2035.25</ele>
        <time>2016-09-10T09:17:14Z</time>
      </trkpt>
      <trkpt lat="42.13675" lon="9.07934">
        <ele>2034.29</ele>
        <time>2016-09-10T09:17:20Z</time>
      </trkpt>
      <trkpt lat="42.13675" lon="9.07927">
        <ele>2034.29</ele>
        <time>2016-09-10T09:17:27Z</time>
      </trkpt>
      <trkpt lat="42.13674" lon="9.07925">
        <ele>2033.81</ele>
        <time>2016-09-10T09:17:36Z</time>
      </trkpt>
      <trkpt lat="42.13672" lon="9.07923">
        <ele>2032.36</ele>
        <time>2016-09-10T09:17:43Z</time>
      </trkpt>
      <trkpt lat="42.13673" lon="9.07918">
        <ele>2032.36</ele>
        <time>2016-09-10T09:17:51Z</time>
      </trkpt>
      <trkpt lat="42.13674" lon="9.07918">
        <ele>2033.33</ele>
        <time>2016-09-10T09:17:57Z</time>
      </trkpt>
      <trkpt lat="42.13676" lon="9.07908">
        <ele>2033.33</ele>
        <time>2016-09-10T09:18:06Z</time>
      </trkpt>
      <trkpt lat="42.13675" lon="9.07906">
        <ele>2033.33</ele>
        <time>2016-09-10T09:18:08Z</time>
      </trkpt>
      <trkpt lat="42.13674" lon="9.07903">
        <ele>2033.33</ele>
        <time>2016-09-10T09:18:10Z</time>
      </trkpt>
      <trkpt lat="42.13671" lon="9.07894">
        <ele>2033.33</ele>
        <time>2016-09-10T09:18:18Z</time>
      </trkpt>
      <trkpt lat="42.13667" lon="9.07885">
        <ele>2034.29</ele>
        <time>2016-09-10T09:18:29Z</time>
      </trkpt>
      <trkpt lat="42.13665" lon="9.07877">
        <ele>2035.25</ele>
        <time>2016-09-10T09:18:37Z</time>
      </trkpt>
      <trkpt lat="42.13663" lon="9.0787">
        <ele>2036.21</ele>
        <time>2016-09-10T09:18:48Z</time>
      </trkpt>
      <trkpt lat="42.1366" lon="9.07866">
        <ele>2037.17</ele>
        <time>2016-09-10T09:18:53Z</time>
      </trkpt>
      <trkpt lat="42.13654" lon="9.07857">
        <ele>2037.17</ele>
        <time>2016-09-10T09:19:03Z</time>
      </trkpt>
      <trkpt lat="42.13649" lon="9.07855">
        <ele>2037.17</ele>
        <time>2016-09-10T09:19:12Z</time>
      </trkpt>
      <trkpt lat="42.13648" lon="9.07853">
        <ele>2037.65</ele>
        <time>2016-09-10T09:19:21Z</time>
      </trkpt>
      <trkpt lat="42.13648" lon="9.07853">
        <ele>2037.65</ele>
        <time>2016-09-10T09:19:35Z</time>
      </trkpt>
      <trkpt lat="42.13648" lon="9.07853">
        <ele>2037.65</ele>
        <time>2016-09-10T09:19:47Z</time>
      </trkpt>
      <trkpt lat="42.13648" lon="9.07853">
        <ele>2038.13</ele>
        <time>2016-09-10T09:20:00Z</time>
      </trkpt>
      <trkpt lat="42.13648" lon="9.07853">
        <ele>2038.61</ele>
        <time>2016-09-10T09:20:12Z</time>
      </trkpt>
      <trkpt lat="42.13649" lon="9.07852">
        <ele>2038.61</ele>
        <time>2016-09-10T09:20:29Z</time>
      </trkpt>
      <trkpt lat="42.13649" lon="9.07852">
        <ele>2039.57</ele>
        <time>2016-09-10T09:20:45Z</time>
      </trkpt>
      <trkpt lat="42.13649" lon="9.07853">
        <ele>2039.57</ele>
        <time>2016-09-10T09:20:58Z</time>
      </trkpt>
      <trkpt lat="42.13648" lon="9.07855">
        <ele>2038.61</ele>
        <time>2016-09-10T09:21:06Z</time>
      </trkpt>
      <trkpt lat="42.13648" lon="9.07855">
        <ele>2038.13</ele>
        <time>2016-09-10T09:21:17Z</time>
      </trkpt>
      <trkpt lat="42.13648" lon="9.07855">
        <ele>2037.65</ele>
        <time>2016-09-10T09:21:31Z</time>
      </trkpt>
      <trkpt lat="42.13648" lon="9.07855">
        <ele>2037.17</ele>
        <time>2016-09-10T09:21:47Z</time>
      </trkpt>
      <trkpt lat="42.13646" lon="9.07855">
        <ele>2036.69</ele>
        <time>2016-09-10T09:22:00Z</time>
      </trkpt>
      <trkpt lat="42.13647" lon="9.07855">
        <ele>2036.21</ele>
        <time>2016-09-10T09:22:11Z</time>
      </trkpt>
      <trkpt lat="42.13646" lon="9.07854">
        <ele>2036.69</ele>
        <time>2016-09-10T09:22:31Z</time>
      </trkpt>
      <trkpt lat="42.13646" lon="9.07854">
        <ele>2036.21</ele>
        <time>2016-09-10T09:22:48Z</time>
      </trkpt>
      <trkpt lat="42.13646" lon="9.07854">
        <ele>2036.21</ele>
        <time>2016-09-10T09:23:03Z</time>
      </trkpt>
      <trkpt lat="42.13647" lon="9.07855">
        <ele>2036.21</ele>
        <time>2016-09-10T09:23:12Z</time>
      </trkpt>
      <trkpt lat="42.13647" lon="9.07854">
        <ele>2036.69</ele>
        <time>2016-09-10T09:23:30Z</time>
      </trkpt>
      <trkpt lat="42.13647" lon="9.07854">
        <ele>2036.69</ele>
        <time>2016-09-10T09:23:46Z</time>
      </trkpt>
      <trkpt lat="42.13647" lon="9.07853">
        <ele>2037.17</ele>
        <time>2016-09-10T09:23:53Z</time>
      </trkpt>
      <trkpt lat="42.13646" lon="9.07854">
        <ele>2037.17</ele>
        <time>2016-09-10T09:24:06Z</time>
      </trkpt>
      <trkpt lat="42.13646" lon="9.07854">
        <ele>2038.13</ele>
        <time>2016-09-10T09:24:25Z</time>
      </trkpt>
      <trkpt lat="42.13647" lon="9.07854">
        <ele>2037.65</ele>
        <time>2016-09-10T09:24:36Z</time>
      </trkpt>
      <trkpt lat="42.13646" lon="9.07853">
        <ele>2038.61</ele>
        <time>2016-09-10T09:24:53Z</time>
      </trkpt>
      <trkpt lat="42.13647" lon="9.07854">
        <ele>2038.61</ele>
        <time>2016-09-10T09:25:06Z</time>
      </trkpt>
      <trkpt lat="42.13647" lon="9.07854">
        <ele>2038.61</ele>
        <time>2016-09-10T09:25:19Z</time>
      </trkpt>
      <trkpt lat="42.13647" lon="9.07854">
        <ele>2038.13</ele>
        <time>2016-09-10T09:25:27Z</time>
      </trkpt>
      <trkpt lat="42.13647" lon="9.07854">
        <ele>2038.13</ele>
        <time>2016-09-10T09:25:40Z</time>
      </trkpt>
      <trkpt lat="42.13646" lon="9.07854">
        <ele>2038.61</ele>
        <time>2016-09-10T09:25:59Z</time>
      </trkpt>
      <trkpt lat="42.13647" lon="9.07854">
        <ele>2038.13</ele>
        <time>2016-09-10T09:26:17Z</time>
      </trkpt>
      <trkpt lat="42.13648" lon="9.07855">
        <ele>2039.09</ele>
        <time>2016-09-10T09:26:38Z</time>
      </trkpt>
      <trkpt lat="42.13648" lon="9.07855">
        <ele>2038.61</ele>
        <time>2016-09-10T09:26:50Z</time>
      </trkpt>
      <trkpt lat="42.13648" lon="9.07854">
        <ele>2038.13</ele>
        <time>2016-09-10T09:27:08Z</time>
      </trkpt>
      <trkpt lat="42.13648" lon="9.07853">
        <ele>2039.09</ele>
        <time>2016-09-10T09:27:27Z</time>
      </trkpt>
      <trkpt lat="42.13649" lon="9.07853">
        <ele>2038.61</ele>
        <time>2016-09-10T09:27:45Z</time>
      </trkpt>
      <trkpt lat="42.13648" lon="9.07853">
        <ele>2039.09</ele>
        <time>2016-09-10T09:28:05Z</time>
      </trkpt>
      <trkpt lat="42.13648" lon="9.07853">
        <ele>2039.09</ele>
        <time>2016-09-10T09:28:29Z</time>
      </trkpt>
      <trkpt lat="42.13648" lon="9.07853">
        <ele>2039.09</ele>
        <time>2016-09-10T09:28:40Z</time>
      </trkpt>
      <trkpt lat="42.13647" lon="9.07852">
        <ele>2039.09</ele>
        <time>2016-09-10T09:28:58Z</time>
      </trkpt>
      <trkpt lat="42.13647" lon="9.07852">
        <ele>2038.61</ele>
        <time>2016-09-10T09:29:14Z</time>
      </trkpt>
      <trkpt lat="42.13648" lon="9.07852">
        <ele>2042.46</ele>
        <time>2016-09-10T09:29:31Z</time>
      </trkpt>
      <trkpt lat="42.13648" lon="9.07852">
        <ele>2041.98</ele>
        <time>2016-09-10T09:29:32Z</time>
      </trkpt>
      <trkpt lat="42.13648" lon="9.07852">
        <ele>2041.02</ele>
        <time>2016-09-10T09:29:34Z</time>
      </trkpt>
      <trkpt lat="42.13648" lon="9.07852">
        <ele>2039.09</ele>
        <time>2016-09-10T09:29:54Z</time>
      </trkpt>
      <trkpt lat="42.13648" lon="9.07852">
        <ele>2040.05</ele>
        <time>2016-09-10T09:30:03Z</time>
      </trkpt>
      <trkpt lat="42.13648" lon="9.07852">
        <ele>2039.09</ele>
        <time>2016-09-10T09:30:15Z</time>
      </trkpt>
      <trkpt lat="42.13649" lon="9.07853">
        <ele>2039.57</ele>
        <time>2016-09-10T09:30:36Z</time>
      </trkpt>
      <trkpt lat="42.1365" lon="9.07853">
        <ele>2038.61</ele>
        <time>2016-09-10T09:30:51Z</time>
      </trkpt>
      <trkpt lat="42.1365" lon="9.07854">
        <ele>2039.09</ele>
        <time>2016-09-10T09:31:11Z</time>
      </trkpt>
      <trkpt lat="42.1365" lon="9.07854">
        <ele>2039.09</ele>
        <time>2016-09-10T09:31:30Z</time>
      </trkpt>
      <trkpt lat="42.1365" lon="9.07853">
        <ele>2039.57</ele>
        <time>2016-09-10T09:31:47Z</time>
      </trkpt>
      <trkpt lat="42.1365" lon="9.07853">
        <ele>2039.09</ele>
        <time>2016-09-10T09:32:06Z</time>
      </trkpt>
      <trkpt lat="42.1365" lon="9.07854">
        <ele>2039.09</ele>
        <time>2016-09-10T09:32:28Z</time>
      </trkpt>
      <trkpt lat="42.1365" lon="9.07854">
        <ele>2038.61</ele>
        <time>2016-09-10T09:32:42Z</time>
      </trkpt>
      <trkpt lat="42.13649" lon="9.07854">
        <ele>2039.09</ele>
        <time>2016-09-10T09:32:59Z</time>
      </trkpt>
      <trkpt lat="42.13649" lon="9.07854">
        <ele>2039.09</ele>
        <time>2016-09-10T09:33:18Z</time>
      </trkpt>
      <trkpt lat="42.13649" lon="9.07855">
        <ele>2039.57</ele>
        <time>2016-09-10T09:33:35Z</time>
      </trkpt>
      <trkpt lat="42.13648" lon="9.07855">
        <ele>2039.57</ele>
        <time>2016-09-10T09:33:51Z</time>
      </trkpt>
      <trkpt lat="42.13646" lon="9.07857">
        <ele>2039.09</ele>
        <time>2016-09-10T09:33:58Z</time>
      </trkpt>
      <trkpt lat="42.13647" lon="9.07856">
        <ele>2039.09</ele>
        <time>2016-09-10T09:34:09Z</time>
      </trkpt>
      <trkpt lat="42.13647" lon="9.07856">
        <ele>2039.57</ele>
        <time>2016-09-10T09:34:21Z</time>
      </trkpt>
      <trkpt lat="42.13647" lon="9.07856">
        <ele>2039.09</ele>
        <time>2016-09-10T09:34:33Z</time>
      </trkpt>
      <trkpt lat="42.13648" lon="9.07856">
        <ele>2039.57</ele>
        <time>2016-09-10T09:34:46Z</time>
      </trkpt>
      <trkpt lat="42.13653" lon="9.07854">
        <ele>2040.05</ele>
        <time>2016-09-10T09:34:56Z</time>
      </trkpt>
      <trkpt lat="42.13655" lon="9.07854">
        <ele>2041.02</ele>
        <time>2016-09-10T09:35:05Z</time>
      </trkpt>
      <trkpt lat="42.13656" lon="9.07855">
        <ele>2041.02</ele>
        <time>2016-09-10T09:35:13Z</time>
      </trkpt>
      <trkpt lat="42.1366" lon="9.07856">
        <ele>2041.5</ele>
        <time>2016-09-10T09:35:20Z</time>
      </trkpt>
      <trkpt lat="42.13664" lon="9.07855">
        <ele>2042.46</ele>
        <time>2016-09-10T09:35:29Z</time>
      </trkpt>
      <trkpt lat="42.13665" lon="9.07855">
        <ele>2043.42</ele>
        <time>2016-09-10T09:35:37Z</time>
      </trkpt>
      <trkpt lat="42.13665" lon="9.07858">
        <ele>2043.42</ele>
        <time>2016-09-10T09:35:46Z</time>
      </trkpt>
      <trkpt lat="42.13665" lon="9.07858">
        <ele>2043.9</ele>
        <time>2016-09-10T09:35:52Z</time>
      </trkpt>
      <trkpt lat="42.13668" lon="9.07859">
        <ele>2044.38</ele>
        <time>2016-09-10T09:36:00Z</time>
      </trkpt>
      <trkpt lat="42.1367" lon="9.0786">
        <ele>2044.86</ele>
        <time>2016-09-10T09:36:08Z</time>
      </trkpt>
      <trkpt lat="42.13672" lon="9.07861">
        <ele>2045.82</ele>
        <time>2016-09-10T09:36:18Z</time>
      </trkpt>
      <trkpt lat="42.13673" lon="9.0786">
        <ele>2046.78</ele>
        <time>2016-09-10T09:36:26Z</time>
      </trkpt>
      <trkpt lat="42.13674" lon="9.07859">
        <ele>2048.23</ele>
        <time>2016-09-10T09:36:35Z</time>
      </trkpt>
      <trkpt lat="42.13676" lon="9.07858">
        <ele>2049.19</ele>
        <time>2016-09-10T09:36:44Z</time>
      </trkpt>
      <trkpt lat="42.13678" lon="9.07856">
        <ele>2051.11</ele>
        <time>2016-09-10T09:36:52Z</time>
      </trkpt>
      <trkpt lat="42.13679" lon="9.07853">
        <ele>2052.07</ele>
        <time>2016-09-10T09:37:00Z</time>
      </trkpt>
      <trkpt lat="42.13678" lon="9.07851">
        <ele>2053.03</ele>
        <time>2016-09-10T09:37:08Z</time>
      </trkpt>
      <trkpt lat="42.13678" lon="9.07847">
        <ele>2053.03</ele>
        <time>2016-09-10T09:37:16Z</time>
      </trkpt>
      <trkpt lat="42.13677" lon="9.07842">
        <ele>2054.47</ele>
        <time>2016-09-10T09:37:26Z</time>
      </trkpt>
      <trkpt lat="42.13676" lon="9.07841">
        <ele>2054.96</ele>
        <time>2016-09-10T09:37:35Z</time>
      </trkpt>
      <trkpt lat="42.13675" lon="9.07838">
        <ele>2055.92</ele>
        <time>2016-09-10T09:37:42Z</time>
      </trkpt>
      <trkpt lat="42.13677" lon="9.07837">
        <ele>2056.4</ele>
        <time>2016-09-10T09:37:50Z</time>
      </trkpt>
      <trkpt lat="42.13678" lon="9.07837">
        <ele>2057.36</ele>
        <time>2016-09-10T09:37:57Z</time>
      </trkpt>
      <trkpt lat="42.13679" lon="9.07837">
        <ele>2057.84</ele>
        <time>2016-09-10T09:38:09Z</time>
      </trkpt>
      <trkpt lat="42.1368" lon="9.07837">
        <ele>2059.28</ele>
        <time>2016-09-10T09:38:16Z</time>
      </trkpt>
      <trkpt lat="42.13682" lon="9.07834">
        <ele>2059.76</ele>
        <time>2016-09-10T09:38:23Z</time>
      </trkpt>
      <trkpt lat="42.13683" lon="9.07834">
        <ele>2060.24</ele>
        <time>2016-09-10T09:38:29Z</time>
      </trkpt>
      <trkpt lat="42.1368" lon="9.07832">
        <ele>2061.68</ele>
        <time>2016-09-10T09:38:38Z</time>
      </trkpt>
      <trkpt lat="42.13681" lon="9.07829">
        <ele>2061.68</ele>
        <time>2016-09-10T09:38:45Z</time>
      </trkpt>
      <trkpt lat="42.13682" lon="9.07826">
        <ele>2064.09</ele>
        <time>2016-09-10T09:38:54Z</time>
      </trkpt>
      <trkpt lat="42.13683" lon="9.07827">
        <ele>2064.09</ele>
        <time>2016-09-10T09:39:01Z</time>
      </trkpt>
      <trkpt lat="42.13685" lon="9.07828">
        <ele>2064.57</ele>
        <time>2016-09-10T09:39:09Z</time>
      </trkpt>
      <trkpt lat="42.13686" lon="9.07828">
        <ele>2065.53</ele>
        <time>2016-09-10T09:39:18Z</time>
      </trkpt>
      <trkpt lat="42.13687" lon="9.07827">
        <ele>2066.49</ele>
        <time>2016-09-10T09:39:28Z</time>
      </trkpt>
      <trkpt lat="42.13688" lon="9.07823">
        <ele>2067.93</ele>
        <time>2016-09-10T09:39:36Z</time>
      </trkpt>
      <trkpt lat="42.13688" lon="9.0782">
        <ele>2068.89</ele>
        <time>2016-09-10T09:39:41Z</time>
      </trkpt>
      <trkpt lat="42.13689" lon="9.07815">
        <ele>2069.86</ele>
        <time>2016-09-10T09:39:48Z</time>
      </trkpt>
      <trkpt lat="42.13687" lon="9.07811">
        <ele>2071.78</ele>
        <time>2016-09-10T09:39:54Z</time>
      </trkpt>
      <trkpt lat="42.13687" lon="9.07806">
        <ele>2073.22</ele>
        <time>2016-09-10T09:40:01Z</time>
      </trkpt>
      <trkpt lat="42.13684" lon="9.078">
        <ele>2073.7</ele>
        <time>2016-09-10T09:40:09Z</time>
      </trkpt>
      <trkpt lat="42.13682" lon="9.07796">
        <ele>2075.14</ele>
        <time>2016-09-10T09:40:18Z</time>
      </trkpt>
      <trkpt lat="42.13678" lon="9.07791">
        <ele>2075.14</ele>
        <time>2016-09-10T09:40:25Z</time>
      </trkpt>
      <trkpt lat="42.13677" lon="9.0779">
        <ele>2076.1</ele>
        <time>2016-09-10T09:40:33Z</time>
      </trkpt>
      <trkpt lat="42.13677" lon="9.07788">
        <ele>2077.07</ele>
        <time>2016-09-10T09:40:42Z</time>
      </trkpt>
      <trkpt lat="42.13676" lon="9.07784">
        <ele>2077.55</ele>
        <time>2016-09-10T09:40:50Z</time>
      </trkpt>
      <trkpt lat="42.13676" lon="9.07782">
        <ele>2078.99</ele>
        <time>2016-09-10T09:40:59Z</time>
      </trkpt>
      <trkpt lat="42.13675" lon="9.0778">
        <ele>2079.95</ele>
        <time>2016-09-10T09:41:07Z</time>
      </trkpt>
      <trkpt lat="42.13676" lon="9.07778">
        <ele>2079.95</ele>
        <time>2016-09-10T09:41:16Z</time>
      </trkpt>
      <trkpt lat="42.13676" lon="9.07776">
        <ele>2080.91</ele>
        <time>2016-09-10T09:41:26Z</time>
      </trkpt>
      <trkpt lat="42.13676" lon="9.07774">
        <ele>2082.35</ele>
        <time>2016-09-10T09:41:33Z</time>
      </trkpt>
      <trkpt lat="42.13676" lon="9.07769">
        <ele>2083.31</ele>
        <time>2016-09-10T09:41:41Z</time>
      </trkpt>
      <trkpt lat="42.13675" lon="9.07765">
        <ele>2084.76</ele>
        <time>2016-09-10T09:41:49Z</time>
      </trkpt>
      <trkpt lat="42.13675" lon="9.07762">
        <ele>2085.24</ele>
        <time>2016-09-10T09:41:59Z</time>
      </trkpt>
      <trkpt lat="42.13674" lon="9.07757">
        <ele>2086.2</ele>
        <time>2016-09-10T09:42:08Z</time>
      </trkpt>
      <trkpt lat="42.13673" lon="9.07755">
        <ele>2086.68</ele>
        <time>2016-09-10T09:42:16Z</time>
      </trkpt>
      <trkpt lat="42.13672" lon="9.07749">
        <ele>2087.64</ele>
        <time>2016-09-10T09:42:24Z</time>
      </trkpt>
      <trkpt lat="42.13671" lon="9.07747">
        <ele>2088.6</ele>
        <time>2016-09-10T09:42:32Z</time>
      </trkpt>
      <trkpt lat="42.1367" lon="9.07744">
        <ele>2089.08</ele>
        <time>2016-09-10T09:42:41Z</time>
      </trkpt>
      <trkpt lat="42.13667" lon="9.0774">
        <ele>2090.04</ele>
        <time>2016-09-10T09:42:48Z</time>
      </trkpt>
      <trkpt lat="42.13665" lon="9.07737">
        <ele>2090.52</ele>
        <time>2016-09-10T09:42:58Z</time>
      </trkpt>
      <trkpt lat="42.13665" lon="9.07736">
        <ele>2091</ele>
        <time>2016-09-10T09:43:07Z</time>
      </trkpt>
      <trkpt lat="42.13665" lon="9.07735">
        <ele>2092.45</ele>
        <time>2016-09-10T09:43:19Z</time>
      </trkpt>
      <trkpt lat="42.13664" lon="9.07732">
        <ele>2092.93</ele>
        <time>2016-09-10T09:43:28Z</time>
      </trkpt>
      <trkpt lat="42.13664" lon="9.07731">
        <ele>2093.89</ele>
        <time>2016-09-10T09:43:36Z</time>
      </trkpt>
      <trkpt lat="42.13665" lon="9.0773">
        <ele>2094.37</ele>
        <time>2016-09-10T09:43:43Z</time>
      </trkpt>
      <trkpt lat="42.13665" lon="9.07729">
        <ele>2094.85</ele>
        <time>2016-09-10T09:43:53Z</time>
      </trkpt>
      <trkpt lat="42.13666" lon="9.07729">
        <ele>2094.37</ele>
        <time>2016-09-10T09:44:06Z</time>
      </trkpt>
      <trkpt lat="42.13666" lon="9.07729">
        <ele>2094.85</ele>
        <time>2016-09-10T09:44:19Z</time>
      </trkpt>
      <trkpt lat="42.13667" lon="9.07728">
        <ele>2095.33</ele>
        <time>2016-09-10T09:44:29Z</time>
      </trkpt>
      <trkpt lat="42.13668" lon="9.07729">
        <ele>2094.85</ele>
        <time>2016-09-10T09:44:40Z</time>
      </trkpt>
      <trkpt lat="42.13668" lon="9.07728">
        <ele>2096.77</ele>
        <time>2016-09-10T09:44:47Z</time>
      </trkpt>
      <trkpt lat="42.1367" lon="9.07727">
        <ele>2098.21</ele>
        <time>2016-09-10T09:44:55Z</time>
      </trkpt>
      <trkpt lat="42.13671" lon="9.07727">
        <ele>2099.18</ele>
        <time>2016-09-10T09:45:01Z</time>
      </trkpt>
      <trkpt lat="42.13672" lon="9.07727">
        <ele>2098.7</ele>
        <time>2016-09-10T09:45:13Z</time>
      </trkpt>
      <trkpt lat="42.13672" lon="9.07725">
        <ele>2099.18</ele>
        <time>2016-09-10T09:45:30Z</time>
      </trkpt>
      <trkpt lat="42.13674" lon="9.07727">
        <ele>2100.14</ele>
        <time>2016-09-10T09:45:37Z</time>
      </trkpt>
      <trkpt lat="42.13675" lon="9.07727">
        <ele>2101.1</ele>
        <time>2016-09-10T09:45:45Z</time>
      </trkpt>
      <trkpt lat="42.13677" lon="9.07728">
        <ele>2102.54</ele>
        <time>2016-09-10T09:45:52Z</time>
      </trkpt>
      <trkpt lat="42.13678" lon="9.07725">
        <ele>2103.5</ele>
        <time>2016-09-10T09:46:00Z</time>
      </trkpt>
      <trkpt lat="42.13679" lon="9.07723">
        <ele>2103.98</ele>
        <time>2016-09-10T09:46:07Z</time>
      </trkpt>
      <trkpt lat="42.1368" lon="9.07723">
        <ele>2104.46</ele>
        <time>2016-09-10T09:46:20Z</time>
      </trkpt>
      <trkpt lat="42.1368" lon="9.07722">
        <ele>2103.98</ele>
        <time>2016-09-10T09:46:28Z</time>
      </trkpt>
      <trkpt lat="42.1368" lon="9.07722">
        <ele>2103.98</ele>
        <time>2016-09-10T09:46:41Z</time>
      </trkpt>
      <trkpt lat="42.1368" lon="9.07721">
        <ele>2103.98</ele>
        <time>2016-09-10T09:46:55Z</time>
      </trkpt>
      <trkpt lat="42.1368" lon="9.07721">
        <ele>2103.5</ele>
        <time>2016-09-10T09:47:08Z</time>
      </trkpt>
      <trkpt lat="42.1368" lon="9.07721">
        <ele>2103.02</ele>
        <time>2016-09-10T09:47:20Z</time>
      </trkpt>
      <trkpt lat="42.1368" lon="9.0772">
        <ele>2102.54</ele>
        <time>2016-09-10T09:47:29Z</time>
      </trkpt>
      <trkpt lat="42.1368" lon="9.07719">
        <ele>2102.54</ele>
        <time>2016-09-10T09:47:39Z</time>
      </trkpt>
      <trkpt lat="42.1368" lon="9.07719">
        <ele>2103.5</ele>
        <time>2016-09-10T09:47:49Z</time>
      </trkpt>
      <trkpt lat="42.1368" lon="9.07718">
        <ele>2103.02</ele>
        <time>2016-09-10T09:48:08Z</time>
      </trkpt>
      <trkpt lat="42.1368" lon="9.07718">
        <ele>2103.02</ele>
        <time>2016-09-10T09:48:29Z</time>
      </trkpt>
      <trkpt lat="42.1368" lon="9.07717">
        <ele>2102.54</ele>
        <time>2016-09-10T09:48:47Z</time>
      </trkpt>
      <trkpt lat="42.1368" lon="9.07717">
        <ele>2103.02</ele>
        <time>2016-09-10T09:49:00Z</time>
      </trkpt>
      <trkpt lat="42.13679" lon="9.07717">
        <ele>2103.02</ele>
        <time>2016-09-10T09:49:12Z</time>
      </trkpt>
      <trkpt lat="42.1368" lon="9.07717">
        <ele>2103.02</ele>
        <time>2016-09-10T09:49:26Z</time>
      </trkpt>
      <trkpt lat="42.13681" lon="9.07716">
        <ele>2103.02</ele>
        <time>2016-09-10T09:49:41Z</time>
      </trkpt>
      <trkpt lat="42.13681" lon="9.07716">
        <ele>2103.5</ele>
        <time>2016-09-10T09:49:55Z</time>
      </trkpt>
      <trkpt lat="42.13681" lon="9.07716">
        <ele>2103.02</ele>
        <time>2016-09-10T09:50:06Z</time>
      </trkpt>
      <trkpt lat="42.13681" lon="9.07716">
        <ele>2103.5</ele>
        <time>2016-09-10T09:50:21Z</time>
      </trkpt>
      <trkpt lat="42.13681" lon="9.07716">
        <ele>2103.5</ele>
        <time>2016-09-10T09:50:38Z</time>
      </trkpt>
      <trkpt lat="42.13681" lon="9.07716">
        <ele>2103.5</ele>
        <time>2016-09-10T09:50:52Z</time>
      </trkpt>
      <trkpt lat="42.13682" lon="9.07716">
        <ele>2103.02</ele>
        <time>2016-09-10T09:51:06Z</time>
      </trkpt>
      <trkpt lat="42.13682" lon="9.07716">
        <ele>2103.5</ele>
        <time>2016-09-10T09:51:19Z</time>
      </trkpt>
      <trkpt lat="42.13681" lon="9.07717">
        <ele>2103.5</ele>
        <time>2016-09-10T09:51:26Z</time>
      </trkpt>
      <trkpt lat="42.1368" lon="9.07718">
        <ele>2104.94</ele>
        <time>2016-09-10T09:51:38Z</time>
      </trkpt>
      <trkpt lat="42.1368" lon="9.07719">
        <ele>2104.46</ele>
        <time>2016-09-10T09:51:51Z</time>
      </trkpt>
      <trkpt lat="42.1368" lon="9.07719">
        <ele>2104.46</ele>
        <time>2016-09-10T09:52:10Z</time>
      </trkpt>
      <trkpt lat="42.13679" lon="9.07719">
        <ele>2104.94</ele>
        <time>2016-09-10T09:52:19Z</time>
      </trkpt>
      <trkpt lat="42.13679" lon="9.0772">
        <ele>2104.94</ele>
        <time>2016-09-10T09:52:28Z</time>
      </trkpt>
      <trkpt lat="42.13679" lon="9.0772">
        <ele>2104.46</ele>
        <time>2016-09-10T09:52:43Z</time>
      </trkpt>
      <trkpt lat="42.13679" lon="9.0772">
        <ele>2104.46</ele>
        <time>2016-09-10T09:52:59Z</time>
      </trkpt>
      <trkpt lat="42.13679" lon="9.0772">
        <ele>2104.46</ele>
        <time>2016-09-10T09:53:13Z</time>
      </trkpt>
      <trkpt lat="42.13679" lon="9.0772">
        <ele>2104.46</ele>
        <time>2016-09-10T09:53:27Z</time>
      </trkpt>
      <trkpt lat="42.13679" lon="9.0772">
        <ele>2103.98</ele>
        <time>2016-09-10T09:53:42Z</time>
      </trkpt>
      <trkpt lat="42.1368" lon="9.07719">
        <ele>2104.46</ele>
        <time>2016-09-10T09:53:54Z</time>
      </trkpt>
      <trkpt lat="42.1368" lon="9.07719">
        <ele>2104.46</ele>
        <time>2016-09-10T09:54:11Z</time>
      </trkpt>
      <trkpt lat="42.1368" lon="9.07718">
        <ele>2104.46</ele>
        <time>2016-09-10T09:54:32Z</time>
      </trkpt>
      <trkpt lat="42.1368" lon="9.07718">
        <ele>2104.94</ele>
        <time>2016-09-10T09:54:46Z</time>
      </trkpt>
      <trkpt lat="42.1368" lon="9.07719">
        <ele>2105.42</ele>
        <time>2016-09-10T09:54:56Z</time>
      </trkpt>
      <trkpt lat="42.13679" lon="9.07719">
        <ele>2105.42</ele>
        <time>2016-09-10T09:55:07Z</time>
      </trkpt>
      <trkpt lat="42.13679" lon="9.0772">
        <ele>2106.39</ele>
        <time>2016-09-10T09:55:16Z</time>
      </trkpt>
      <trkpt lat="42.13679" lon="9.07719">
        <ele>2105.91</ele>
        <time>2016-09-10T09:55:23Z</time>
      </trkpt>
      <trkpt lat="42.13678" lon="9.0772">
        <ele>2106.87</ele>
        <time>2016-09-10T09:55:32Z</time>
      </trkpt>
      <trkpt lat="42.13678" lon="9.0772">
        <ele>2107.35</ele>
        <time>2016-09-10T09:55:39Z</time>
      </trkpt>
      <trkpt lat="42.13677" lon="9.07719">
        <ele>2107.35</ele>
        <time>2016-09-10T09:55:56Z</time>
      </trkpt>
      <trkpt lat="42.13677" lon="9.07719">
        <ele>2106.87</ele>
        <time>2016-09-10T09:56:08Z</time>
      </trkpt>
      <trkpt lat="42.13677" lon="9.07719">
        <ele>2107.35</ele>
        <time>2016-09-10T09:56:16Z</time>
      </trkpt>
      <trkpt lat="42.13676" lon="9.07718">
        <ele>2107.35</ele>
        <time>2016-09-10T09:56:26Z</time>
      </trkpt>
      <trkpt lat="42.13676" lon="9.07717">
        <ele>2107.83</ele>
        <time>2016-09-10T09:56:39Z</time>
      </trkpt>
      <trkpt lat="42.13675" lon="9.07716">
        <ele>2107.83</ele>
        <time>2016-09-10T09:56:49Z</time>
      </trkpt>
      <trkpt lat="42.13675" lon="9.07715">
        <ele>2107.83</ele>
        <time>2016-09-10T09:57:03Z</time>
      </trkpt>
      <trkpt lat="42.13674" lon="9.07714">
        <ele>2107.83</ele>
        <time>2016-09-10T09:57:18Z</time>
      </trkpt>
      <trkpt lat="42.13674" lon="9.07714">
        <ele>2107.35</ele>
        <time>2016-09-10T09:57:32Z</time>
      </trkpt>
      <trkpt lat="42.13673" lon="9.07713">
        <ele>2107.83</ele>
        <time>2016-09-10T09:57:40Z</time>
      </trkpt>
      <trkpt lat="42.13673" lon="9.07713">
        <ele>2108.31</ele>
        <time>2016-09-10T09:57:51Z</time>
      </trkpt>
      <trkpt lat="42.13673" lon="9.07713">
        <ele>2108.79</ele>
        <time>2016-09-10T09:58:02Z</time>
      </trkpt>
      <trkpt lat="42.13673" lon="9.07713">
        <ele>2107.83</ele>
        <time>2016-09-10T09:58:16Z</time>
      </trkpt>
      <trkpt lat="42.13673" lon="9.07713">
        <ele>2108.31</ele>
        <time>2016-09-10T09:58:29Z</time>
      </trkpt>
      <trkpt lat="42.13673" lon="9.07712">
        <ele>2108.79</ele>
        <time>2016-09-10T09:58:42Z</time>
      </trkpt>
      <trkpt lat="42.13673" lon="9.07712">
        <ele>2109.27</ele>
        <time>2016-09-10T09:58:53Z</time>
      </trkpt>
      <trkpt lat="42.13673" lon="9.07712">
        <ele>2108.31</ele>
        <time>2016-09-10T09:59:04Z</time>
      </trkpt>
      <trkpt lat="42.13674" lon="9.07712">
        <ele>2109.27</ele>
        <time>2016-09-10T09:59:22Z</time>
      </trkpt>
      <trkpt lat="42.13673" lon="9.07712">
        <ele>2108.79</ele>
        <time>2016-09-10T09:59:39Z</time>
      </trkpt>
      <trkpt lat="42.13673" lon="9.07712">
        <ele>2108.79</ele>
        <time>2016-09-10T09:59:54Z</time>
      </trkpt>
      <trkpt lat="42.13673" lon="9.07712">
        <ele>2108.79</ele>
        <time>2016-09-10T10:00:04Z</time>
      </trkpt>
      <trkpt lat="42.13673" lon="9.07712">
        <ele>2109.27</ele>
        <time>2016-09-10T10:00:21Z</time>
      </trkpt>
      <trkpt lat="42.13673" lon="9.07712">
        <ele>2109.27</ele>
        <time>2016-09-10T10:00:42Z</time>
      </trkpt>
      <trkpt lat="42.13673" lon="9.07712">
        <ele>2109.27</ele>
        <time>2016-09-10T10:00:58Z</time>
      </trkpt>
      <trkpt lat="42.13673" lon="9.07712">
        <ele>2108.79</ele>
        <time>2016-09-10T10:01:14Z</time>
      </trkpt>
      <trkpt lat="42.13673" lon="9.07712">
        <ele>2108.31</ele>
        <time>2016-09-10T10:01:26Z</time>
      </trkpt>
      <trkpt lat="42.13673" lon="9.07712">
        <ele>2108.31</ele>
        <time>2016-09-10T10:01:38Z</time>
      </trkpt>
      <trkpt lat="42.13673" lon="9.07712">
        <ele>2108.79</ele>
        <time>2016-09-10T10:01:52Z</time>
      </trkpt>
      <trkpt lat="42.13673" lon="9.07711">
        <ele>2108.79</ele>
        <time>2016-09-10T10:02:11Z</time>
      </trkpt>
      <trkpt lat="42.13673" lon="9.07712">
        <ele>2109.27</ele>
        <time>2016-09-10T10:02:29Z</time>
      </trkpt>
      <trkpt lat="42.13673" lon="9.07712">
        <ele>2108.79</ele>
        <time>2016-09-10T10:02:43Z</time>
      </trkpt>
      <trkpt lat="42.13673" lon="9.07712">
        <ele>2109.27</ele>
        <time>2016-09-10T10:03:01Z</time>
      </trkpt>
      <trkpt lat="42.13673" lon="9.07712">
        <ele>2108.79</ele>
        <time>2016-09-10T10:03:13Z</time>
      </trkpt>
      <trkpt lat="42.13673" lon="9.07712">
        <ele>2108.79</ele>
        <time>2016-09-10T10:03:26Z</time>
      </trkpt>
      <trkpt lat="42.13673" lon="9.07712">
        <ele>2107.83</ele>
        <time>2016-09-10T10:03:38Z</time>
      </trkpt>
      <trkpt lat="42.13673" lon="9.07712">
        <ele>2108.31</ele>
        <time>2016-09-10T10:03:55Z</time>
      </trkpt>
      <trkpt lat="42.13673" lon="9.07713">
        <ele>2108.79</ele>
        <time>2016-09-10T10:04:06Z</time>
      </trkpt>
      <trkpt lat="42.13673" lon="9.07713">
        <ele>2109.27</ele>
        <time>2016-09-10T10:04:15Z</time>
      </trkpt>
      <trkpt lat="42.13673" lon="9.07713">
        <ele>2108.79</ele>
        <time>2016-09-10T10:04:31Z</time>
      </trkpt>
      <trkpt lat="42.13673" lon="9.07713">
        <ele>2109.27</ele>
        <time>2016-09-10T10:04:43Z</time>
      </trkpt>
      <trkpt lat="42.13673" lon="9.07713">
        <ele>2108.79</ele>
        <time>2016-09-10T10:04:56Z</time>
      </trkpt>
      <trkpt lat="42.13673" lon="9.07713">
        <ele>2109.27</ele>
        <time>2016-09-10T10:05:12Z</time>
      </trkpt>
      <trkpt lat="42.13673" lon="9.07712">
        <ele>2109.27</ele>
        <time>2016-09-10T10:05:25Z</time>
      </trkpt>
      <trkpt lat="42.13673" lon="9.07712">
        <ele>2109.75</ele>
        <time>2016-09-10T10:05:37Z</time>
      </trkpt>
      <trkpt lat="42.13674" lon="9.07714">
        <ele>2108.79</ele>
        <time>2016-09-10T10:05:43Z</time>
      </trkpt>
      <trkpt lat="42.13674" lon="9.07714">
        <ele>2109.27</ele>
        <time>2016-09-10T10:05:57Z</time>
      </trkpt>
      <trkpt lat="42.13674" lon="9.07714">
        <ele>2109.27</ele>
        <time>2016-09-10T10:06:09Z</time>
      </trkpt>
      <trkpt lat="42.13674" lon="9.07714">
        <ele>2108.79</ele>
        <time>2016-09-10T10:06:23Z</time>
      </trkpt>
      <trkpt lat="42.13673" lon="9.07714">
        <ele>2109.27</ele>
        <time>2016-09-10T10:06:35Z</time>
      </trkpt>
      <trkpt lat="42.13672" lon="9.07714">
        <ele>2109.27</ele>
        <time>2016-09-10T10:06:45Z</time>
      </trkpt>
      <trkpt lat="42.13672" lon="9.07714">
        <ele>2109.75</ele>
        <time>2016-09-10T10:06:59Z</time>
      </trkpt>
      <trkpt lat="42.13672" lon="9.07714">
        <ele>2109.75</ele>
        <time>2016-09-10T10:07:12Z</time>
      </trkpt>
      <trkpt lat="42.13672" lon="9.07714">
        <ele>2109.75</ele>
        <time>2016-09-10T10:07:23Z</time>
      </trkpt>
      <trkpt lat="42.13672" lon="9.07713">
        <ele>2110.23</ele>
        <time>2016-09-10T10:07:35Z</time>
      </trkpt>
      <trkpt lat="42.13672" lon="9.07713">
        <ele>2109.75</ele>
        <time>2016-09-10T10:07:47Z</time>
      </trkpt>
      <trkpt lat="42.13672" lon="9.07713">
        <ele>2109.27</ele>
        <time>2016-09-10T10:08:02Z</time>
      </trkpt>
      <trkpt lat="42.13672" lon="9.07713">
        <ele>2109.75</ele>
        <time>2016-09-10T10:08:19Z</time>
      </trkpt>
      <trkpt lat="42.13672" lon="9.07713">
        <ele>2109.75</ele>
        <time>2016-09-10T10:08:32Z</time>
      </trkpt>
      <trkpt lat="42.13672" lon="9.07713">
        <ele>2109.75</ele>
        <time>2016-09-10T10:08:47Z</time>
      </trkpt>
      <trkpt lat="42.13672" lon="9.07713">
        <ele>2109.75</ele>
        <time>2016-09-10T10:09:03Z</time>
      </trkpt>
      <trkpt lat="42.13672" lon="9.07713">
        <ele>2110.23</ele>
        <time>2016-09-10T10:09:16Z</time>
      </trkpt>
      <trkpt lat="42.13673" lon="9.07713">
        <ele>2109.75</ele>
        <time>2016-09-10T10:09:36Z</time>
      </trkpt>
      <trkpt lat="42.13673" lon="9.07712">
        <ele>2110.23</ele>
        <time>2016-09-10T10:09:55Z</time>
      </trkpt>
      <trkpt lat="42.13673" lon="9.07712">
        <ele>2109.75</ele>
        <time>2016-09-10T10:10:09Z</time>
      </trkpt>
      <trkpt lat="42.13671" lon="9.07717">
        <ele>2110.23</ele>
        <time>2016-09-10T10:10:19Z</time>
      </trkpt>
      <trkpt lat="42.13672" lon="9.07716">
        <ele>2110.71</ele>
        <time>2016-09-10T10:10:31Z</time>
      </trkpt>
      <trkpt lat="42.13673" lon="9.07712">
        <ele>2110.23</ele>
        <time>2016-09-10T10:10:42Z</time>
      </trkpt>
      <trkpt lat="42.13672" lon="9.07712">
        <ele>2110.23</ele>
        <time>2016-09-10T10:10:56Z</time>
      </trkpt>
      <trkpt lat="42.13671" lon="9.07713">
        <ele>2109.75</ele>
        <time>2016-09-10T10:11:03Z</time>
      </trkpt>
      <trkpt lat="42.13671" lon="9.07713">
        <ele>2110.71</ele>
        <time>2016-09-10T10:11:13Z</time>
      </trkpt>
      <trkpt lat="42.13672" lon="9.07713">
        <ele>2110.23</ele>
        <time>2016-09-10T10:11:25Z</time>
      </trkpt>
      <trkpt lat="42.13672" lon="9.07713">
        <ele>2110.23</ele>
        <time>2016-09-10T10:11:43Z</time>
      </trkpt>
      <trkpt lat="42.13672" lon="9.07713">
        <ele>2110.23</ele>
        <time>2016-09-10T10:12:01Z</time>
      </trkpt>
      <trkpt lat="42.13673" lon="9.07713">
        <ele>2110.71</ele>
        <time>2016-09-10T10:12:20Z</time>
      </trkpt>
      <trkpt lat="42.13672" lon="9.07713">
        <ele>2110.71</ele>
        <time>2016-09-10T10:12:33Z</time>
      </trkpt>
      <trkpt lat="42.13672" lon="9.07713">
        <ele>2110.23</ele>
        <time>2016-09-10T10:12:40Z</time>
      </trkpt>
      <trkpt lat="42.13672" lon="9.07713">
        <ele>2110.71</ele>
        <time>2016-09-10T10:12:49Z</time>
      </trkpt>
      <trkpt lat="42.13672" lon="9.07713">
        <ele>2110.71</ele>
        <time>2016-09-10T10:12:55Z</time>
      </trkpt>
      <trkpt lat="42.13672" lon="9.07713">
        <ele>2110.71</ele>
        <time>2016-09-10T10:13:06Z</time>
      </trkpt>
      <trkpt lat="42.13672" lon="9.07713">
        <ele>2109.75</ele>
        <time>2016-09-10T10:13:15Z</time>
      </trkpt>
      <trkpt lat="42.13672" lon="9.07713">
        <ele>2110.23</ele>
        <time>2016-09-10T10:13:32Z</time>
      </trkpt>
      <trkpt lat="42.13672" lon="9.07713">
        <ele>2110.23</ele>
        <time>2016-09-10T10:13:46Z</time>
      </trkpt>
      <trkpt lat="42.13672" lon="9.07713">
        <ele>2110.71</ele>
        <time>2016-09-10T10:13:56Z</time>
      </trkpt>
      <trkpt lat="42.13672" lon="9.07713">
        <ele>2110.23</ele>
        <time>2016-09-10T10:14:07Z</time>
      </trkpt>
      <trkpt lat="42.13672" lon="9.07713">
        <ele>2110.71</ele>
        <time>2016-09-10T10:14:23Z</time>
      </trkpt>
      <trkpt lat="42.13672" lon="9.07712">
        <ele>2110.71</ele>
        <time>2016-09-10T10:14:33Z</time>
      </trkpt>
      <trkpt lat="42.13672" lon="9.07713">
        <ele>2110.71</ele>
        <time>2016-09-10T10:14:45Z</time>
      </trkpt>
      <trkpt lat="42.13673" lon="9.07713">
        <ele>2110.71</ele>
        <time>2016-09-10T10:14:59Z</time>
      </trkpt>
      <trkpt lat="42.13673" lon="9.07713">
        <ele>2111.19</ele>
        <time>2016-09-10T10:15:14Z</time>
      </trkpt>
      <trkpt lat="42.13673" lon="9.07713">
        <ele>2111.19</ele>
        <time>2016-09-10T10:15:29Z</time>
      </trkpt>
      <trkpt lat="42.13673" lon="9.07713">
        <ele>2110.71</ele>
        <time>2016-09-10T10:15:43Z</time>
      </trkpt>
      <trkpt lat="42.13672" lon="9.07713">
        <ele>2111.19</ele>
        <time>2016-09-10T10:16:00Z</time>
      </trkpt>
      <trkpt lat="42.13672" lon="9.07713">
        <ele>2111.19</ele>
        <time>2016-09-10T10:16:11Z</time>
      </trkpt>
      <trkpt lat="42.13672" lon="9.07713">
        <ele>2111.67</ele>
        <time>2016-09-10T10:16:25Z</time>
      </trkpt>
      <trkpt lat="42.13672" lon="9.07713">
        <ele>2111.19</ele>
        <time>2016-09-10T10:16:44Z</time>
      </trkpt>
      <trkpt lat="42.13672" lon="9.07713">
        <ele>2111.19</ele>
        <time>2016-09-10T10:17:02Z</time>
      </trkpt>
      <trkpt lat="42.13672" lon="9.07714">
        <ele>2110.71</ele>
        <time>2016-09-10T10:17:11Z</time>
      </trkpt>
      <trkpt lat="42.13672" lon="9.07714">
        <ele>2111.19</ele>
        <time>2016-09-10T10:17:23Z</time>
      </trkpt>
      <trkpt lat="42.13672" lon="9.07714">
        <ele>2111.19</ele>
        <time>2016-09-10T10:17:34Z</time>
      </trkpt>
      <trkpt lat="42.13672" lon="9.07714">
        <ele>2111.19</ele>
        <time>2016-09-10T10:17:43Z</time>
      </trkpt>
      <trkpt lat="42.13672" lon="9.07714">
        <ele>2111.19</ele>
        <time>2016-09-10T10:17:55Z</time>
      </trkpt>
      <trkpt lat="42.13672" lon="9.07714">
        <ele>2112.15</ele>
        <time>2016-09-10T10:18:16Z</time>
      </trkpt>
      <trkpt lat="42.13672" lon="9.07714">
        <ele>2111.67</ele>
        <time>2016-09-10T10:18:30Z</time>
      </trkpt>
      <trkpt lat="42.13673" lon="9.07714">
        <ele>2111.67</ele>
        <time>2016-09-10T10:18:46Z</time>
      </trkpt>
      <trkpt lat="42.13672" lon="9.07714">
        <ele>2111.67</ele>
        <time>2016-09-10T10:19:03Z</time>
      </trkpt>
      <trkpt lat="42.13673" lon="9.07714">
        <ele>2111.67</ele>
        <time>2016-09-10T10:19:19Z</time>
      </trkpt>
      <trkpt lat="42.13673" lon="9.07714">
        <ele>2111.67</ele>
        <time>2016-09-10T10:19:34Z</time>
      </trkpt>
      <trkpt lat="42.13673" lon="9.07713">
        <ele>2111.67</ele>
        <time>2016-09-10T10:19:52Z</time>
      </trkpt>
      <trkpt lat="42.13673" lon="9.07712">
        <ele>2111.67</ele>
        <time>2016-09-10T10:20:05Z</time>
      </trkpt>
      <trkpt lat="42.13673" lon="9.07712">
        <ele>2111.67</ele>
        <time>2016-09-10T10:20:19Z</time>
      </trkpt>
      <trkpt lat="42.13673" lon="9.07712">
        <ele>2111.19</ele>
        <time>2016-09-10T10:20:35Z</time>
      </trkpt>
      <trkpt lat="42.13673" lon="9.07712">
        <ele>2111.67</ele>
        <time>2016-09-10T10:20:50Z</time>
      </trkpt>
      <trkpt lat="42.13673" lon="9.07712">
        <ele>2111.19</ele>
        <time>2016-09-10T10:21:06Z</time>
      </trkpt>
      <trkpt lat="42.13673" lon="9.07712">
        <ele>2111.19</ele>
        <time>2016-09-10T10:21:24Z</time>
      </trkpt>
      <trkpt lat="42.13673" lon="9.07712">
        <ele>2111.19</ele>
        <time>2016-09-10T10:21:42Z</time>
      </trkpt>
      <trkpt lat="42.13673" lon="9.07712">
        <ele>2111.19</ele>
        <time>2016-09-10T10:21:58Z</time>
      </trkpt>
      <trkpt lat="42.13673" lon="9.07713">
        <ele>2111.19</ele>
        <time>2016-09-10T10:22:15Z</time>
      </trkpt>
      <trkpt lat="42.13673" lon="9.07712">
        <ele>2111.19</ele>
        <time>2016-09-10T10:22:28Z</time>
      </trkpt>
      <trkpt lat="42.13673" lon="9.07712">
        <ele>2111.19</ele>
        <time>2016-09-10T10:22:41Z</time>
      </trkpt>
      <trkpt lat="42.13673" lon="9.07712">
        <ele>2111.19</ele>
        <time>2016-09-10T10:22:54Z</time>
      </trkpt>
      <trkpt lat="42.13673" lon="9.07712">
        <ele>2112.15</ele>
        <time>2016-09-10T10:23:08Z</time>
      </trkpt>
      <trkpt lat="42.13673" lon="9.07712">
        <ele>2111.19</ele>
        <time>2016-09-10T10:23:25Z</time>
      </trkpt>
      <trkpt lat="42.13674" lon="9.07712">
        <ele>2111.19</ele>
        <time>2016-09-10T10:23:36Z</time>
      </trkpt>
      <trkpt lat="42.13674" lon="9.07712">
        <ele>2111.67</ele>
        <time>2016-09-10T10:23:50Z</time>
      </trkpt>
      <trkpt lat="42.13674" lon="9.07712">
        <ele>2111.67</ele>
        <time>2016-09-10T10:24:09Z</time>
      </trkpt>
      <trkpt lat="42.13674" lon="9.07712">
        <ele>2111.67</ele>
        <time>2016-09-10T10:24:27Z</time>
      </trkpt>
      <trkpt lat="42.13673" lon="9.07712">
        <ele>2112.15</ele>
        <time>2016-09-10T10:24:46Z</time>
      </trkpt>
      <trkpt lat="42.13674" lon="9.07712">
        <ele>2112.15</ele>
        <time>2016-09-10T10:24:54Z</time>
      </trkpt>
      <trkpt lat="42.13674" lon="9.07712">
        <ele>2111.67</ele>
        <time>2016-09-10T10:25:11Z</time>
      </trkpt>
      <trkpt lat="42.13674" lon="9.07712">
        <ele>2111.67</ele>
        <time>2016-09-10T10:25:27Z</time>
      </trkpt>
      <trkpt lat="42.13674" lon="9.07712">
        <ele>2111.67</ele>
        <time>2016-09-10T10:25:44Z</time>
      </trkpt>
      <trkpt lat="42.13674" lon="9.07713">
        <ele>2112.15</ele>
        <time>2016-09-10T10:26:00Z</time>
      </trkpt>
      <trkpt lat="42.13674" lon="9.07712">
        <ele>2112.15</ele>
        <time>2016-09-10T10:26:16Z</time>
      </trkpt>
      <trkpt lat="42.13674" lon="9.07712">
        <ele>2111.67</ele>
        <time>2016-09-10T10:26:29Z</time>
      </trkpt>
      <trkpt lat="42.13674" lon="9.07712">
        <ele>2111.67</ele>
        <time>2016-09-10T10:26:41Z</time>
      </trkpt>
      <trkpt lat="42.13674" lon="9.07712">
        <ele>2111.67</ele>
        <time>2016-09-10T10:26:58Z</time>
      </trkpt>
      <trkpt lat="42.13674" lon="9.07712">
        <ele>2111.67</ele>
        <time>2016-09-10T10:27:12Z</time>
      </trkpt>
      <trkpt lat="42.13674" lon="9.07712">
        <ele>2111.67</ele>
        <time>2016-09-10T10:27:23Z</time>
      </trkpt>
      <trkpt lat="42.13674" lon="9.07712">
        <ele>2112.15</ele>
        <time>2016-09-10T10:27:37Z</time>
      </trkpt>
      <trkpt lat="42.13673" lon="9.07712">
        <ele>2112.15</ele>
        <time>2016-09-10T10:27:54Z</time>
      </trkpt>
      <trkpt lat="42.13674" lon="9.07712">
        <ele>2112.15</ele>
        <time>2016-09-10T10:28:10Z</time>
      </trkpt>
      <trkpt lat="42.13674" lon="9.07712">
        <ele>2111.67</ele>
        <time>2016-09-10T10:28:21Z</time>
      </trkpt>
      <trkpt lat="42.13674" lon="9.07712">
        <ele>2112.63</ele>
        <time>2016-09-10T10:28:38Z</time>
      </trkpt>
      <trkpt lat="42.13674" lon="9.07712">
        <ele>2112.15</ele>
        <time>2016-09-10T10:28:51Z</time>
      </trkpt>
      <trkpt lat="42.13674" lon="9.07712">
        <ele>2112.15</ele>
        <time>2016-09-10T10:29:06Z</time>
      </trkpt>
      <trkpt lat="42.13673" lon="9.07712">
        <ele>2111.67</ele>
        <time>2016-09-10T10:29:22Z</time>
      </trkpt>
      <trkpt lat="42.13673" lon="9.07712">
        <ele>2112.15</ele>
        <time>2016-09-10T10:29:36Z</time>
      </trkpt>
      <trkpt lat="42.13672" lon="9.07712">
        <ele>2111.67</ele>
        <time>2016-09-10T10:29:52Z</time>
      </trkpt>
      <trkpt lat="42.13672" lon="9.07713">
        <ele>2111.67</ele>
        <time>2016-09-10T10:30:05Z</time>
      </trkpt>
      <trkpt lat="42.13672" lon="9.07713">
        <ele>2112.15</ele>
        <time>2016-09-10T10:30:19Z</time>
      </trkpt>
      <trkpt lat="42.13672" lon="9.07713">
        <ele>2112.15</ele>
        <time>2016-09-10T10:30:30Z</time>
      </trkpt>
      <trkpt lat="42.13672" lon="9.07713">
        <ele>2112.15</ele>
        <time>2016-09-10T10:30:46Z</time>
      </trkpt>
      <trkpt lat="42.13672" lon="9.07713">
        <ele>2112.63</ele>
        <time>2016-09-10T10:31:00Z</time>
      </trkpt>
      <trkpt lat="42.13672" lon="9.07714">
        <ele>2112.63</ele>
        <time>2016-09-10T10:31:12Z</time>
      </trkpt>
      <trkpt lat="42.13672" lon="9.07713">
        <ele>2111.67</ele>
        <time>2016-09-10T10:31:27Z</time>
      </trkpt>
      <trkpt lat="42.13672" lon="9.07713">
        <ele>2112.15</ele>
        <time>2016-09-10T10:31:38Z</time>
      </trkpt>
      <trkpt lat="42.13671" lon="9.07713">
        <ele>2112.63</ele>
        <time>2016-09-10T10:31:50Z</time>
      </trkpt>
      <trkpt lat="42.13671" lon="9.07712">
        <ele>2112.63</ele>
        <time>2016-09-10T10:32:04Z</time>
      </trkpt>
      <trkpt lat="42.13672" lon="9.07712">
        <ele>2112.63</ele>
        <time>2016-09-10T10:32:15Z</time>
      </trkpt>
      <trkpt lat="42.13672" lon="9.07712">
        <ele>2112.63</ele>
        <time>2016-09-10T10:32:29Z</time>
      </trkpt>
      <trkpt lat="42.13672" lon="9.07712">
        <ele>2112.15</ele>
        <time>2016-09-10T10:32:44Z</time>
      </trkpt>
      <trkpt lat="42.13672" lon="9.07712">
        <ele>2112.63</ele>
        <time>2016-09-10T10:32:53Z</time>
      </trkpt>
      <trkpt lat="42.13672" lon="9.07712">
        <ele>2112.15</ele>
        <time>2016-09-10T10:33:02Z</time>
      </trkpt>
      <trkpt lat="42.13672" lon="9.07712">
        <ele>2112.15</ele>
        <time>2016-09-10T10:33:15Z</time>
      </trkpt>
      <trkpt lat="42.13672" lon="9.07712">
        <ele>2112.15</ele>
        <time>2016-09-10T10:33:28Z</time>
      </trkpt>
      <trkpt lat="42.13671" lon="9.07711">
        <ele>2112.15</ele>
        <time>2016-09-10T10:33:41Z</time>
      </trkpt>
      <trkpt lat="42.13671" lon="9.07711">
        <ele>2112.63</ele>
        <time>2016-09-10T10:33:54Z</time>
      </trkpt>
      <trkpt lat="42.13671" lon="9.07711">
        <ele>2112.63</ele>
        <time>2016-09-10T10:34:09Z</time>
      </trkpt>
      <trkpt lat="42.13671" lon="9.07711">
        <ele>2112.63</ele>
        <time>2016-09-10T10:34:19Z</time>
      </trkpt>
      <trkpt lat="42.13671" lon="9.07711">
        <ele>2112.63</ele>
        <time>2016-09-10T10:34:38Z</time>
      </trkpt>
      <trkpt lat="42.1367" lon="9.07711">
        <ele>2112.15</ele>
        <time>2016-09-10T10:34:53Z</time>
      </trkpt>
      <trkpt lat="42.13671" lon="9.07711">
        <ele>2111.19</ele>
        <time>2016-09-10T10:35:03Z</time>
      </trkpt>
      <trkpt lat="42.13671" lon="9.07711">
        <ele>2111.67</ele>
        <time>2016-09-10T10:35:13Z</time>
      </trkpt>
      <trkpt lat="42.13671" lon="9.07711">
        <ele>2111.19</ele>
        <time>2016-09-10T10:35:24Z</time>
      </trkpt>
      <trkpt lat="42.13671" lon="9.07711">
        <ele>2111.19</ele>
        <time>2016-09-10T10:35:47Z</time>
      </trkpt>
      <trkpt lat="42.13671" lon="9.07711">
        <ele>2111.19</ele>
        <time>2016-09-10T10:35:57Z</time>
      </trkpt>
      <trkpt lat="42.13671" lon="9.07711">
        <ele>2112.15</ele>
        <time>2016-09-10T10:36:08Z</time>
      </trkpt>
      <trkpt lat="42.13671" lon="9.07712">
        <ele>2111.67</ele>
        <time>2016-09-10T10:36:25Z</time>
      </trkpt>
      <trkpt lat="42.13671" lon="9.07712">
        <ele>2111.19</ele>
        <time>2016-09-10T10:36:37Z</time>
      </trkpt>
      <trkpt lat="42.13671" lon="9.07712">
        <ele>2111.67</ele>
        <time>2016-09-10T10:36:52Z</time>
      </trkpt>
      <trkpt lat="42.13671" lon="9.07712">
        <ele>2111.19</ele>
        <time>2016-09-10T10:37:08Z</time>
      </trkpt>
      <trkpt lat="42.13671" lon="9.07712">
        <ele>2111.19</ele>
        <time>2016-09-10T10:37:20Z</time>
      </trkpt>
      <trkpt lat="42.13671" lon="9.07712">
        <ele>2111.19</ele>
        <time>2016-09-10T10:37:36Z</time>
      </trkpt>
      <trkpt lat="42.13671" lon="9.07712">
        <ele>2111.19</ele>
        <time>2016-09-10T10:37:48Z</time>
      </trkpt>
      <trkpt lat="42.13671" lon="9.07712">
        <ele>2110.71</ele>
        <time>2016-09-10T10:37:58Z</time>
      </trkpt>
      <trkpt lat="42.13671" lon="9.07712">
        <ele>2110.71</ele>
        <time>2016-09-10T10:38:11Z</time>
      </trkpt>
      <trkpt lat="42.13671" lon="9.07713">
        <ele>2111.19</ele>
        <time>2016-09-10T10:38:25Z</time>
      </trkpt>
      <trkpt lat="42.13671" lon="9.07713">
        <ele>2111.19</ele>
        <time>2016-09-10T10:38:34Z</time>
      </trkpt>
      <trkpt lat="42.13671" lon="9.07713">
        <ele>2111.19</ele>
        <time>2016-09-10T10:38:47Z</time>
      </trkpt>
      <trkpt lat="42.13671" lon="9.07712">
        <ele>2111.19</ele>
        <time>2016-09-10T10:38:58Z</time>
      </trkpt>
      <trkpt lat="42.13671" lon="9.07712">
        <ele>2111.67</ele>
        <time>2016-09-10T10:39:17Z</time>
      </trkpt>
      <trkpt lat="42.13671" lon="9.07712">
        <ele>2111.67</ele>
        <time>2016-09-10T10:39:32Z</time>
      </trkpt>
      <trkpt lat="42.13671" lon="9.07712">
        <ele>2111.19</ele>
        <time>2016-09-10T10:39:43Z</time>
      </trkpt>
      <trkpt lat="42.13671" lon="9.07712">
        <ele>2111.19</ele>
        <time>2016-09-10T10:39:57Z</time>
      </trkpt>
      <trkpt lat="42.13671" lon="9.07712">
        <ele>2111.19</ele>
        <time>2016-09-10T10:40:07Z</time>
      </trkpt>
      <trkpt lat="42.13671" lon="9.07712">
        <ele>2111.19</ele>
        <time>2016-09-10T10:40:19Z</time>
      </trkpt>
      <trkpt lat="42.13671" lon="9.07712">
        <ele>2110.71</ele>
        <time>2016-09-10T10:40:31Z</time>
      </trkpt>
      <trkpt lat="42.13672" lon="9.07713">
        <ele>2110.71</ele>
        <time>2016-09-10T10:40:42Z</time>
      </trkpt>
      <trkpt lat="42.13671" lon="9.07714">
        <ele>2110.23</ele>
        <time>2016-09-10T10:40:48Z</time>
      </trkpt>
      <trkpt lat="42.13672" lon="9.07714">
        <ele>2110.23</ele>
        <time>2016-09-10T10:41:03Z</time>
      </trkpt>
      <trkpt lat="42.13674" lon="9.07717">
        <ele>2110.23</ele>
        <time>2016-09-10T10:41:19Z</time>
      </trkpt>
      <trkpt lat="42.13674" lon="9.07719">
        <ele>2109.75</ele>
        <time>2016-09-10T10:41:27Z</time>
      </trkpt>
      <trkpt lat="42.13675" lon="9.0772">
        <ele>2109.75</ele>
        <time>2016-09-10T10:41:34Z</time>
      </trkpt>
      <trkpt lat="42.13676" lon="9.0772">
        <ele>2109.75</ele>
        <time>2016-09-10T10:41:42Z</time>
      </trkpt>
      <trkpt lat="42.13677" lon="9.07719">
        <ele>2108.79</ele>
        <time>2016-09-10T10:41:48Z</time>
      </trkpt>
      <trkpt lat="42.13679" lon="9.07716">
        <ele>2107.35</ele>
        <time>2016-09-10T10:41:56Z</time>
      </trkpt>
      <trkpt lat="42.1368" lon="9.07715">
        <ele>2107.83</ele>
        <time>2016-09-10T10:42:07Z</time>
      </trkpt>
      <trkpt lat="42.13683" lon="9.0771">
        <ele>2107.35</ele>
        <time>2016-09-10T10:42:16Z</time>
      </trkpt>
      <trkpt lat="42.13684" lon="9.07707">
        <ele>2107.35</ele>
        <time>2016-09-10T10:42:22Z</time>
      </trkpt>
      <trkpt lat="42.13686" lon="9.07703">
        <ele>2106.87</ele>
        <time>2016-09-10T10:42:30Z</time>
      </trkpt>
      <trkpt lat="42.13687" lon="9.077">
        <ele>2106.87</ele>
        <time>2016-09-10T10:42:38Z</time>
      </trkpt>
      <trkpt lat="42.13687" lon="9.07695">
        <ele>2105.42</ele>
        <time>2016-09-10T10:42:47Z</time>
      </trkpt>
      <trkpt lat="42.13686" lon="9.07691">
        <ele>2104.94</ele>
        <time>2016-09-10T10:42:55Z</time>
      </trkpt>
      <trkpt lat="42.13686" lon="9.07688">
        <ele>2103.98</ele>
        <time>2016-09-10T10:43:04Z</time>
      </trkpt>
      <trkpt lat="42.13687" lon="9.07686">
        <ele>2102.54</ele>
        <time>2016-09-10T10:43:13Z</time>
      </trkpt>
      <trkpt lat="42.13688" lon="9.07684">
        <ele>2101.58</ele>
        <time>2016-09-10T10:43:22Z</time>
      </trkpt>
      <trkpt lat="42.13689" lon="9.07681">
        <ele>2100.62</ele>
        <time>2016-09-10T10:43:31Z</time>
      </trkpt>
      <trkpt lat="42.13689" lon="9.07675">
        <ele>2099.66</ele>
        <time>2016-09-10T10:43:42Z</time>
      </trkpt>
      <trkpt lat="42.13689" lon="9.07673">
        <ele>2098.21</ele>
        <time>2016-09-10T10:43:49Z</time>
      </trkpt>
      <trkpt lat="42.13689" lon="9.07671">
        <ele>2097.73</ele>
        <time>2016-09-10T10:43:57Z</time>
      </trkpt>
      <trkpt lat="42.13689" lon="9.0767">
        <ele>2097.25</ele>
        <time>2016-09-10T10:44:04Z</time>
      </trkpt>
      <trkpt lat="42.1369" lon="9.07669">
        <ele>2096.29</ele>
        <time>2016-09-10T10:44:12Z</time>
      </trkpt>
      <trkpt lat="42.1369" lon="9.07667">
        <ele>2096.29</ele>
        <time>2016-09-10T10:44:18Z</time>
      </trkpt>
      <trkpt lat="42.1369" lon="9.07666">
        <ele>2095.33</ele>
        <time>2016-09-10T10:44:25Z</time>
      </trkpt>
      <trkpt lat="42.13691" lon="9.07663">
        <ele>2094.37</ele>
        <time>2016-09-10T10:44:33Z</time>
      </trkpt>
      <trkpt lat="42.13692" lon="9.07662">
        <ele>2093.89</ele>
        <time>2016-09-10T10:44:40Z</time>
      </trkpt>
      <trkpt lat="42.13694" lon="9.07661">
        <ele>2092.93</ele>
        <time>2016-09-10T10:44:49Z</time>
      </trkpt>
      <trkpt lat="42.13696" lon="9.07661">
        <ele>2092.45</ele>
        <time>2016-09-10T10:44:56Z</time>
      </trkpt>
      <trkpt lat="42.13698" lon="9.07659">
        <ele>2091.49</ele>
        <time>2016-09-10T10:45:04Z</time>
      </trkpt>
      <trkpt lat="42.13699" lon="9.07658">
        <ele>2090.04</ele>
        <time>2016-09-10T10:45:13Z</time>
      </trkpt>
      <trkpt lat="42.13701" lon="9.07655">
        <ele>2089.08</ele>
        <time>2016-09-10T10:45:20Z</time>
      </trkpt>
      <trkpt lat="42.13699" lon="9.07653">
        <ele>2088.6</ele>
        <time>2016-09-10T10:45:28Z</time>
      </trkpt>
      <trkpt lat="42.13699" lon="9.07652">
        <ele>2087.16</ele>
        <time>2016-09-10T10:45:37Z</time>
      </trkpt>
      <trkpt lat="42.13701" lon="9.07651">
        <ele>2085.72</ele>
        <time>2016-09-10T10:45:45Z</time>
      </trkpt>
      <trkpt lat="42.13702" lon="9.07651">
        <ele>2085.24</ele>
        <time>2016-09-10T10:45:52Z</time>
      </trkpt>
      <trkpt lat="42.13703" lon="9.0765">
        <ele>2084.28</ele>
        <time>2016-09-10T10:46:02Z</time>
      </trkpt>
      <trkpt lat="42.13705" lon="9.07649">
        <ele>2083.31</ele>
        <time>2016-09-10T10:46:11Z</time>
      </trkpt>
      <trkpt lat="42.13708" lon="9.07648">
        <ele>2081.87</ele>
        <time>2016-09-10T10:46:19Z</time>
      </trkpt>
      <trkpt lat="42.1371" lon="9.07646">
        <ele>2081.39</ele>
        <time>2016-09-10T10:46:28Z</time>
      </trkpt>
      <trkpt lat="42.13709" lon="9.07643">
        <ele>2080.91</ele>
        <time>2016-09-10T10:46:34Z</time>
      </trkpt>
      <trkpt lat="42.13707" lon="9.07641">
        <ele>2079.47</ele>
        <time>2016-09-10T10:46:42Z</time>
      </trkpt>
      <trkpt lat="42.13706" lon="9.07641">
        <ele>2079.47</ele>
        <time>2016-09-10T10:46:53Z</time>
      </trkpt>
      <trkpt lat="42.13706" lon="9.0764">
        <ele>2078.03</ele>
        <time>2016-09-10T10:47:03Z</time>
      </trkpt>
      <trkpt lat="42.13706" lon="9.07639">
        <ele>2078.03</ele>
        <time>2016-09-10T10:47:11Z</time>
      </trkpt>
      <trkpt lat="42.13706" lon="9.07638">
        <ele>2076.59</ele>
        <time>2016-09-10T10:47:19Z</time>
      </trkpt>
      <trkpt lat="42.13706" lon="9.07635">
        <ele>2076.1</ele>
        <time>2016-09-10T10:47:25Z</time>
      </trkpt>
      <trkpt lat="42.13706" lon="9.07634">
        <ele>2075.14</ele>
        <time>2016-09-10T10:47:34Z</time>
      </trkpt>
      <trkpt lat="42.13707" lon="9.07631">
        <ele>2073.7</ele>
        <time>2016-09-10T10:47:42Z</time>
      </trkpt>
      <trkpt lat="42.13704" lon="9.07628">
        <ele>2073.7</ele>
        <time>2016-09-10T10:47:49Z</time>
      </trkpt>
      <trkpt lat="42.13704" lon="9.07627">
        <ele>2073.22</ele>
        <time>2016-09-10T10:47:59Z</time>
      </trkpt>
      <trkpt lat="42.13704" lon="9.07627">
        <ele>2072.74</ele>
        <time>2016-09-10T10:48:07Z</time>
      </trkpt>
      <trkpt lat="42.13704" lon="9.07626">
        <ele>2071.3</ele>
        <time>2016-09-10T10:48:15Z</time>
      </trkpt>
      <trkpt lat="42.13704" lon="9.07624">
        <ele>2070.82</ele>
        <time>2016-09-10T10:48:23Z</time>
      </trkpt>
      <trkpt lat="42.13704" lon="9.07623">
        <ele>2070.82</ele>
        <time>2016-09-10T10:48:32Z</time>
      </trkpt>
      <trkpt lat="42.13705" lon="9.07622">
        <ele>2070.34</ele>
        <time>2016-09-10T10:48:43Z</time>
      </trkpt>
      <trkpt lat="42.13704" lon="9.07619">
        <ele>2068.89</ele>
        <time>2016-09-10T10:48:53Z</time>
      </trkpt>
      <trkpt lat="42.13704" lon="9.07619">
        <ele>2068.89</ele>
        <time>2016-09-10T10:49:02Z</time>
      </trkpt>
      <trkpt lat="42.13705" lon="9.07619">
        <ele>2068.41</ele>
        <time>2016-09-10T10:49:10Z</time>
      </trkpt>
      <trkpt lat="42.13707" lon="9.07619">
        <ele>2066.97</ele>
        <time>2016-09-10T10:49:18Z</time>
      </trkpt>
      <trkpt lat="42.13708" lon="9.07618">
        <ele>2065.53</ele>
        <time>2016-09-10T10:49:26Z</time>
      </trkpt>
      <trkpt lat="42.13711" lon="9.07618">
        <ele>2064.57</ele>
        <time>2016-09-10T10:49:34Z</time>
      </trkpt>
      <trkpt lat="42.13711" lon="9.07616">
        <ele>2063.13</ele>
        <time>2016-09-10T10:49:45Z</time>
      </trkpt>
      <trkpt lat="42.13713" lon="9.07615">
        <ele>2062.17</ele>
        <time>2016-09-10T10:49:55Z</time>
      </trkpt>
      <trkpt lat="42.13713" lon="9.07613">
        <ele>2061.68</ele>
        <time>2016-09-10T10:50:01Z</time>
      </trkpt>
      <trkpt lat="42.13714" lon="9.07612">
        <ele>2060.72</ele>
        <time>2016-09-10T10:50:10Z</time>
      </trkpt>
      <trkpt lat="42.13715" lon="9.07612">
        <ele>2059.76</ele>
        <time>2016-09-10T10:50:20Z</time>
      </trkpt>
      <trkpt lat="42.13717" lon="9.07612">
        <ele>2058.8</ele>
        <time>2016-09-10T10:50:28Z</time>
      </trkpt>
      <trkpt lat="42.13719" lon="9.07611">
        <ele>2057.84</ele>
        <time>2016-09-10T10:50:36Z</time>
      </trkpt>
      <trkpt lat="42.13721" lon="9.0761">
        <ele>2057.36</ele>
        <time>2016-09-10T10:50:44Z</time>
      </trkpt>
      <trkpt lat="42.13724" lon="9.07608">
        <ele>2055.44</ele>
        <time>2016-09-10T10:50:53Z</time>
      </trkpt>
      <trkpt lat="42.13726" lon="9.07605">
        <ele>2054.47</ele>
        <time>2016-09-10T10:51:01Z</time>
      </trkpt>
      <trkpt lat="42.13727" lon="9.07605">
        <ele>2052.55</ele>
        <time>2016-09-10T10:51:09Z</time>
      </trkpt>
      <trkpt lat="42.13729" lon="9.07604">
        <ele>2052.07</ele>
        <time>2016-09-10T10:51:17Z</time>
      </trkpt>
      <trkpt lat="42.13732" lon="9.076">
        <ele>2050.15</ele>
        <time>2016-09-10T10:51:25Z</time>
      </trkpt>
      <trkpt lat="42.13736" lon="9.07599">
        <ele>2048.71</ele>
        <time>2016-09-10T10:51:34Z</time>
      </trkpt>
      <trkpt lat="42.13741" lon="9.07598">
        <ele>2047.26</ele>
        <time>2016-09-10T10:51:41Z</time>
      </trkpt>
      <trkpt lat="42.13745" lon="9.07599">
        <ele>2046.3</ele>
        <time>2016-09-10T10:51:50Z</time>
      </trkpt>
      <trkpt lat="42.13748" lon="9.076">
        <ele>2045.82</ele>
        <time>2016-09-10T10:51:59Z</time>
      </trkpt>
      <trkpt lat="42.13749" lon="9.07601">
        <ele>2045.34</ele>
        <time>2016-09-10T10:52:08Z</time>
      </trkpt>
      <trkpt lat="42.13752" lon="9.076">
        <ele>2044.38</ele>
        <time>2016-09-10T10:52:14Z</time>
      </trkpt>
      <trkpt lat="42.13752" lon="9.07599">
        <ele>2043.9</ele>
        <time>2016-09-10T10:52:22Z</time>
      </trkpt>
      <trkpt lat="42.13753" lon="9.07599">
        <ele>2042.94</ele>
        <time>2016-09-10T10:52:31Z</time>
      </trkpt>
      <trkpt lat="42.13753" lon="9.07598">
        <ele>2042.46</ele>
        <time>2016-09-10T10:52:38Z</time>
      </trkpt>
      <trkpt lat="42.13754" lon="9.07598">
        <ele>2041.98</ele>
        <time>2016-09-10T10:52:47Z</time>
      </trkpt>
      <trkpt lat="42.13754" lon="9.07597">
        <ele>2040.05</ele>
        <time>2016-09-10T10:52:57Z</time>
      </trkpt>
      <trkpt lat="42.13754" lon="9.07597">
        <ele>2039.09</ele>
        <time>2016-09-10T10:53:03Z</time>
      </trkpt>
      <trkpt lat="42.13754" lon="9.07596">
        <ele>2039.09</ele>
        <time>2016-09-10T10:53:10Z</time>
      </trkpt>
      <trkpt lat="42.13754" lon="9.07596">
        <ele>2038.13</ele>
        <time>2016-09-10T10:53:19Z</time>
      </trkpt>
      <trkpt lat="42.13753" lon="9.07594">
        <ele>2037.65</ele>
        <time>2016-09-10T10:53:26Z</time>
      </trkpt>
      <trkpt lat="42.13754" lon="9.07593">
        <ele>2036.69</ele>
        <time>2016-09-10T10:53:33Z</time>
      </trkpt>
      <trkpt lat="42.13754" lon="9.07591">
        <ele>2035.73</ele>
        <time>2016-09-10T10:53:42Z</time>
      </trkpt>
      <trkpt lat="42.13754" lon="9.07587">
        <ele>2034.77</ele>
        <time>2016-09-10T10:53:52Z</time>
      </trkpt>
      <trkpt lat="42.13755" lon="9.07585">
        <ele>2033.81</ele>
        <time>2016-09-10T10:54:00Z</time>
      </trkpt>
      <trkpt lat="42.13757" lon="9.07582">
        <ele>2032.36</ele>
        <time>2016-09-10T10:54:09Z</time>
      </trkpt>
      <trkpt lat="42.13758" lon="9.07581">
        <ele>2031.4</ele>
        <time>2016-09-10T10:54:17Z</time>
      </trkpt>
      <trkpt lat="42.13758" lon="9.0758">
        <ele>2030.92</ele>
        <time>2016-09-10T10:54:26Z</time>
      </trkpt>
      <trkpt lat="42.13759" lon="9.0758">
        <ele>2029.96</ele>
        <time>2016-09-10T10:54:35Z</time>
      </trkpt>
      <trkpt lat="42.1376" lon="9.07578">
        <ele>2029.48</ele>
        <time>2016-09-10T10:54:44Z</time>
      </trkpt>
      <trkpt lat="42.13761" lon="9.07576">
        <ele>2029</ele>
        <time>2016-09-10T10:54:52Z</time>
      </trkpt>
      <trkpt lat="42.13764" lon="9.07575">
        <ele>2029.48</ele>
        <time>2016-09-10T10:55:00Z</time>
      </trkpt>
      <trkpt lat="42.13766" lon="9.07574">
        <ele>2028.04</ele>
        <time>2016-09-10T10:55:09Z</time>
      </trkpt>
      <trkpt lat="42.13769" lon="9.07569">
        <ele>2027.08</ele>
        <time>2016-09-10T10:55:16Z</time>
      </trkpt>
      <trkpt lat="42.1377" lon="9.07568">
        <ele>2027.56</ele>
        <time>2016-09-10T10:55:24Z</time>
      </trkpt>
      <trkpt lat="42.13772" lon="9.07567">
        <ele>2028.04</ele>
        <time>2016-09-10T10:55:30Z</time>
      </trkpt>
      <trkpt lat="42.13775" lon="9.07567">
        <ele>2028.04</ele>
        <time>2016-09-10T10:55:40Z</time>
      </trkpt>
      <trkpt lat="42.13777" lon="9.07568">
        <ele>2028.04</ele>
        <time>2016-09-10T10:55:52Z</time>
      </trkpt>
      <trkpt lat="42.13779" lon="9.0757">
        <ele>2026.6</ele>
        <time>2016-09-10T10:56:01Z</time>
      </trkpt>
      <trkpt lat="42.1378" lon="9.07571">
        <ele>2026.12</ele>
        <time>2016-09-10T10:56:11Z</time>
      </trkpt>
      <trkpt lat="42.13781" lon="9.07571">
        <ele>2025.15</ele>
        <time>2016-09-10T10:56:23Z</time>
      </trkpt>
      <trkpt lat="42.13781" lon="9.07572">
        <ele>2025.15</ele>
        <time>2016-09-10T10:56:32Z</time>
      </trkpt>
      <trkpt lat="42.13782" lon="9.07571">
        <ele>2024.19</ele>
        <time>2016-09-10T10:56:40Z</time>
      </trkpt>
      <trkpt lat="42.13783" lon="9.07571">
        <ele>2023.71</ele>
        <time>2016-09-10T10:56:49Z</time>
      </trkpt>
      <trkpt lat="42.13784" lon="9.07572">
        <ele>2023.71</ele>
        <time>2016-09-10T10:56:55Z</time>
      </trkpt>
      <trkpt lat="42.13787" lon="9.07571">
        <ele>2022.75</ele>
        <time>2016-09-10T10:57:02Z</time>
      </trkpt>
      <trkpt lat="42.13791" lon="9.07573">
        <ele>2020.83</ele>
        <time>2016-09-10T10:57:08Z</time>
      </trkpt>
      <trkpt lat="42.13793" lon="9.07574">
        <ele>2021.31</ele>
        <time>2016-09-10T10:57:14Z</time>
      </trkpt>
      <trkpt lat="42.13795" lon="9.07576">
        <ele>2021.79</ele>
        <time>2016-09-10T10:57:22Z</time>
      </trkpt>
      <trkpt lat="42.13798" lon="9.07578">
        <ele>2021.79</ele>
        <time>2016-09-10T10:57:28Z</time>
      </trkpt>
      <trkpt lat="42.138" lon="9.07579">
        <ele>2020.83</ele>
        <time>2016-09-10T10:57:35Z</time>
      </trkpt>
      <trkpt lat="42.13803" lon="9.0758">
        <ele>2019.87</ele>
        <time>2016-09-10T10:57:43Z</time>
      </trkpt>
      <trkpt lat="42.13804" lon="9.07579">
        <ele>2018.91</ele>
        <time>2016-09-10T10:57:52Z</time>
      </trkpt>
      <trkpt lat="42.13806" lon="9.0758">
        <ele>2017.94</ele>
        <time>2016-09-10T10:57:59Z</time>
      </trkpt>
      <trkpt lat="42.1381" lon="9.07581">
        <ele>2017.94</ele>
        <time>2016-09-10T10:58:05Z</time>
      </trkpt>
      <trkpt lat="42.13812" lon="9.07582">
        <ele>2016.98</ele>
        <time>2016-09-10T10:58:10Z</time>
      </trkpt>
      <trkpt lat="42.13814" lon="9.07583">
        <ele>2016.98</ele>
        <time>2016-09-10T10:58:20Z</time>
      </trkpt>
      <trkpt lat="42.13816" lon="9.07584">
        <ele>2016.02</ele>
        <time>2016-09-10T10:58:29Z</time>
      </trkpt>
      <trkpt lat="42.13818" lon="9.07581">
        <ele>2014.58</ele>
        <time>2016-09-10T10:58:37Z</time>
      </trkpt>
      <trkpt lat="42.1382" lon="9.07579">
        <ele>2012.66</ele>
        <time>2016-09-10T10:58:46Z</time>
      </trkpt>
      <trkpt lat="42.13822" lon="9.07579">
        <ele>2011.7</ele>
        <time>2016-09-10T10:58:53Z</time>
      </trkpt>
      <trkpt lat="42.13824" lon="9.07578">
        <ele>2010.73</ele>
        <time>2016-09-10T10:59:00Z</time>
      </trkpt>
      <trkpt lat="42.13827" lon="9.07575">
        <ele>2009.77</ele>
        <time>2016-09-10T10:59:08Z</time>
      </trkpt>
      <trkpt lat="42.13832" lon="9.07575">
        <ele>2008.33</ele>
        <time>2016-09-10T10:59:16Z</time>
      </trkpt>
      <trkpt lat="42.13836" lon="9.07575">
        <ele>2007.37</ele>
        <time>2016-09-10T10:59:24Z</time>
      </trkpt>
      <trkpt lat="42.13841" lon="9.07579">
        <ele>2005.93</ele>
        <time>2016-09-10T10:59:33Z</time>
      </trkpt>
      <trkpt lat="42.13844" lon="9.07578">
        <ele>2005.45</ele>
        <time>2016-09-10T10:59:38Z</time>
      </trkpt>
      <trkpt lat="42.13847" lon="9.07581">
        <ele>2004.49</ele>
        <time>2016-09-10T10:59:46Z</time>
      </trkpt>
      <trkpt lat="42.13848" lon="9.07582">
        <ele>2004.01</ele>
        <time>2016-09-10T10:59:55Z</time>
      </trkpt>
      <trkpt lat="42.13849" lon="9.07581">
        <ele>2003.52</ele>
        <time>2016-09-10T11:00:04Z</time>
      </trkpt>
      <trkpt lat="42.13849" lon="9.07581">
        <ele>2002.56</ele>
        <time>2016-09-10T11:00:11Z</time>
      </trkpt>
      <trkpt lat="42.13852" lon="9.07578">
        <ele>2000.64</ele>
        <time>2016-09-10T11:00:19Z</time>
      </trkpt>
      <trkpt lat="42.13853" lon="9.07578">
        <ele>1999.68</ele>
        <time>2016-09-10T11:00:26Z</time>
      </trkpt>
      <trkpt lat="42.13855" lon="9.07579">
        <ele>1999.2</ele>
        <time>2016-09-10T11:00:40Z</time>
      </trkpt>
      <trkpt lat="42.13857" lon="9.07578">
        <ele>1998.24</ele>
        <time>2016-09-10T11:00:49Z</time>
      </trkpt>
      <trkpt lat="42.13858" lon="9.07576">
        <ele>1997.76</ele>
        <time>2016-09-10T11:00:57Z</time>
      </trkpt>
      <trkpt lat="42.13858" lon="9.07573">
        <ele>1996.8</ele>
        <time>2016-09-10T11:01:04Z</time>
      </trkpt>
      <trkpt lat="42.13859" lon="9.07568">
        <ele>1995.83</ele>
        <time>2016-09-10T11:01:10Z</time>
      </trkpt>
      <trkpt lat="42.13861" lon="9.07567">
        <ele>1994.87</ele>
        <time>2016-09-10T11:01:17Z</time>
      </trkpt>
      <trkpt lat="42.13864" lon="9.07568">
        <ele>1993.91</ele>
        <time>2016-09-10T11:01:26Z</time>
      </trkpt>
      <trkpt lat="42.13867" lon="9.07567">
        <ele>1992.95</ele>
        <time>2016-09-10T11:01:33Z</time>
      </trkpt>
      <trkpt lat="42.13868" lon="9.07566">
        <ele>1992.47</ele>
        <time>2016-09-10T11:01:41Z</time>
      </trkpt>
      <trkpt lat="42.13871" lon="9.07567">
        <ele>1991.51</ele>
        <time>2016-09-10T11:01:48Z</time>
      </trkpt>
      <trkpt lat="42.13874" lon="9.07566">
        <ele>1990.07</ele>
        <time>2016-09-10T11:01:55Z</time>
      </trkpt>
      <trkpt lat="42.13873" lon="9.07564">
        <ele>1989.59</ele>
        <time>2016-09-10T11:02:01Z</time>
      </trkpt>
      <trkpt lat="42.13877" lon="9.07561">
        <ele>1988.14</ele>
        <time>2016-09-10T11:02:08Z</time>
      </trkpt>
      <trkpt lat="42.13884" lon="9.07565">
        <ele>1987.66</ele>
        <time>2016-09-10T11:02:16Z</time>
      </trkpt>
      <trkpt lat="42.13888" lon="9.07568">
        <ele>1987.66</ele>
        <time>2016-09-10T11:02:22Z</time>
      </trkpt>
      <trkpt lat="42.13893" lon="9.07572">
        <ele>1988.14</ele>
        <time>2016-09-10T11:02:31Z</time>
      </trkpt>
      <trkpt lat="42.13895" lon="9.07575">
        <ele>1988.62</ele>
        <time>2016-09-10T11:02:38Z</time>
      </trkpt>
      <trkpt lat="42.13899" lon="9.07574">
        <ele>1987.66</ele>
        <time>2016-09-10T11:02:45Z</time>
      </trkpt>
      <trkpt lat="42.13903" lon="9.07574">
        <ele>1987.66</ele>
        <time>2016-09-10T11:02:54Z</time>
      </trkpt>
      <trkpt lat="42.13905" lon="9.07574">
        <ele>1987.18</ele>
        <time>2016-09-10T11:03:00Z</time>
      </trkpt>
      <trkpt lat="42.13907" lon="9.07573">
        <ele>1986.22</ele>
        <time>2016-09-10T11:03:08Z</time>
      </trkpt>
      <trkpt lat="42.13908" lon="9.07572">
        <ele>1985.26</ele>
        <time>2016-09-10T11:03:16Z</time>
      </trkpt>
      <trkpt lat="42.13909" lon="9.07572">
        <ele>1984.78</ele>
        <time>2016-09-10T11:03:23Z</time>
      </trkpt>
      <trkpt lat="42.13911" lon="9.07571">
        <ele>1983.82</ele>
        <time>2016-09-10T11:03:31Z</time>
      </trkpt>
      <trkpt lat="42.13912" lon="9.07568">
        <ele>1982.38</ele>
        <time>2016-09-10T11:03:38Z</time>
      </trkpt>
      <trkpt lat="42.13914" lon="9.07565">
        <ele>1981.41</ele>
        <time>2016-09-10T11:03:45Z</time>
      </trkpt>
      <trkpt lat="42.13916" lon="9.07563">
        <ele>1979.97</ele>
        <time>2016-09-10T11:03:53Z</time>
      </trkpt>
      <trkpt lat="42.13917" lon="9.07562">
        <ele>1979.49</ele>
        <time>2016-09-10T11:04:00Z</time>
      </trkpt>
      <trkpt lat="42.13919" lon="9.07561">
        <ele>1978.53</ele>
        <time>2016-09-10T11:04:06Z</time>
      </trkpt>
      <trkpt lat="42.13922" lon="9.0756">
        <ele>1977.09</ele>
        <time>2016-09-10T11:04:15Z</time>
      </trkpt>
      <trkpt lat="42.13924" lon="9.07557">
        <ele>1976.61</ele>
        <time>2016-09-10T11:04:21Z</time>
      </trkpt>
      <trkpt lat="42.13927" lon="9.07557">
        <ele>1975.65</ele>
        <time>2016-09-10T11:04:29Z</time>
      </trkpt>
      <trkpt lat="42.13929" lon="9.07556">
        <ele>1974.2</ele>
        <time>2016-09-10T11:04:36Z</time>
      </trkpt>
      <trkpt lat="42.13929" lon="9.07556">
        <ele>1973.72</ele>
        <time>2016-09-10T11:04:44Z</time>
      </trkpt>
      <trkpt lat="42.13932" lon="9.07557">
        <ele>1972.28</ele>
        <time>2016-09-10T11:04:51Z</time>
      </trkpt>
      <trkpt lat="42.13939" lon="9.07553">
        <ele>1971.8</ele>
        <time>2016-09-10T11:04:59Z</time>
      </trkpt>
      <trkpt lat="42.13943" lon="9.0755">
        <ele>1970.84</ele>
        <time>2016-09-10T11:05:06Z</time>
      </trkpt>
      <trkpt lat="42.13949" lon="9.0755">
        <ele>1969.4</ele>
        <time>2016-09-10T11:05:13Z</time>
      </trkpt>
      <trkpt lat="42.13951" lon="9.07551">
        <ele>1968.92</ele>
        <time>2016-09-10T11:05:19Z</time>
      </trkpt>
      <trkpt lat="42.13953" lon="9.0755">
        <ele>1968.44</ele>
        <time>2016-09-10T11:05:27Z</time>
      </trkpt>
      <trkpt lat="42.13957" lon="9.07547">
        <ele>1967.48</ele>
        <time>2016-09-10T11:05:35Z</time>
      </trkpt>
      <trkpt lat="42.1396" lon="9.07546">
        <ele>1966.51</ele>
        <time>2016-09-10T11:05:42Z</time>
      </trkpt>
      <trkpt lat="42.13964" lon="9.07544">
        <ele>1965.55</ele>
        <time>2016-09-10T11:05:51Z</time>
      </trkpt>
      <trkpt lat="42.13969" lon="9.07544">
        <ele>1964.59</ele>
        <time>2016-09-10T11:05:58Z</time>
      </trkpt>
      <trkpt lat="42.1397" lon="9.07544">
        <ele>1963.63</ele>
        <time>2016-09-10T11:06:07Z</time>
      </trkpt>
      <trkpt lat="42.1397" lon="9.07543">
        <ele>1963.15</ele>
        <time>2016-09-10T11:06:21Z</time>
      </trkpt>
      <trkpt lat="42.13973" lon="9.07544">
        <ele>1963.15</ele>
        <time>2016-09-10T11:06:34Z</time>
      </trkpt>
      <trkpt lat="42.13976" lon="9.07544">
        <ele>1962.67</ele>
        <time>2016-09-10T11:06:42Z</time>
      </trkpt>
      <trkpt lat="42.13978" lon="9.07543">
        <ele>1961.23</ele>
        <time>2016-09-10T11:06:50Z</time>
      </trkpt>
      <trkpt lat="42.13983" lon="9.07544">
        <ele>1960.75</ele>
        <time>2016-09-10T11:06:58Z</time>
      </trkpt>
      <trkpt lat="42.13986" lon="9.07545">
        <ele>1959.78</ele>
        <time>2016-09-10T11:07:05Z</time>
      </trkpt>
      <trkpt lat="42.13988" lon="9.07544">
        <ele>1959.3</ele>
        <time>2016-09-10T11:07:12Z</time>
      </trkpt>
      <trkpt lat="42.13992" lon="9.07543">
        <ele>1958.82</ele>
        <time>2016-09-10T11:07:19Z</time>
      </trkpt>
      <trkpt lat="42.13994" lon="9.07543">
        <ele>1957.86</ele>
        <time>2016-09-10T11:07:26Z</time>
      </trkpt>
      <trkpt lat="42.13998" lon="9.07543">
        <ele>1957.38</ele>
        <time>2016-09-10T11:07:33Z</time>
      </trkpt>
      <trkpt lat="42.14002" lon="9.07543">
        <ele>1956.9</ele>
        <time>2016-09-10T11:07:42Z</time>
      </trkpt>
      <trkpt lat="42.14003" lon="9.07541">
        <ele>1956.42</ele>
        <time>2016-09-10T11:07:50Z</time>
      </trkpt>
      <trkpt lat="42.14004" lon="9.07539">
        <ele>1955.46</ele>
        <time>2016-09-10T11:07:58Z</time>
      </trkpt>
      <trkpt lat="42.14005" lon="9.07539">
        <ele>1954.5</ele>
        <time>2016-09-10T11:08:05Z</time>
      </trkpt>
      <trkpt lat="42.14006" lon="9.07537">
        <ele>1954.02</ele>
        <time>2016-09-10T11:08:11Z</time>
      </trkpt>
      <trkpt lat="42.14007" lon="9.07536">
        <ele>1953.06</ele>
        <time>2016-09-10T11:08:20Z</time>
      </trkpt>
      <trkpt lat="42.14009" lon="9.07534">
        <ele>1952.09</ele>
        <time>2016-09-10T11:08:27Z</time>
      </trkpt>
      <trkpt lat="42.1401" lon="9.0753">
        <ele>1950.65</ele>
        <time>2016-09-10T11:08:35Z</time>
      </trkpt>
      <trkpt lat="42.1401" lon="9.07527">
        <ele>1949.69</ele>
        <time>2016-09-10T11:08:42Z</time>
      </trkpt>
      <trkpt lat="42.14008" lon="9.07523">
        <ele>1949.21</ele>
        <time>2016-09-10T11:08:49Z</time>
      </trkpt>
      <trkpt lat="42.14008" lon="9.07521">
        <ele>1948.25</ele>
        <time>2016-09-10T11:08:57Z</time>
      </trkpt>
      <trkpt lat="42.14009" lon="9.0752">
        <ele>1948.25</ele>
        <time>2016-09-10T11:09:05Z</time>
      </trkpt>
      <trkpt lat="42.14013" lon="9.07519">
        <ele>1946.81</ele>
        <time>2016-09-10T11:09:12Z</time>
      </trkpt>
      <trkpt lat="42.14015" lon="9.07519">
        <ele>1945.85</ele>
        <time>2016-09-10T11:09:21Z</time>
      </trkpt>
      <trkpt lat="42.14017" lon="9.07518">
        <ele>1944.88</ele>
        <time>2016-09-10T11:09:28Z</time>
      </trkpt>
      <trkpt lat="42.14021" lon="9.07517">
        <ele>1943.92</ele>
        <time>2016-09-10T11:09:37Z</time>
      </trkpt>
      <trkpt lat="42.14025" lon="9.07516">
        <ele>1942.96</ele>
        <time>2016-09-10T11:09:45Z</time>
      </trkpt>
      <trkpt lat="42.14028" lon="9.07514">
        <ele>1942</ele>
        <time>2016-09-10T11:09:54Z</time>
      </trkpt>
      <trkpt lat="42.14029" lon="9.07511">
        <ele>1941.04</ele>
        <time>2016-09-10T11:10:01Z</time>
      </trkpt>
      <trkpt lat="42.14029" lon="9.07509">
        <ele>1940.08</ele>
        <time>2016-09-10T11:10:08Z</time>
      </trkpt>
      <trkpt lat="42.14031" lon="9.07508">
        <ele>1939.12</ele>
        <time>2016-09-10T11:10:14Z</time>
      </trkpt>
      <trkpt lat="42.14035" lon="9.07506">
        <ele>1938.64</ele>
        <time>2016-09-10T11:10:21Z</time>
      </trkpt>
      <trkpt lat="42.14038" lon="9.07505">
        <ele>1937.19</ele>
        <time>2016-09-10T11:10:30Z</time>
      </trkpt>
      <trkpt lat="42.14041" lon="9.07507">
        <ele>1936.23</ele>
        <time>2016-09-10T11:10:36Z</time>
      </trkpt>
      <trkpt lat="42.14045" lon="9.07509">
        <ele>1935.27</ele>
        <time>2016-09-10T11:10:42Z</time>
      </trkpt>
      <trkpt lat="42.1405" lon="9.0751">
        <ele>1934.79</ele>
        <time>2016-09-10T11:10:50Z</time>
      </trkpt>
      <trkpt lat="42.14052" lon="9.07505">
        <ele>1934.31</ele>
        <time>2016-09-10T11:10:58Z</time>
      </trkpt>
      <trkpt lat="42.14057" lon="9.07504">
        <ele>1933.35</ele>
        <time>2016-09-10T11:11:07Z</time>
      </trkpt>
      <trkpt lat="42.1406" lon="9.07503">
        <ele>1932.87</ele>
        <time>2016-09-10T11:11:14Z</time>
      </trkpt>
      <trkpt lat="42.14062" lon="9.07502">
        <ele>1931.91</ele>
        <time>2016-09-10T11:11:21Z</time>
      </trkpt>
      <trkpt lat="42.14065" lon="9.075">
        <ele>1930.95</ele>
        <time>2016-09-10T11:11:30Z</time>
      </trkpt>
      <trkpt lat="42.14066" lon="9.07494">
        <ele>1929.98</ele>
        <time>2016-09-10T11:11:37Z</time>
      </trkpt>
      <trkpt lat="42.14069" lon="9.07493">
        <ele>1929.5</ele>
        <time>2016-09-10T11:11:47Z</time>
      </trkpt>
      <trkpt lat="42.1407" lon="9.07491">
        <ele>1928.54</ele>
        <time>2016-09-10T11:11:55Z</time>
      </trkpt>
      <trkpt lat="42.14072" lon="9.07485">
        <ele>1927.1</ele>
        <time>2016-09-10T11:12:02Z</time>
      </trkpt>
      <trkpt lat="42.14074" lon="9.07485">
        <ele>1926.62</ele>
        <time>2016-09-10T11:12:08Z</time>
      </trkpt>
      <trkpt lat="42.14075" lon="9.07485">
        <ele>1926.14</ele>
        <time>2016-09-10T11:12:17Z</time>
      </trkpt>
      <trkpt lat="42.14079" lon="9.07483">
        <ele>1925.18</ele>
        <time>2016-09-10T11:12:24Z</time>
      </trkpt>
      <trkpt lat="42.14083" lon="9.07481">
        <ele>1924.22</ele>
        <time>2016-09-10T11:12:32Z</time>
      </trkpt>
      <trkpt lat="42.14086" lon="9.07476">
        <ele>1922.77</ele>
        <time>2016-09-10T11:12:40Z</time>
      </trkpt>
      <trkpt lat="42.14089" lon="9.07473">
        <ele>1921.81</ele>
        <time>2016-09-10T11:12:47Z</time>
      </trkpt>
      <trkpt lat="42.14093" lon="9.0747">
        <ele>1920.85</ele>
        <time>2016-09-10T11:12:55Z</time>
      </trkpt>
      <trkpt lat="42.14097" lon="9.07469">
        <ele>1919.89</ele>
        <time>2016-09-10T11:13:02Z</time>
      </trkpt>
      <trkpt lat="42.14098" lon="9.07469">
        <ele>1919.41</ele>
        <time>2016-09-10T11:13:10Z</time>
      </trkpt>
      <trkpt lat="42.14101" lon="9.07468">
        <ele>1917.97</ele>
        <time>2016-09-10T11:13:20Z</time>
      </trkpt>
      <trkpt lat="42.14103" lon="9.07466">
        <ele>1917.01</ele>
        <time>2016-09-10T11:13:29Z</time>
      </trkpt>
      <trkpt lat="42.14109" lon="9.07463">
        <ele>1915.56</ele>
        <time>2016-09-10T11:13:39Z</time>
      </trkpt>
      <trkpt lat="42.14112" lon="9.07461">
        <ele>1914.6</ele>
        <time>2016-09-10T11:13:47Z</time>
      </trkpt>
      <trkpt lat="42.14118" lon="9.07462">
        <ele>1913.64</ele>
        <time>2016-09-10T11:13:56Z</time>
      </trkpt>
      <trkpt lat="42.1412" lon="9.07461">
        <ele>1912.2</ele>
        <time>2016-09-10T11:14:03Z</time>
      </trkpt>
      <trkpt lat="42.14123" lon="9.07459">
        <ele>1911.24</ele>
        <time>2016-09-10T11:14:11Z</time>
      </trkpt>
      <trkpt lat="42.14125" lon="9.07455">
        <ele>1909.8</ele>
        <time>2016-09-10T11:14:19Z</time>
      </trkpt>
      <trkpt lat="42.14125" lon="9.07452">
        <ele>1908.35</ele>
        <time>2016-09-10T11:14:27Z</time>
      </trkpt>
      <trkpt lat="42.14127" lon="9.07451">
        <ele>1907.39</ele>
        <time>2016-09-10T11:14:36Z</time>
      </trkpt>
      <trkpt lat="42.14127" lon="9.07448">
        <ele>1905.95</ele>
        <time>2016-09-10T11:14:42Z</time>
      </trkpt>
      <trkpt lat="42.14127" lon="9.07444">
        <ele>1904.99</ele>
        <time>2016-09-10T11:14:47Z</time>
      </trkpt>
      <trkpt lat="42.1413" lon="9.07443">
        <ele>1904.03</ele>
        <time>2016-09-10T11:14:54Z</time>
      </trkpt>
      <trkpt lat="42.14134" lon="9.07442">
        <ele>1903.55</ele>
        <time>2016-09-10T11:14:58Z</time>
      </trkpt>
      <trkpt lat="42.14137" lon="9.07443">
        <ele>1903.07</ele>
        <time>2016-09-10T11:15:01Z</time>
      </trkpt>
      <trkpt lat="42.14142" lon="9.07446">
        <ele>1902.59</ele>
        <time>2016-09-10T11:15:08Z</time>
      </trkpt>
      <trkpt lat="42.14145" lon="9.07445">
        <ele>1901.63</ele>
        <time>2016-09-10T11:15:15Z</time>
      </trkpt>
      <trkpt lat="42.14147" lon="9.07444">
        <ele>1900.66</ele>
        <time>2016-09-10T11:15:24Z</time>
      </trkpt>
      <trkpt lat="42.14152" lon="9.07445">
        <ele>1899.7</ele>
        <time>2016-09-10T11:15:30Z</time>
      </trkpt>
      <trkpt lat="42.14158" lon="9.07445">
        <ele>1898.74</ele>
        <time>2016-09-10T11:15:37Z</time>
      </trkpt>
      <trkpt lat="42.14162" lon="9.07446">
        <ele>1898.26</ele>
        <time>2016-09-10T11:15:42Z</time>
      </trkpt>
      <trkpt lat="42.14168" lon="9.07446">
        <ele>1896.82</ele>
        <time>2016-09-10T11:15:51Z</time>
      </trkpt>
      <trkpt lat="42.14171" lon="9.07447">
        <ele>1896.34</ele>
        <time>2016-09-10T11:15:59Z</time>
      </trkpt>
      <trkpt lat="42.14173" lon="9.07447">
        <ele>1895.86</ele>
        <time>2016-09-10T11:16:05Z</time>
      </trkpt>
      <trkpt lat="42.14176" lon="9.07449">
        <ele>1894.9</ele>
        <time>2016-09-10T11:16:12Z</time>
      </trkpt>
      <trkpt lat="42.14177" lon="9.07449">
        <ele>1893.93</ele>
        <time>2016-09-10T11:16:19Z</time>
      </trkpt>
      <trkpt lat="42.14178" lon="9.07448">
        <ele>1892.97</ele>
        <time>2016-09-10T11:16:26Z</time>
      </trkpt>
      <trkpt lat="42.14182" lon="9.07449">
        <ele>1891.53</ele>
        <time>2016-09-10T11:16:32Z</time>
      </trkpt>
      <trkpt lat="42.14185" lon="9.0745">
        <ele>1890.57</ele>
        <time>2016-09-10T11:16:39Z</time>
      </trkpt>
      <trkpt lat="42.14188" lon="9.0745">
        <ele>1890.09</ele>
        <time>2016-09-10T11:16:47Z</time>
      </trkpt>
      <trkpt lat="42.14191" lon="9.0745">
        <ele>1889.13</ele>
        <time>2016-09-10T11:16:55Z</time>
      </trkpt>
      <trkpt lat="42.14198" lon="9.07455">
        <ele>1888.17</ele>
        <time>2016-09-10T11:17:05Z</time>
      </trkpt>
      <trkpt lat="42.14203" lon="9.07454">
        <ele>1887.21</ele>
        <time>2016-09-10T11:17:11Z</time>
      </trkpt>
      <trkpt lat="42.14203" lon="9.07454">
        <ele>1887.21</ele>
        <time>2016-09-10T11:17:12Z</time>
      </trkpt>
      <trkpt lat="42.1421" lon="9.07455">
        <ele>1886.24</ele>
        <time>2016-09-10T11:17:21Z</time>
      </trkpt>
      <trkpt lat="42.14213" lon="9.07451">
        <ele>1885.28</ele>
        <time>2016-09-10T11:17:29Z</time>
      </trkpt>
      <trkpt lat="42.14213" lon="9.07447">
        <ele>1883.84</ele>
        <time>2016-09-10T11:17:36Z</time>
      </trkpt>
      <trkpt lat="42.14213" lon="9.07442">
        <ele>1882.4</ele>
        <time>2016-09-10T11:17:43Z</time>
      </trkpt>
      <trkpt lat="42.14212" lon="9.07437">
        <ele>1880.96</ele>
        <time>2016-09-10T11:17:50Z</time>
      </trkpt>
      <trkpt lat="42.14215" lon="9.07435">
        <ele>1880</ele>
        <time>2016-09-10T11:17:57Z</time>
      </trkpt>
      <trkpt lat="42.14218" lon="9.07429">
        <ele>1878.55</ele>
        <time>2016-09-10T11:18:06Z</time>
      </trkpt>
      <trkpt lat="42.1422" lon="9.07427">
        <ele>1877.11</ele>
        <time>2016-09-10T11:18:15Z</time>
      </trkpt>
      <trkpt lat="42.1422" lon="9.07426">
        <ele>1875.67</ele>
        <time>2016-09-10T11:18:24Z</time>
      </trkpt>
      <trkpt lat="42.14221" lon="9.07424">
        <ele>1874.71</ele>
        <time>2016-09-10T11:18:31Z</time>
      </trkpt>
      <trkpt lat="42.14222" lon="9.0742">
        <ele>1873.27</ele>
        <time>2016-09-10T11:18:39Z</time>
      </trkpt>
      <trkpt lat="42.14223" lon="9.07419">
        <ele>1872.79</ele>
        <time>2016-09-10T11:18:41Z</time>
      </trkpt>
      <trkpt lat="42.14228" lon="9.07413">
        <ele>1871.82</ele>
        <time>2016-09-10T11:18:49Z</time>
      </trkpt>
      <trkpt lat="42.14232" lon="9.0741">
        <ele>1870.86</ele>
        <time>2016-09-10T11:18:55Z</time>
      </trkpt>
      <trkpt lat="42.14236" lon="9.07404">
        <ele>1869.42</ele>
        <time>2016-09-10T11:19:03Z</time>
      </trkpt>
      <trkpt lat="42.14239" lon="9.07398">
        <ele>1867.98</ele>
        <time>2016-09-10T11:19:10Z</time>
      </trkpt>
      <trkpt lat="42.14242" lon="9.07397">
        <ele>1867.02</ele>
        <time>2016-09-10T11:19:18Z</time>
      </trkpt>
      <trkpt lat="42.14247" lon="9.07397">
        <ele>1866.06</ele>
        <time>2016-09-10T11:19:24Z</time>
      </trkpt>
      <trkpt lat="42.1425" lon="9.07396">
        <ele>1865.09</ele>
        <time>2016-09-10T11:19:30Z</time>
      </trkpt>
      <trkpt lat="42.14252" lon="9.0739">
        <ele>1864.13</ele>
        <time>2016-09-10T11:19:38Z</time>
      </trkpt>
      <trkpt lat="42.14254" lon="9.07386">
        <ele>1862.69</ele>
        <time>2016-09-10T11:19:44Z</time>
      </trkpt>
      <trkpt lat="42.14256" lon="9.07379">
        <ele>1860.77</ele>
        <time>2016-09-10T11:19:51Z</time>
      </trkpt>
      <trkpt lat="42.14263" lon="9.07372">
        <ele>1859.33</ele>
        <time>2016-09-10T11:20:01Z</time>
      </trkpt>
      <trkpt lat="42.14263" lon="9.0737">
        <ele>1858.85</ele>
        <time>2016-09-10T11:20:02Z</time>
      </trkpt>
      <trkpt lat="42.14267" lon="9.07364">
        <ele>1857.89</ele>
        <time>2016-09-10T11:20:08Z</time>
      </trkpt>
      <trkpt lat="42.14278" lon="9.0736">
        <ele>1855.96</ele>
        <time>2016-09-10T11:20:18Z</time>
      </trkpt>
      <trkpt lat="42.14287" lon="9.07362">
        <ele>1855</ele>
        <time>2016-09-10T11:20:27Z</time>
      </trkpt>
      <trkpt lat="42.14296" lon="9.07363">
        <ele>1854.04</ele>
        <time>2016-09-10T11:20:35Z</time>
      </trkpt>
      <trkpt lat="42.14301" lon="9.07364">
        <ele>1852.6</ele>
        <time>2016-09-10T11:20:41Z</time>
      </trkpt>
      <trkpt lat="42.14306" lon="9.07368">
        <ele>1851.64</ele>
        <time>2016-09-10T11:20:48Z</time>
      </trkpt>
      <trkpt lat="42.1431" lon="9.0737">
        <ele>1850.68</ele>
        <time>2016-09-10T11:20:54Z</time>
      </trkpt>
      <trkpt lat="42.14313" lon="9.0737">
        <ele>1850.19</ele>
        <time>2016-09-10T11:20:57Z</time>
      </trkpt>
      <trkpt lat="42.14318" lon="9.07368">
        <ele>1849.71</ele>
        <time>2016-09-10T11:21:02Z</time>
      </trkpt>
      <trkpt lat="42.14324" lon="9.07367">
        <ele>1848.75</ele>
        <time>2016-09-10T11:21:08Z</time>
      </trkpt>
      <trkpt lat="42.14329" lon="9.07366">
        <ele>1847.31</ele>
        <time>2016-09-10T11:21:15Z</time>
      </trkpt>
      <trkpt lat="42.14332" lon="9.07366">
        <ele>1846.83</ele>
        <time>2016-09-10T11:21:17Z</time>
      </trkpt>
      <trkpt lat="42.14336" lon="9.07367">
        <ele>1846.35</ele>
        <time>2016-09-10T11:21:22Z</time>
      </trkpt>
      <trkpt lat="42.14345" lon="9.07359">
        <ele>1844.91</ele>
        <time>2016-09-10T11:21:31Z</time>
      </trkpt>
      <trkpt lat="42.14355" lon="9.07357">
        <ele>1844.43</ele>
        <time>2016-09-10T11:21:40Z</time>
      </trkpt>
      <trkpt lat="42.14362" lon="9.07356">
        <ele>1844.91</ele>
        <time>2016-09-10T11:21:47Z</time>
      </trkpt>
      <trkpt lat="42.14371" lon="9.07352">
        <ele>1845.39</ele>
        <time>2016-09-10T11:21:56Z</time>
      </trkpt>
      <trkpt lat="42.14378" lon="9.07348">
        <ele>1845.87</ele>
        <time>2016-09-10T11:22:04Z</time>
      </trkpt>
      <trkpt lat="42.14386" lon="9.0734">
        <ele>1846.35</ele>
        <time>2016-09-10T11:22:16Z</time>
      </trkpt>
      <trkpt lat="42.14391" lon="9.07337">
        <ele>1846.83</ele>
        <time>2016-09-10T11:22:25Z</time>
      </trkpt>
      <trkpt lat="42.14397" lon="9.07336">
        <ele>1846.35</ele>
        <time>2016-09-10T11:22:33Z</time>
      </trkpt>
      <trkpt lat="42.14401" lon="9.0734">
        <ele>1846.35</ele>
        <time>2016-09-10T11:22:40Z</time>
      </trkpt>
      <trkpt lat="42.14402" lon="9.07344">
        <ele>1847.31</ele>
        <time>2016-09-10T11:22:50Z</time>
      </trkpt>
      <trkpt lat="42.14402" lon="9.07345">
        <ele>1847.31</ele>
        <time>2016-09-10T11:23:02Z</time>
      </trkpt>
      <trkpt lat="42.14402" lon="9.07345">
        <ele>1847.31</ele>
        <time>2016-09-10T11:23:11Z</time>
      </trkpt>
      <trkpt lat="42.14401" lon="9.07345">
        <ele>1847.31</ele>
        <time>2016-09-10T11:23:22Z</time>
      </trkpt>
      <trkpt lat="42.14401" lon="9.07344">
        <ele>1847.31</ele>
        <time>2016-09-10T11:23:40Z</time>
      </trkpt>
      <trkpt lat="42.14401" lon="9.07345">
        <ele>1847.31</ele>
        <time>2016-09-10T11:23:52Z</time>
      </trkpt>
      <trkpt lat="42.14402" lon="9.07345">
        <ele>1846.83</ele>
        <time>2016-09-10T11:24:10Z</time>
      </trkpt>
      <trkpt lat="42.14401" lon="9.07345">
        <ele>1846.83</ele>
        <time>2016-09-10T11:24:28Z</time>
      </trkpt>
      <trkpt lat="42.14401" lon="9.07345">
        <ele>1846.35</ele>
        <time>2016-09-10T11:24:39Z</time>
      </trkpt>
      <trkpt lat="42.14401" lon="9.07345">
        <ele>1846.35</ele>
        <time>2016-09-10T11:24:54Z</time>
      </trkpt>
      <trkpt lat="42.14401" lon="9.07345">
        <ele>1846.83</ele>
        <time>2016-09-10T11:25:10Z</time>
      </trkpt>
      <trkpt lat="42.14401" lon="9.07345">
        <ele>1846.35</ele>
        <time>2016-09-10T11:25:27Z</time>
      </trkpt>
      <trkpt lat="42.14401" lon="9.07345">
        <ele>1846.35</ele>
        <time>2016-09-10T11:25:41Z</time>
      </trkpt>
      <trkpt lat="42.14401" lon="9.07345">
        <ele>1846.35</ele>
        <time>2016-09-10T11:26:01Z</time>
      </trkpt>
      <trkpt lat="42.14401" lon="9.07345">
        <ele>1845.87</ele>
        <time>2016-09-10T11:26:09Z</time>
      </trkpt>
      <trkpt lat="42.14401" lon="9.07345">
        <ele>1846.35</ele>
        <time>2016-09-10T11:26:28Z</time>
      </trkpt>
      <trkpt lat="42.14401" lon="9.07345">
        <ele>1845.87</ele>
        <time>2016-09-10T11:26:48Z</time>
      </trkpt>
      <trkpt lat="42.14401" lon="9.07345">
        <ele>1845.87</ele>
        <time>2016-09-10T11:27:07Z</time>
      </trkpt>
      <trkpt lat="42.14401" lon="9.07345">
        <ele>1845.87</ele>
        <time>2016-09-10T11:27:27Z</time>
      </trkpt>
      <trkpt lat="42.14401" lon="9.07346">
        <ele>1846.35</ele>
        <time>2016-09-10T11:27:38Z</time>
      </trkpt>
      <trkpt lat="42.14401" lon="9.07346">
        <ele>1846.35</ele>
        <time>2016-09-10T11:27:58Z</time>
      </trkpt>
      <trkpt lat="42.14401" lon="9.07346">
        <ele>1845.87</ele>
        <time>2016-09-10T11:28:11Z</time>
      </trkpt>
      <trkpt lat="42.14401" lon="9.07346">
        <ele>1845.87</ele>
        <time>2016-09-10T11:28:29Z</time>
      </trkpt>
      <trkpt lat="42.14401" lon="9.07345">
        <ele>1845.87</ele>
        <time>2016-09-10T11:28:46Z</time>
      </trkpt>
      <trkpt lat="42.14401" lon="9.07346">
        <ele>1845.87</ele>
        <time>2016-09-10T11:29:04Z</time>
      </trkpt>
      <trkpt lat="42.14401" lon="9.07346">
        <ele>1845.39</ele>
        <time>2016-09-10T11:29:20Z</time>
      </trkpt>
      <trkpt lat="42.14401" lon="9.07346">
        <ele>1845.87</ele>
        <time>2016-09-10T11:29:35Z</time>
      </trkpt>
      <trkpt lat="42.14401" lon="9.07346">
        <ele>1845.39</ele>
        <time>2016-09-10T11:29:50Z</time>
      </trkpt>
      <trkpt lat="42.14401" lon="9.07346">
        <ele>1845.39</ele>
        <time>2016-09-10T11:30:06Z</time>
      </trkpt>
      <trkpt lat="42.14401" lon="9.07346">
        <ele>1845.39</ele>
        <time>2016-09-10T11:30:23Z</time>
      </trkpt>
      <trkpt lat="42.14401" lon="9.07346">
        <ele>1845.39</ele>
        <time>2016-09-10T11:30:41Z</time>
      </trkpt>
      <trkpt lat="42.14401" lon="9.07346">
        <ele>1845.39</ele>
        <time>2016-09-10T11:30:55Z</time>
      </trkpt>
      <trkpt lat="42.144" lon="9.07344">
        <ele>1845.39</ele>
        <time>2016-09-10T11:31:03Z</time>
      </trkpt>
      <trkpt lat="42.144" lon="9.07343">
        <ele>1845.39</ele>
        <time>2016-09-10T11:31:11Z</time>
      </trkpt>
      <trkpt lat="42.144" lon="9.07344">
        <ele>1845.39</ele>
        <time>2016-09-10T11:31:19Z</time>
      </trkpt>
      <trkpt lat="42.144" lon="9.07344">
        <ele>1845.39</ele>
        <time>2016-09-10T11:31:34Z</time>
      </trkpt>
      <trkpt lat="42.144" lon="9.07343">
        <ele>1845.39</ele>
        <time>2016-09-10T11:31:43Z</time>
      </trkpt>
      <trkpt lat="42.14401" lon="9.07341">
        <ele>1844.91</ele>
        <time>2016-09-10T11:31:51Z</time>
      </trkpt>
      <trkpt lat="42.14401" lon="9.0734">
        <ele>1844.91</ele>
        <time>2016-09-10T11:32:05Z</time>
      </trkpt>
      <trkpt lat="42.14402" lon="9.0734">
        <ele>1844.43</ele>
        <time>2016-09-10T11:32:20Z</time>
      </trkpt>
      <trkpt lat="42.14403" lon="9.0734">
        <ele>1844.43</ele>
        <time>2016-09-10T11:32:27Z</time>
      </trkpt>
      <trkpt lat="42.14404" lon="9.07341">
        <ele>1843.95</ele>
        <time>2016-09-10T11:32:45Z</time>
      </trkpt>
      <trkpt lat="42.14404" lon="9.07341">
        <ele>1843.95</ele>
        <time>2016-09-10T11:33:01Z</time>
      </trkpt>
      <trkpt lat="42.14404" lon="9.07341">
        <ele>1839.14</ele>
        <time>2016-09-10T11:33:07Z</time>
      </trkpt>
      <trkpt lat="42.14404" lon="9.07341">
        <ele>1845.39</ele>
        <time>2016-09-10T11:33:08Z</time>
      </trkpt>
      <trkpt lat="42.14404" lon="9.07341">
        <ele>1845.39</ele>
        <time>2016-09-10T11:33:09Z</time>
      </trkpt>
      <trkpt lat="42.14404" lon="9.0734">
        <ele>1843.95</ele>
        <time>2016-09-10T11:33:20Z</time>
      </trkpt>
      <trkpt lat="42.14403" lon="9.0734">
        <ele>1843.95</ele>
        <time>2016-09-10T11:33:31Z</time>
      </trkpt>
      <trkpt lat="42.14404" lon="9.0734">
        <ele>1843.95</ele>
        <time>2016-09-10T11:33:45Z</time>
      </trkpt>
      <trkpt lat="42.14406" lon="9.07338">
        <ele>1843.47</ele>
        <time>2016-09-10T11:33:52Z</time>
      </trkpt>
      <trkpt lat="42.14408" lon="9.07336">
        <ele>1842.5</ele>
        <time>2016-09-10T11:34:01Z</time>
      </trkpt>
      <trkpt lat="42.14413" lon="9.07334">
        <ele>1842.02</ele>
        <time>2016-09-10T11:34:11Z</time>
      </trkpt>
      <trkpt lat="42.14416" lon="9.07333">
        <ele>1841.06</ele>
        <time>2016-09-10T11:34:18Z</time>
      </trkpt>
      <trkpt lat="42.14419" lon="9.07332">
        <ele>1840.58</ele>
        <time>2016-09-10T11:34:26Z</time>
      </trkpt>
      <trkpt lat="42.14423" lon="9.07329">
        <ele>1839.14</ele>
        <time>2016-09-10T11:34:34Z</time>
      </trkpt>
      <trkpt lat="42.14426" lon="9.0733">
        <ele>1838.66</ele>
        <time>2016-09-10T11:34:42Z</time>
      </trkpt>
      <trkpt lat="42.1443" lon="9.07327">
        <ele>1837.7</ele>
        <time>2016-09-10T11:34:49Z</time>
      </trkpt>
      <trkpt lat="42.14434" lon="9.07328">
        <ele>1836.74</ele>
        <time>2016-09-10T11:34:56Z</time>
      </trkpt>
      <trkpt lat="42.14437" lon="9.07323">
        <ele>1835.77</ele>
        <time>2016-09-10T11:35:02Z</time>
      </trkpt>
      <trkpt lat="42.14441" lon="9.07318">
        <ele>1833.85</ele>
        <time>2016-09-10T11:35:12Z</time>
      </trkpt>
      <trkpt lat="42.14444" lon="9.07318">
        <ele>1832.89</ele>
        <time>2016-09-10T11:35:19Z</time>
      </trkpt>
      <trkpt lat="42.14448" lon="9.07314">
        <ele>1831.45</ele>
        <time>2016-09-10T11:35:27Z</time>
      </trkpt>
      <trkpt lat="42.14452" lon="9.07313">
        <ele>1830.49</ele>
        <time>2016-09-10T11:35:35Z</time>
      </trkpt>
      <trkpt lat="42.14455" lon="9.07313">
        <ele>1829.53</ele>
        <time>2016-09-10T11:35:43Z</time>
      </trkpt>
      <trkpt lat="42.14459" lon="9.07312">
        <ele>1828.56</ele>
        <time>2016-09-10T11:35:50Z</time>
      </trkpt>
      <trkpt lat="42.14461" lon="9.07313">
        <ele>1828.08</ele>
        <time>2016-09-10T11:35:56Z</time>
      </trkpt>
      <trkpt lat="42.14465" lon="9.07315">
        <ele>1826.64</ele>
        <time>2016-09-10T11:36:04Z</time>
      </trkpt>
      <trkpt lat="42.14469" lon="9.07314">
        <ele>1825.2</ele>
        <time>2016-09-10T11:36:11Z</time>
      </trkpt>
      <trkpt lat="42.14471" lon="9.07314">
        <ele>1824.72</ele>
        <time>2016-09-10T11:36:19Z</time>
      </trkpt>
      <trkpt lat="42.14475" lon="9.07315">
        <ele>1822.8</ele>
        <time>2016-09-10T11:36:28Z</time>
      </trkpt>
      <trkpt lat="42.14479" lon="9.07315">
        <ele>1821.84</ele>
        <time>2016-09-10T11:36:34Z</time>
      </trkpt>
      <trkpt lat="42.14483" lon="9.07314">
        <ele>1820.87</ele>
        <time>2016-09-10T11:36:40Z</time>
      </trkpt>
      <trkpt lat="42.14486" lon="9.07313">
        <ele>1819.91</ele>
        <time>2016-09-10T11:36:46Z</time>
      </trkpt>
      <trkpt lat="42.14491" lon="9.07316">
        <ele>1819.43</ele>
        <time>2016-09-10T11:36:55Z</time>
      </trkpt>
      <trkpt lat="42.14493" lon="9.07314">
        <ele>1817.99</ele>
        <time>2016-09-10T11:37:01Z</time>
      </trkpt>
      <trkpt lat="42.14493" lon="9.07314">
        <ele>1817.99</ele>
        <time>2016-09-10T11:37:07Z</time>
      </trkpt>
      <trkpt lat="42.14494" lon="9.07314">
        <ele>1817.03</ele>
        <time>2016-09-10T11:37:14Z</time>
      </trkpt>
      <trkpt lat="42.14496" lon="9.07312">
        <ele>1815.59</ele>
        <time>2016-09-10T11:37:21Z</time>
      </trkpt>
      <trkpt lat="42.14499" lon="9.07312">
        <ele>1814.63</ele>
        <time>2016-09-10T11:37:27Z</time>
      </trkpt>
      <trkpt lat="42.14501" lon="9.07315">
        <ele>1814.15</ele>
        <time>2016-09-10T11:37:34Z</time>
      </trkpt>
      <trkpt lat="42.14501" lon="9.07314">
        <ele>1813.18</ele>
        <time>2016-09-10T11:37:41Z</time>
      </trkpt>
      <trkpt lat="42.14503" lon="9.07314">
        <ele>1812.22</ele>
        <time>2016-09-10T11:37:47Z</time>
      </trkpt>
      <trkpt lat="42.14506" lon="9.07311">
        <ele>1810.78</ele>
        <time>2016-09-10T11:37:55Z</time>
      </trkpt>
      <trkpt lat="42.14509" lon="9.0731">
        <ele>1810.3</ele>
        <time>2016-09-10T11:38:02Z</time>
      </trkpt>
      <trkpt lat="42.14509" lon="9.07309">
        <ele>1809.34</ele>
        <time>2016-09-10T11:38:09Z</time>
      </trkpt>
      <trkpt lat="42.14511" lon="9.0731">
        <ele>1807.9</ele>
        <time>2016-09-10T11:38:17Z</time>
      </trkpt>
      <trkpt lat="42.14512" lon="9.0731">
        <ele>1807.42</ele>
        <time>2016-09-10T11:38:24Z</time>
      </trkpt>
      <trkpt lat="42.14513" lon="9.07309">
        <ele>1806.45</ele>
        <time>2016-09-10T11:38:30Z</time>
      </trkpt>
      <trkpt lat="42.14517" lon="9.07306">
        <ele>1805.01</ele>
        <time>2016-09-10T11:38:37Z</time>
      </trkpt>
      <trkpt lat="42.14518" lon="9.07307">
        <ele>1804.05</ele>
        <time>2016-09-10T11:38:44Z</time>
      </trkpt>
      <trkpt lat="42.1452" lon="9.07306">
        <ele>1803.09</ele>
        <time>2016-09-10T11:38:49Z</time>
      </trkpt>
      <trkpt lat="42.14524" lon="9.07305">
        <ele>1801.65</ele>
        <time>2016-09-10T11:38:56Z</time>
      </trkpt>
      <trkpt lat="42.14529" lon="9.07304">
        <ele>1800.21</ele>
        <time>2016-09-10T11:39:05Z</time>
      </trkpt>
      <trkpt lat="42.1453" lon="9.07304">
        <ele>1799.24</ele>
        <time>2016-09-10T11:39:11Z</time>
      </trkpt>
      <trkpt lat="42.14533" lon="9.07303">
        <ele>1798.28</ele>
        <time>2016-09-10T11:39:19Z</time>
      </trkpt>
      <trkpt lat="42.14535" lon="9.07303">
        <ele>1797.32</ele>
        <time>2016-09-10T11:39:26Z</time>
      </trkpt>
      <trkpt lat="42.14536" lon="9.07303">
        <ele>1796.36</ele>
        <time>2016-09-10T11:39:33Z</time>
      </trkpt>
      <trkpt lat="42.14537" lon="9.07304">
        <ele>1794.92</ele>
        <time>2016-09-10T11:39:40Z</time>
      </trkpt>
      <trkpt lat="42.14539" lon="9.07305">
        <ele>1794.44</ele>
        <time>2016-09-10T11:39:48Z</time>
      </trkpt>
      <trkpt lat="42.14541" lon="9.07306">
        <ele>1793</ele>
        <time>2016-09-10T11:39:55Z</time>
      </trkpt>
      <trkpt lat="42.14544" lon="9.07307">
        <ele>1791.55</ele>
        <time>2016-09-10T11:40:04Z</time>
      </trkpt>
      <trkpt lat="42.14549" lon="9.07307">
        <ele>1790.59</ele>
        <time>2016-09-10T11:40:11Z</time>
      </trkpt>
      <trkpt lat="42.14552" lon="9.07307">
        <ele>1789.63</ele>
        <time>2016-09-10T11:40:20Z</time>
      </trkpt>
      <trkpt lat="42.14554" lon="9.07306">
        <ele>1788.67</ele>
        <time>2016-09-10T11:40:28Z</time>
      </trkpt>
      <trkpt lat="42.14555" lon="9.07305">
        <ele>1787.71</ele>
        <time>2016-09-10T11:40:35Z</time>
      </trkpt>
      <trkpt lat="42.14556" lon="9.07305">
        <ele>1786.27</ele>
        <time>2016-09-10T11:40:44Z</time>
      </trkpt>
      <trkpt lat="42.14557" lon="9.07305">
        <ele>1784.82</ele>
        <time>2016-09-10T11:40:52Z</time>
      </trkpt>
      <trkpt lat="42.14558" lon="9.07305">
        <ele>1783.38</ele>
        <time>2016-09-10T11:41:01Z</time>
      </trkpt>
      <trkpt lat="42.1456" lon="9.07306">
        <ele>1782.42</ele>
        <time>2016-09-10T11:41:08Z</time>
      </trkpt>
      <trkpt lat="42.14564" lon="9.0731">
        <ele>1781.94</ele>
        <time>2016-09-10T11:41:15Z</time>
      </trkpt>
      <trkpt lat="42.14565" lon="9.07309">
        <ele>1780.98</ele>
        <time>2016-09-10T11:41:21Z</time>
      </trkpt>
      <trkpt lat="42.14567" lon="9.07309">
        <ele>1780.5</ele>
        <time>2016-09-10T11:41:30Z</time>
      </trkpt>
      <trkpt lat="42.1457" lon="9.07307">
        <ele>1779.06</ele>
        <time>2016-09-10T11:41:37Z</time>
      </trkpt>
      <trkpt lat="42.14577" lon="9.07307">
        <ele>1778.58</ele>
        <time>2016-09-10T11:41:44Z</time>
      </trkpt>
      <trkpt lat="42.1458" lon="9.07307">
        <ele>1778.58</ele>
        <time>2016-09-10T11:41:54Z</time>
      </trkpt>
      <trkpt lat="42.14582" lon="9.07307">
        <ele>1777.13</ele>
        <time>2016-09-10T11:42:02Z</time>
      </trkpt>
      <trkpt lat="42.14586" lon="9.07308">
        <ele>1776.65</ele>
        <time>2016-09-10T11:42:08Z</time>
      </trkpt>
      <trkpt lat="42.14588" lon="9.07307">
        <ele>1775.69</ele>
        <time>2016-09-10T11:42:16Z</time>
      </trkpt>
      <trkpt lat="42.14589" lon="9.07306">
        <ele>1775.21</ele>
        <time>2016-09-10T11:42:23Z</time>
      </trkpt>
      <trkpt lat="42.14591" lon="9.07305">
        <ele>1773.29</ele>
        <time>2016-09-10T11:42:32Z</time>
      </trkpt>
      <trkpt lat="42.14594" lon="9.07305">
        <ele>1772.33</ele>
        <time>2016-09-10T11:42:39Z</time>
      </trkpt>
      <trkpt lat="42.14599" lon="9.07304">
        <ele>1771.37</ele>
        <time>2016-09-10T11:42:47Z</time>
      </trkpt>
      <trkpt lat="42.146" lon="9.07303">
        <ele>1769.92</ele>
        <time>2016-09-10T11:42:55Z</time>
      </trkpt>
      <trkpt lat="42.14601" lon="9.07302">
        <ele>1768.96</ele>
        <time>2016-09-10T11:43:02Z</time>
      </trkpt>
      <trkpt lat="42.14603" lon="9.07301">
        <ele>1768</ele>
        <time>2016-09-10T11:43:08Z</time>
      </trkpt>
      <trkpt lat="42.14605" lon="9.07299">
        <ele>1767.52</ele>
        <time>2016-09-10T11:43:16Z</time>
      </trkpt>
      <trkpt lat="42.14606" lon="9.07298">
        <ele>1766.08</ele>
        <time>2016-09-10T11:43:24Z</time>
      </trkpt>
      <trkpt lat="42.14608" lon="9.07296">
        <ele>1765.12</ele>
        <time>2016-09-10T11:43:32Z</time>
      </trkpt>
      <trkpt lat="42.14608" lon="9.07293">
        <ele>1764.64</ele>
        <time>2016-09-10T11:43:44Z</time>
      </trkpt>
      <trkpt lat="42.14609" lon="9.07291">
        <ele>1764.16</ele>
        <time>2016-09-10T11:43:51Z</time>
      </trkpt>
      <trkpt lat="42.14609" lon="9.0729">
        <ele>1762.71</ele>
        <time>2016-09-10T11:43:59Z</time>
      </trkpt>
      <trkpt lat="42.14613" lon="9.07285">
        <ele>1760.79</ele>
        <time>2016-09-10T11:44:08Z</time>
      </trkpt>
      <trkpt lat="42.14617" lon="9.07284">
        <ele>1759.83</ele>
        <time>2016-09-10T11:44:16Z</time>
      </trkpt>
      <trkpt lat="42.14621" lon="9.07285">
        <ele>1758.87</ele>
        <time>2016-09-10T11:44:24Z</time>
      </trkpt>
      <trkpt lat="42.14622" lon="9.07285">
        <ele>1758.39</ele>
        <time>2016-09-10T11:44:33Z</time>
      </trkpt>
      <trkpt lat="42.14626" lon="9.07284">
        <ele>1757.43</ele>
        <time>2016-09-10T11:44:41Z</time>
      </trkpt>
      <trkpt lat="42.14626" lon="9.07283">
        <ele>1755.99</ele>
        <time>2016-09-10T11:44:51Z</time>
      </trkpt>
      <trkpt lat="42.14624" lon="9.07281">
        <ele>1755.5</ele>
        <time>2016-09-10T11:44:59Z</time>
      </trkpt>
      <trkpt lat="42.14623" lon="9.07278">
        <ele>1755.02</ele>
        <time>2016-09-10T11:45:07Z</time>
      </trkpt>
      <trkpt lat="42.14622" lon="9.07275">
        <ele>1754.06</ele>
        <time>2016-09-10T11:45:14Z</time>
      </trkpt>
      <trkpt lat="42.14621" lon="9.07272">
        <ele>1753.58</ele>
        <time>2016-09-10T11:45:22Z</time>
      </trkpt>
      <trkpt lat="42.14622" lon="9.07272">
        <ele>1752.62</ele>
        <time>2016-09-10T11:45:30Z</time>
      </trkpt>
      <trkpt lat="42.14623" lon="9.07271">
        <ele>1751.18</ele>
        <time>2016-09-10T11:45:38Z</time>
      </trkpt>
      <trkpt lat="42.14625" lon="9.0727">
        <ele>1750.22</ele>
        <time>2016-09-10T11:45:46Z</time>
      </trkpt>
      <trkpt lat="42.14626" lon="9.07267">
        <ele>1748.78</ele>
        <time>2016-09-10T11:45:52Z</time>
      </trkpt>
      <trkpt lat="42.14627" lon="9.0726">
        <ele>1747.81</ele>
        <time>2016-09-10T11:46:00Z</time>
      </trkpt>
      <trkpt lat="42.14627" lon="9.07258">
        <ele>1746.85</ele>
        <time>2016-09-10T11:46:10Z</time>
      </trkpt>
      <trkpt lat="42.14626" lon="9.07256">
        <ele>1745.89</ele>
        <time>2016-09-10T11:46:17Z</time>
      </trkpt>
      <trkpt lat="42.14626" lon="9.07253">
        <ele>1744.45</ele>
        <time>2016-09-10T11:46:24Z</time>
      </trkpt>
      <trkpt lat="42.14625" lon="9.07249">
        <ele>1743.49</ele>
        <time>2016-09-10T11:46:31Z</time>
      </trkpt>
      <trkpt lat="42.14625" lon="9.07248">
        <ele>1742.53</ele>
        <time>2016-09-10T11:46:37Z</time>
      </trkpt>
      <trkpt lat="42.14627" lon="9.07247">
        <ele>1741.57</ele>
        <time>2016-09-10T11:46:46Z</time>
      </trkpt>
      <trkpt lat="42.14628" lon="9.07246">
        <ele>1740.12</ele>
        <time>2016-09-10T11:46:53Z</time>
      </trkpt>
      <trkpt lat="42.14629" lon="9.07246">
        <ele>1739.64</ele>
        <time>2016-09-10T11:46:59Z</time>
      </trkpt>
      <trkpt lat="42.1463" lon="9.07246">
        <ele>1739.16</ele>
        <time>2016-09-10T11:47:08Z</time>
      </trkpt>
      <trkpt lat="42.1463" lon="9.07246">
        <ele>1738.2</ele>
        <time>2016-09-10T11:47:15Z</time>
      </trkpt>
      <trkpt lat="42.14634" lon="9.07246">
        <ele>1737.24</ele>
        <time>2016-09-10T11:47:22Z</time>
      </trkpt>
      <trkpt lat="42.14637" lon="9.07245">
        <ele>1735.8</ele>
        <time>2016-09-10T11:47:28Z</time>
      </trkpt>
      <trkpt lat="42.14641" lon="9.07242">
        <ele>1734.84</ele>
        <time>2016-09-10T11:47:34Z</time>
      </trkpt>
      <trkpt lat="42.14643" lon="9.07241">
        <ele>1733.88</ele>
        <time>2016-09-10T11:47:41Z</time>
      </trkpt>
      <trkpt lat="42.14644" lon="9.07241">
        <ele>1733.39</ele>
        <time>2016-09-10T11:47:42Z</time>
      </trkpt>
      <trkpt lat="42.14649" lon="9.07242">
        <ele>1731.95</ele>
        <time>2016-09-10T11:47:50Z</time>
      </trkpt>
      <trkpt lat="42.14653" lon="9.07243">
        <ele>1730.99</ele>
        <time>2016-09-10T11:47:56Z</time>
      </trkpt>
      <trkpt lat="42.14656" lon="9.07243">
        <ele>1729.55</ele>
        <time>2016-09-10T11:48:03Z</time>
      </trkpt>
      <trkpt lat="42.14662" lon="9.07243">
        <ele>1729.07</ele>
        <time>2016-09-10T11:48:11Z</time>
      </trkpt>
      <trkpt lat="42.14668" lon="9.07242">
        <ele>1728.11</ele>
        <time>2016-09-10T11:48:18Z</time>
      </trkpt>
      <trkpt lat="42.14672" lon="9.07241">
        <ele>1727.15</ele>
        <time>2016-09-10T11:48:28Z</time>
      </trkpt>
      <trkpt lat="42.14673" lon="9.0724">
        <ele>1725.7</ele>
        <time>2016-09-10T11:48:37Z</time>
      </trkpt>
      <trkpt lat="42.14672" lon="9.07234">
        <ele>1723.78</ele>
        <time>2016-09-10T11:48:44Z</time>
      </trkpt>
      <trkpt lat="42.14673" lon="9.07233">
        <ele>1722.82</ele>
        <time>2016-09-10T11:48:50Z</time>
      </trkpt>
      <trkpt lat="42.14676" lon="9.07232">
        <ele>1721.86</ele>
        <time>2016-09-10T11:49:00Z</time>
      </trkpt>
      <trkpt lat="42.14676" lon="9.07231">
        <ele>1720.42</ele>
        <time>2016-09-10T11:49:08Z</time>
      </trkpt>
      <trkpt lat="42.14676" lon="9.07227">
        <ele>1719.94</ele>
        <time>2016-09-10T11:49:17Z</time>
      </trkpt>
      <trkpt lat="42.14676" lon="9.07224">
        <ele>1718.01</ele>
        <time>2016-09-10T11:49:25Z</time>
      </trkpt>
      <trkpt lat="42.14676" lon="9.07223">
        <ele>1716.57</ele>
        <time>2016-09-10T11:49:32Z</time>
      </trkpt>
      <trkpt lat="42.14677" lon="9.07221">
        <ele>1714.65</ele>
        <time>2016-09-10T11:49:41Z</time>
      </trkpt>
      <trkpt lat="42.14681" lon="9.07215">
        <ele>1713.21</ele>
        <time>2016-09-10T11:49:48Z</time>
      </trkpt>
      <trkpt lat="42.14682" lon="9.07213">
        <ele>1712.25</ele>
        <time>2016-09-10T11:49:55Z</time>
      </trkpt>
      <trkpt lat="42.14683" lon="9.0721">
        <ele>1710.32</ele>
        <time>2016-09-10T11:50:04Z</time>
      </trkpt>
      <trkpt lat="42.14684" lon="9.07208">
        <ele>1709.84</ele>
        <time>2016-09-10T11:50:12Z</time>
      </trkpt>
      <trkpt lat="42.14689" lon="9.07207">
        <ele>1708.88</ele>
        <time>2016-09-10T11:50:19Z</time>
      </trkpt>
      <trkpt lat="42.14692" lon="9.07206">
        <ele>1706.48</ele>
        <time>2016-09-10T11:50:29Z</time>
      </trkpt>
      <trkpt lat="42.14696" lon="9.07202">
        <ele>1704.55</ele>
        <time>2016-09-10T11:50:37Z</time>
      </trkpt>
      <trkpt lat="42.14701" lon="9.07199">
        <ele>1703.11</ele>
        <time>2016-09-10T11:50:45Z</time>
      </trkpt>
      <trkpt lat="42.14706" lon="9.07196">
        <ele>1702.63</ele>
        <time>2016-09-10T11:50:53Z</time>
      </trkpt>
      <trkpt lat="42.14716" lon="9.07191">
        <ele>1701.19</ele>
        <time>2016-09-10T11:51:01Z</time>
      </trkpt>
      <trkpt lat="42.14717" lon="9.07189">
        <ele>1700.23</ele>
        <time>2016-09-10T11:51:09Z</time>
      </trkpt>
      <trkpt lat="42.14717" lon="9.07189">
        <ele>1699.27</ele>
        <time>2016-09-10T11:51:16Z</time>
      </trkpt>
      <trkpt lat="42.14719" lon="9.07187">
        <ele>1697.34</ele>
        <time>2016-09-10T11:51:24Z</time>
      </trkpt>
      <trkpt lat="42.14723" lon="9.07186">
        <ele>1696.38</ele>
        <time>2016-09-10T11:51:31Z</time>
      </trkpt>
      <trkpt lat="42.14724" lon="9.07185">
        <ele>1695.9</ele>
        <time>2016-09-10T11:51:39Z</time>
      </trkpt>
      <trkpt lat="42.14725" lon="9.07183">
        <ele>1694.94</ele>
        <time>2016-09-10T11:51:47Z</time>
      </trkpt>
      <trkpt lat="42.14726" lon="9.07181">
        <ele>1694.46</ele>
        <time>2016-09-10T11:51:55Z</time>
      </trkpt>
      <trkpt lat="42.14726" lon="9.0718">
        <ele>1692.54</ele>
        <time>2016-09-10T11:52:02Z</time>
      </trkpt>
      <trkpt lat="42.14726" lon="9.07179">
        <ele>1691.58</ele>
        <time>2016-09-10T11:52:10Z</time>
      </trkpt>
      <trkpt lat="42.14726" lon="9.07178">
        <ele>1691.1</ele>
        <time>2016-09-10T11:52:18Z</time>
      </trkpt>
      <trkpt lat="42.14726" lon="9.07178">
        <ele>1689.65</ele>
        <time>2016-09-10T11:52:25Z</time>
      </trkpt>
      <trkpt lat="42.14727" lon="9.07177">
        <ele>1688.21</ele>
        <time>2016-09-10T11:52:33Z</time>
      </trkpt>
      <trkpt lat="42.14727" lon="9.07177">
        <ele>1687.73</ele>
        <time>2016-09-10T11:52:41Z</time>
      </trkpt>
      <trkpt lat="42.14733" lon="9.07176">
        <ele>1686.77</ele>
        <time>2016-09-10T11:52:50Z</time>
      </trkpt>
      <trkpt lat="42.14734" lon="9.07175">
        <ele>1685.81</ele>
        <time>2016-09-10T11:52:57Z</time>
      </trkpt>
      <trkpt lat="42.14735" lon="9.07173">
        <ele>1684.85</ele>
        <time>2016-09-10T11:53:04Z</time>
      </trkpt>
      <trkpt lat="42.14739" lon="9.07171">
        <ele>1683.89</ele>
        <time>2016-09-10T11:53:11Z</time>
      </trkpt>
      <trkpt lat="42.14739" lon="9.0717">
        <ele>1682.44</ele>
        <time>2016-09-10T11:53:19Z</time>
      </trkpt>
      <trkpt lat="42.14742" lon="9.07168">
        <ele>1681.96</ele>
        <time>2016-09-10T11:53:26Z</time>
      </trkpt>
      <trkpt lat="42.14746" lon="9.07164">
        <ele>1680.52</ele>
        <time>2016-09-10T11:53:34Z</time>
      </trkpt>
      <trkpt lat="42.14746" lon="9.07158">
        <ele>1679.56</ele>
        <time>2016-09-10T11:53:41Z</time>
      </trkpt>
      <trkpt lat="42.14746" lon="9.07154">
        <ele>1678.6</ele>
        <time>2016-09-10T11:53:48Z</time>
      </trkpt>
      <trkpt lat="42.14746" lon="9.07152">
        <ele>1677.64</ele>
        <time>2016-09-10T11:53:55Z</time>
      </trkpt>
      <trkpt lat="42.14749" lon="9.07152">
        <ele>1676.2</ele>
        <time>2016-09-10T11:54:03Z</time>
      </trkpt>
      <trkpt lat="42.1475" lon="9.07149">
        <ele>1674.75</ele>
        <time>2016-09-10T11:54:11Z</time>
      </trkpt>
      <trkpt lat="42.14751" lon="9.07147">
        <ele>1673.31</ele>
        <time>2016-09-10T11:54:19Z</time>
      </trkpt>
      <trkpt lat="42.14752" lon="9.07145">
        <ele>1672.35</ele>
        <time>2016-09-10T11:54:25Z</time>
      </trkpt>
      <trkpt lat="42.14755" lon="9.07145">
        <ele>1671.39</ele>
        <time>2016-09-10T11:54:34Z</time>
      </trkpt>
      <trkpt lat="42.14756" lon="9.07144">
        <ele>1670.91</ele>
        <time>2016-09-10T11:54:41Z</time>
      </trkpt>
      <trkpt lat="42.14756" lon="9.07142">
        <ele>1669.95</ele>
        <time>2016-09-10T11:54:46Z</time>
      </trkpt>
      <trkpt lat="42.14756" lon="9.07142">
        <ele>1669.95</ele>
        <time>2016-09-10T11:55:02Z</time>
      </trkpt>
      <trkpt lat="42.14758" lon="9.07142">
        <ele>1668.99</ele>
        <time>2016-09-10T11:55:16Z</time>
      </trkpt>
      <trkpt lat="42.14762" lon="9.07141">
        <ele>1667.54</ele>
        <time>2016-09-10T11:55:23Z</time>
      </trkpt>
      <trkpt lat="42.14765" lon="9.07142">
        <ele>1666.58</ele>
        <time>2016-09-10T11:55:30Z</time>
      </trkpt>
      <trkpt lat="42.14768" lon="9.07142">
        <ele>1664.66</ele>
        <time>2016-09-10T11:55:36Z</time>
      </trkpt>
      <trkpt lat="42.14776" lon="9.0714">
        <ele>1662.74</ele>
        <time>2016-09-10T11:55:45Z</time>
      </trkpt>
      <trkpt lat="42.14779" lon="9.07138">
        <ele>1661.78</ele>
        <time>2016-09-10T11:55:50Z</time>
      </trkpt>
      <trkpt lat="42.14784" lon="9.07138">
        <ele>1660.33</ele>
        <time>2016-09-10T11:55:58Z</time>
      </trkpt>
      <trkpt lat="42.14788" lon="9.07139">
        <ele>1660.33</ele>
        <time>2016-09-10T11:56:05Z</time>
      </trkpt>
      <trkpt lat="42.1479" lon="9.07139">
        <ele>1660.33</ele>
        <time>2016-09-10T11:56:07Z</time>
      </trkpt>
      <trkpt lat="42.14792" lon="9.07139">
        <ele>1659.85</ele>
        <time>2016-09-10T11:56:09Z</time>
      </trkpt>
      <trkpt lat="42.14798" lon="9.07136">
        <ele>1658.41</ele>
        <time>2016-09-10T11:56:17Z</time>
      </trkpt>
      <trkpt lat="42.14806" lon="9.07133">
        <ele>1657.45</ele>
        <time>2016-09-10T11:56:26Z</time>
      </trkpt>
      <trkpt lat="42.14807" lon="9.07133">
        <ele>1657.45</ele>
        <time>2016-09-10T11:56:35Z</time>
      </trkpt>
      <trkpt lat="42.14808" lon="9.07133">
        <ele>1657.93</ele>
        <time>2016-09-10T11:56:45Z</time>
      </trkpt>
      <trkpt lat="42.14808" lon="9.07133">
        <ele>1657.45</ele>
        <time>2016-09-10T11:56:57Z</time>
      </trkpt>
      <trkpt lat="42.14808" lon="9.07134">
        <ele>1657.45</ele>
        <time>2016-09-10T11:57:15Z</time>
      </trkpt>
      <trkpt lat="42.14808" lon="9.07134">
        <ele>1656.97</ele>
        <time>2016-09-10T11:57:28Z</time>
      </trkpt>
      <trkpt lat="42.14809" lon="9.07133">
        <ele>1656.49</ele>
        <time>2016-09-10T11:57:40Z</time>
      </trkpt>
      <trkpt lat="42.14809" lon="9.07132">
        <ele>1656.49</ele>
        <time>2016-09-10T11:57:52Z</time>
      </trkpt>
      <trkpt lat="42.14809" lon="9.07132">
        <ele>1656.49</ele>
        <time>2016-09-10T11:58:04Z</time>
      </trkpt>
      <trkpt lat="42.14808" lon="9.0713">
        <ele>1656.49</ele>
        <time>2016-09-10T11:58:14Z</time>
      </trkpt>
      <trkpt lat="42.14808" lon="9.07129">
        <ele>1656.49</ele>
        <time>2016-09-10T11:58:24Z</time>
      </trkpt>
      <trkpt lat="42.14809" lon="9.07129">
        <ele>1656.49</ele>
        <time>2016-09-10T11:58:32Z</time>
      </trkpt>
      <trkpt lat="42.14809" lon="9.0713">
        <ele>1656.49</ele>
        <time>2016-09-10T11:58:42Z</time>
      </trkpt>
      <trkpt lat="42.1481" lon="9.07131">
        <ele>1656.49</ele>
        <time>2016-09-10T11:58:58Z</time>
      </trkpt>
      <trkpt lat="42.1481" lon="9.07132">
        <ele>1656.49</ele>
        <time>2016-09-10T11:59:17Z</time>
      </trkpt>
      <trkpt lat="42.1481" lon="9.07132">
        <ele>1656.49</ele>
        <time>2016-09-10T11:59:32Z</time>
      </trkpt>
      <trkpt lat="42.14811" lon="9.07131">
        <ele>1656.49</ele>
        <time>2016-09-10T11:59:47Z</time>
      </trkpt>
      <trkpt lat="42.14811" lon="9.07132">
        <ele>1656.49</ele>
        <time>2016-09-10T11:59:58Z</time>
      </trkpt>
      <trkpt lat="42.14812" lon="9.07133">
        <ele>1656.97</ele>
        <time>2016-09-10T12:00:08Z</time>
      </trkpt>
      <trkpt lat="42.14812" lon="9.07133">
        <ele>1656.97</ele>
        <time>2016-09-10T12:00:22Z</time>
      </trkpt>
      <trkpt lat="42.14812" lon="9.07133">
        <ele>1656.97</ele>
        <time>2016-09-10T12:00:38Z</time>
      </trkpt>
      <trkpt lat="42.14812" lon="9.07133">
        <ele>1656.97</ele>
        <time>2016-09-10T12:00:57Z</time>
      </trkpt>
      <trkpt lat="42.14812" lon="9.07132">
        <ele>1656.49</ele>
        <time>2016-09-10T12:01:16Z</time>
      </trkpt>
      <trkpt lat="42.14812" lon="9.07132">
        <ele>1656.49</ele>
        <time>2016-09-10T12:01:30Z</time>
      </trkpt>
      <trkpt lat="42.14812" lon="9.07132">
        <ele>1656.49</ele>
        <time>2016-09-10T12:01:47Z</time>
      </trkpt>
      <trkpt lat="42.14812" lon="9.07133">
        <ele>1656.97</ele>
        <time>2016-09-10T12:02:05Z</time>
      </trkpt>
      <trkpt lat="42.14812" lon="9.07133">
        <ele>1656.49</ele>
        <time>2016-09-10T12:02:21Z</time>
      </trkpt>
      <trkpt lat="42.14809" lon="9.07133">
        <ele>1656.01</ele>
        <time>2016-09-10T12:02:29Z</time>
      </trkpt>
      <trkpt lat="42.14807" lon="9.07133">
        <ele>1656.49</ele>
        <time>2016-09-10T12:02:38Z</time>
      </trkpt>
      <trkpt lat="42.14806" lon="9.07133">
        <ele>1656.49</ele>
        <time>2016-09-10T12:02:46Z</time>
      </trkpt>
      <trkpt lat="42.14806" lon="9.07134">
        <ele>1656.49</ele>
        <time>2016-09-10T12:03:03Z</time>
      </trkpt>
      <trkpt lat="42.14807" lon="9.07134">
        <ele>1656.49</ele>
        <time>2016-09-10T12:03:16Z</time>
      </trkpt>
      <trkpt lat="42.14807" lon="9.07134">
        <ele>1656.01</ele>
        <time>2016-09-10T12:03:30Z</time>
      </trkpt>
      <trkpt lat="42.14806" lon="9.07134">
        <ele>1656.49</ele>
        <time>2016-09-10T12:03:46Z</time>
      </trkpt>
      <trkpt lat="42.14806" lon="9.07133">
        <ele>1656.49</ele>
        <time>2016-09-10T12:04:05Z</time>
      </trkpt>
      <trkpt lat="42.14807" lon="9.07133">
        <ele>1656.01</ele>
        <time>2016-09-10T12:04:19Z</time>
      </trkpt>
      <trkpt lat="42.14807" lon="9.07134">
        <ele>1656.49</ele>
        <time>2016-09-10T12:04:31Z</time>
      </trkpt>
      <trkpt lat="42.14807" lon="9.07133">
        <ele>1656.49</ele>
        <time>2016-09-10T12:04:47Z</time>
      </trkpt>
      <trkpt lat="42.14807" lon="9.07133">
        <ele>1656.01</ele>
        <time>2016-09-10T12:05:09Z</time>
      </trkpt>
      <trkpt lat="42.14808" lon="9.07133">
        <ele>1656.01</ele>
        <time>2016-09-10T12:05:26Z</time>
      </trkpt>
      <trkpt lat="42.14809" lon="9.07133">
        <ele>1655.53</ele>
        <time>2016-09-10T12:05:45Z</time>
      </trkpt>
      <trkpt lat="42.14809" lon="9.07132">
        <ele>1655.53</ele>
        <time>2016-09-10T12:05:55Z</time>
      </trkpt>
      <trkpt lat="42.14809" lon="9.07132">
        <ele>1655.05</ele>
        <time>2016-09-10T12:06:09Z</time>
      </trkpt>
      <trkpt lat="42.14809" lon="9.07132">
        <ele>1655.05</ele>
        <time>2016-09-10T12:06:28Z</time>
      </trkpt>
      <trkpt lat="42.14809" lon="9.07133">
        <ele>1655.05</ele>
        <time>2016-09-10T12:06:49Z</time>
      </trkpt>
      <trkpt lat="42.14809" lon="9.07133">
        <ele>1655.05</ele>
        <time>2016-09-10T12:07:04Z</time>
      </trkpt>
      <trkpt lat="42.14808" lon="9.07133">
        <ele>1655.53</ele>
        <time>2016-09-10T12:07:17Z</time>
      </trkpt>
      <trkpt lat="42.14807" lon="9.07134">
        <ele>1655.53</ele>
        <time>2016-09-10T12:07:26Z</time>
      </trkpt>
      <trkpt lat="42.14808" lon="9.07134">
        <ele>1655.05</ele>
        <time>2016-09-10T12:07:49Z</time>
      </trkpt>
      <trkpt lat="42.14807" lon="9.07134">
        <ele>1655.05</ele>
        <time>2016-09-10T12:08:10Z</time>
      </trkpt>
      <trkpt lat="42.14807" lon="9.07134">
        <ele>1654.57</ele>
        <time>2016-09-10T12:08:30Z</time>
      </trkpt>
      <trkpt lat="42.14808" lon="9.07134">
        <ele>1655.05</ele>
        <time>2016-09-10T12:08:41Z</time>
      </trkpt>
      <trkpt lat="42.14808" lon="9.07134">
        <ele>1655.53</ele>
        <time>2016-09-10T12:08:58Z</time>
      </trkpt>
      <trkpt lat="42.14807" lon="9.07134">
        <ele>1656.01</ele>
        <time>2016-09-10T12:09:19Z</time>
      </trkpt>
      <trkpt lat="42.14807" lon="9.07134">
        <ele>1655.05</ele>
        <time>2016-09-10T12:09:39Z</time>
      </trkpt>
      <trkpt lat="42.14808" lon="9.07134">
        <ele>1655.53</ele>
        <time>2016-09-10T12:10:03Z</time>
      </trkpt>
      <trkpt lat="42.14807" lon="9.07135">
        <ele>1655.05</ele>
        <time>2016-09-10T12:10:15Z</time>
      </trkpt>
      <trkpt lat="42.14807" lon="9.07134">
        <ele>1655.05</ele>
        <time>2016-09-10T12:10:26Z</time>
      </trkpt>
      <trkpt lat="42.14807" lon="9.07135">
        <ele>1654.57</ele>
        <time>2016-09-10T12:10:41Z</time>
      </trkpt>
      <trkpt lat="42.14811" lon="9.07133">
        <ele>1654.57</ele>
        <time>2016-09-10T12:10:50Z</time>
      </trkpt>
      <trkpt lat="42.14812" lon="9.07132">
        <ele>1654.09</ele>
        <time>2016-09-10T12:10:56Z</time>
      </trkpt>
      <trkpt lat="42.14814" lon="9.0713">
        <ele>1653.12</ele>
        <time>2016-09-10T12:11:02Z</time>
      </trkpt>
      <trkpt lat="42.14816" lon="9.07128">
        <ele>1652.64</ele>
        <time>2016-09-10T12:11:09Z</time>
      </trkpt>
      <trkpt lat="42.14817" lon="9.07127">
        <ele>1651.2</ele>
        <time>2016-09-10T12:11:15Z</time>
      </trkpt>
      <trkpt lat="42.14819" lon="9.07124">
        <ele>1650.24</ele>
        <time>2016-09-10T12:11:21Z</time>
      </trkpt>
      <trkpt lat="42.14819" lon="9.07122">
        <ele>1649.76</ele>
        <time>2016-09-10T12:11:27Z</time>
      </trkpt>
      <trkpt lat="42.14822" lon="9.07121">
        <ele>1648.8</ele>
        <time>2016-09-10T12:11:34Z</time>
      </trkpt>
      <trkpt lat="42.14823" lon="9.07119">
        <ele>1647.84</ele>
        <time>2016-09-10T12:11:40Z</time>
      </trkpt>
      <trkpt lat="42.14827" lon="9.07119">
        <ele>1646.88</ele>
        <time>2016-09-10T12:11:47Z</time>
      </trkpt>
      <trkpt lat="42.14828" lon="9.07118">
        <ele>1646.4</ele>
        <time>2016-09-10T12:11:53Z</time>
      </trkpt>
      <trkpt lat="42.14829" lon="9.07121">
        <ele>1645.43</ele>
        <time>2016-09-10T12:12:01Z</time>
      </trkpt>
      <trkpt lat="42.14831" lon="9.07121">
        <ele>1644.47</ele>
        <time>2016-09-10T12:12:07Z</time>
      </trkpt>
      <trkpt lat="42.14835" lon="9.07121">
        <ele>1643.51</ele>
        <time>2016-09-10T12:12:15Z</time>
      </trkpt>
      <trkpt lat="42.14838" lon="9.07119">
        <ele>1643.03</ele>
        <time>2016-09-10T12:12:22Z</time>
      </trkpt>
      <trkpt lat="42.14839" lon="9.07117">
        <ele>1642.07</ele>
        <time>2016-09-10T12:12:27Z</time>
      </trkpt>
      <trkpt lat="42.14839" lon="9.07114">
        <ele>1641.11</ele>
        <time>2016-09-10T12:12:35Z</time>
      </trkpt>
      <trkpt lat="42.1484" lon="9.07113">
        <ele>1640.15</ele>
        <time>2016-09-10T12:12:42Z</time>
      </trkpt>
      <trkpt lat="42.14842" lon="9.07114">
        <ele>1639.67</ele>
        <time>2016-09-10T12:12:51Z</time>
      </trkpt>
      <trkpt lat="42.14844" lon="9.07114">
        <ele>1639.19</ele>
        <time>2016-09-10T12:12:57Z</time>
      </trkpt>
      <trkpt lat="42.14846" lon="9.07114">
        <ele>1638.22</ele>
        <time>2016-09-10T12:13:04Z</time>
      </trkpt>
      <trkpt lat="42.14848" lon="9.07114">
        <ele>1637.74</ele>
        <time>2016-09-10T12:13:13Z</time>
      </trkpt>
      <trkpt lat="42.14852" lon="9.07111">
        <ele>1637.26</ele>
        <time>2016-09-10T12:13:22Z</time>
      </trkpt>
      <trkpt lat="42.14853" lon="9.0711">
        <ele>1636.3</ele>
        <time>2016-09-10T12:13:29Z</time>
      </trkpt>
      <trkpt lat="42.14857" lon="9.07109">
        <ele>1635.34</ele>
        <time>2016-09-10T12:13:37Z</time>
      </trkpt>
      <trkpt lat="42.14858" lon="9.07108">
        <ele>1634.86</ele>
        <time>2016-09-10T12:13:43Z</time>
      </trkpt>
      <trkpt lat="42.14859" lon="9.07107">
        <ele>1633.9</ele>
        <time>2016-09-10T12:13:51Z</time>
      </trkpt>
      <trkpt lat="42.1486" lon="9.07106">
        <ele>1632.94</ele>
        <time>2016-09-10T12:14:00Z</time>
      </trkpt>
      <trkpt lat="42.14862" lon="9.07105">
        <ele>1632.46</ele>
        <time>2016-09-10T12:14:09Z</time>
      </trkpt>
      <trkpt lat="42.14862" lon="9.071">
        <ele>1631.01</ele>
        <time>2016-09-10T12:14:18Z</time>
      </trkpt>
      <trkpt lat="42.14863" lon="9.07099">
        <ele>1630.05</ele>
        <time>2016-09-10T12:14:25Z</time>
      </trkpt>
      <trkpt lat="42.14864" lon="9.07098">
        <ele>1629.57</ele>
        <time>2016-09-10T12:14:32Z</time>
      </trkpt>
      <trkpt lat="42.14864" lon="9.07096">
        <ele>1628.61</ele>
        <time>2016-09-10T12:14:41Z</time>
      </trkpt>
      <trkpt lat="42.14865" lon="9.07096">
        <ele>1627.65</ele>
        <time>2016-09-10T12:14:50Z</time>
      </trkpt>
      <trkpt lat="42.14867" lon="9.07097">
        <ele>1626.69</ele>
        <time>2016-09-10T12:14:57Z</time>
      </trkpt>
      <trkpt lat="42.14868" lon="9.07097">
        <ele>1626.21</ele>
        <time>2016-09-10T12:15:05Z</time>
      </trkpt>
      <trkpt lat="42.1487" lon="9.07097">
        <ele>1625.73</ele>
        <time>2016-09-10T12:15:11Z</time>
      </trkpt>
      <trkpt lat="42.14874" lon="9.07095">
        <ele>1624.77</ele>
        <time>2016-09-10T12:15:19Z</time>
      </trkpt>
      <trkpt lat="42.14877" lon="9.07095">
        <ele>1623.8</ele>
        <time>2016-09-10T12:15:25Z</time>
      </trkpt>
      <trkpt lat="42.14881" lon="9.07096">
        <ele>1623.32</ele>
        <time>2016-09-10T12:15:31Z</time>
      </trkpt>
      <trkpt lat="42.14885" lon="9.07095">
        <ele>1622.36</ele>
        <time>2016-09-10T12:15:37Z</time>
      </trkpt>
      <trkpt lat="42.14892" lon="9.07092">
        <ele>1620.44</ele>
        <time>2016-09-10T12:15:46Z</time>
      </trkpt>
      <trkpt lat="42.14893" lon="9.0709">
        <ele>1620.44</ele>
        <time>2016-09-10T12:15:53Z</time>
      </trkpt>
      <trkpt lat="42.14893" lon="9.07087">
        <ele>1619</ele>
        <time>2016-09-10T12:15:59Z</time>
      </trkpt>
      <trkpt lat="42.14895" lon="9.07079">
        <ele>1616.59</ele>
        <time>2016-09-10T12:16:07Z</time>
      </trkpt>
      <trkpt lat="42.14894" lon="9.07078">
        <ele>1616.11</ele>
        <time>2016-09-10T12:16:08Z</time>
      </trkpt>
      <trkpt lat="42.14894" lon="9.07072">
        <ele>1614.19</ele>
        <time>2016-09-10T12:16:14Z</time>
      </trkpt>
      <trkpt lat="42.14898" lon="9.07073">
        <ele>1612.27</ele>
        <time>2016-09-10T12:16:23Z</time>
      </trkpt>
      <trkpt lat="42.149" lon="9.07073">
        <ele>1612.27</ele>
        <time>2016-09-10T12:16:30Z</time>
      </trkpt>
      <trkpt lat="42.14901" lon="9.07073">
        <ele>1612.27</ele>
        <time>2016-09-10T12:16:32Z</time>
      </trkpt>
      <trkpt lat="42.14906" lon="9.07071">
        <ele>1610.83</ele>
        <time>2016-09-10T12:16:39Z</time>
      </trkpt>
      <trkpt lat="42.14913" lon="9.0707">
        <ele>1609.86</ele>
        <time>2016-09-10T12:16:46Z</time>
      </trkpt>
      <trkpt lat="42.14921" lon="9.0707">
        <ele>1609.38</ele>
        <time>2016-09-10T12:16:53Z</time>
      </trkpt>
      <trkpt lat="42.14925" lon="9.07071">
        <ele>1608.9</ele>
        <time>2016-09-10T12:17:00Z</time>
      </trkpt>
      <trkpt lat="42.1493" lon="9.0707">
        <ele>1608.9</ele>
        <time>2016-09-10T12:17:06Z</time>
      </trkpt>
      <trkpt lat="42.14933" lon="9.07071">
        <ele>1609.38</ele>
        <time>2016-09-10T12:17:12Z</time>
      </trkpt>
      <trkpt lat="42.14937" lon="9.07069">
        <ele>1607.94</ele>
        <time>2016-09-10T12:17:19Z</time>
      </trkpt>
      <trkpt lat="42.1494" lon="9.07066">
        <ele>1606.98</ele>
        <time>2016-09-10T12:17:25Z</time>
      </trkpt>
      <trkpt lat="42.14944" lon="9.07064">
        <ele>1606.02</ele>
        <time>2016-09-10T12:17:30Z</time>
      </trkpt>
      <trkpt lat="42.14949" lon="9.07062">
        <ele>1605.54</ele>
        <time>2016-09-10T12:17:36Z</time>
      </trkpt>
      <trkpt lat="42.14958" lon="9.07058">
        <ele>1604.1</ele>
        <time>2016-09-10T12:17:46Z</time>
      </trkpt>
      <trkpt lat="42.14965" lon="9.07052">
        <ele>1603.14</ele>
        <time>2016-09-10T12:17:54Z</time>
      </trkpt>
      <trkpt lat="42.1497" lon="9.0705">
        <ele>1601.21</ele>
        <time>2016-09-10T12:18:02Z</time>
      </trkpt>
      <trkpt lat="42.14974" lon="9.07047">
        <ele>1600.25</ele>
        <time>2016-09-10T12:18:09Z</time>
      </trkpt>
      <trkpt lat="42.14979" lon="9.0704">
        <ele>1597.85</ele>
        <time>2016-09-10T12:18:17Z</time>
      </trkpt>
      <trkpt lat="42.14985" lon="9.07036">
        <ele>1596.89</ele>
        <time>2016-09-10T12:18:25Z</time>
      </trkpt>
      <trkpt lat="42.14989" lon="9.07033">
        <ele>1594.96</ele>
        <time>2016-09-10T12:18:32Z</time>
      </trkpt>
      <trkpt lat="42.14993" lon="9.07031">
        <ele>1594</ele>
        <time>2016-09-10T12:18:40Z</time>
      </trkpt>
      <trkpt lat="42.14995" lon="9.0703">
        <ele>1592.56</ele>
        <time>2016-09-10T12:18:48Z</time>
      </trkpt>
      <trkpt lat="42.14997" lon="9.07028">
        <ele>1591.12</ele>
        <time>2016-09-10T12:18:54Z</time>
      </trkpt>
      <trkpt lat="42.14999" lon="9.07026">
        <ele>1590.64</ele>
        <time>2016-09-10T12:19:01Z</time>
      </trkpt>
      <trkpt lat="42.15002" lon="9.07026">
        <ele>1589.68</ele>
        <time>2016-09-10T12:19:09Z</time>
      </trkpt>
      <trkpt lat="42.15003" lon="9.07027">
        <ele>1588.24</ele>
        <time>2016-09-10T12:19:15Z</time>
      </trkpt>
      <trkpt lat="42.15008" lon="9.07036">
        <ele>1587.75</ele>
        <time>2016-09-10T12:19:23Z</time>
      </trkpt>
      <trkpt lat="42.15009" lon="9.07039">
        <ele>1586.79</ele>
        <time>2016-09-10T12:19:31Z</time>
      </trkpt>
      <trkpt lat="42.15011" lon="9.07043">
        <ele>1586.31</ele>
        <time>2016-09-10T12:19:38Z</time>
      </trkpt>
      <trkpt lat="42.15015" lon="9.07046">
        <ele>1584.87</ele>
        <time>2016-09-10T12:19:47Z</time>
      </trkpt>
      <trkpt lat="42.15018" lon="9.07044">
        <ele>1583.91</ele>
        <time>2016-09-10T12:19:55Z</time>
      </trkpt>
      <trkpt lat="42.1502" lon="9.07043">
        <ele>1582.95</ele>
        <time>2016-09-10T12:20:02Z</time>
      </trkpt>
      <trkpt lat="42.15022" lon="9.07045">
        <ele>1581.51</ele>
        <time>2016-09-10T12:20:10Z</time>
      </trkpt>
      <trkpt lat="42.15022" lon="9.07047">
        <ele>1581.03</ele>
        <time>2016-09-10T12:20:19Z</time>
      </trkpt>
      <trkpt lat="42.15023" lon="9.07047">
        <ele>1580.06</ele>
        <time>2016-09-10T12:20:26Z</time>
      </trkpt>
      <trkpt lat="42.15025" lon="9.07048">
        <ele>1579.1</ele>
        <time>2016-09-10T12:20:32Z</time>
      </trkpt>
      <trkpt lat="42.15027" lon="9.07048">
        <ele>1578.14</ele>
        <time>2016-09-10T12:20:41Z</time>
      </trkpt>
      <trkpt lat="42.1503" lon="9.07048">
        <ele>1577.18</ele>
        <time>2016-09-10T12:20:49Z</time>
      </trkpt>
      <trkpt lat="42.15033" lon="9.07052">
        <ele>1575.74</ele>
        <time>2016-09-10T12:20:55Z</time>
      </trkpt>
      <trkpt lat="42.15037" lon="9.07054">
        <ele>1574.78</ele>
        <time>2016-09-10T12:21:02Z</time>
      </trkpt>
      <trkpt lat="42.15041" lon="9.07057">
        <ele>1573.82</ele>
        <time>2016-09-10T12:21:08Z</time>
      </trkpt>
      <trkpt lat="42.15045" lon="9.07058">
        <ele>1572.85</ele>
        <time>2016-09-10T12:21:15Z</time>
      </trkpt>
      <trkpt lat="42.15048" lon="9.07059">
        <ele>1571.41</ele>
        <time>2016-09-10T12:21:24Z</time>
      </trkpt>
      <trkpt lat="42.15052" lon="9.07061">
        <ele>1570.45</ele>
        <time>2016-09-10T12:21:31Z</time>
      </trkpt>
      <trkpt lat="42.15055" lon="9.07057">
        <ele>1569.49</ele>
        <time>2016-09-10T12:21:40Z</time>
      </trkpt>
      <trkpt lat="42.15057" lon="9.07056">
        <ele>1568.53</ele>
        <time>2016-09-10T12:21:47Z</time>
      </trkpt>
      <trkpt lat="42.15059" lon="9.07057">
        <ele>1567.09</ele>
        <time>2016-09-10T12:21:54Z</time>
      </trkpt>
      <trkpt lat="42.15062" lon="9.07054">
        <ele>1566.61</ele>
        <time>2016-09-10T12:22:00Z</time>
      </trkpt>
      <trkpt lat="42.15064" lon="9.07054">
        <ele>1565.16</ele>
        <time>2016-09-10T12:22:09Z</time>
      </trkpt>
      <trkpt lat="42.15066" lon="9.07055">
        <ele>1563.72</ele>
        <time>2016-09-10T12:22:15Z</time>
      </trkpt>
      <trkpt lat="42.15067" lon="9.07054">
        <ele>1563.24</ele>
        <time>2016-09-10T12:22:20Z</time>
      </trkpt>
      <trkpt lat="42.15071" lon="9.07053">
        <ele>1561.8</ele>
        <time>2016-09-10T12:22:27Z</time>
      </trkpt>
      <trkpt lat="42.15076" lon="9.07049">
        <ele>1560.84</ele>
        <time>2016-09-10T12:22:36Z</time>
      </trkpt>
      <trkpt lat="42.1508" lon="9.0705">
        <ele>1559.88</ele>
        <time>2016-09-10T12:22:43Z</time>
      </trkpt>
      <trkpt lat="42.15083" lon="9.07053">
        <ele>1558.43</ele>
        <time>2016-09-10T12:22:50Z</time>
      </trkpt>
      <trkpt lat="42.15083" lon="9.07053">
        <ele>1558.43</ele>
        <time>2016-09-10T12:22:51Z</time>
      </trkpt>
      <trkpt lat="42.15086" lon="9.0706">
        <ele>1557.47</ele>
        <time>2016-09-10T12:22:59Z</time>
      </trkpt>
      <trkpt lat="42.15089" lon="9.0706">
        <ele>1556.03</ele>
        <time>2016-09-10T12:23:06Z</time>
      </trkpt>
      <trkpt lat="42.15092" lon="9.07063">
        <ele>1555.07</ele>
        <time>2016-09-10T12:23:14Z</time>
      </trkpt>
      <trkpt lat="42.15097" lon="9.07063">
        <ele>1554.11</ele>
        <time>2016-09-10T12:23:22Z</time>
      </trkpt>
      <trkpt lat="42.15099" lon="9.07064">
        <ele>1552.67</ele>
        <time>2016-09-10T12:23:30Z</time>
      </trkpt>
      <trkpt lat="42.15101" lon="9.07064">
        <ele>1551.71</ele>
        <time>2016-09-10T12:23:37Z</time>
      </trkpt>
      <trkpt lat="42.15103" lon="9.07065">
        <ele>1550.74</ele>
        <time>2016-09-10T12:23:44Z</time>
      </trkpt>
      <trkpt lat="42.15106" lon="9.07064">
        <ele>1549.78</ele>
        <time>2016-09-10T12:23:52Z</time>
      </trkpt>
      <trkpt lat="42.15111" lon="9.07065">
        <ele>1548.82</ele>
        <time>2016-09-10T12:23:59Z</time>
      </trkpt>
      <trkpt lat="42.15115" lon="9.07067">
        <ele>1547.38</ele>
        <time>2016-09-10T12:24:06Z</time>
      </trkpt>
      <trkpt lat="42.15118" lon="9.07069">
        <ele>1545.94</ele>
        <time>2016-09-10T12:24:12Z</time>
      </trkpt>
      <trkpt lat="42.1512" lon="9.0707">
        <ele>1544.98</ele>
        <time>2016-09-10T12:24:19Z</time>
      </trkpt>
      <trkpt lat="42.15122" lon="9.07072">
        <ele>1543.05</ele>
        <time>2016-09-10T12:24:27Z</time>
      </trkpt>
      <trkpt lat="42.15125" lon="9.07072">
        <ele>1542.09</ele>
        <time>2016-09-10T12:24:34Z</time>
      </trkpt>
      <trkpt lat="42.15125" lon="9.07072">
        <ele>1541.13</ele>
        <time>2016-09-10T12:24:40Z</time>
      </trkpt>
      <trkpt lat="42.15127" lon="9.07072">
        <ele>1540.17</ele>
        <time>2016-09-10T12:24:48Z</time>
      </trkpt>
      <trkpt lat="42.15128" lon="9.07071">
        <ele>1539.69</ele>
        <time>2016-09-10T12:24:54Z</time>
      </trkpt>
      <trkpt lat="42.15132" lon="9.0707">
        <ele>1538.25</ele>
        <time>2016-09-10T12:25:01Z</time>
      </trkpt>
      <trkpt lat="42.15135" lon="9.07069">
        <ele>1537.29</ele>
        <time>2016-09-10T12:25:08Z</time>
      </trkpt>
      <trkpt lat="42.15136" lon="9.07069">
        <ele>1536.32</ele>
        <time>2016-09-10T12:25:15Z</time>
      </trkpt>
      <trkpt lat="42.15138" lon="9.0707">
        <ele>1535.36</ele>
        <time>2016-09-10T12:25:22Z</time>
      </trkpt>
      <trkpt lat="42.1514" lon="9.07071">
        <ele>1534.4</ele>
        <time>2016-09-10T12:25:28Z</time>
      </trkpt>
      <trkpt lat="42.15141" lon="9.07071">
        <ele>1533.44</ele>
        <time>2016-09-10T12:25:34Z</time>
      </trkpt>
      <trkpt lat="42.15142" lon="9.07071">
        <ele>1532.48</ele>
        <time>2016-09-10T12:25:42Z</time>
      </trkpt>
      <trkpt lat="42.15144" lon="9.07071">
        <ele>1532</ele>
        <time>2016-09-10T12:25:50Z</time>
      </trkpt>
      <trkpt lat="42.15147" lon="9.07071">
        <ele>1531.52</ele>
        <time>2016-09-10T12:25:59Z</time>
      </trkpt>
      <trkpt lat="42.15148" lon="9.07071">
        <ele>1531.04</ele>
        <time>2016-09-10T12:26:06Z</time>
      </trkpt>
      <trkpt lat="42.1515" lon="9.07075">
        <ele>1530.56</ele>
        <time>2016-09-10T12:26:18Z</time>
      </trkpt>
      <trkpt lat="42.15152" lon="9.07081">
        <ele>1528.63</ele>
        <time>2016-09-10T12:26:26Z</time>
      </trkpt>
      <trkpt lat="42.15153" lon="9.07084">
        <ele>1528.15</ele>
        <time>2016-09-10T12:26:33Z</time>
      </trkpt>
      <trkpt lat="42.15154" lon="9.07085">
        <ele>1527.19</ele>
        <time>2016-09-10T12:26:39Z</time>
      </trkpt>
      <trkpt lat="42.15158" lon="9.07089">
        <ele>1525.75</ele>
        <time>2016-09-10T12:26:46Z</time>
      </trkpt>
      <trkpt lat="42.1516" lon="9.0709">
        <ele>1524.79</ele>
        <time>2016-09-10T12:26:53Z</time>
      </trkpt>
      <trkpt lat="42.15161" lon="9.07091">
        <ele>1523.83</ele>
        <time>2016-09-10T12:27:00Z</time>
      </trkpt>
      <trkpt lat="42.15172" lon="9.07094">
        <ele>1521.9</ele>
        <time>2016-09-10T12:27:09Z</time>
      </trkpt>
      <trkpt lat="42.15176" lon="9.07098">
        <ele>1520.94</ele>
        <time>2016-09-10T12:27:16Z</time>
      </trkpt>
      <trkpt lat="42.15183" lon="9.07101">
        <ele>1519.98</ele>
        <time>2016-09-10T12:27:24Z</time>
      </trkpt>
      <trkpt lat="42.15186" lon="9.07103">
        <ele>1518.06</ele>
        <time>2016-09-10T12:27:31Z</time>
      </trkpt>
      <trkpt lat="42.15191" lon="9.07106">
        <ele>1517.1</ele>
        <time>2016-09-10T12:27:39Z</time>
      </trkpt>
      <trkpt lat="42.15193" lon="9.07108">
        <ele>1515.66</ele>
        <time>2016-09-10T12:27:45Z</time>
      </trkpt>
      <trkpt lat="42.15195" lon="9.07112">
        <ele>1514.21</ele>
        <time>2016-09-10T12:27:52Z</time>
      </trkpt>
      <trkpt lat="42.15198" lon="9.07115">
        <ele>1512.77</ele>
        <time>2016-09-10T12:27:59Z</time>
      </trkpt>
      <trkpt lat="42.15198" lon="9.07117">
        <ele>1511.81</ele>
        <time>2016-09-10T12:28:05Z</time>
      </trkpt>
      <trkpt lat="42.15199" lon="9.07116">
        <ele>1511.81</ele>
        <time>2016-09-10T12:28:18Z</time>
      </trkpt>
      <trkpt lat="42.152" lon="9.07116">
        <ele>1511.81</ele>
        <time>2016-09-10T12:28:30Z</time>
      </trkpt>
      <trkpt lat="42.15204" lon="9.07118">
        <ele>1510.37</ele>
        <time>2016-09-10T12:28:37Z</time>
      </trkpt>
      <trkpt lat="42.15209" lon="9.0712">
        <ele>1508.93</ele>
        <time>2016-09-10T12:28:44Z</time>
      </trkpt>
      <trkpt lat="42.15214" lon="9.07122">
        <ele>1507.48</ele>
        <time>2016-09-10T12:28:51Z</time>
      </trkpt>
      <trkpt lat="42.15219" lon="9.07123">
        <ele>1506.52</ele>
        <time>2016-09-10T12:28:59Z</time>
      </trkpt>
      <trkpt lat="42.15223" lon="9.07125">
        <ele>1504.6</ele>
        <time>2016-09-10T12:29:06Z</time>
      </trkpt>
      <trkpt lat="42.15227" lon="9.07127">
        <ele>1503.64</ele>
        <time>2016-09-10T12:29:12Z</time>
      </trkpt>
      <trkpt lat="42.15231" lon="9.07129">
        <ele>1502.2</ele>
        <time>2016-09-10T12:29:18Z</time>
      </trkpt>
      <trkpt lat="42.15235" lon="9.07132">
        <ele>1500.76</ele>
        <time>2016-09-10T12:29:26Z</time>
      </trkpt>
      <trkpt lat="42.15239" lon="9.07135">
        <ele>1499.31</ele>
        <time>2016-09-10T12:29:33Z</time>
      </trkpt>
      <trkpt lat="42.15242" lon="9.07136">
        <ele>1498.35</ele>
        <time>2016-09-10T12:29:40Z</time>
      </trkpt>
      <trkpt lat="42.15246" lon="9.07138">
        <ele>1497.39</ele>
        <time>2016-09-10T12:29:48Z</time>
      </trkpt>
      <trkpt lat="42.15248" lon="9.07143">
        <ele>1495.95</ele>
        <time>2016-09-10T12:29:56Z</time>
      </trkpt>
      <trkpt lat="42.15249" lon="9.07146">
        <ele>1495.47</ele>
        <time>2016-09-10T12:30:00Z</time>
      </trkpt>
      <trkpt lat="42.15258" lon="9.07146">
        <ele>1493.55</ele>
        <time>2016-09-10T12:30:09Z</time>
      </trkpt>
      <trkpt lat="42.15261" lon="9.07148">
        <ele>1493.06</ele>
        <time>2016-09-10T12:30:14Z</time>
      </trkpt>
      <trkpt lat="42.15267" lon="9.07153">
        <ele>1491.62</ele>
        <time>2016-09-10T12:30:22Z</time>
      </trkpt>
      <trkpt lat="42.15267" lon="9.07153">
        <ele>1491.62</ele>
        <time>2016-09-10T12:30:23Z</time>
      </trkpt>
      <trkpt lat="42.15277" lon="9.07151">
        <ele>1490.18</ele>
        <time>2016-09-10T12:30:32Z</time>
      </trkpt>
      <trkpt lat="42.15283" lon="9.07148">
        <ele>1490.18</ele>
        <time>2016-09-10T12:30:38Z</time>
      </trkpt>
      <trkpt lat="42.15287" lon="9.07145">
        <ele>1489.7</ele>
        <time>2016-09-10T12:30:43Z</time>
      </trkpt>
      <trkpt lat="42.15289" lon="9.07145">
        <ele>1489.7</ele>
        <time>2016-09-10T12:30:45Z</time>
      </trkpt>
      <trkpt lat="42.15297" lon="9.07141">
        <ele>1489.22</ele>
        <time>2016-09-10T12:30:53Z</time>
      </trkpt>
      <trkpt lat="42.15301" lon="9.07139">
        <ele>1488.74</ele>
        <time>2016-09-10T12:30:59Z</time>
      </trkpt>
      <trkpt lat="42.15307" lon="9.07141">
        <ele>1488.26</ele>
        <time>2016-09-10T12:31:06Z</time>
      </trkpt>
      <trkpt lat="42.15308" lon="9.07142">
        <ele>1488.74</ele>
        <time>2016-09-10T12:31:08Z</time>
      </trkpt>
      <trkpt lat="42.1531" lon="9.07143">
        <ele>1488.26</ele>
        <time>2016-09-10T12:31:10Z</time>
      </trkpt>
      <trkpt lat="42.15318" lon="9.07147">
        <ele>1487.3</ele>
        <time>2016-09-10T12:31:18Z</time>
      </trkpt>
      <trkpt lat="42.15322" lon="9.0715">
        <ele>1487.3</ele>
        <time>2016-09-10T12:31:25Z</time>
      </trkpt>
      <trkpt lat="42.15323" lon="9.07151">
        <ele>1487.3</ele>
        <time>2016-09-10T12:31:32Z</time>
      </trkpt>
      <trkpt lat="42.15323" lon="9.07151">
        <ele>1487.3</ele>
        <time>2016-09-10T12:31:44Z</time>
      </trkpt>
      <trkpt lat="42.15323" lon="9.07151">
        <ele>1486.82</ele>
        <time>2016-09-10T12:31:53Z</time>
      </trkpt>
      <trkpt lat="42.15323" lon="9.07151">
        <ele>1486.34</ele>
        <time>2016-09-10T12:32:02Z</time>
      </trkpt>
      <trkpt lat="42.15324" lon="9.07151">
        <ele>1486.82</ele>
        <time>2016-09-10T12:32:21Z</time>
      </trkpt>
      <trkpt lat="42.15325" lon="9.07151">
        <ele>1486.34</ele>
        <time>2016-09-10T12:32:30Z</time>
      </trkpt>
      <trkpt lat="42.15327" lon="9.07153">
        <ele>1485.85</ele>
        <time>2016-09-10T12:32:37Z</time>
      </trkpt>
      <trkpt lat="42.15331" lon="9.07156">
        <ele>1485.37</ele>
        <time>2016-09-10T12:32:45Z</time>
      </trkpt>
      <trkpt lat="42.15333" lon="9.07156">
        <ele>1485.37</ele>
        <time>2016-09-10T12:32:51Z</time>
      </trkpt>
      <trkpt lat="42.15336" lon="9.07155">
        <ele>1484.89</ele>
        <time>2016-09-10T12:33:06Z</time>
      </trkpt>
      <trkpt lat="42.1534" lon="9.07165">
        <ele>1484.41</ele>
        <time>2016-09-10T12:33:14Z</time>
      </trkpt>
      <trkpt lat="42.15344" lon="9.07171">
        <ele>1483.45</ele>
        <time>2016-09-10T12:33:21Z</time>
      </trkpt>
      <trkpt lat="42.15349" lon="9.07174">
        <ele>1482.49</ele>
        <time>2016-09-10T12:33:28Z</time>
      </trkpt>
      <trkpt lat="42.15353" lon="9.07177">
        <ele>1481.05</ele>
        <time>2016-09-10T12:33:35Z</time>
      </trkpt>
      <trkpt lat="42.15355" lon="9.07179">
        <ele>1480.09</ele>
        <time>2016-09-10T12:33:41Z</time>
      </trkpt>
      <trkpt lat="42.15355" lon="9.07181">
        <ele>1479.13</ele>
        <time>2016-09-10T12:33:47Z</time>
      </trkpt>
      <trkpt lat="42.15355" lon="9.07185">
        <ele>1477.68</ele>
        <time>2016-09-10T12:33:54Z</time>
      </trkpt>
      <trkpt lat="42.15354" lon="9.07187">
        <ele>1476.72</ele>
        <time>2016-09-10T12:34:01Z</time>
      </trkpt>
      <trkpt lat="42.15349" lon="9.0719">
        <ele>1475.76</ele>
        <time>2016-09-10T12:34:09Z</time>
      </trkpt>
      <trkpt lat="42.15349" lon="9.07191">
        <ele>1475.76</ele>
        <time>2016-09-10T12:34:19Z</time>
      </trkpt>
      <trkpt lat="42.15349" lon="9.0719">
        <ele>1475.76</ele>
        <time>2016-09-10T12:34:34Z</time>
      </trkpt>
      <trkpt lat="42.15349" lon="9.0719">
        <ele>1475.76</ele>
        <time>2016-09-10T12:34:48Z</time>
      </trkpt>
      <trkpt lat="42.15349" lon="9.0719">
        <ele>1475.76</ele>
        <time>2016-09-10T12:35:06Z</time>
      </trkpt>
      <trkpt lat="42.15349" lon="9.07191">
        <ele>1475.76</ele>
        <time>2016-09-10T12:35:26Z</time>
      </trkpt>
      <trkpt lat="42.15349" lon="9.0719">
        <ele>1475.76</ele>
        <time>2016-09-10T12:35:43Z</time>
      </trkpt>
      <trkpt lat="42.15349" lon="9.0719">
        <ele>1475.28</ele>
        <time>2016-09-10T12:36:00Z</time>
      </trkpt>
      <trkpt lat="42.15349" lon="9.0719">
        <ele>1475.28</ele>
        <time>2016-09-10T12:36:13Z</time>
      </trkpt>
      <trkpt lat="42.15349" lon="9.0719">
        <ele>1475.28</ele>
        <time>2016-09-10T12:36:26Z</time>
      </trkpt>
      <trkpt lat="42.15349" lon="9.07191">
        <ele>1475.28</ele>
        <time>2016-09-10T12:36:41Z</time>
      </trkpt>
      <trkpt lat="42.15349" lon="9.07191">
        <ele>1475.28</ele>
        <time>2016-09-10T12:36:59Z</time>
      </trkpt>
      <trkpt lat="42.15348" lon="9.07191">
        <ele>1475.28</ele>
        <time>2016-09-10T12:37:14Z</time>
      </trkpt>
      <trkpt lat="42.15348" lon="9.07192">
        <ele>1475.28</ele>
        <time>2016-09-10T12:37:32Z</time>
      </trkpt>
      <trkpt lat="42.15344" lon="9.07191">
        <ele>1474.8</ele>
        <time>2016-09-10T12:37:40Z</time>
      </trkpt>
      <trkpt lat="42.15342" lon="9.07194">
        <ele>1474.32</ele>
        <time>2016-09-10T12:37:46Z</time>
      </trkpt>
      <trkpt lat="42.15339" lon="9.07195">
        <ele>1473.36</ele>
        <time>2016-09-10T12:37:53Z</time>
      </trkpt>
      <trkpt lat="42.15336" lon="9.07196">
        <ele>1473.36</ele>
        <time>2016-09-10T12:38:00Z</time>
      </trkpt>
      <trkpt lat="42.15333" lon="9.07197">
        <ele>1471.92</ele>
        <time>2016-09-10T12:38:09Z</time>
      </trkpt>
      <trkpt lat="42.15329" lon="9.07203">
        <ele>1470.95</ele>
        <time>2016-09-10T12:38:17Z</time>
      </trkpt>
      <trkpt lat="42.15328" lon="9.07204">
        <ele>1470.47</ele>
        <time>2016-09-10T12:38:18Z</time>
      </trkpt>
      <trkpt lat="42.15324" lon="9.07207">
        <ele>1469.51</ele>
        <time>2016-09-10T12:38:24Z</time>
      </trkpt>
      <trkpt lat="42.15318" lon="9.07209">
        <ele>1468.55</ele>
        <time>2016-09-10T12:38:31Z</time>
      </trkpt>
      <trkpt lat="42.15312" lon="9.07213">
        <ele>1468.07</ele>
        <time>2016-09-10T12:38:39Z</time>
      </trkpt>
      <trkpt lat="42.15307" lon="9.07215">
        <ele>1466.63</ele>
        <time>2016-09-10T12:38:47Z</time>
      </trkpt>
      <trkpt lat="42.15305" lon="9.07216">
        <ele>1466.15</ele>
        <time>2016-09-10T12:38:53Z</time>
      </trkpt>
      <trkpt lat="42.15302" lon="9.0722">
        <ele>1465.19</ele>
        <time>2016-09-10T12:39:01Z</time>
      </trkpt>
      <trkpt lat="42.15301" lon="9.07223">
        <ele>1464.23</ele>
        <time>2016-09-10T12:39:07Z</time>
      </trkpt>
      <trkpt lat="42.15298" lon="9.07225">
        <ele>1463.26</ele>
        <time>2016-09-10T12:39:13Z</time>
      </trkpt>
      <trkpt lat="42.15295" lon="9.07227">
        <ele>1461.82</ele>
        <time>2016-09-10T12:39:20Z</time>
      </trkpt>
      <trkpt lat="42.15291" lon="9.0723">
        <ele>1460.38</ele>
        <time>2016-09-10T12:39:28Z</time>
      </trkpt>
      <trkpt lat="42.15289" lon="9.07231">
        <ele>1459.42</ele>
        <time>2016-09-10T12:39:34Z</time>
      </trkpt>
      <trkpt lat="42.15284" lon="9.07234">
        <ele>1458.46</ele>
        <time>2016-09-10T12:39:41Z</time>
      </trkpt>
      <trkpt lat="42.15282" lon="9.07235">
        <ele>1457.98</ele>
        <time>2016-09-10T12:39:43Z</time>
      </trkpt>
      <trkpt lat="42.15275" lon="9.07236">
        <ele>1457.02</ele>
        <time>2016-09-10T12:39:52Z</time>
      </trkpt>
      <trkpt lat="42.15272" lon="9.0724">
        <ele>1455.57</ele>
        <time>2016-09-10T12:39:59Z</time>
      </trkpt>
      <trkpt lat="42.1527" lon="9.07244">
        <ele>1454.61</ele>
        <time>2016-09-10T12:40:06Z</time>
      </trkpt>
      <trkpt lat="42.15269" lon="9.07246">
        <ele>1453.65</ele>
        <time>2016-09-10T12:40:13Z</time>
      </trkpt>
      <trkpt lat="42.15268" lon="9.07248">
        <ele>1452.69</ele>
        <time>2016-09-10T12:40:19Z</time>
      </trkpt>
      <trkpt lat="42.15271" lon="9.07251">
        <ele>1451.73</ele>
        <time>2016-09-10T12:40:27Z</time>
      </trkpt>
      <trkpt lat="42.1527" lon="9.07251">
        <ele>1450.77</ele>
        <time>2016-09-10T12:40:34Z</time>
      </trkpt>
      <trkpt lat="42.15268" lon="9.07254">
        <ele>1449.81</ele>
        <time>2016-09-10T12:40:40Z</time>
      </trkpt>
      <trkpt lat="42.15269" lon="9.07256">
        <ele>1449.32</ele>
        <time>2016-09-10T12:40:46Z</time>
      </trkpt>
      <trkpt lat="42.15271" lon="9.07259">
        <ele>1447.88</ele>
        <time>2016-09-10T12:40:54Z</time>
      </trkpt>
      <trkpt lat="42.15272" lon="9.07261">
        <ele>1446.44</ele>
        <time>2016-09-10T12:41:01Z</time>
      </trkpt>
      <trkpt lat="42.15271" lon="9.07263">
        <ele>1445.48</ele>
        <time>2016-09-10T12:41:09Z</time>
      </trkpt>
      <trkpt lat="42.15273" lon="9.07266">
        <ele>1444.52</ele>
        <time>2016-09-10T12:41:17Z</time>
      </trkpt>
      <trkpt lat="42.15275" lon="9.07269">
        <ele>1444.04</ele>
        <time>2016-09-10T12:41:23Z</time>
      </trkpt>
      <trkpt lat="42.15272" lon="9.0727">
        <ele>1442.6</ele>
        <time>2016-09-10T12:41:29Z</time>
      </trkpt>
      <trkpt lat="42.15273" lon="9.07272">
        <ele>1441.15</ele>
        <time>2016-09-10T12:41:38Z</time>
      </trkpt>
      <trkpt lat="42.15276" lon="9.07277">
        <ele>1439.71</ele>
        <time>2016-09-10T12:41:45Z</time>
      </trkpt>
      <trkpt lat="42.15277" lon="9.0728">
        <ele>1438.27</ele>
        <time>2016-09-10T12:41:52Z</time>
      </trkpt>
      <trkpt lat="42.15279" lon="9.07282">
        <ele>1436.83</ele>
        <time>2016-09-10T12:41:59Z</time>
      </trkpt>
      <trkpt lat="42.15278" lon="9.07282">
        <ele>1435.87</ele>
        <time>2016-09-10T12:42:05Z</time>
      </trkpt>
      <trkpt lat="42.15277" lon="9.07285">
        <ele>1434.91</ele>
        <time>2016-09-10T12:42:11Z</time>
      </trkpt>
      <trkpt lat="42.15277" lon="9.07285">
        <ele>1433.94</ele>
        <time>2016-09-10T12:42:20Z</time>
      </trkpt>
      <trkpt lat="42.15278" lon="9.07286">
        <ele>1433.46</ele>
        <time>2016-09-10T12:42:28Z</time>
      </trkpt>
      <trkpt lat="42.15278" lon="9.0729">
        <ele>1432.5</ele>
        <time>2016-09-10T12:42:33Z</time>
      </trkpt>
      <trkpt lat="42.15278" lon="9.07292">
        <ele>1431.54</ele>
        <time>2016-09-10T12:42:40Z</time>
      </trkpt>
      <trkpt lat="42.15278" lon="9.07293">
        <ele>1430.1</ele>
        <time>2016-09-10T12:42:47Z</time>
      </trkpt>
      <trkpt lat="42.15278" lon="9.07293">
        <ele>1429.14</ele>
        <time>2016-09-10T12:42:53Z</time>
      </trkpt>
      <trkpt lat="42.15278" lon="9.07295">
        <ele>1427.7</ele>
        <time>2016-09-10T12:43:00Z</time>
      </trkpt>
      <trkpt lat="42.15279" lon="9.07297">
        <ele>1426.73</ele>
        <time>2016-09-10T12:43:07Z</time>
      </trkpt>
      <trkpt lat="42.15278" lon="9.07302">
        <ele>1425.77</ele>
        <time>2016-09-10T12:43:14Z</time>
      </trkpt>
      <trkpt lat="42.1528" lon="9.07306">
        <ele>1424.81</ele>
        <time>2016-09-10T12:43:21Z</time>
      </trkpt>
      <trkpt lat="42.15282" lon="9.07308">
        <ele>1423.85</ele>
        <time>2016-09-10T12:43:29Z</time>
      </trkpt>
      <trkpt lat="42.15288" lon="9.07312">
        <ele>1422.41</ele>
        <time>2016-09-10T12:43:36Z</time>
      </trkpt>
      <trkpt lat="42.15291" lon="9.07312">
        <ele>1421.93</ele>
        <time>2016-09-10T12:43:41Z</time>
      </trkpt>
      <trkpt lat="42.15292" lon="9.07312">
        <ele>1420.97</ele>
        <time>2016-09-10T12:43:47Z</time>
      </trkpt>
      <trkpt lat="42.15293" lon="9.07313">
        <ele>1420</ele>
        <time>2016-09-10T12:43:54Z</time>
      </trkpt>
      <trkpt lat="42.15294" lon="9.07319">
        <ele>1418.56</ele>
        <time>2016-09-10T12:44:02Z</time>
      </trkpt>
      <trkpt lat="42.15299" lon="9.07324">
        <ele>1417.12</ele>
        <time>2016-09-10T12:44:09Z</time>
      </trkpt>
      <trkpt lat="42.15303" lon="9.07323">
        <ele>1415.68</ele>
        <time>2016-09-10T12:44:17Z</time>
      </trkpt>
      <trkpt lat="42.15303" lon="9.07326">
        <ele>1415.2</ele>
        <time>2016-09-10T12:44:21Z</time>
      </trkpt>
      <trkpt lat="42.15306" lon="9.07329">
        <ele>1414.24</ele>
        <time>2016-09-10T12:44:28Z</time>
      </trkpt>
      <trkpt lat="42.15308" lon="9.0733">
        <ele>1413.28</ele>
        <time>2016-09-10T12:44:34Z</time>
      </trkpt>
      <trkpt lat="42.15311" lon="9.07333">
        <ele>1411.83</ele>
        <time>2016-09-10T12:44:42Z</time>
      </trkpt>
      <trkpt lat="42.15312" lon="9.07331">
        <ele>1411.83</ele>
        <time>2016-09-10T12:44:56Z</time>
      </trkpt>
      <trkpt lat="42.15313" lon="9.07333">
        <ele>1411.35</ele>
        <time>2016-09-10T12:45:09Z</time>
      </trkpt>
      <trkpt lat="42.15309" lon="9.07334">
        <ele>1410.39</ele>
        <time>2016-09-10T12:45:15Z</time>
      </trkpt>
      <trkpt lat="42.15308" lon="9.07335">
        <ele>1409.91</ele>
        <time>2016-09-10T12:45:17Z</time>
      </trkpt>
      <trkpt lat="42.15303" lon="9.07338">
        <ele>1408.47</ele>
        <time>2016-09-10T12:45:24Z</time>
      </trkpt>
      <trkpt lat="42.15301" lon="9.07343">
        <ele>1407.03</ele>
        <time>2016-09-10T12:45:31Z</time>
      </trkpt>
      <trkpt lat="42.153" lon="9.07344">
        <ele>1405.58</ele>
        <time>2016-09-10T12:45:38Z</time>
      </trkpt>
      <trkpt lat="42.15296" lon="9.07359">
        <ele>1404.14</ele>
        <time>2016-09-10T12:45:45Z</time>
      </trkpt>
      <trkpt lat="42.15299" lon="9.0736">
        <ele>1403.18</ele>
        <time>2016-09-10T12:45:52Z</time>
      </trkpt>
      <trkpt lat="42.153" lon="9.07362">
        <ele>1402.22</ele>
        <time>2016-09-10T12:45:57Z</time>
      </trkpt>
      <trkpt lat="42.15302" lon="9.07364">
        <ele>1401.74</ele>
        <time>2016-09-10T12:46:02Z</time>
      </trkpt>
      <trkpt lat="42.15303" lon="9.07369">
        <ele>1400.3</ele>
        <time>2016-09-10T12:46:09Z</time>
      </trkpt>
      <trkpt lat="42.15302" lon="9.07375">
        <ele>1399.34</ele>
        <time>2016-09-10T12:46:15Z</time>
      </trkpt>
      <trkpt lat="42.15305" lon="9.0738">
        <ele>1398.37</ele>
        <time>2016-09-10T12:46:20Z</time>
      </trkpt>
      <trkpt lat="42.15313" lon="9.07382">
        <ele>1396.93</ele>
        <time>2016-09-10T12:46:28Z</time>
      </trkpt>
      <trkpt lat="42.15318" lon="9.07387">
        <ele>1396.45</ele>
        <time>2016-09-10T12:46:35Z</time>
      </trkpt>
      <trkpt lat="42.15319" lon="9.07387">
        <ele>1396.45</ele>
        <time>2016-09-10T12:46:36Z</time>
      </trkpt>
      <trkpt lat="42.15325" lon="9.07385">
        <ele>1395.97</ele>
        <time>2016-09-10T12:46:43Z</time>
      </trkpt>
      <trkpt lat="42.15326" lon="9.07384">
        <ele>1395.97</ele>
        <time>2016-09-10T12:46:50Z</time>
      </trkpt>
      <trkpt lat="42.15326" lon="9.07384">
        <ele>1395.97</ele>
        <time>2016-09-10T12:47:03Z</time>
      </trkpt>
      <trkpt lat="42.15325" lon="9.07384">
        <ele>1395.97</ele>
        <time>2016-09-10T12:47:12Z</time>
      </trkpt>
      <trkpt lat="42.15325" lon="9.07384">
        <ele>1395.97</ele>
        <time>2016-09-10T12:47:20Z</time>
      </trkpt>
      <trkpt lat="42.15324" lon="9.07384">
        <ele>1395.97</ele>
        <time>2016-09-10T12:47:34Z</time>
      </trkpt>
      <trkpt lat="42.15325" lon="9.07384">
        <ele>1395.97</ele>
        <time>2016-09-10T12:47:47Z</time>
      </trkpt>
      <trkpt lat="42.15325" lon="9.07384">
        <ele>1395.49</ele>
        <time>2016-09-10T12:48:02Z</time>
      </trkpt>
      <trkpt lat="42.15325" lon="9.07384">
        <ele>1395.49</ele>
        <time>2016-09-10T12:48:10Z</time>
      </trkpt>
      <trkpt lat="42.15325" lon="9.07384">
        <ele>1395.49</ele>
        <time>2016-09-10T12:48:21Z</time>
      </trkpt>
      <trkpt lat="42.15325" lon="9.07384">
        <ele>1395.49</ele>
        <time>2016-09-10T12:48:31Z</time>
      </trkpt>
      <trkpt lat="42.15325" lon="9.07384">
        <ele>1395.49</ele>
        <time>2016-09-10T12:48:41Z</time>
      </trkpt>
      <trkpt lat="42.15325" lon="9.07384">
        <ele>1395.49</ele>
        <time>2016-09-10T12:48:53Z</time>
      </trkpt>
      <trkpt lat="42.15325" lon="9.07385">
        <ele>1395.49</ele>
        <time>2016-09-10T12:49:02Z</time>
      </trkpt>
      <trkpt lat="42.15324" lon="9.07385">
        <ele>1395.49</ele>
        <time>2016-09-10T12:49:10Z</time>
      </trkpt>
      <trkpt lat="42.15326" lon="9.07385">
        <ele>1395.01</ele>
        <time>2016-09-10T12:49:22Z</time>
      </trkpt>
      <trkpt lat="42.15326" lon="9.07386">
        <ele>1395.49</ele>
        <time>2016-09-10T12:49:35Z</time>
      </trkpt>
      <trkpt lat="42.15324" lon="9.07386">
        <ele>1395.49</ele>
        <time>2016-09-10T12:49:44Z</time>
      </trkpt>
      <trkpt lat="42.15324" lon="9.07385">
        <ele>1395.49</ele>
        <time>2016-09-10T12:49:58Z</time>
      </trkpt>
      <trkpt lat="42.15324" lon="9.07386">
        <ele>1395.49</ele>
        <time>2016-09-10T12:50:07Z</time>
      </trkpt>
      <trkpt lat="42.15324" lon="9.07386">
        <ele>1394.05</ele>
        <time>2016-09-10T12:50:20Z</time>
      </trkpt>
      <trkpt lat="42.15324" lon="9.07386">
        <ele>1396.45</ele>
        <time>2016-09-10T12:50:30Z</time>
      </trkpt>
      <trkpt lat="42.15325" lon="9.07387">
        <ele>1395.49</ele>
        <time>2016-09-10T12:50:39Z</time>
      </trkpt>
    </trkseg>
  </trk>
</gpx>